GFSMW_sfc_wetblb_000.txt.gz
Wetbulb
53.06 52.32 51.63 51.63 50.88 50.97 50.09 50.27 50.28 50.82 50.63 50.28 50.19 50.47 50.48 51.52 52.65 52.78 51.96 52.07 52.62 51.99 52.67 51.87 51.02 51.56 50.65 50.18 49.85 49.05 48.54 48.61 50.96 48.99 51.60 54.78 58.99 60.15 59.05 59.58 61.36 59.27 56.58
51.04 50.61 51.08 51.31 50.86 50.74 50.51 50.08 50.01 50.54 50.57 50.54 51.07 51.57 51.04 51.11 52.23 52.31 51.91 51.91 51.73 51.71 51.23 50.43 50.22 50.60 49.46 49.80 49.80 49.16 47.34 47.15 48.91 45.99 45.74 48.87 54.63 57.73 57.53 58.69 59.22 60.23 59.07
49.62 49.95 49.71 50.56 51.15 50.72 51.06 50.41 50.29 50.08 50.49 50.47 50.15 50.08 49.97 49.85 49.40 49.94 50.57 51.64 51.99 52.10 51.99 51.40 50.78 50.53 50.25 48.90 49.18 49.15 47.93 45.59 47.08 47.35 46.02 42.42 45.02 46.87 54.23 57.81 57.91 58.56 57.80
49.24 48.82 49.77 50.18 50.78 51.45 52.02 51.02 50.41 49.85 49.82 50.73 49.39 49.10 48.06 47.21 48.64 49.26 49.94 50.37 51.09 51.48 51.66 51.56 51.58 51.44 50.76 49.43 48.92 48.43 48.41 47.59 45.52 46.63 46.62 48.48 45.71 41.12 41.79 49.88 51.03 56.25 56.34
49.13 49.11 49.51 49.93 50.93 51.50 51.65 51.37 50.29 49.62 49.58 49.61 49.92 48.94 48.37 48.51 49.15 49.04 49.00 49.56 50.12 50.26 50.36 50.59 51.09 51.02 50.73 50.09 49.68 49.31 48.28 47.73 46.46 45.72 45.58 45.62 45.26 45.04 43.32 40.25 45.02 50.14 51.94
49.84 49.74 49.17 49.27 49.87 51.56 50.83 50.71 49.61 48.98 49.36 49.35 49.19 48.56 47.92 48.01 46.97 47.36 46.76 47.04 47.52 47.92 48.22 48.35 48.45 48.60 48.60 48.43 48.56 48.92 48.73 48.16 47.46 46.62 45.97 44.42 42.89 42.36 42.23 42.92 43.83 43.15 46.35
50.35 50.48 49.73 48.54 49.00 49.54 49.58 49.15 48.59 47.84 48.56 48.07 48.02 47.98 47.72 47.35 45.82 44.97 45.42 44.47 43.97 44.60 45.30 45.53 45.30 45.18 45.42 45.57 45.80 45.96 46.17 46.69 46.02 46.17 45.43 45.62 44.70 44.72 43.25 41.87 40.96 40.72 44.71
51.08 50.51 49.68 49.42 49.23 49.01 49.26 49.02 47.60 47.10 47.86 46.92 46.72 46.83 45.91 44.94 44.98 42.88 43.99 43.12 42.31 41.77 43.11 42.76 43.10 43.59 43.65 43.80 43.88 43.67 44.30 44.93 46.37 45.85 46.40 45.67 44.71 44.68 43.92 42.03 40.79 39.14 40.77
50.34 50.26 50.06 48.94 49.06 49.33 49.38 48.86 47.51 46.62 46.13 45.51 44.89 43.91 43.96 42.40 41.58 42.27 42.87 42.72 42.54 41.82 41.89 42.03 41.83 42.10 42.28 42.48 42.75 42.30 43.00 44.06 45.55 46.22 46.31 46.08 46.89 45.53 44.50 43.93 43.05 40.19 36.49
50.37 50.71 50.86 50.48 50.02 50.11 49.35 48.59 47.08 45.46 44.66 43.91 42.94 42.54 42.00 41.57 41.78 41.72 41.16 41.58 41.68 41.41 41.06 40.74 40.90 40.84 40.90 41.24 41.28 41.08 42.22 41.76 43.77 44.30 43.88 44.45 45.45 45.18 44.67 43.55 43.23 42.76 40.44
50.43 50.44 50.52 51.24 51.02 49.02 46.50 44.75 44.38 44.35 42.73 42.23 41.74 41.31 41.26 40.77 41.05 40.78 40.89 40.70 40.68 40.32 39.68 39.55 39.38 39.09 39.11 39.70 39.56 39.75 40.12 39.82 40.61 42.19 43.18 43.40 44.20 44.20 44.31 43.74 42.77 41.74 41.80
50.59 50.46 50.73 50.22 48.54 45.33 44.33 43.28 43.64 42.84 42.31 41.93 40.82 40.65 40.72 40.24 39.96 40.04 40.07 40.42 39.28 39.57 39.11 38.60 37.99 37.73 37.74 38.03 37.69 37.46 38.20 38.06 38.34 39.35 39.95 40.80 42.20 42.71 43.73 43.45 41.52 41.28 42.34
49.64 49.92 50.37 48.19 45.63 43.99 43.29 42.03 42.39 41.79 41.52 40.85 40.11 39.54 39.23 39.71 39.52 39.76 39.75 39.52 38.89 38.34 37.95 37.24 36.48 36.36 36.34 36.40 36.78 36.83 36.79 37.13 37.56 38.30 38.56 39.13 39.68 40.43 41.82 41.67 41.51 41.55 40.87
48.06 48.63 49.17 47.39 43.94 42.85 42.40 41.10 41.32 41.55 40.85 40.24 39.34 38.98 39.13 38.90 39.31 39.13 38.66 38.31 37.78 36.40 36.03 36.10 35.76 35.63 35.55 35.45 35.63 35.72 35.37 35.22 34.98 35.59 36.25 36.65 37.35 37.90 38.84 39.68 39.98 40.51 40.38
47.14 47.56 46.39 45.56 42.96 41.70 41.29 40.60 41.26 40.66 40.38 39.36 39.32 39.09 39.26 39.24 38.61 37.96 37.72 37.05 36.02 35.41 35.54 34.74 34.77 34.96 34.79 34.57 34.92 34.23 32.92 32.18 31.69 33.17 33.33 34.54 35.04 35.47 36.17 36.99 38.63 39.48 39.17
46.61 45.84 44.67 42.68 40.96 40.28 40.00 40.93 40.38 41.07 41.02 39.51 38.74 38.69 38.20 38.05 37.33 36.92 36.01 35.24 34.73 34.60 34.61 33.91 33.71 33.83 33.66 32.39 31.51 30.19 29.75 29.41 29.85 30.80 32.30 33.41 34.14 34.30 33.65 33.81 34.30 35.74 36.09
42.62 43.86 42.23 41.03 39.93 39.72 41.97 41.90 42.39 41.71 39.35 38.47 38.05 37.39 37.13 35.95 35.71 35.07 34.23 33.44 33.21 33.68 33.08 33.23 33.44 32.78 33.05 31.52 30.11 29.50 29.70 30.11 30.48 31.09 32.03 32.45 33.67 33.52 33.92 33.70 33.01 32.94 33.40
41.27 43.11 41.33 39.66 40.33 42.71 43.02 42.38 40.31 38.90 38.10 37.15 36.46 36.47 35.67 34.69 34.41 33.45 32.74 32.65 32.69 32.11 32.09 32.33 32.32 31.59 31.31 29.96 29.44 28.88 29.91 30.39 30.84 31.05 31.72 31.96 32.93 33.70 33.46 33.72 33.87 34.72 36.11
41.33 40.18 39.16 41.28 42.30 42.33 42.24 40.16 38.10 38.17 36.42 35.71 35.44 35.01 34.60 33.50 32.63 31.76 31.24 31.60 31.26 31.37 31.42 31.39 30.74 29.48 29.97 29.40 28.78 28.75 30.11 29.90 30.15 31.04 31.75 31.96 32.11 32.45 33.05 32.46 32.14 32.66 34.27
44.31 39.49 40.09 40.92 40.38 41.31 41.01 37.64 37.07 36.59 35.47 35.47 34.12 34.25 34.01 32.41 31.38 31.07 30.51 31.27 31.42 30.65 30.66 29.32 29.44 28.96 29.52 28.95 28.67 29.03 29.90 29.36 29.74 31.04 32.26 31.20 31.72 31.26 31.31 32.14 31.85 31.29 32.37
43.30 39.69 38.29 38.19 41.03 40.86 37.58 36.07 36.45 35.07 34.79 33.86 33.87 33.62 32.79 31.61 30.88 30.41 31.11 30.73 30.27 29.45 29.16 29.02 29.98 30.26 30.35 30.76 30.04 30.33 30.61 30.61 30.52 30.81 32.31 34.15 31.93 31.36 31.46 31.63 32.77 32.28 33.72
37.39 37.62 39.07 39.68 40.54 40.64 37.60 36.35 35.44 34.56 33.65 33.46 33.05 32.35 31.96 30.46 29.64 30.01 30.13 29.82 29.24 28.96 28.19 28.47 29.95 32.28 32.89 32.59 32.74 32.09 31.08 31.13 30.77 30.87 32.03 32.81 30.97 30.24 31.97 31.66 31.42 31.26 31.69
38.18 39.88 39.45 39.52 40.00 36.59 36.23 35.00 33.75 33.43 32.68 32.40 31.88 31.36 30.72 29.65 29.82 28.90 28.22 28.41 28.69 26.97 26.41 27.49 29.02 30.84 32.94 33.36 31.54 30.67 30.35 29.73 29.23 30.44 30.15 28.10 28.62 29.33 30.25 31.76 31.37 30.85 32.63
39.21 39.60 38.94 37.45 35.75 35.67 34.20 34.52 32.85 32.32 31.83 30.90 30.40 30.20 28.86 27.69 28.86 28.68 29.21 28.31 26.38 25.36 25.36 26.66 28.49 29.50 30.27 30.94 31.79 31.38 31.57 30.40 30.40 30.08 30.35 29.77 29.02 31.35 32.92 32.89 31.90 32.39 33.41
38.61 38.00 36.87 35.69 34.92 34.79 33.73 33.13 32.43 31.60 30.72 29.31 28.41 28.16 27.46 27.17 27.19 27.95 27.99 27.29 27.86 26.44 25.60 26.76 27.52 27.67 27.70 28.97 30.06 29.43 28.86 29.28 28.81 28.22 30.44 29.84 28.75 29.63 31.63 33.49 32.41 32.68 33.09
37.68 37.57 35.89 34.58 34.39 33.91 33.10 32.66 32.26 30.93 29.39 27.62 27.80 27.09 26.29 26.97 27.24 27.22 27.17 28.57 27.11 26.66 26.71 26.95 27.50 28.21 28.14 29.50 29.51 28.28 27.80 27.74 27.51 28.95 27.70 27.45 27.92 27.17 27.63 28.55 31.13 32.71 32.43

GFSMW_sfc_wetblb_006.txt.gz
Wetbulb
54.24 56.61 56.63 56.49 55.30 56.07 54.72 54.01 53.37 53.87 52.73 51.92 51.04 50.91 50.79 51.92 52.56 52.83 53.14 52.91 52.31 52.26 51.05 50.33 49.77 50.14 49.08 48.34 48.09 47.41 46.25 45.86 47.09 45.08 43.82 44.40 45.85 46.32 49.33 54.66 58.30 59.05 59.41
52.91 54.55 55.71 55.79 55.32 54.65 54.53 53.77 53.43 53.43 52.75 51.78 51.56 51.68 51.92 51.61 51.80 52.32 52.11 52.15 52.71 51.78 51.32 50.45 48.90 49.12 47.93 47.93 48.16 47.54 45.26 45.86 45.98 43.79 42.80 39.67 41.90 45.57 46.09 47.80 52.86 54.35 57.23
51.24 52.66 54.83 55.08 55.65 54.40 54.36 54.31 53.38 52.93 52.87 51.97 51.57 51.48 51.32 50.19 49.29 49.63 50.02 51.36 51.91 52.21 51.74 50.85 49.71 48.83 48.46 47.44 46.91 46.05 45.60 43.33 44.73 44.87 42.62 39.03 37.71 41.06 43.87 44.26 45.47 46.90 51.00
52.82 53.03 54.15 53.64 54.84 54.33 55.61 54.69 54.08 53.15 53.02 53.04 50.42 49.63 48.15 46.57 47.88 48.26 49.30 49.90 51.72 51.28 51.12 50.73 50.41 49.07 48.33 47.28 47.51 47.94 46.74 44.93 42.42 44.31 46.41 43.95 42.91 39.60 38.38 42.15 43.31 44.18 44.76
52.50 52.08 52.31 53.29 54.45 54.28 54.94 54.51 54.16 53.69 53.26 52.63 51.43 49.61 48.41 48.41 48.75 48.84 49.43 49.20 49.16 50.08 50.03 49.87 49.45 47.91 47.54 47.03 45.96 45.57 45.44 45.27 43.91 43.35 42.90 42.64 43.14 43.04 40.69 38.24 40.72 42.77 43.56
51.76 52.28 53.03 53.58 52.93 54.62 54.19 54.74 53.82 53.14 53.27 52.50 51.72 50.06 47.84 48.20 47.64 47.59 46.43 47.30 47.69 47.35 48.27 47.25 45.96 45.75 45.14 44.21 43.61 43.24 43.09 42.96 42.88 42.66 42.72 41.91 40.33 40.03 39.71 38.55 39.71 39.97 41.67
51.65 51.99 52.01 52.29 52.76 52.97 53.84 54.41 53.46 52.20 52.71 52.45 51.80 50.38 49.41 48.54 47.59 47.45 46.45 46.01 44.49 44.25 44.21 44.44 43.79 43.24 43.00 43.08 42.69 41.62 40.97 41.10 40.90 40.48 40.45 41.11 41.02 41.82 40.97 39.25 37.64 37.53 40.45
52.45 52.15 53.35 53.54 53.31 53.57 53.61 53.19 52.45 51.65 52.25 51.93 51.52 50.63 49.93 48.13 47.71 47.29 45.99 43.65 43.00 43.24 44.02 43.04 43.00 42.86 42.76 41.96 41.42 40.74 40.35 40.15 40.00 39.67 40.46 40.81 41.06 41.41 41.13 39.96 38.57 36.44 37.87
52.23 52.71 53.00 53.35 53.18 53.22 52.83 52.31 52.35 52.63 52.06 51.87 51.25 50.00 48.94 47.85 46.05 46.36 44.21 43.26 43.50 43.11 43.24 42.64 42.09 41.94 41.52 41.01 40.28 39.24 39.06 39.71 39.52 39.49 39.79 39.88 40.62 41.41 41.34 41.21 40.39 37.59 34.07
52.01 52.40 52.37 52.14 52.62 52.90 53.33 53.26 52.96 51.07 50.47 50.39 50.23 47.64 46.41 45.69 44.38 43.82 42.97 42.47 42.06 42.02 41.81 41.33 41.01 40.38 39.86 39.66 38.87 37.68 38.25 38.30 38.45 38.96 38.53 38.77 39.48 39.78 40.23 40.30 40.60 40.84 38.82
51.93 51.87 52.14 52.58 52.27 52.73 51.88 51.24 49.97 49.07 48.52 47.81 47.39 44.91 44.37 44.04 42.90 42.23 41.67 41.33 41.55 41.10 40.82 40.27 39.33 39.11 38.59 38.35 37.34 36.96 37.39 36.77 36.66 37.34 37.16 37.11 38.11 37.70 38.23 38.87 38.96 38.61 38.76
51.15 50.77 50.91 51.25 51.17 50.96 50.69 50.72 48.77 47.46 46.88 46.57 44.49 43.38 42.88 42.37 41.21 41.10 41.36 41.75 40.63 40.92 40.27 39.60 39.07 38.49 37.95 37.45 36.51 35.79 36.26 35.71 35.04 35.47 35.59 35.68 37.90 36.27 37.08 37.43 37.03 37.45 38.20
49.70 50.06 50.37 49.84 49.82 49.43 49.48 49.95 47.69 46.49 45.71 44.01 42.90 41.73 41.13 40.84 40.47 40.72 41.16 40.59 40.35 39.57 39.27 38.94 37.76 37.31 36.76 36.21 35.87 35.70 35.26 34.78 34.76 34.71 34.29 34.59 35.04 34.30 35.15 35.80 35.95 36.64 38.18
49.45 49.59 49.03 48.88 49.05 49.05 48.61 48.15 46.18 45.83 44.29 42.98 41.92 40.88 40.08 40.91 41.08 40.92 40.48 40.07 39.60 38.77 37.94 37.53 36.89 36.22 35.65 35.74 35.53 35.14 34.12 33.75 34.02 34.31 34.14 33.96 33.46 32.96 32.90 33.43 33.30 34.46 34.04
48.08 47.83 47.44 47.77 47.76 47.84 48.14 46.15 45.45 44.60 43.56 42.14 41.33 41.70 42.35 41.96 41.05 40.48 39.64 39.12 38.50 37.88 37.02 35.78 34.98 34.94 35.12 35.45 33.76 33.31 31.97 31.26 31.16 31.77 32.02 31.62 32.23 34.05 33.30 32.19 31.29 31.46 31.63
46.29 46.67 47.03 45.93 46.57 47.01 47.10 43.91 43.89 43.39 43.20 41.80 42.39 42.83 41.78 41.34 39.61 39.02 37.97 37.64 36.77 35.48 34.69 33.75 33.63 33.02 34.61 34.59 34.72 33.39 30.33 30.06 29.67 29.16 29.99 30.08 31.54 31.41 32.44 32.47 32.67 32.09 29.69
45.73 46.16 45.01 45.40 46.56 46.32 44.20 42.00 42.89 43.86 42.84 42.07 40.87 40.28 40.49 39.07 37.94 37.92 36.89 35.40 33.36 33.55 32.32 32.28 32.41 31.66 31.98 34.33 33.89 32.59 29.46 28.54 28.37 28.00 28.28 28.96 30.63 31.11 30.83 31.46 32.23 32.27 32.55
44.95 45.19 45.40 45.91 46.43 43.94 42.23 43.06 43.67 42.95 40.61 39.86 39.93 40.57 39.04 37.47 36.95 36.24 34.78 32.79 32.25 31.47 31.16 31.01 31.18 30.32 31.23 32.18 31.95 31.26 28.83 28.60 28.58 28.52 28.58 28.38 28.52 29.60 30.26 30.11 30.15 31.25 32.25
45.20 45.02 46.04 45.48 42.95 42.24 42.23 41.56 41.68 40.95 40.10 39.57 38.72 38.10 37.17 35.95 35.55 33.70 31.67 31.70 30.88 30.59 30.24 29.97 29.45 28.86 28.70 31.33 31.12 30.44 29.11 29.49 29.12 29.70 29.68 29.71 29.06 30.57 32.09 30.35 29.79 29.45 30.05
45.32 44.96 44.74 43.17 42.08 41.33 42.24 41.14 40.73 40.26 38.49 38.63 37.57 37.00 36.73 35.34 33.72 32.07 30.55 30.56 30.28 29.11 29.25 28.94 29.46 30.26 28.15 30.65 31.59 31.43 30.57 29.79 29.61 30.46 31.21 31.72 31.68 31.60 31.39 29.92 29.27 28.03 28.82
44.45 45.02 42.89 40.82 41.21 42.39 42.01 39.83 38.70 38.27 38.56 37.05 36.63 36.39 35.82 34.07 33.04 31.70 31.04 30.05 28.94 28.69 28.06 26.63 28.05 28.25 29.11 29.24 31.92 32.10 29.77 29.47 28.32 28.38 28.20 29.17 30.63 31.10 31.60 32.20 29.97 29.25 30.23
43.75 42.37 40.81 40.76 41.23 41.62 40.78 38.48 36.92 36.64 36.65 36.35 35.51 34.90 34.05 33.68 33.22 30.53 29.31 28.96 28.20 27.22 24.30 25.68 25.95 27.27 27.54 30.15 30.02 30.31 30.27 30.25 28.39 27.96 29.24 29.65 31.07 31.08 31.48 30.86 30.88 31.21 30.71
40.68 40.61 40.37 40.21 40.84 40.75 38.83 36.50 35.45 36.37 35.41 34.32 33.69 32.76 32.87 32.27 31.16 28.49 27.70 27.55 27.15 26.09 25.34 26.53 24.55 24.73 27.06 27.78 29.14 29.16 29.85 30.35 28.03 28.64 29.37 30.60 30.79 30.79 30.11 30.61 30.28 29.32 28.33
38.68 39.72 39.55 38.44 38.06 38.88 37.08 35.82 35.61 35.74 34.52 32.41 31.67 31.23 30.14 29.62 29.04 28.57 28.21 26.94 25.75 25.10 25.79 24.03 23.85 24.61 25.74 25.80 26.74 27.47 29.02 30.42 29.50 29.37 29.17 28.40 28.38 28.96 29.46 29.86 30.79 30.54 29.79
38.69 39.41 38.51 38.38 37.55 37.72 36.49 36.09 35.35 34.79 31.95 30.54 30.16 30.21 29.64 28.05 27.44 28.05 27.29 26.60 26.59 26.57 24.91 24.92 25.67 24.86 23.34 25.13 28.71 29.97 29.33 29.39 29.52 29.28 28.51 27.76 27.01 26.40 26.70 28.12 30.83 28.38 28.09
38.73 38.68 38.53 37.32 36.85 36.64 35.85 35.80 35.09 32.21 29.85 28.91 29.19 28.60 27.56 27.02 27.57 26.63 26.41 29.51 28.80 28.99 29.49 29.02 27.97 26.80 27.24 28.58 30.08 30.60 31.66 30.79 30.03 27.71 25.78 24.14 24.17 25.01 25.60 26.04 28.95 27.72 26.67

GFSMW_sfc_wetblb_009.txt.gz
Wetbulb
48.72 49.55 49.87 49.16 49.30 49.24 49.00 49.00 48.45 48.61 47.92 46.54 45.98 45.64 46.20 47.32 47.46 47.66 49.90 49.59 49.21 48.84 47.39 46.36 47.11 47.06 45.76 45.41 45.08 44.82 43.56 42.75 43.86 42.13 41.89 41.88 42.99 43.12 43.58 46.49 48.35 52.63 50.63
47.53 49.62 49.63 48.56 48.43 48.33 48.53 48.14 48.51 48.21 47.62 47.07 46.27 46.13 45.86 46.58 47.14 48.09 48.04 49.07 48.63 48.42 47.54 46.94 45.71 45.63 44.92 44.27 44.45 44.99 43.21 43.29 43.09 41.53 39.87 37.12 40.14 41.66 43.46 43.93 45.36 45.08 50.81
46.21 47.43 48.58 47.90 47.81 48.15 48.63 49.48 48.69 48.32 48.07 47.55 46.71 46.21 46.01 45.64 45.03 46.02 46.34 47.13 48.27 48.48 48.04 47.12 46.37 45.58 45.07 44.01 44.26 43.44 42.57 40.62 42.58 42.21 40.53 37.58 35.86 39.26 41.69 41.79 42.51 42.79 44.20
47.42 47.83 46.39 45.02 47.15 48.47 48.66 49.58 49.88 49.08 48.64 47.78 45.61 45.09 44.69 43.58 44.48 45.05 45.37 46.16 48.04 48.53 48.86 48.37 47.13 45.93 45.21 43.86 43.94 45.57 43.90 42.49 40.16 41.92 44.57 42.09 41.25 38.75 37.45 40.08 40.96 42.08 43.04
46.44 47.26 47.31 48.41 46.82 48.28 48.88 49.94 50.06 49.78 49.77 47.88 46.47 44.86 44.38 45.32 45.88 45.94 45.55 45.30 46.88 47.93 48.36 46.95 46.35 45.39 45.00 43.89 42.25 40.84 40.98 42.08 41.31 41.03 40.52 40.25 40.82 40.32 38.72 36.01 39.33 40.63 41.43
46.34 47.22 47.63 48.42 48.54 48.90 48.46 48.98 48.83 49.52 49.84 49.23 48.20 46.71 45.30 45.89 44.62 44.35 44.08 44.76 45.60 44.78 44.39 44.08 42.39 42.35 41.19 41.39 40.37 39.81 39.77 38.31 39.00 40.09 40.18 39.18 37.73 37.63 37.54 36.24 37.16 37.77 39.06
45.59 46.12 45.47 47.25 46.94 47.42 47.17 47.64 47.92 48.34 48.91 48.34 48.07 47.76 47.31 45.92 45.01 44.26 43.39 42.36 42.48 41.91 41.64 41.88 41.50 41.25 41.73 41.48 41.34 40.52 39.64 38.69 37.80 37.46 38.47 39.25 39.10 39.17 38.13 36.77 35.35 34.90 37.77
47.15 47.19 46.59 47.05 46.93 47.16 47.08 47.29 48.29 48.56 48.37 47.78 47.54 47.56 47.35 47.00 46.22 45.49 43.87 41.18 40.59 41.51 41.42 41.16 41.14 40.88 40.93 40.99 40.96 40.29 39.44 38.32 37.37 36.68 36.59 38.25 38.86 39.77 39.26 37.41 36.01 33.75 35.14
47.70 47.03 46.62 47.31 47.19 47.46 47.68 47.10 47.29 48.16 48.25 47.54 46.15 46.15 46.12 44.14 43.02 40.74 39.92 40.88 40.98 41.36 40.67 40.50 39.98 40.43 40.76 40.75 40.32 39.12 37.84 37.12 37.33 37.27 37.42 37.71 38.28 38.92 39.07 39.05 38.21 35.31 31.41
46.74 47.13 46.45 46.83 46.92 47.09 46.62 46.69 46.79 46.73 46.44 45.42 44.32 43.23 42.21 40.71 40.34 40.33 39.79 39.44 39.53 40.26 40.11 40.10 40.27 40.25 39.95 39.58 38.50 37.36 37.28 36.43 36.44 37.32 35.84 36.25 37.28 37.90 37.79 38.13 38.29 37.51 35.10
45.54 45.80 46.33 46.89 46.62 46.49 46.46 46.30 47.05 47.15 43.93 43.46 42.40 41.17 40.39 39.50 39.08 39.80 39.44 39.37 39.75 39.93 40.15 40.10 39.75 39.34 38.32 38.39 37.52 36.44 36.07 35.18 35.00 34.79 34.41 34.52 35.40 35.37 35.94 36.40 36.43 35.89 35.89
46.22 46.38 45.98 45.99 45.86 46.27 46.33 47.05 47.01 46.00 42.98 41.59 40.22 39.66 39.12 38.25 37.60 37.88 38.90 39.36 38.61 39.68 39.11 39.20 38.80 38.35 37.97 37.49 35.86 35.05 34.98 34.13 33.63 33.90 32.63 33.36 35.69 33.53 33.74 34.11 33.73 34.03 34.93
45.91 46.04 46.25 46.75 46.22 45.56 46.17 46.43 46.94 42.43 41.76 39.82 38.48 37.96 37.68 37.23 37.06 37.36 37.73 38.46 38.51 38.53 38.25 38.19 37.51 37.24 36.65 35.73 34.74 34.17 33.75 33.25 33.00 32.85 32.42 32.76 32.60 31.81 32.31 32.25 32.42 33.35 34.93
45.36 45.36 45.36 45.56 44.72 45.45 45.79 45.13 43.18 41.92 40.71 38.98 37.76 36.91 37.00 36.64 36.79 36.92 36.57 37.54 38.12 36.86 36.51 36.49 36.45 36.06 34.74 34.40 33.94 33.75 32.49 31.38 31.28 31.21 30.99 30.82 30.55 29.68 29.66 30.18 30.21 31.42 30.87
44.70 44.77 44.86 44.05 44.05 45.04 45.28 43.56 40.62 41.29 40.37 39.27 37.64 38.31 38.40 38.47 39.47 38.62 37.46 36.87 36.56 36.34 35.85 34.97 33.61 32.93 33.02 33.79 31.90 30.79 29.74 28.46 28.41 29.28 29.98 30.36 31.52 33.76 33.02 31.06 29.74 29.39 28.87
44.29 44.58 45.18 44.66 44.54 44.92 43.39 41.12 41.23 41.47 42.71 41.01 39.39 40.10 39.99 39.22 38.77 37.75 37.38 36.25 34.87 34.09 32.73 31.43 31.07 30.40 32.65 33.98 34.35 32.05 28.35 28.20 27.84 27.01 28.20 28.99 30.89 30.82 32.10 32.11 32.14 30.96 27.88
44.08 43.99 44.13 43.89 44.14 43.54 41.12 39.65 41.33 42.11 41.67 40.80 40.30 40.10 39.98 39.39 38.76 37.33 35.66 33.94 32.05 30.78 29.40 29.08 29.08 28.52 28.37 33.15 32.94 32.40 29.07 27.65 26.96 26.54 26.80 27.57 29.14 30.10 29.00 30.12 30.93 30.74 31.59
43.82 43.48 43.46 43.10 41.15 39.58 39.76 41.13 41.36 42.24 40.56 39.87 39.85 39.91 39.99 38.00 35.02 34.18 33.03 30.65 29.10 28.28 27.76 27.59 27.45 27.10 28.75 31.91 32.27 31.65 29.04 27.66 27.54 27.67 27.85 27.63 27.63 28.43 28.58 28.15 27.31 28.18 29.14
43.50 42.98 43.59 40.67 39.19 39.14 39.23 39.34 39.34 40.45 40.69 39.30 39.00 37.26 34.72 33.86 33.37 31.20 28.82 28.33 27.42 26.88 26.19 27.06 26.80 26.30 26.95 31.01 31.33 30.62 28.58 27.94 27.85 29.26 29.52 30.21 29.58 30.84 31.99 29.90 28.80 28.02 28.43
43.05 42.58 40.05 38.85 38.27 38.28 40.95 38.94 39.63 39.57 38.27 34.79 33.80 34.52 34.29 33.10 31.07 29.07 27.71 27.36 26.41 26.05 26.62 26.98 27.24 28.80 26.55 29.25 30.63 30.36 29.03 27.02 27.24 27.84 28.45 30.00 29.30 30.86 31.71 30.41 29.37 27.67 28.16
42.37 40.10 38.40 39.44 39.61 39.96 40.75 37.98 35.72 32.68 34.25 34.56 34.81 34.24 33.28 31.24 29.91 27.88 26.99 25.70 24.99 25.60 21.41 20.64 24.36 25.47 26.67 25.58 29.54 29.83 27.94 27.71 27.22 26.90 27.43 28.32 30.10 30.73 31.18 31.54 30.16 28.90 30.16
38.58 38.38 38.08 39.29 38.74 40.76 38.99 37.10 31.69 33.75 34.82 34.23 33.22 31.75 31.12 30.86 30.16 25.76 24.99 25.24 24.26 21.43 15.18 17.09 20.40 23.14 22.99 27.79 28.77 29.24 28.94 28.82 27.00 27.13 28.32 28.46 29.66 30.31 30.56 30.89 31.16 31.05 30.03
36.39 37.68 36.97 38.73 39.39 39.28 34.87 33.26 33.23 34.61 32.88 31.37 30.61 29.72 29.97 29.14 26.99 24.90 24.06 23.43 22.82 19.18 17.23 20.00 21.21 22.06 25.55 26.69 28.13 28.01 28.69 29.54 28.80 29.65 30.06 30.75 30.97 30.72 29.57 30.11 30.47 29.85 29.41
36.34 36.56 38.56 37.72 36.62 37.40 33.77 33.42 33.90 33.65 31.82 29.49 28.73 28.83 26.99 26.37 25.00 24.92 24.95 21.27 19.51 18.62 22.67 21.24 21.75 23.51 25.36 24.61 25.62 27.27 28.84 30.42 29.46 28.77 28.74 27.10 27.51 27.27 26.65 26.92 28.96 29.94 30.26
36.44 37.30 36.75 37.04 36.49 34.31 33.43 33.23 33.18 31.88 29.28 28.28 27.96 27.25 26.24 24.67 24.59 25.38 23.38 23.19 22.61 20.33 23.90 24.46 25.13 24.16 22.29 24.39 28.30 28.70 29.20 29.42 28.77 27.23 25.21 23.78 22.77 23.43 25.22 25.75 27.30 26.04 24.46
37.13 37.59 37.15 34.87 34.12 34.41 32.79 31.56 31.22 29.54 27.25 27.17 26.45 24.10 22.70 22.27 22.52 21.60 22.20 26.59 27.67 28.48 28.71 28.84 27.50 25.51 26.50 28.73 28.82 29.20 29.99 29.96 29.90 25.99 20.37 20.64 21.80 21.49 23.12 23.71 25.67 27.42 24.30

GFSMW_sfc_wetblb_012.txt.gz
Wetbulb
46.84 46.45 47.20 47.40 46.77 46.86 47.56 47.79 46.86 46.45 46.56 45.17 44.51 43.91 45.11 45.92 45.95 47.25 50.44 49.89 49.53 49.10 46.56 46.05 46.91 46.53 44.56 44.42 43.97 43.30 42.90 41.53 42.12 40.69 40.41 40.45 41.13 41.66 42.79 42.90 43.36 45.67 46.46
46.03 47.25 46.84 45.66 47.15 46.84 46.76 46.57 47.05 46.92 46.35 45.11 44.63 44.78 44.30 45.21 46.21 46.76 46.78 49.21 48.80 47.67 46.74 45.59 45.52 45.17 44.50 43.92 43.96 44.08 42.08 42.03 41.97 40.29 38.11 36.04 38.92 40.07 41.95 43.02 42.87 42.76 44.11
45.20 46.51 47.17 45.65 44.92 45.85 46.73 47.70 47.21 46.81 46.94 46.46 45.18 44.31 44.10 43.91 44.04 44.63 44.87 46.63 48.14 48.08 47.05 46.09 45.28 44.02 43.96 42.92 42.65 42.67 41.42 39.62 41.28 40.97 39.43 35.71 33.60 38.98 40.92 40.91 42.39 42.23 41.97
45.69 45.63 45.22 44.17 45.73 46.50 46.22 46.89 48.31 47.45 47.17 46.60 44.41 43.61 44.90 44.67 45.53 45.32 44.27 45.62 47.45 47.36 47.32 46.38 45.64 44.50 44.23 43.07 42.87 43.27 41.36 40.57 38.79 40.50 42.92 40.73 39.05 35.45 34.83 39.52 41.33 42.78 42.33
44.56 44.75 44.91 46.85 46.84 47.30 47.49 48.32 48.91 48.50 48.93 47.45 45.47 44.08 43.05 45.12 46.12 43.25 43.22 43.32 44.59 46.23 46.87 46.22 45.73 44.64 43.87 41.72 40.22 39.10 37.48 39.87 38.07 38.06 37.50 37.64 37.44 37.71 35.04 32.52 35.50 39.55 41.13
43.74 45.81 46.55 45.60 46.14 46.50 46.61 47.41 47.74 48.21 48.26 48.13 47.11 45.10 43.83 44.89 43.99 43.82 42.93 42.71 43.02 42.69 43.56 43.82 42.70 42.11 41.56 40.81 39.68 39.14 38.13 37.89 39.05 38.27 36.99 36.83 34.33 34.39 33.67 33.03 33.52 34.13 37.54
44.67 44.46 44.52 45.31 44.71 44.72 45.57 46.44 46.68 47.78 49.13 47.24 46.85 46.76 45.91 45.57 44.31 44.15 43.69 43.89 42.61 41.12 39.84 40.24 39.97 39.99 40.09 40.52 40.77 40.95 40.36 40.08 38.95 37.74 37.04 37.60 37.25 37.51 36.82 35.00 33.96 33.77 36.67
44.75 44.75 45.58 45.28 45.71 46.50 46.21 47.23 47.88 47.93 48.21 47.18 46.69 46.20 45.72 45.26 45.27 44.73 43.82 41.95 41.97 40.43 40.49 40.10 40.30 40.94 41.48 41.35 41.74 40.69 40.11 39.60 38.08 37.05 36.69 36.84 37.12 37.63 37.04 35.31 33.90 32.19 33.26
44.44 44.44 45.57 45.46 45.26 45.37 45.67 45.67 45.96 45.69 47.03 46.21 45.49 43.79 43.62 44.03 43.16 40.42 39.87 40.52 40.08 40.69 40.06 40.64 41.24 42.07 42.07 41.53 40.59 38.99 38.44 38.70 37.97 36.91 36.52 36.11 36.99 37.25 37.45 36.92 35.93 33.41 29.73
44.49 44.62 44.69 45.35 45.21 44.79 45.42 45.70 45.95 46.59 46.63 45.85 42.70 42.35 40.95 40.70 39.16 38.33 37.59 38.20 39.44 40.68 41.04 41.87 42.42 42.11 41.01 39.95 39.16 38.18 37.59 36.43 36.08 36.22 34.83 35.28 36.04 36.33 36.49 36.53 36.10 35.23 32.94
43.50 44.02 45.39 46.36 47.21 47.56 47.24 46.36 45.11 44.82 44.67 43.00 41.53 40.16 38.11 38.16 37.59 37.45 37.54 37.90 39.81 41.08 41.20 40.97 40.45 39.91 39.26 39.24 37.79 36.36 36.05 35.00 34.44 34.31 34.10 33.91 34.36 34.00 34.32 34.67 34.84 33.98 33.58
43.31 44.17 44.55 45.09 45.18 44.77 44.37 44.12 45.09 44.32 42.56 40.46 39.78 38.76 37.36 37.05 36.15 36.42 37.00 38.18 38.75 39.01 39.82 39.35 38.79 38.67 38.20 36.96 35.74 34.37 34.54 32.79 31.97 32.24 32.44 32.57 34.29 32.20 32.16 31.98 32.00 32.43 32.73
43.69 43.86 44.31 44.80 44.49 44.49 43.80 44.45 44.18 41.25 39.83 39.31 38.01 36.74 36.00 35.41 34.99 36.13 37.02 37.73 37.77 38.35 37.60 37.73 36.54 36.55 36.23 35.22 34.33 33.50 32.66 32.05 32.18 31.89 31.30 31.46 31.37 30.04 29.87 29.82 29.93 30.67 32.69
43.97 43.98 43.57 43.64 43.57 43.69 43.47 43.74 41.08 39.49 39.05 37.69 36.05 35.27 35.06 34.69 35.79 36.25 36.26 36.44 36.52 35.93 35.32 35.61 35.44 35.49 34.58 33.39 32.89 32.49 30.74 29.56 29.63 29.44 29.24 29.61 29.42 29.08 28.85 29.03 28.87 29.46 28.76
43.34 43.34 42.86 43.25 43.65 43.66 43.37 41.65 39.54 40.45 40.84 40.33 39.84 37.84 37.98 36.98 36.96 35.89 35.66 36.45 37.27 36.33 34.94 33.87 32.19 31.47 31.48 32.14 30.60 30.06 28.66 27.74 27.60 28.35 28.52 28.79 30.14 32.38 32.22 30.53 29.28 28.90 27.83
43.54 44.25 44.18 43.94 43.86 43.12 42.20 39.94 41.62 41.84 41.35 39.25 40.00 40.33 40.18 39.82 39.12 38.97 38.06 36.89 36.06 34.36 32.42 30.71 29.96 29.25 31.05 32.69 33.37 31.75 27.92 27.96 27.36 26.55 27.25 27.61 29.50 29.16 30.85 31.84 31.96 30.85 27.82
43.03 42.97 43.51 43.59 42.47 40.70 39.64 38.81 39.79 40.80 41.06 40.77 40.51 40.44 40.39 39.28 38.22 38.52 37.09 34.69 31.61 29.88 28.64 28.06 27.80 27.31 27.74 31.75 32.56 32.46 28.67 27.60 27.24 27.04 26.97 27.06 28.29 29.48 28.52 29.69 30.87 30.49 31.21
43.29 43.37 43.47 42.41 40.52 39.10 38.76 39.05 39.86 39.81 39.04 38.86 39.28 39.05 38.31 37.99 36.44 33.77 31.28 29.09 28.34 27.51 26.80 26.76 27.22 26.42 27.48 31.09 31.68 31.63 28.32 27.31 27.35 27.66 27.63 27.81 27.99 28.94 28.73 28.51 28.16 28.30 28.27
43.94 44.18 42.43 39.92 38.01 37.48 38.01 39.91 37.83 38.25 40.23 39.73 36.86 34.30 33.19 32.40 30.82 28.93 27.85 27.52 26.64 25.89 25.30 26.36 25.71 25.95 26.14 29.92 30.49 29.73 26.17 26.47 27.40 28.26 28.15 28.20 28.41 29.93 31.43 29.09 28.66 28.65 28.39
44.42 42.49 39.69 38.48 37.16 37.53 38.44 37.47 35.68 33.54 33.09 32.41 33.35 34.33 33.13 31.01 28.51 27.47 26.84 26.40 24.81 24.97 25.91 26.21 25.83 26.67 24.90 28.39 29.17 28.32 27.03 25.40 25.43 26.33 27.28 28.95 28.63 29.72 30.31 28.84 27.96 27.03 27.96
39.80 39.32 38.19 37.08 37.61 38.54 39.88 37.13 31.02 31.75 33.98 34.16 33.40 32.03 31.27 30.05 28.48 26.53 25.47 24.26 24.06 24.41 19.43 18.78 22.10 24.06 25.23 24.04 28.40 29.13 27.47 26.44 26.01 26.15 26.83 27.41 29.71 30.58 30.70 30.96 28.79 28.29 29.32
37.34 37.42 37.26 36.09 38.16 39.55 38.58 32.64 30.37 33.35 33.90 32.48 31.37 30.56 29.93 29.36 28.04 25.20 24.36 24.59 23.08 20.14 13.79 14.36 17.99 21.34 21.84 25.96 27.80 28.85 28.44 28.27 27.15 26.94 27.85 28.96 30.45 29.99 30.31 30.07 30.86 30.87 29.87
35.24 36.07 35.17 38.55 39.13 38.75 35.91 31.60 31.75 33.36 31.41 30.32 29.22 28.39 28.36 27.56 26.28 24.17 23.75 22.53 21.50 18.84 16.73 18.41 19.52 20.75 23.65 25.17 27.83 27.42 27.97 29.28 28.52 29.14 29.09 29.08 28.83 27.81 26.83 28.62 29.13 28.51 28.47
34.47 35.75 37.95 37.10 35.79 36.34 32.20 31.91 33.09 32.39 30.10 28.07 28.14 28.14 26.35 26.20 24.93 24.55 24.45 20.75 18.69 18.09 22.43 20.63 20.94 22.13 22.79 23.21 24.47 26.75 27.75 29.20 29.35 26.65 26.35 23.82 24.61 22.66 25.12 26.63 27.30 28.10 28.69
36.21 37.08 35.22 34.93 33.35 32.71 31.23 30.62 30.45 30.22 28.19 27.72 27.46 26.69 25.53 23.82 23.92 24.57 22.85 23.04 22.61 19.61 19.41 19.28 24.86 21.36 20.02 23.29 28.12 27.27 27.75 28.23 27.53 26.85 22.51 21.65 21.34 22.14 23.35 24.33 25.59 27.44 27.65
35.30 34.84 33.72 33.38 33.56 33.42 31.69 30.93 30.26 28.49 26.92 26.93 25.85 23.33 22.15 21.07 21.53 20.37 22.11 26.40 26.25 26.86 27.26 27.94 25.41 23.43 25.95 27.80 27.16 27.53 28.18 27.51 27.79 24.35 21.27 17.20 20.25 20.48 21.83 22.08 22.64 23.96 26.00

GFSMW_sfc_wetblb_015.txt.gz
Wetbulb
44.24 44.13 45.12 45.50 45.85 46.55 47.50 47.06 45.49 47.68 46.08 44.55 44.04 43.45 44.58 44.92 45.01 45.97 49.04 49.98 49.72 49.11 46.78 46.07 46.78 45.38 44.41 43.89 43.18 42.11 41.43 41.33 40.73 39.51 39.41 39.66 40.58 40.39 40.70 41.34 41.96 42.97 44.33
44.15 45.33 45.01 44.20 45.54 46.29 45.97 45.99 45.85 45.22 45.43 44.70 44.10 44.02 43.50 44.20 45.16 46.02 46.36 48.87 49.52 49.07 47.54 45.64 46.06 46.10 44.19 43.24 42.94 42.31 41.16 41.00 40.95 38.83 37.16 35.14 37.75 38.05 40.71 40.88 41.46 41.51 42.51
44.12 44.69 45.24 43.89 43.68 44.68 45.10 45.88 45.88 45.62 45.62 45.37 44.11 43.45 43.06 43.11 42.76 43.77 43.84 46.30 49.04 49.59 47.88 46.30 45.58 45.21 45.39 44.03 42.84 42.37 41.44 39.96 40.20 40.50 38.82 33.93 32.64 35.65 38.31 39.19 39.94 40.08 40.13
43.49 44.20 44.56 44.47 44.90 45.49 44.97 45.44 46.53 46.25 46.14 45.35 44.16 42.90 42.76 43.89 45.53 46.04 45.16 45.46 46.26 48.03 48.88 47.90 45.71 44.84 44.47 42.51 41.88 42.82 40.68 39.89 38.15 38.96 42.15 39.32 38.09 31.81 29.87 35.66 36.51 36.89 38.65
43.14 44.51 45.26 45.51 44.97 45.28 44.96 45.01 46.37 47.56 47.68 47.20 45.48 44.36 42.99 44.76 45.74 44.85 42.48 43.55 43.88 45.90 46.88 47.45 46.95 45.73 45.18 43.52 41.56 39.23 37.55 37.84 36.77 36.98 35.55 35.20 35.59 35.70 33.21 29.30 32.12 35.22 35.83
43.81 43.85 44.67 44.78 45.31 44.92 44.38 44.89 45.91 46.75 47.09 46.54 46.20 45.12 43.90 44.46 44.14 44.44 42.88 44.09 42.59 42.70 43.76 44.50 43.69 42.14 40.62 38.60 38.48 39.54 38.89 39.16 39.00 39.24 38.13 37.39 34.84 32.23 31.53 30.13 31.61 32.37 34.72
42.41 43.38 43.32 43.68 44.51 44.38 44.28 45.30 45.69 46.07 46.48 46.18 46.07 46.45 45.88 44.57 43.83 43.97 44.04 43.13 40.51 38.41 38.67 39.87 40.34 39.37 40.47 40.47 41.95 40.89 40.53 40.49 39.24 38.84 38.44 38.61 37.57 37.31 35.22 32.94 32.54 31.69 33.91
42.71 43.11 43.51 43.37 43.75 44.09 44.47 44.98 45.58 45.79 46.45 46.38 46.28 45.89 44.67 43.62 43.74 43.66 42.98 41.91 39.01 37.50 38.48 39.64 41.26 41.61 41.86 41.55 41.30 40.81 40.40 41.06 40.42 39.00 38.45 37.12 36.43 36.52 36.15 33.52 31.57 30.35 31.61
42.28 42.58 43.78 43.89 43.88 44.27 44.62 44.60 44.83 45.26 45.19 45.21 44.67 43.48 41.88 41.52 41.99 39.93 38.65 37.49 38.20 39.26 39.09 40.55 41.47 41.88 41.84 42.58 41.90 40.16 39.19 39.08 38.66 37.51 36.25 34.89 34.70 35.28 35.96 35.99 35.06 32.00 27.88
42.64 42.91 43.49 44.28 44.87 44.96 44.50 44.39 44.29 44.14 44.31 43.82 42.23 41.77 41.32 40.13 39.25 37.03 36.64 37.15 38.13 39.29 40.34 41.18 41.83 42.12 41.84 41.02 40.48 38.53 37.83 37.21 36.32 36.08 34.51 34.21 34.93 35.17 35.55 35.33 35.25 34.53 31.58
41.49 42.81 43.63 44.42 44.49 44.30 44.00 43.60 43.70 43.18 43.18 41.88 39.62 39.57 39.38 37.63 36.47 35.89 36.32 37.19 38.82 39.69 40.52 40.04 40.62 40.60 39.58 38.96 37.85 37.20 36.36 35.18 34.52 34.18 33.82 33.28 33.86 33.33 33.11 33.52 33.60 32.67 32.17
43.33 43.68 44.75 45.20 44.10 43.92 43.31 42.90 42.66 42.69 40.46 38.79 38.69 38.08 37.23 35.95 35.14 35.48 36.35 37.56 39.00 40.01 39.44 38.62 38.55 38.72 38.35 37.53 35.54 34.10 33.91 32.60 31.91 31.74 31.42 31.50 33.41 31.79 31.77 31.42 30.97 31.00 31.61
44.85 45.17 44.96 44.90 44.09 43.82 43.64 43.31 42.87 39.80 39.06 38.34 37.19 36.04 35.21 34.31 33.74 34.69 36.74 37.77 37.95 37.83 37.45 36.57 36.04 35.86 35.49 34.55 33.55 32.69 32.14 31.53 31.13 30.66 30.36 30.44 30.39 29.10 29.33 29.65 28.82 29.30 31.01
44.12 44.15 43.53 43.79 43.01 43.38 43.41 43.04 40.80 39.31 39.29 37.34 35.83 34.83 34.19 34.97 34.42 36.14 35.80 36.07 36.97 36.25 35.38 35.81 35.46 34.65 32.46 31.91 31.58 30.89 29.65 28.65 29.03 29.05 28.73 28.21 27.85 27.36 27.53 27.91 27.85 28.61 27.80
43.94 43.60 43.34 42.14 42.89 43.00 42.38 41.19 39.15 39.81 40.35 39.16 37.85 37.67 38.14 37.74 38.07 38.63 38.41 38.20 38.56 38.14 34.93 32.92 30.96 30.43 30.29 30.75 29.67 29.53 28.68 28.10 27.54 27.90 27.92 27.98 28.93 31.24 30.39 28.84 27.88 27.99 27.32
42.42 43.33 43.60 42.88 43.16 42.82 41.35 39.34 39.28 39.43 40.35 39.30 39.17 40.39 40.67 40.58 39.54 39.18 36.99 37.49 36.97 34.49 31.91 30.41 29.84 28.60 30.06 32.07 32.74 31.52 27.95 27.96 27.37 26.17 27.09 27.51 29.45 29.02 30.47 30.62 31.16 30.43 27.53
42.96 42.27 42.12 42.54 43.53 42.18 40.00 38.10 38.22 39.39 39.80 38.80 38.88 40.67 40.54 38.99 37.77 37.59 37.53 34.90 30.91 29.36 28.53 27.99 27.67 27.25 27.39 30.74 31.70 32.03 28.51 27.12 26.78 26.44 26.59 27.08 28.29 29.22 28.22 29.08 29.78 29.95 30.52
40.60 40.91 42.01 43.30 41.70 39.23 38.27 37.95 38.45 39.12 38.69 38.52 38.13 37.51 37.28 37.38 34.90 31.57 29.79 28.49 28.08 27.15 26.45 26.56 26.74 26.35 27.21 30.06 30.32 30.23 27.81 26.07 26.47 26.86 27.11 27.25 27.11 28.21 28.61 28.13 27.81 27.84 28.16
40.73 42.29 42.26 38.92 37.68 38.33 38.77 38.46 36.57 36.29 38.05 36.28 33.20 32.71 33.05 32.02 29.88 27.35 26.30 25.77 25.16 25.66 25.30 26.35 26.24 25.43 25.08 28.48 28.76 28.18 23.92 24.28 24.82 26.93 27.13 26.91 26.94 28.91 30.45 27.98 26.81 26.86 27.29
41.18 38.90 38.15 37.14 37.33 37.69 38.02 36.53 34.67 32.46 32.64 32.91 32.89 32.25 30.88 29.57 27.70 26.54 25.56 25.92 24.91 25.38 26.20 25.81 25.08 25.49 23.38 26.56 28.48 28.01 24.79 24.39 25.19 25.74 27.32 28.56 27.92 29.36 29.97 28.23 27.55 26.39 26.94
37.82 37.64 36.60 35.96 36.39 36.84 39.45 38.17 32.64 31.80 32.71 32.08 31.37 31.48 30.66 28.97 26.84 26.06 25.65 24.81 24.20 24.00 19.60 18.42 20.78 22.59 24.00 22.53 27.79 28.61 27.02 25.43 25.47 25.36 26.21 27.94 29.55 29.67 30.21 30.69 28.18 27.84 29.54
35.69 35.35 34.57 34.80 37.89 39.51 37.45 35.25 30.25 31.62 32.41 30.39 30.02 29.26 28.57 27.57 26.90 25.13 24.57 24.26 22.50 20.45 14.94 13.01 17.00 20.66 20.49 25.24 26.79 28.02 28.06 28.06 26.09 26.18 28.25 27.72 28.68 28.40 28.06 27.15 27.91 29.35 29.00
34.34 34.57 35.48 37.67 38.17 37.73 34.69 30.73 31.01 32.39 30.66 29.16 27.69 27.96 27.82 27.11 26.08 24.20 23.13 22.22 21.53 18.78 16.30 17.95 19.06 20.20 22.69 22.76 25.83 26.63 27.87 28.42 27.44 29.12 28.38 29.21 26.92 26.26 25.14 26.34 27.63 27.65 27.00
33.06 36.07 35.15 33.45 32.47 32.34 31.39 31.98 32.34 31.63 29.84 28.14 28.01 28.08 25.73 25.36 24.29 24.30 24.03 21.01 19.54 18.07 21.57 20.14 19.32 20.05 20.30 21.31 23.08 26.73 25.95 28.22 28.77 26.73 26.73 24.90 24.30 23.33 24.57 25.43 26.12 26.71 27.76
36.19 34.67 34.28 32.16 33.01 34.07 33.01 30.94 30.62 29.89 28.30 27.58 26.82 25.94 25.14 23.73 23.25 23.86 22.55 23.20 22.58 19.01 16.78 17.34 21.41 20.38 19.57 22.16 26.70 26.33 26.12 26.93 26.65 24.52 23.17 21.06 19.96 20.33 21.28 21.89 22.92 23.31 23.69
33.68 33.15 32.41 31.67 30.89 30.03 29.73 30.19 29.94 28.49 27.01 26.70 25.61 22.71 21.78 21.18 20.56 19.44 21.35 25.47 25.53 26.20 26.43 26.76 24.96 23.11 24.92 26.44 26.46 26.34 26.90 26.59 25.41 23.04 20.32 17.00 16.29 18.05 20.00 19.63 19.41 20.44 21.52

GFSMW_sfc_wetblb_018.txt.gz
Wetbulb
42.77 42.77 43.40 44.36 44.74 46.31 48.07 48.79 47.63 48.30 47.62 45.22 44.48 43.71 44.57 44.92 45.03 45.35 46.66 48.32 49.65 49.59 48.92 47.45 47.10 46.77 44.97 45.08 43.61 41.69 41.14 40.85 41.10 39.91 39.45 39.81 40.56 40.38 40.64 41.48 42.03 43.51 44.35
42.22 43.95 43.22 43.46 44.84 46.24 47.13 46.95 46.33 45.33 46.68 44.78 43.44 43.39 42.65 43.44 44.14 44.89 45.46 46.35 48.15 49.06 49.03 47.52 46.35 46.28 45.86 43.29 42.80 41.65 40.43 40.80 40.60 39.09 37.39 35.84 37.87 38.86 40.06 40.49 41.82 41.67 43.14
43.20 43.55 43.96 42.98 43.51 44.75 45.49 46.04 45.47 45.71 44.61 44.48 43.83 43.33 42.93 43.17 42.69 43.83 43.55 44.96 46.08 47.50 48.03 48.33 47.39 45.83 46.06 45.48 44.04 42.84 41.29 40.94 39.97 40.33 39.06 34.33 33.60 35.11 37.75 39.43 39.29 40.48 39.26
42.78 43.35 43.57 42.84 43.12 43.83 43.80 43.95 45.28 45.89 46.33 45.40 43.83 42.28 41.24 41.51 43.54 43.51 43.49 45.54 44.83 45.48 47.14 48.13 47.35 45.98 45.70 45.33 43.81 42.81 41.58 39.98 38.56 39.35 41.45 39.07 38.08 31.56 30.35 35.06 38.10 36.79 37.93
41.95 42.51 43.15 43.86 43.28 43.08 43.25 44.29 45.44 45.91 45.96 45.57 44.84 43.95 43.29 43.36 44.38 44.32 43.68 44.47 44.28 43.60 44.73 45.89 46.87 45.49 43.87 44.43 43.54 41.45 41.25 39.93 39.32 36.56 35.48 35.50 36.16 36.21 32.51 30.35 32.50 35.90 36.81
42.02 42.98 43.74 43.87 43.45 43.63 43.52 43.94 45.03 45.52 45.95 45.46 45.43 44.58 42.73 43.26 43.35 43.51 42.92 43.86 42.91 42.05 41.63 42.68 42.59 41.45 39.57 38.31 39.26 40.01 39.76 38.88 39.63 38.93 38.55 37.59 35.18 33.93 33.17 31.20 32.11 32.00 35.35
40.33 41.50 41.84 42.82 43.93 45.11 44.49 45.12 44.90 45.15 46.57 46.99 46.58 44.38 43.28 42.01 41.11 41.99 42.63 42.39 41.60 37.45 36.94 38.23 38.85 39.70 40.15 40.33 39.97 40.42 40.31 40.87 40.40 40.17 39.62 39.83 38.51 38.10 35.96 34.57 32.27 31.03 33.45
41.20 41.62 42.43 42.51 44.79 44.93 44.13 44.32 45.43 45.57 45.60 44.78 44.26 43.58 42.05 41.87 42.07 41.69 41.66 40.44 38.29 36.57 38.35 39.47 39.88 39.81 40.02 39.89 40.86 41.67 41.43 41.75 41.11 39.63 38.10 36.54 37.69 38.67 37.56 35.61 32.35 30.01 30.74
41.29 41.83 42.56 43.49 44.39 45.16 45.28 43.93 43.70 43.90 43.92 43.58 43.23 41.34 40.09 40.26 40.74 39.90 37.97 37.17 37.02 38.95 38.80 39.27 39.22 39.52 41.20 41.99 41.51 40.48 39.47 39.45 38.77 38.19 38.27 38.03 38.14 37.48 37.12 36.81 34.79 32.25 27.47
41.95 42.91 43.70 44.49 44.59 43.82 43.60 43.22 43.16 42.81 43.24 42.88 40.91 40.07 39.52 39.16 38.27 37.29 36.63 36.22 37.20 38.77 38.67 38.90 38.99 39.28 40.02 41.10 40.25 39.55 39.44 38.13 38.06 37.88 36.29 35.34 35.71 35.57 35.71 35.32 35.01 34.07 31.77
41.85 42.68 43.34 43.87 43.80 43.87 43.37 43.01 42.54 42.20 42.10 40.40 38.51 37.92 38.99 38.69 36.41 35.62 36.02 36.21 38.16 38.68 39.00 39.57 39.15 39.13 38.90 38.82 38.19 37.85 37.37 36.10 35.22 34.79 33.70 33.06 33.59 32.61 32.93 33.76 33.64 32.53 31.83
42.36 43.01 43.41 43.68 43.33 43.40 43.92 43.28 42.54 42.16 41.26 38.55 38.15 37.32 37.10 35.89 34.30 34.52 35.61 37.27 38.03 38.92 37.76 39.04 38.32 37.69 36.84 36.25 34.85 33.72 33.56 32.55 31.64 31.49 30.87 30.90 32.71 31.11 31.70 31.49 30.52 30.55 31.39
43.11 43.79 44.82 44.49 43.57 43.29 43.15 43.03 42.60 41.49 38.89 39.09 37.65 37.08 36.24 34.13 32.73 34.25 36.04 36.92 36.74 37.39 38.06 37.30 36.41 36.06 35.78 34.16 32.87 32.27 31.31 30.77 30.42 29.93 29.41 29.68 29.63 28.28 28.63 28.96 28.62 29.09 30.17
44.80 44.54 42.64 42.74 43.27 43.06 43.08 42.83 41.77 39.51 39.08 39.30 38.57 36.38 34.81 35.08 36.21 36.60 37.81 38.05 38.59 38.10 38.08 37.34 35.23 33.35 31.50 31.23 30.94 30.34 29.41 28.77 28.78 29.16 28.62 27.95 27.58 26.86 26.86 26.94 26.72 27.29 26.87
42.11 41.90 42.80 43.33 43.68 43.79 43.92 42.35 40.86 39.33 39.49 39.18 38.20 36.57 36.74 39.60 39.60 39.23 38.31 38.32 38.15 37.02 34.42 32.23 31.02 30.17 30.05 30.35 29.42 29.19 28.39 27.39 27.19 28.28 28.19 27.81 28.62 30.84 30.13 28.57 27.67 27.20 26.73
40.82 41.43 41.26 40.00 41.02 42.37 42.88 40.31 39.13 38.92 40.31 39.30 38.01 38.39 40.72 39.91 37.36 37.35 37.46 36.53 36.78 36.76 31.55 29.48 28.48 27.65 29.50 31.62 32.04 31.64 28.45 28.54 28.43 27.05 26.98 27.13 28.99 28.59 29.77 30.27 30.41 30.11 27.72
39.71 39.74 39.49 40.57 41.74 40.84 39.44 38.04 37.66 38.39 39.08 37.70 39.22 39.16 39.42 38.21 38.45 38.47 36.96 34.87 29.71 28.34 27.37 27.27 27.58 27.34 27.50 30.23 30.76 30.67 28.05 27.75 27.37 26.34 26.24 26.79 27.69 28.83 28.04 28.80 29.41 29.41 29.87
38.30 38.33 39.79 38.90 38.28 38.14 37.32 36.71 37.75 36.48 35.85 37.51 37.12 36.75 36.01 35.91 33.44 30.19 28.53 27.44 26.84 26.03 25.75 26.26 26.50 26.48 26.60 29.18 29.23 29.26 26.80 25.75 25.88 26.18 26.28 26.00 26.64 27.44 27.34 27.31 27.70 28.08 28.35
37.80 38.71 37.72 36.51 35.94 35.83 36.26 35.51 33.92 34.04 33.56 33.21 32.99 32.00 30.78 29.74 28.88 27.55 26.82 26.28 25.58 25.40 25.31 26.57 26.14 25.25 24.73 27.75 28.48 28.22 24.36 23.92 24.24 26.18 26.78 27.11 27.46 28.43 29.61 27.68 26.38 26.87 27.51
38.85 37.06 36.34 35.45 35.27 35.86 35.86 37.70 36.27 31.48 31.87 30.55 30.47 29.94 29.38 28.67 26.59 25.30 25.00 25.40 24.68 25.47 26.49 25.64 24.86 24.87 23.12 25.95 28.04 27.68 24.30 22.51 25.35 26.23 27.01 28.01 27.81 29.25 29.85 28.64 27.71 26.54 27.66
36.74 36.40 34.85 33.90 34.73 35.79 38.61 37.38 35.93 31.01 31.54 31.33 31.55 29.63 28.91 26.89 25.53 24.67 24.63 23.91 23.64 24.13 19.79 17.58 20.21 22.28 23.57 21.93 27.37 27.79 26.14 25.67 25.42 25.91 25.84 27.13 29.31 28.90 28.42 28.42 25.95 25.30 27.10
34.10 34.11 33.14 33.84 35.67 36.01 35.22 32.12 30.26 30.55 32.13 30.68 29.20 28.41 27.77 27.16 25.83 24.07 23.71 23.83 22.17 20.25 14.38 12.56 16.25 19.63 19.37 25.13 25.78 26.96 27.57 27.83 26.17 25.26 27.10 28.25 29.23 27.45 27.00 26.28 27.08 28.36 27.93
33.43 33.41 32.63 33.87 33.32 30.79 30.14 30.13 31.11 32.36 30.09 28.69 27.95 28.19 27.57 26.49 25.55 23.53 22.57 22.19 21.18 18.43 16.29 17.03 19.19 19.82 21.98 21.37 24.81 25.72 27.19 27.28 26.41 28.20 27.80 27.43 26.77 25.83 23.91 25.35 26.64 26.20 26.28
31.90 34.02 33.11 32.03 31.19 32.05 32.35 30.53 29.77 29.36 27.85 27.07 26.58 26.32 25.04 24.88 23.91 23.78 23.53 20.95 19.39 17.83 21.01 19.71 18.67 19.73 19.87 20.73 21.97 25.16 25.54 26.82 27.47 26.80 25.76 23.82 23.14 21.08 22.33 23.76 24.15 24.31 24.56
33.20 34.35 32.42 31.62 31.26 31.50 30.25 28.89 28.60 28.10 27.14 26.56 26.17 25.24 25.06 24.05 23.91 23.63 21.91 22.64 22.23 18.84 18.79 17.00 18.15 19.34 19.07 21.26 25.95 25.42 24.63 25.73 25.10 24.87 22.94 20.23 17.97 17.45 18.84 20.99 21.33 21.82 22.17
33.26 32.41 31.71 30.86 30.08 28.93 28.32 28.40 28.32 27.28 26.23 26.35 25.65 22.55 21.55 20.52 19.98 18.72 20.61 24.61 24.55 25.44 25.62 25.77 23.79 22.85 23.90 25.57 25.65 25.40 25.67 25.25 24.17 21.67 18.61 16.56 15.13 14.66 16.37 16.54 19.09 20.17 20.47

GFSMW_sfc_wetblb_021.txt.gz
Wetbulb
49.71 50.37 50.27 51.55 52.45 53.85 55.35 56.43 56.94 57.51 56.79 56.09 55.16 55.06 53.91 54.02 54.26 54.51 54.06 54.22 54.69 55.30 56.04 56.00 56.16 56.06 54.70 55.08 55.10 54.00 52.20 50.47 50.56 48.76 49.07 49.52 50.15 50.21 50.20 50.76 50.51 49.36 49.87
49.92 49.91 50.52 50.57 51.69 53.07 54.34 54.53 54.60 52.29 52.27 53.62 52.73 52.28 51.31 52.10 51.78 52.39 53.15 53.52 53.53 54.02 54.03 54.46 54.50 54.81 54.11 54.03 53.51 52.14 50.81 50.18 50.74 48.14 47.97 45.16 47.75 48.09 48.69 49.15 48.62 49.82 49.29
49.15 50.04 50.18 50.42 50.88 50.73 50.58 50.65 51.18 51.49 51.47 51.47 51.88 52.15 52.61 52.60 52.39 53.28 53.09 53.64 53.42 53.02 52.75 52.92 53.39 53.43 53.16 52.77 53.94 52.73 50.91 50.20 50.06 49.75 48.13 44.75 43.24 46.78 47.34 47.41 47.90 47.60 47.89
48.53 48.44 48.95 49.16 49.31 49.75 51.27 51.80 52.07 52.35 52.14 52.60 52.05 51.24 50.12 49.29 50.94 50.85 51.39 51.52 52.46 52.18 51.98 51.70 51.78 52.18 52.31 51.65 51.98 52.59 51.34 50.24 49.10 47.88 47.74 47.88 46.36 43.76 43.40 44.24 45.15 45.95 43.95
47.65 47.51 48.12 48.74 49.46 50.40 50.94 51.85 52.25 51.81 51.56 51.35 51.26 50.55 49.19 49.34 49.68 49.77 49.61 50.14 50.95 51.47 50.85 50.13 49.95 50.26 50.89 51.19 50.63 50.51 49.09 49.20 46.61 47.40 47.10 45.64 44.24 43.14 41.81 41.41 42.41 41.59 42.82
46.58 47.88 48.82 50.02 50.26 51.38 51.55 51.72 51.50 51.04 51.36 51.28 51.29 49.92 48.20 47.88 47.66 48.21 47.95 48.72 48.95 49.45 48.62 46.93 47.76 47.68 47.55 47.02 46.94 46.16 45.52 45.74 45.20 43.88 44.23 42.46 42.43 41.24 39.87 38.12 39.07 39.71 42.30
47.04 47.62 48.36 49.29 50.04 50.10 49.91 50.50 50.49 49.66 50.49 50.41 49.80 49.41 47.82 47.42 47.56 47.63 47.45 46.70 46.77 47.44 45.87 45.50 46.17 45.50 45.39 45.42 45.64 45.39 45.13 44.84 43.07 41.27 39.96 39.44 38.98 38.38 36.23 36.07 36.52 36.53 40.27
46.94 47.66 48.16 49.25 49.58 49.80 50.11 50.30 49.76 48.89 49.63 49.75 49.29 48.88 47.83 47.33 47.24 46.91 46.75 45.79 45.01 44.99 44.79 44.94 45.30 45.20 45.37 45.47 45.16 42.68 42.27 40.27 38.68 37.49 36.72 35.44 36.02 37.71 38.12 36.84 35.73 33.97 36.44
47.27 48.16 49.51 49.84 49.74 48.57 49.31 49.65 48.98 48.33 49.21 49.29 49.06 47.13 47.06 46.26 45.67 45.92 45.32 44.39 44.23 43.83 44.49 44.95 44.86 44.93 44.85 43.50 42.41 40.67 39.29 39.83 39.60 39.02 38.57 38.39 39.04 39.52 39.24 38.98 37.82 34.53 31.28
47.78 48.96 49.63 49.72 50.00 49.89 50.15 50.12 49.97 48.68 48.60 48.69 47.60 45.52 45.64 45.58 45.17 43.91 42.70 42.50 43.16 44.25 44.29 44.40 43.90 42.92 43.53 42.97 42.21 41.79 41.16 39.99 39.82 39.60 39.26 39.16 39.67 39.49 39.30 38.44 37.92 36.76 33.79
47.41 47.95 48.50 49.38 49.63 49.65 49.55 49.05 48.83 48.28 47.77 47.42 45.03 45.45 44.85 44.33 42.48 41.05 41.42 41.85 42.94 43.88 42.97 42.07 41.47 40.64 40.24 40.87 41.38 40.95 40.83 39.91 39.13 39.12 38.31 37.73 38.12 37.02 37.09 37.30 36.75 35.94 35.54
47.27 47.61 47.91 48.08 48.15 47.95 48.11 48.21 48.79 48.52 47.62 45.19 45.27 44.74 43.66 41.84 40.07 40.11 40.95 42.12 41.45 41.77 41.77 41.28 39.73 39.03 38.76 39.87 38.90 37.11 37.08 36.27 35.39 36.07 36.14 35.57 35.59 35.59 36.16 35.70 34.90 35.04 35.56
47.12 47.40 47.55 47.18 46.43 46.28 46.83 46.67 47.52 47.13 45.61 44.67 44.43 43.63 41.48 39.61 39.61 40.73 40.60 41.54 40.79 39.94 39.73 38.96 38.58 39.12 38.27 36.36 35.74 35.30 34.97 34.98 34.92 34.76 34.06 33.79 33.82 32.79 33.22 33.17 32.63 33.19 33.20
45.94 46.34 46.05 45.49 45.00 44.66 45.67 45.90 45.48 45.08 44.44 43.89 43.57 42.37 40.27 40.74 40.51 39.90 39.74 39.99 40.27 39.64 39.94 39.31 37.13 36.03 35.22 34.74 34.58 34.45 34.37 33.93 33.57 33.69 33.13 32.60 32.12 31.67 31.28 31.04 31.22 31.43 31.13
44.66 44.40 43.36 42.69 43.45 44.03 43.39 43.04 42.79 43.09 43.34 42.76 42.33 41.62 41.06 41.79 40.97 40.56 40.97 40.72 40.53 39.99 39.81 36.61 34.15 33.48 32.96 32.84 32.90 33.17 32.91 32.35 32.11 32.64 32.54 32.60 32.11 31.44 31.12 30.94 31.21 30.86 29.52
42.35 42.15 41.56 42.43 41.35 39.90 39.71 40.08 40.59 41.63 42.58 41.69 41.51 41.00 40.95 41.28 40.75 40.16 40.88 40.74 40.58 39.32 35.28 33.44 32.47 32.42 31.99 31.03 31.34 31.47 31.71 31.14 29.94 29.49 30.43 30.97 30.68 30.77 30.03 29.99 30.11 29.84 28.17
40.71 40.42 41.01 39.83 38.69 38.73 39.25 39.50 40.36 41.24 39.94 40.22 40.91 39.82 38.84 38.95 39.25 37.67 35.47 33.99 33.87 33.71 32.66 32.15 31.89 31.35 31.25 29.79 30.04 29.76 30.14 29.79 29.64 29.68 29.51 29.36 30.08 30.32 30.56 29.62 29.12 29.30 29.70
39.92 40.65 39.46 38.40 38.72 39.14 39.40 40.16 40.52 39.71 38.79 38.26 38.41 37.43 36.06 35.21 34.66 34.17 33.52 33.15 32.58 31.58 31.28 31.06 30.99 30.41 29.94 28.77 28.76 28.93 30.26 29.78 29.38 29.51 29.60 29.20 29.07 28.92 28.25 28.40 28.90 29.85 30.31
41.09 40.11 39.02 38.97 38.55 38.57 39.68 39.30 39.69 38.98 36.70 35.55 34.91 34.79 34.04 33.49 33.12 32.13 31.33 31.78 31.34 30.96 30.58 30.47 29.66 28.90 28.82 28.06 28.00 28.73 29.32 28.53 28.38 29.18 28.78 28.73 28.22 29.23 30.18 29.42 29.23 29.34 30.20
41.06 38.69 38.80 38.55 38.10 38.76 39.56 39.60 38.75 37.46 34.36 35.03 35.16 34.46 33.12 32.28 31.38 30.72 30.49 30.74 30.64 29.50 29.57 28.36 28.77 27.90 27.81 27.28 27.66 28.30 28.66 27.38 27.45 28.90 29.59 29.30 29.29 28.95 29.36 30.29 28.64 27.04 27.98
38.93 38.35 38.01 37.40 37.77 38.34 37.85 36.58 36.24 36.33 34.64 36.24 34.30 33.06 32.63 31.50 31.22 30.29 30.30 29.72 29.45 28.51 27.52 26.98 27.60 27.45 27.31 27.31 27.09 27.11 27.91 26.95 27.18 27.39 28.03 29.77 29.43 29.97 29.74 27.78 27.81 27.46 28.72
37.82 37.08 36.76 37.05 37.89 36.06 35.21 34.83 34.57 35.89 36.03 33.96 32.78 32.44 32.06 30.86 29.91 29.38 29.42 28.83 28.44 27.34 26.15 25.90 26.43 27.29 27.21 26.38 26.04 26.49 26.97 27.45 27.24 27.16 28.75 30.17 27.58 26.78 26.62 26.58 26.59 26.89 27.41
37.86 36.84 36.50 36.94 36.92 36.85 35.77 34.81 35.86 35.19 33.42 32.48 31.83 31.16 30.81 29.89 29.84 28.80 28.07 27.64 27.71 26.25 25.63 25.54 24.85 25.11 26.25 26.61 25.60 26.23 26.59 26.45 27.22 28.90 28.09 26.72 25.13 24.48 25.21 25.22 25.58 25.82 27.10
36.38 36.27 36.88 36.68 35.87 37.05 36.14 35.76 34.07 32.98 32.04 31.35 30.46 30.53 29.94 29.63 30.08 29.47 28.25 27.62 27.13 25.67 24.80 24.38 23.95 24.08 24.38 24.92 26.14 26.53 27.20 26.32 27.31 26.57 27.34 24.97 22.93 23.15 23.55 24.90 25.91 26.40 26.25
36.54 36.43 36.58 36.30 35.69 36.65 35.16 33.97 33.39 32.46 31.21 30.16 29.83 29.57 29.12 28.47 28.29 27.72 27.55 27.30 27.67 25.91 25.05 24.32 24.39 22.96 22.26 23.84 25.92 25.34 25.15 25.79 24.78 25.45 24.22 22.26 21.45 21.96 22.53 23.24 23.73 25.29 25.62
36.62 36.03 36.28 36.24 35.55 34.82 32.95 32.86 32.92 31.71 30.57 29.18 29.02 28.46 28.10 28.08 27.39 26.69 26.39 26.68 25.50 25.55 25.38 24.79 24.36 24.49 23.93 24.71 24.88 24.12 24.20 23.95 23.13 22.13 19.88 19.25 19.63 19.53 20.25 20.86 21.52 23.05 23.48

GFSMW_sfc_wetblb_024.txt.gz
Wetbulb
56.22 56.52 56.76 57.28 57.52 58.81 59.82 61.35 61.37 61.53 61.83 61.89 59.84 59.52 58.66 58.45 58.29 58.52 58.28 58.51 58.67 58.60 58.78 58.39 58.67 59.08 58.53 58.72 58.74 58.26 57.73 57.10 57.37 54.46 53.69 53.91 54.81 54.90 54.52 54.67 54.21 53.83 53.64
54.53 55.04 56.28 56.92 57.26 57.67 57.98 58.20 57.29 57.09 57.09 58.63 57.74 57.45 56.67 57.20 57.89 58.59 58.85 58.74 58.05 57.72 57.12 57.10 57.01 57.58 57.10 57.59 57.57 57.54 56.27 56.27 56.74 53.50 52.31 49.30 51.80 53.66 54.00 54.30 53.59 53.82 53.50
52.95 53.83 54.55 55.60 56.50 56.20 56.37 56.40 56.90 57.07 57.04 57.32 57.94 58.25 58.66 57.94 56.79 56.31 56.23 56.26 55.90 55.84 55.84 56.01 56.11 56.12 56.13 55.27 56.28 56.37 55.77 54.11 55.60 55.94 52.11 48.88 47.24 50.70 53.81 53.10 53.14 53.12 52.50
53.28 53.44 54.06 54.81 55.58 56.15 57.20 56.95 56.72 56.60 56.38 57.03 56.29 55.50 54.52 53.36 54.25 54.67 54.90 54.36 54.89 54.41 54.24 54.48 54.83 55.06 54.95 54.42 54.63 54.83 54.78 54.56 52.54 54.54 55.28 54.06 52.75 48.39 46.62 50.39 51.68 52.28 51.41
52.85 52.70 53.46 54.39 55.26 56.38 56.67 56.94 56.74 56.18 55.97 56.18 55.60 54.58 53.69 54.26 54.48 53.41 53.37 53.63 53.61 53.28 53.10 53.49 53.27 53.24 53.42 53.48 53.56 53.48 53.44 53.39 52.31 51.70 51.97 50.65 50.83 50.80 46.65 45.93 46.61 49.75 50.10
52.79 53.23 54.31 55.18 55.08 56.33 56.26 56.30 55.49 54.87 55.01 54.66 54.28 52.77 51.63 51.95 51.84 51.61 50.45 50.47 50.79 51.15 51.89 52.08 51.91 52.02 51.73 51.08 51.02 50.87 50.04 49.83 49.18 48.21 47.51 45.87 43.03 43.18 43.96 43.90 46.18 44.22 45.13
52.80 53.15 53.15 53.85 54.35 54.75 55.16 55.06 54.83 53.76 54.13 53.48 53.12 52.65 51.87 51.69 50.74 50.21 49.56 48.93 48.82 49.23 49.82 50.53 50.49 50.54 49.91 49.38 47.98 46.32 45.59 43.81 42.60 41.62 40.64 39.44 38.81 38.43 36.86 36.55 37.84 38.48 41.87
52.17 52.43 52.86 53.66 54.04 53.96 54.33 54.68 54.15 53.39 53.17 52.72 52.38 52.58 52.02 51.49 50.77 49.98 49.22 48.39 48.15 48.58 49.65 49.47 49.11 48.27 47.76 46.83 45.96 46.34 42.65 40.49 39.52 38.35 38.12 38.04 38.11 38.40 37.68 36.59 36.27 35.88 37.37
50.95 52.03 53.07 53.82 54.09 54.36 54.21 53.99 53.41 53.08 53.05 52.57 52.63 52.29 51.43 50.66 49.50 49.40 48.66 47.56 48.02 47.93 48.34 47.87 47.30 46.88 45.81 45.50 45.85 43.78 43.30 42.77 42.47 42.12 41.53 41.22 40.36 40.13 39.88 39.45 38.61 36.07 32.37
51.02 52.27 52.62 52.72 53.23 53.65 54.14 53.85 52.46 51.77 52.31 52.43 52.38 50.73 50.42 50.42 49.28 48.08 46.43 46.46 47.29 47.43 46.07 45.38 44.21 42.84 42.31 41.99 42.91 42.62 42.54 41.72 41.90 41.60 40.51 40.16 40.47 40.03 39.82 39.25 39.11 37.67 36.18
50.87 51.10 51.58 52.17 52.73 52.65 52.27 51.22 51.15 51.20 51.59 51.74 50.82 50.27 49.71 48.68 47.40 46.07 45.91 46.33 45.84 43.82 42.20 42.05 41.06 40.11 39.99 40.50 40.76 40.60 40.62 39.89 39.73 40.16 39.19 39.35 40.53 39.92 39.60 39.74 38.93 37.81 37.40
50.24 50.85 51.15 51.82 51.14 50.69 49.92 50.13 50.44 49.69 49.32 49.30 49.07 48.51 48.35 47.16 45.74 44.96 45.09 45.52 43.44 43.21 41.40 40.30 40.23 40.98 40.73 41.20 40.78 40.00 39.56 38.50 38.36 38.65 38.53 37.72 37.77 37.90 38.57 38.48 37.88 37.79 38.17
50.08 50.30 50.66 49.99 49.27 48.11 48.56 48.29 47.69 46.40 46.75 47.07 46.91 46.97 46.52 45.28 44.70 44.15 43.18 42.30 42.33 42.60 42.48 42.51 41.78 40.94 40.50 39.79 39.51 38.81 38.45 38.44 37.93 37.62 37.07 36.92 37.02 36.47 36.84 36.71 36.32 36.54 36.34
49.23 49.70 49.37 48.42 46.96 47.36 46.46 44.93 44.80 45.66 45.64 45.81 45.70 45.18 44.15 42.86 42.72 43.09 42.32 43.02 43.46 42.64 42.41 42.10 40.96 41.09 39.08 38.28 37.86 37.13 36.92 36.75 36.67 36.63 36.40 36.25 35.73 35.39 35.21 34.92 34.58 34.44 34.54
47.83 47.82 45.93 45.89 46.15 44.42 43.47 43.83 44.24 44.46 45.13 44.39 44.02 42.93 44.76 42.52 41.87 40.50 40.88 42.19 42.73 42.18 41.48 40.40 39.47 38.69 37.88 36.90 34.84 34.93 35.15 35.03 34.80 35.16 34.89 35.08 34.77 32.77 32.65 32.68 33.21 33.66 33.52
46.41 44.43 42.71 44.60 43.21 42.21 42.22 42.56 43.25 43.75 44.27 43.47 42.58 41.75 42.40 42.15 42.06 42.23 40.89 40.66 39.61 39.25 38.91 38.16 37.51 36.99 36.43 31.36 30.79 31.15 32.99 33.56 33.56 33.23 33.74 34.04 33.52 33.44 32.47 31.75 31.24 30.98 29.29
43.41 42.10 43.77 43.22 42.48 42.30 41.97 42.16 43.08 44.00 43.32 42.41 41.54 40.94 40.72 40.00 39.68 39.40 38.80 38.40 38.08 37.87 37.16 36.89 36.45 35.81 35.71 30.27 29.96 29.54 31.85 32.40 33.32 33.43 33.02 32.76 33.40 32.52 31.73 31.09 31.03 30.27 29.90
39.66 42.08 44.05 42.83 42.68 42.51 42.16 42.73 43.14 42.44 41.81 40.26 40.41 39.91 39.38 38.46 38.50 38.13 37.51 37.35 37.02 36.39 35.95 35.68 35.31 34.65 34.29 30.25 29.20 28.58 31.50 32.69 32.74 32.80 32.66 31.90 30.85 30.81 29.90 29.67 29.99 30.38 31.06
41.86 44.25 44.14 42.76 42.63 42.03 42.29 41.80 41.81 41.68 40.99 39.16 38.42 38.71 38.88 37.65 37.17 36.71 35.90 36.19 35.63 35.23 34.77 34.30 33.61 32.78 32.56 30.31 28.47 28.81 30.35 30.53 30.18 30.12 30.55 31.15 30.63 30.42 30.80 30.41 29.96 30.50 31.63
44.12 44.19 43.33 42.87 42.39 42.04 41.75 40.46 39.75 38.91 38.89 38.67 38.61 39.00 38.14 37.27 36.30 35.54 35.14 35.29 35.08 33.89 33.55 32.16 32.35 31.11 31.01 29.09 28.09 28.31 29.27 28.02 28.49 29.08 30.23 30.24 30.65 30.02 29.98 30.42 30.60 28.70 28.66
43.43 44.40 43.70 42.31 42.12 42.02 40.68 38.73 38.77 37.87 38.69 39.43 39.08 38.36 37.78 36.69 35.66 35.34 35.18 34.34 33.78 32.65 31.59 31.11 30.05 30.01 29.83 29.40 28.06 27.41 27.64 27.69 27.07 27.77 29.00 31.10 30.48 28.27 27.99 27.85 28.73 27.41 28.94
41.57 42.94 42.38 42.04 42.28 42.00 40.24 38.57 38.27 39.76 39.74 39.41 38.11 37.38 36.67 35.31 34.58 34.54 34.50 33.79 33.09 30.96 30.67 29.07 29.66 30.51 30.90 28.50 27.82 26.94 27.67 27.79 27.49 27.38 29.32 30.60 28.02 27.03 26.43 26.70 27.20 26.63 27.13
42.10 42.61 41.84 41.16 41.69 41.86 41.03 38.72 39.24 39.85 38.86 37.59 36.76 36.13 35.28 34.80 35.00 34.06 33.21 32.11 31.21 29.06 27.90 27.50 26.93 27.25 28.83 29.08 27.18 27.01 27.17 26.87 27.81 29.24 28.11 27.89 26.26 25.89 26.32 26.47 25.46 26.60 28.84
39.84 40.39 40.02 39.46 39.76 41.26 41.01 40.59 40.00 38.97 37.60 36.04 35.57 35.23 34.40 33.34 34.48 33.86 32.64 30.94 28.86 27.40 26.41 26.24 25.64 26.04 26.71 27.29 26.69 27.23 27.26 26.51 27.70 26.78 28.32 26.86 25.67 26.42 26.60 27.04 27.23 28.46 29.09
39.00 39.37 38.96 39.07 39.40 40.14 40.40 40.37 38.85 37.73 35.79 34.86 34.15 33.63 33.23 33.14 32.38 31.86 31.21 30.12 29.55 27.51 26.43 26.15 25.82 24.62 23.92 24.31 25.40 25.32 24.71 25.55 25.02 25.40 26.80 25.31 24.46 24.92 25.31 25.45 26.01 27.57 27.50
38.49 38.30 38.48 38.40 38.78 38.85 39.36 38.95 37.94 36.30 34.79 32.98 32.81 33.06 32.45 32.51 31.31 30.55 30.01 28.65 26.69 25.37 24.95 24.37 24.63 25.40 24.08 23.99 24.05 23.81 23.51 23.18 23.10 24.12 22.63 22.17 21.95 22.72 23.60 23.90 24.46 25.59 25.25

GFSMW_sfc_wetblb_027.txt.gz
Wetbulb
59.52 59.39 59.64 60.40 60.38 61.16 61.20 63.53 63.82 63.84 63.14 62.85 60.91 60.03 59.50 59.80 59.45 59.56 59.98 60.23 59.93 59.65 59.41 58.70 58.59 59.46 58.38 59.50 60.51 59.99 59.28 58.92 60.10 57.67 57.80 57.90 58.37 58.06 56.78 57.44 56.36 55.93 55.75
55.87 56.97 58.17 58.95 59.22 59.26 59.98 60.11 59.97 59.53 59.44 59.55 58.83 59.14 58.85 59.11 59.43 60.01 59.33 59.32 58.69 58.01 57.09 56.93 56.38 56.58 56.21 57.49 58.32 58.51 57.28 57.94 59.19 55.37 54.94 51.69 54.55 56.85 56.76 56.65 56.56 56.75 56.18
54.50 55.75 56.84 57.89 58.57 58.37 58.55 58.37 58.50 58.60 58.67 58.99 59.42 58.69 58.78 58.76 57.61 57.82 58.01 57.84 57.57 56.53 56.25 55.77 55.13 55.70 56.18 55.15 56.80 56.73 55.99 54.19 56.33 57.86 54.37 50.03 48.71 52.87 56.34 55.59 55.81 56.38 56.24
54.82 55.62 56.06 56.64 57.40 58.04 58.78 58.63 58.29 57.99 58.00 58.61 57.78 57.56 56.63 55.74 57.10 56.96 56.48 56.59 56.59 55.42 54.67 54.06 54.13 54.15 54.06 54.39 54.80 54.39 55.52 54.67 52.38 54.45 54.55 53.57 52.97 48.70 48.83 52.61 52.58 53.93 53.21
55.19 55.23 55.56 56.49 57.37 57.89 58.18 58.49 57.88 57.35 57.37 57.57 57.21 56.58 55.52 55.31 55.06 55.16 54.61 53.86 53.74 53.47 52.69 53.14 53.20 53.34 52.92 53.59 53.34 52.98 52.41 52.13 51.26 50.86 50.05 49.22 48.74 50.24 45.24 44.71 49.76 49.75 52.04
54.82 55.40 56.17 56.57 56.84 58.21 58.04 58.04 57.12 56.86 56.84 56.71 56.16 55.13 54.00 53.11 52.23 52.21 51.36 51.55 51.73 51.71 52.01 51.45 51.63 51.69 51.63 51.84 51.23 50.71 49.20 48.33 47.98 47.76 46.57 43.54 41.69 42.20 39.37 40.37 43.28 43.73 48.72
54.31 54.37 54.63 55.27 55.64 56.05 56.83 57.11 56.78 56.05 56.49 55.85 55.14 54.60 53.72 52.82 51.99 51.55 51.04 50.29 49.62 49.03 49.55 50.22 50.36 50.47 50.59 48.97 48.09 47.34 45.98 45.40 43.59 42.56 40.98 39.98 38.58 38.29 37.29 36.38 36.58 35.55 40.47
53.90 53.71 54.10 55.00 55.79 56.06 56.65 56.67 55.88 54.85 54.98 54.94 54.39 54.26 53.94 52.73 52.26 51.88 50.79 49.41 48.27 48.10 49.39 49.64 49.01 48.06 46.03 45.65 45.81 44.86 44.20 43.35 41.14 39.90 40.24 40.77 40.68 40.81 39.34 37.82 36.91 36.00 37.96
52.58 53.31 54.30 54.95 54.87 54.75 55.00 55.47 54.69 53.67 53.59 53.90 54.13 53.73 53.15 52.04 51.44 51.19 50.19 48.43 48.12 47.85 48.90 46.23 43.57 42.72 43.14 43.38 42.49 42.78 42.86 43.20 43.11 42.50 41.78 41.04 41.21 41.06 40.46 39.74 38.76 36.14 32.85
52.70 53.50 53.70 53.68 54.01 54.31 54.37 54.45 53.56 52.64 53.07 53.22 52.27 51.58 51.30 51.28 50.66 49.73 47.79 47.30 47.71 46.98 45.40 43.09 42.72 42.52 41.55 41.78 42.34 41.49 41.68 40.67 41.28 41.73 41.38 41.26 41.64 41.27 40.97 39.43 38.61 37.94 35.73
52.58 52.86 53.02 53.67 53.55 53.54 53.40 52.52 52.29 51.81 50.76 50.04 49.52 49.53 49.43 49.61 49.15 47.51 47.11 46.75 45.62 44.35 44.36 44.14 42.74 41.55 42.32 42.37 42.30 42.09 41.59 40.42 39.88 40.21 39.86 39.64 40.71 40.05 40.09 40.42 40.21 39.04 38.08
51.94 51.09 51.50 51.97 51.61 51.72 51.25 50.80 50.26 48.40 47.73 47.57 47.39 47.42 48.15 48.03 47.36 46.40 44.26 45.26 44.77 45.02 44.19 43.51 43.18 42.73 42.68 41.85 41.07 40.52 39.65 39.10 38.53 39.24 39.05 38.20 38.20 38.00 38.59 38.29 37.49 37.94 38.46
51.28 51.30 50.72 50.22 50.28 50.18 49.58 48.33 46.85 46.23 46.25 46.40 46.57 46.86 46.50 46.19 45.07 44.64 44.75 44.67 44.17 43.66 43.42 42.81 42.16 41.72 41.43 40.45 40.29 39.46 38.96 38.41 38.04 37.87 37.41 37.19 37.16 36.39 37.03 37.03 36.70 36.96 36.64
50.18 49.81 49.74 50.15 50.23 48.81 47.57 45.45 44.98 45.54 45.96 46.12 45.62 45.01 45.15 45.19 44.37 44.32 40.97 42.92 42.93 42.24 42.50 42.43 41.29 40.83 40.12 39.49 39.17 38.67 37.28 36.75 36.77 36.97 36.76 36.56 36.10 35.84 36.02 35.74 35.75 35.41 34.99
49.02 48.72 48.29 48.46 47.03 46.73 45.16 44.91 44.50 45.30 45.94 44.93 44.68 44.24 43.31 43.62 44.04 43.35 42.75 42.98 42.56 41.02 40.96 40.23 39.87 39.54 38.84 37.79 36.53 35.88 34.74 34.07 34.40 35.38 35.89 36.47 36.53 34.38 33.93 32.94 32.65 32.85 32.48
48.56 47.75 46.29 44.51 44.89 44.57 44.51 43.98 44.20 44.30 45.36 44.44 43.75 43.56 41.82 41.45 41.31 41.56 40.78 40.52 39.94 39.89 39.71 38.68 38.42 37.90 37.48 31.17 30.94 31.33 32.58 32.27 32.63 33.11 34.52 35.77 35.67 35.27 33.98 33.41 32.75 32.04 29.56
46.14 43.16 41.73 43.51 44.99 44.83 44.53 43.03 43.25 44.31 43.95 43.59 42.98 41.48 41.32 40.81 40.72 40.55 39.94 39.32 38.60 38.69 37.92 37.69 37.54 36.79 36.70 30.95 30.55 30.15 31.52 30.96 32.03 33.02 33.47 33.51 34.58 34.16 34.07 32.55 31.92 31.44 31.32
41.22 40.47 42.62 44.87 45.23 44.56 44.29 44.07 43.75 43.20 43.25 42.78 42.13 41.34 40.33 39.80 39.53 38.85 38.09 38.40 37.79 37.20 36.81 36.38 36.20 35.60 35.41 31.41 29.96 29.47 30.63 31.31 31.67 32.40 32.29 32.18 32.13 32.35 31.24 30.67 30.56 30.99 31.86
40.48 43.14 45.42 45.31 44.77 44.69 45.11 43.80 42.72 42.29 41.51 41.02 40.58 40.07 39.82 38.69 38.34 37.86 37.36 37.16 36.79 36.12 35.74 35.55 34.59 33.03 33.15 32.26 29.70 29.17 29.68 29.34 29.34 30.23 31.11 31.08 31.02 31.59 31.80 30.88 30.37 29.72 31.25
44.75 44.45 44.61 45.12 45.11 45.22 44.93 43.15 41.97 41.21 40.31 40.44 40.00 40.09 39.37 38.32 37.87 37.45 36.53 36.63 36.31 35.16 34.96 33.46 32.48 31.19 30.81 31.52 30.01 29.21 29.39 27.88 28.22 29.37 29.81 29.98 30.40 30.46 30.76 30.56 29.20 27.64 29.01
43.79 44.34 44.23 44.09 44.80 45.04 44.09 42.22 41.81 40.56 41.39 41.46 40.82 39.94 39.27 38.30 38.00 36.81 36.78 36.06 35.43 34.50 33.57 32.55 32.10 31.62 31.97 31.78 30.23 29.04 28.99 28.09 28.29 27.74 28.16 30.20 30.50 28.89 28.13 27.86 27.92 27.52 29.27
43.33 43.86 43.15 42.59 43.17 43.52 42.66 41.35 40.84 42.18 42.00 41.26 40.12 38.78 38.27 37.82 36.85 36.19 36.05 35.47 34.44 33.21 32.85 32.25 31.50 31.60 32.01 30.30 29.79 27.78 27.73 28.11 27.29 26.81 29.32 30.40 28.16 28.00 27.40 27.13 27.43 27.93 27.17
41.38 41.82 40.94 40.55 41.37 41.89 41.61 39.92 41.31 41.97 40.91 39.82 38.56 37.88 37.82 37.01 36.65 35.57 34.68 33.53 33.16 31.38 29.91 28.91 28.93 29.35 29.92 30.27 29.32 27.42 27.10 26.92 27.22 28.66 27.83 27.08 28.34 27.27 27.64 28.53 27.35 26.95 28.14
39.54 40.25 39.72 39.10 39.24 40.58 40.29 40.29 41.05 41.61 40.60 37.83 37.47 36.83 36.14 34.88 35.30 35.13 34.32 32.43 31.42 29.02 27.56 27.41 26.97 27.58 26.88 27.95 27.40 26.88 26.99 26.18 26.20 26.23 26.58 28.35 27.37 27.67 28.35 29.11 29.20 29.76 30.14
39.07 39.13 38.78 38.85 38.87 39.71 39.46 40.02 40.42 40.10 37.98 36.84 35.59 35.29 35.05 34.55 33.39 33.66 32.85 31.78 31.40 29.41 27.38 26.62 25.84 24.79 23.89 24.98 24.90 24.93 24.77 24.94 24.24 24.14 27.09 25.83 24.74 24.23 25.86 26.95 27.39 28.57 28.35
38.63 38.63 38.63 38.67 38.42 38.74 38.57 38.48 39.58 39.02 36.48 33.88 33.86 34.23 33.72 32.78 32.23 31.54 31.61 31.43 28.90 26.87 26.07 25.04 24.42 25.49 24.08 23.80 23.98 23.92 23.63 23.76 23.32 23.75 23.38 22.81 22.38 21.86 23.05 23.96 24.82 26.23 25.92

GFSMW_sfc_wetblb_030.txt.gz
Wetbulb
57.07 58.29 59.15 60.14 60.30 61.75 62.00 62.20 61.48 61.88 61.33 61.29 59.55 58.16 57.30 57.44 57.73 58.06 58.65 58.42 58.32 57.39 56.30 55.73 55.35 54.99 54.06 54.05 54.26 53.52 52.78 53.27 54.46 53.69 53.20 53.40 54.51 54.21 54.59 53.85 52.07 52.05 52.67
55.32 56.69 57.41 58.09 58.15 58.52 59.06 59.00 58.41 58.36 58.07 57.75 57.61 57.23 56.95 57.40 57.42 58.14 57.03 58.02 57.68 56.41 55.34 54.43 53.50 53.30 52.11 51.74 51.68 51.77 51.63 51.61 52.19 50.96 50.67 47.59 49.70 51.93 53.49 54.11 53.23 52.09 53.03
54.07 55.49 56.25 56.88 57.48 57.35 57.82 57.52 57.77 57.76 57.58 57.68 57.49 57.02 57.34 57.03 55.67 56.30 56.23 55.89 56.35 55.83 54.88 53.31 52.12 51.80 51.49 50.18 49.77 49.87 49.38 48.62 49.79 50.24 48.77 45.61 43.84 47.33 50.42 51.23 51.91 52.83 52.85
54.66 55.12 55.69 56.15 56.78 57.28 58.24 57.88 57.89 57.30 57.04 57.56 56.36 55.98 54.65 53.41 53.78 53.80 54.25 53.78 53.67 53.04 51.87 51.50 51.05 50.36 50.51 49.49 49.17 50.50 49.03 48.18 46.60 48.15 49.88 47.76 46.46 43.84 43.14 47.60 49.47 52.24 52.02
54.49 54.40 55.09 55.74 56.38 57.70 57.47 57.49 57.45 57.13 56.85 56.45 55.80 54.17 53.01 52.60 52.59 52.01 51.55 51.12 51.65 51.28 51.05 49.50 48.94 48.86 48.84 48.49 48.75 47.71 46.18 46.33 44.69 44.06 43.39 42.62 42.79 43.54 42.77 40.93 42.44 47.09 48.14
54.10 54.82 55.75 56.51 56.35 57.91 57.54 57.50 56.85 56.34 56.82 55.62 54.99 53.81 52.40 51.51 50.12 50.18 49.44 49.53 49.41 48.97 48.45 48.69 47.95 48.21 47.89 46.60 46.19 45.65 45.65 44.63 43.57 41.98 42.08 40.57 39.07 38.41 37.87 36.76 37.40 37.95 41.73
54.13 54.44 54.23 54.64 55.68 56.15 56.65 56.50 56.10 54.87 54.80 54.60 54.38 53.69 52.45 51.65 50.39 49.85 49.19 48.46 47.17 46.13 45.87 47.22 46.47 45.46 45.20 44.94 44.82 44.74 43.70 43.56 41.76 40.55 40.02 39.94 39.03 38.57 37.62 36.40 36.18 36.10 39.13
54.13 54.39 54.33 54.68 54.75 54.99 54.92 54.88 54.55 53.40 53.06 52.84 53.10 53.27 52.65 51.17 50.32 50.15 48.43 46.98 45.71 45.26 45.74 45.51 44.21 43.65 43.85 43.57 43.38 42.94 42.93 42.94 42.07 40.33 40.15 40.12 40.51 40.47 39.40 37.53 35.63 34.23 35.24
53.49 53.42 54.11 54.30 53.94 53.73 53.91 53.82 52.97 52.33 52.25 52.20 51.93 51.07 50.97 49.85 49.19 49.31 47.75 46.03 45.91 46.22 44.96 43.62 42.83 42.16 41.95 42.57 42.24 41.59 40.71 41.01 40.61 40.15 40.73 40.83 40.62 39.68 39.29 39.18 38.04 34.89 30.86
53.21 53.66 53.60 53.88 54.00 53.95 53.53 53.62 51.91 51.11 50.99 49.72 48.33 47.20 47.69 47.95 47.72 47.52 45.79 45.15 44.53 44.52 43.62 43.06 42.38 41.82 41.16 40.94 40.57 41.04 40.97 40.54 39.03 39.16 39.13 39.44 39.79 40.07 40.18 39.97 39.21 37.70 34.58
52.09 52.62 52.34 52.82 53.27 53.01 52.21 50.98 50.46 49.26 47.28 46.31 46.21 46.07 46.42 46.70 46.68 45.79 44.48 43.97 43.88 43.85 42.95 43.40 41.60 41.91 42.06 41.32 39.96 39.43 39.49 38.97 38.80 37.93 37.86 37.60 38.27 37.28 37.09 36.58 37.16 37.20 36.67
52.01 52.15 52.23 51.89 51.40 50.64 49.73 49.30 48.43 45.91 45.49 45.57 45.53 45.56 46.12 45.74 44.82 44.29 44.08 44.20 42.93 43.49 43.21 42.76 42.48 42.12 41.07 40.62 39.25 38.26 37.88 36.95 36.01 36.54 35.36 35.18 36.96 33.93 34.16 34.41 33.85 33.97 34.44
51.43 51.19 51.03 50.50 50.27 49.27 48.62 47.42 45.54 44.81 44.83 45.24 44.66 44.48 44.53 43.90 43.67 43.50 43.39 43.01 42.70 42.63 42.06 41.94 41.07 40.75 40.41 38.88 37.49 36.77 36.23 35.25 33.90 33.44 33.49 33.69 33.81 32.32 32.41 33.15 33.45 33.41 34.74
49.87 49.79 49.98 49.46 49.07 48.40 47.50 45.64 44.98 44.91 44.57 44.56 44.10 43.73 43.07 42.32 42.68 42.47 42.17 42.10 41.85 41.76 40.95 40.46 39.48 38.84 37.74 37.27 36.38 35.80 33.89 32.78 32.39 32.32 32.48 32.84 32.81 32.16 31.90 31.09 30.06 31.35 29.36
48.35 47.69 47.18 46.86 46.34 46.28 45.74 45.31 44.77 44.10 44.45 43.69 43.58 42.81 42.44 41.93 41.45 41.76 41.64 41.06 40.40 39.68 39.08 38.38 37.30 36.83 36.61 34.27 31.97 31.92 31.00 30.22 29.97 30.40 31.73 32.44 34.20 36.15 33.57 31.80 29.37 28.64 27.53
46.75 46.40 45.45 44.42 44.39 44.98 45.22 44.77 43.97 43.30 43.79 42.81 42.53 42.80 41.95 41.45 41.36 40.58 39.95 40.08 38.98 38.57 37.60 35.96 35.94 35.22 36.16 31.93 31.63 30.22 28.37 29.68 28.90 27.78 29.37 31.55 33.80 33.57 34.32 34.28 33.80 31.54 27.67
44.49 43.80 43.30 43.54 44.68 45.29 44.69 43.09 43.27 43.63 42.85 42.01 42.57 42.73 41.77 40.54 40.03 39.89 39.13 37.86 36.92 36.24 34.76 34.73 34.65 33.53 33.13 32.00 31.25 30.48 28.46 27.91 27.80 28.11 28.87 29.73 32.08 31.69 31.08 31.03 31.62 31.56 32.03
42.62 42.37 42.75 43.86 45.37 45.04 44.26 44.32 44.58 43.00 42.25 41.36 40.96 41.33 40.37 39.19 39.64 39.01 37.57 36.96 35.10 33.83 33.04 32.78 33.13 31.69 32.45 33.22 31.05 30.20 27.05 26.38 27.11 27.39 27.07 27.31 27.79 28.87 29.48 28.72 28.18 29.32 29.98
42.86 43.33 44.41 44.53 43.92 43.93 44.72 44.28 43.37 42.67 41.87 41.05 40.55 40.30 39.70 38.89 38.42 37.08 36.28 34.70 33.73 32.94 32.40 32.95 31.35 29.67 29.29 32.02 32.21 30.11 26.64 26.35 25.98 26.70 27.38 27.76 27.01 29.60 31.18 29.00 27.11 27.44 28.05
43.91 43.29 43.95 43.68 43.55 43.35 43.17 42.21 41.71 41.44 41.18 41.26 40.34 40.38 39.90 39.03 37.65 36.87 34.75 34.02 33.53 32.80 32.40 31.01 30.73 31.38 28.94 32.25 32.12 30.92 27.46 23.86 25.61 25.82 27.03 28.80 28.64 30.02 29.52 27.81 26.98 24.85 25.53
43.05 42.99 42.31 41.18 41.01 41.59 41.12 39.83 39.55 39.18 40.92 41.56 40.87 40.48 39.93 38.49 37.80 35.76 34.52 33.64 31.93 31.14 29.84 29.85 30.12 29.86 30.45 29.16 31.32 29.28 26.21 25.56 24.68 24.62 24.90 26.42 29.01 28.36 28.64 28.32 26.22 25.44 27.37
40.90 40.92 39.62 39.48 40.50 40.63 39.81 38.62 38.09 39.70 41.15 41.28 40.27 39.17 38.63 37.69 36.90 34.62 33.50 32.97 30.84 29.82 26.99 25.57 26.94 28.54 30.03 30.67 29.87 29.31 27.31 26.43 23.77 23.92 24.97 27.35 27.11 28.48 28.22 27.47 27.98 28.71 27.72
39.27 39.53 38.48 38.31 39.11 39.99 39.86 37.85 38.36 39.65 39.35 39.48 39.06 37.99 37.61 36.66 35.87 33.06 31.65 29.92 29.58 27.87 26.14 27.01 25.75 26.58 27.02 26.66 28.14 25.98 25.69 25.73 23.57 24.52 25.56 25.90 27.15 28.29 27.65 28.29 29.29 28.57 27.01
38.60 39.06 38.14 37.49 37.78 39.43 39.08 38.64 38.72 38.64 38.20 37.55 36.95 36.18 34.55 34.55 33.53 33.54 31.93 28.98 28.05 26.42 27.85 26.13 23.54 22.37 23.89 23.64 22.89 22.85 23.21 24.50 23.91 23.83 23.13 24.33 26.72 25.24 26.02 27.29 28.02 27.88 28.26
38.32 38.22 37.81 37.51 37.71 38.50 38.28 38.77 38.43 38.08 36.26 35.67 34.80 34.04 33.58 32.38 31.22 31.01 29.83 29.02 29.04 27.13 25.11 23.87 22.82 19.52 19.10 21.73 23.01 23.15 22.36 22.02 23.43 22.14 23.68 23.77 22.36 21.94 22.41 23.76 24.45 26.18 26.08
37.78 37.70 37.83 37.65 37.99 38.23 37.73 37.89 38.29 37.32 34.85 32.62 32.58 33.09 31.96 31.19 30.11 29.06 29.72 30.98 29.61 28.28 28.10 27.28 23.35 21.59 24.15 24.45 24.19 24.05 24.11 24.17 24.75 22.13 21.39 20.33 19.99 19.58 20.55 21.77 21.60 23.14 23.96

GFSMW_sfc_wetblb_033.txt.gz
Wetbulb
53.44 54.53 54.82 55.19 55.62 55.63 55.79 55.03 54.79 54.97 54.67 53.63 52.18 51.88 51.45 52.29 52.69 53.60 54.49 54.55 54.23 54.14 52.71 51.94 51.26 50.80 50.29 49.09 49.35 48.98 48.75 48.86 49.67 48.95 49.71 49.43 50.65 50.71 51.59 51.78 50.90 50.34 51.57
52.42 53.75 53.62 53.43 53.31 53.13 53.22 53.44 53.28 53.05 52.99 52.53 51.71 51.98 51.78 52.14 52.53 53.35 53.93 54.16 53.16 52.73 52.59 50.04 49.34 48.72 48.74 48.25 47.81 46.91 45.85 46.39 47.36 45.73 46.14 43.61 46.04 47.46 49.30 49.50 50.54 50.27 50.71
50.71 52.22 52.50 51.26 51.21 51.27 51.22 52.37 52.61 52.83 52.76 52.85 52.75 52.59 52.30 51.69 50.48 50.22 50.62 50.30 50.46 49.84 48.72 47.98 47.66 46.94 47.31 46.63 45.90 45.92 45.89 44.62 45.64 45.66 44.11 41.80 40.05 42.92 46.29 47.07 48.31 48.39 49.53
51.19 52.08 51.27 50.80 51.14 50.92 51.61 51.98 52.51 52.11 52.91 52.63 51.27 50.04 48.81 47.94 48.87 48.29 48.25 48.28 49.08 48.81 48.11 46.88 46.12 46.18 46.64 45.38 45.90 46.41 44.41 44.10 41.49 43.27 43.74 42.23 42.78 39.10 37.85 43.00 44.06 42.92 44.56
49.57 50.02 50.53 51.40 51.59 51.70 51.25 51.58 52.04 52.05 52.17 51.63 50.79 49.12 48.38 48.64 48.25 47.90 47.65 47.65 47.97 47.23 46.63 46.25 45.73 45.68 45.34 44.48 43.84 43.32 43.55 44.70 43.40 41.93 41.04 40.60 38.20 37.63 34.81 34.17 36.86 39.98 41.43
49.02 50.09 50.98 51.76 51.23 51.40 50.92 51.01 51.23 51.16 50.86 50.45 49.94 48.96 47.80 48.02 47.11 46.96 46.08 45.95 45.44 44.95 44.80 45.82 44.63 44.20 43.56 43.22 42.63 42.00 43.05 41.01 40.77 41.02 39.24 38.69 36.94 36.51 36.12 35.21 35.24 35.36 38.51
47.94 48.14 48.82 49.03 49.61 49.33 49.77 50.61 49.97 49.50 49.68 49.47 49.33 48.48 47.65 46.99 45.75 45.49 44.40 43.62 42.84 42.33 43.43 43.09 42.50 42.07 42.09 41.70 41.81 42.16 40.70 40.36 39.30 39.08 38.75 38.44 36.69 38.81 37.87 36.44 35.69 33.77 35.42
49.05 47.83 48.70 48.48 48.44 49.04 48.74 48.92 49.12 49.21 49.15 49.39 48.18 47.20 46.99 46.39 46.03 45.72 44.55 43.28 42.24 42.15 42.46 42.17 41.40 41.06 40.90 40.78 40.20 39.59 40.30 38.86 38.81 37.55 40.54 39.92 39.87 40.20 37.91 36.99 35.27 31.30 32.44
48.13 48.11 48.65 48.48 48.14 48.21 48.47 47.66 47.68 48.21 47.15 45.27 43.78 43.29 43.97 44.00 43.68 43.65 42.66 41.82 42.10 43.70 41.72 41.10 40.59 40.13 39.81 39.52 39.08 38.29 37.77 37.57 37.31 37.39 37.61 37.34 37.80 39.38 39.55 39.35 37.92 33.97 28.85
47.72 48.53 47.85 48.24 48.11 47.59 47.59 46.69 46.65 45.68 43.46 42.51 42.50 43.05 42.65 42.97 42.71 41.83 41.21 41.22 41.14 41.53 41.32 40.59 39.77 38.97 38.98 40.27 38.53 37.55 37.85 37.18 37.01 37.15 36.12 35.87 36.87 37.60 38.74 38.55 37.76 37.86 34.84
47.13 46.94 46.96 48.13 47.91 47.67 46.35 45.42 43.08 42.05 41.12 41.36 41.81 41.61 41.78 42.32 42.12 42.36 41.61 41.43 41.09 40.07 39.94 41.17 41.78 41.50 41.88 41.44 39.03 38.33 37.77 37.51 36.46 36.00 35.19 34.74 35.06 33.79 33.95 34.62 33.90 34.42 35.31
47.91 47.24 46.96 47.27 46.57 45.79 44.69 42.23 40.95 40.67 40.57 41.45 41.51 41.24 41.29 41.54 41.42 41.16 40.68 40.79 40.24 40.94 41.05 42.11 41.56 41.12 40.21 40.35 39.04 36.82 35.67 33.96 31.48 31.44 30.97 31.98 33.70 30.73 31.18 31.19 30.65 30.67 31.09
46.37 46.10 46.18 44.98 44.62 45.31 44.20 41.63 41.59 40.76 41.83 41.48 40.88 40.46 40.23 39.56 39.70 39.90 40.23 40.25 39.82 39.77 39.56 40.20 39.93 39.14 38.12 36.17 34.47 33.64 32.71 31.61 30.85 30.96 30.58 30.04 30.06 29.17 29.93 30.52 29.93 29.85 31.73
45.53 44.97 44.68 43.64 42.74 45.03 44.21 42.48 40.91 40.62 40.62 40.70 40.18 39.81 39.29 38.83 38.90 39.30 39.36 39.27 39.63 39.23 38.74 37.15 37.30 36.09 34.99 33.33 32.55 31.91 30.11 29.25 29.60 29.87 29.27 29.30 29.10 28.89 29.29 30.60 29.33 29.52 27.10
44.43 43.38 41.91 40.77 41.26 41.56 42.17 42.23 40.69 40.70 40.34 39.50 39.19 39.20 38.97 38.68 38.47 37.76 37.74 37.93 37.65 36.77 36.47 35.24 34.47 34.03 32.64 31.73 29.14 28.55 27.55 27.14 27.26 27.99 28.84 29.15 30.69 33.53 33.57 31.34 29.63 27.67 25.41
41.99 41.63 41.48 41.29 41.26 42.10 42.26 41.29 40.60 40.27 40.23 39.10 38.81 39.50 39.06 38.22 37.90 37.21 36.76 36.55 35.95 36.09 34.30 33.53 32.94 30.95 32.12 32.32 31.49 29.44 26.28 26.84 26.62 25.72 26.97 27.49 29.93 30.60 31.57 32.43 31.91 30.79 27.59
40.38 40.27 39.88 40.22 41.30 41.51 43.28 39.87 39.74 40.71 40.05 39.60 40.02 40.34 39.42 39.56 37.78 37.77 37.32 35.02 33.27 32.16 32.29 31.63 30.85 29.61 29.06 32.43 31.70 31.25 26.98 25.66 24.80 24.60 25.45 25.52 28.06 28.22 28.42 29.44 30.37 30.28 31.44
39.74 39.68 39.99 40.68 41.47 42.23 40.91 39.66 40.86 40.49 39.83 40.26 39.58 39.09 38.46 38.20 38.53 37.92 36.05 33.89 31.48 30.38 31.13 29.82 29.63 28.26 30.35 32.55 32.71 32.26 26.43 25.12 25.20 25.25 25.07 24.84 25.34 26.80 27.38 26.85 26.43 27.36 28.52
39.31 39.98 41.54 41.58 39.52 37.50 37.61 37.28 36.69 36.90 38.02 38.08 37.96 38.12 38.97 38.48 37.98 36.39 33.66 32.19 31.37 29.54 29.58 30.13 28.68 27.64 27.43 31.59 32.45 31.07 25.77 25.79 25.39 26.61 25.87 25.69 25.36 27.93 29.82 27.59 25.05 25.83 26.93
40.59 40.60 37.54 36.56 35.93 35.78 36.33 35.66 35.58 35.69 35.88 37.23 38.32 38.85 38.66 38.47 36.20 36.12 33.55 31.74 30.64 30.23 29.53 28.81 29.08 30.31 27.27 30.63 31.90 28.81 21.23 21.22 24.95 24.62 25.16 26.89 26.06 27.85 29.16 26.61 25.94 23.16 23.97
37.24 36.79 35.50 34.14 34.20 35.71 35.91 35.46 34.50 34.15 37.06 37.77 38.13 37.87 37.45 37.14 37.33 33.90 31.52 31.47 28.38 28.33 27.49 25.82 27.31 27.78 28.31 26.76 30.00 29.05 25.73 23.98 23.77 22.85 23.05 24.38 26.45 27.06 28.04 29.12 26.60 25.31 26.56
35.51 35.91 33.99 33.43 34.26 34.97 35.90 33.66 32.90 35.48 36.41 36.53 37.00 37.47 36.94 37.26 35.16 31.03 30.21 29.03 27.37 26.24 19.13 16.20 19.11 23.08 24.59 27.77 27.16 26.57 25.77 24.90 20.23 21.52 22.84 24.37 26.39 28.19 28.10 27.38 28.58 29.29 28.39
34.41 35.08 33.55 34.11 34.89 35.47 34.92 33.57 34.03 34.90 35.40 35.46 35.12 34.77 35.38 35.01 32.92 29.86 27.61 26.48 25.87 22.24 20.64 20.03 17.90 17.44 23.61 21.89 25.48 24.69 24.71 24.58 21.41 22.84 24.43 25.82 26.74 25.89 25.55 27.09 27.09 27.31 27.35
33.29 34.59 34.27 34.04 34.14 35.74 36.41 34.32 35.24 36.16 34.54 34.11 33.66 33.40 31.95 31.78 30.06 29.75 28.30 23.99 21.28 20.05 24.34 20.61 16.28 13.15 20.52 19.76 20.21 21.51 19.88 23.42 22.63 23.48 23.37 24.25 24.29 23.52 23.84 24.58 24.83 25.47 25.38
33.96 34.56 33.89 34.04 34.35 35.67 35.63 35.47 35.27 35.23 33.07 32.08 32.28 31.67 30.17 29.50 28.09 27.98 25.87 25.79 24.53 22.99 18.75 18.90 17.25 10.13 8.20 18.17 24.20 23.69 22.33 22.05 23.30 22.77 22.33 21.15 20.41 20.18 21.06 21.84 22.78 23.37 23.72
34.03 33.71 33.97 33.95 34.15 34.64 34.58 35.53 35.26 34.14 32.28 30.13 30.42 30.18 28.53 26.83 25.19 23.61 25.12 30.12 28.57 28.91 29.84 29.24 21.15 17.10 22.91 24.97 25.81 25.53 24.89 24.43 24.88 20.73 18.58 17.28 17.76 18.26 19.15 19.19 19.80 21.21 21.82

GFSMW_sfc_wetblb_036.txt.gz
Wetbulb
51.59 52.56 53.09 53.39 53.83 54.56 54.18 54.38 54.80 54.84 54.58 53.53 52.39 51.58 50.99 50.60 51.46 53.13 54.38 53.91 53.17 51.81 49.50 48.66 48.24 47.99 47.52 46.88 47.25 46.80 45.35 44.99 46.44 44.98 45.60 45.82 47.20 47.14 47.23 48.03 48.68 49.55 50.84
50.54 51.33 51.31 52.29 51.43 52.89 53.48 51.92 51.52 51.47 51.65 51.18 50.42 51.42 50.94 50.53 50.47 51.42 50.31 50.25 48.82 48.56 47.63 46.09 46.24 45.99 46.04 45.21 44.80 44.47 44.11 44.78 44.88 42.98 42.73 40.71 43.43 43.79 44.75 45.95 46.50 45.81 47.16
49.17 50.31 50.74 50.12 49.91 49.45 49.89 51.20 50.76 50.98 50.99 51.21 50.75 50.12 50.16 49.17 47.87 47.58 46.86 47.61 47.91 47.19 45.87 45.28 45.00 45.11 45.21 44.25 43.96 43.62 42.74 42.22 42.86 42.33 42.21 38.49 36.68 38.10 41.43 41.64 42.69 41.82 42.50
49.93 50.23 49.60 49.14 49.30 48.86 49.81 50.12 50.56 50.74 51.27 50.66 49.64 48.26 47.29 46.04 46.49 45.93 45.94 46.05 46.54 45.81 45.79 45.30 45.26 45.04 44.82 43.29 43.50 44.45 42.36 43.95 42.41 42.43 42.72 41.21 41.15 34.03 33.73 37.90 39.21 39.21 40.14
49.00 49.13 49.26 49.89 49.66 49.85 49.37 49.28 50.12 50.12 49.76 49.29 48.70 47.81 47.01 47.44 47.70 47.17 46.34 45.77 45.24 45.10 45.96 45.72 44.31 43.41 43.46 42.73 41.62 41.23 40.89 41.15 39.72 38.62 37.53 37.05 36.51 35.99 33.12 31.37 34.41 37.15 38.11
47.76 48.65 49.45 50.09 49.27 49.19 48.54 48.31 48.12 48.16 48.63 48.65 47.84 47.09 46.42 46.05 45.34 45.19 44.52 44.23 43.71 43.93 44.13 43.97 42.82 42.24 41.51 40.92 40.76 40.08 39.70 38.74 38.51 38.02 36.48 36.81 35.39 35.56 35.43 33.96 33.92 33.31 35.09
47.24 47.96 48.51 48.50 48.81 48.16 47.67 47.97 47.87 47.04 48.22 47.74 47.13 46.21 45.75 45.06 43.93 44.24 42.82 42.28 41.18 41.79 42.05 41.81 40.98 40.56 40.38 40.14 39.54 38.82 38.09 37.44 36.46 36.36 35.56 36.43 38.28 38.84 37.54 36.10 34.08 33.05 35.62
47.48 46.64 47.56 47.74 47.17 47.50 47.00 46.86 46.76 47.10 47.58 45.05 43.40 43.03 43.53 43.22 43.32 42.82 42.22 41.49 41.70 41.80 41.78 40.86 40.38 40.05 39.96 39.75 38.85 37.34 37.50 37.35 35.60 35.00 36.05 37.44 38.96 37.99 37.85 36.39 34.76 32.46 33.03
46.69 47.67 47.18 46.38 45.97 45.94 46.38 45.80 45.92 43.94 43.02 42.46 41.95 41.68 41.94 41.72 41.82 41.31 41.09 40.55 40.76 42.44 41.10 40.15 39.83 39.41 39.04 39.03 38.02 36.83 36.42 36.23 35.84 35.57 35.43 35.07 35.56 36.11 35.91 35.78 37.17 35.00 29.30
48.55 46.44 46.91 47.06 45.87 45.51 44.57 43.40 41.88 41.54 41.76 41.82 41.38 41.84 41.27 42.10 41.33 40.62 39.97 39.48 39.64 39.91 39.59 39.13 38.93 38.28 40.64 40.70 38.65 37.27 37.68 36.60 36.70 37.58 36.53 34.84 34.69 34.62 35.37 36.64 35.36 36.04 33.49
45.88 46.18 46.27 45.48 44.93 43.73 41.94 40.30 41.35 40.54 40.15 42.24 40.59 40.24 40.22 41.07 40.82 40.20 39.73 39.83 39.30 39.22 39.13 39.91 39.93 39.58 38.56 38.71 37.91 37.38 37.03 35.69 33.41 31.23 30.85 31.08 32.33 30.59 30.35 30.78 30.84 30.14 30.91
45.09 44.61 43.63 43.58 43.00 42.89 41.17 40.47 39.53 41.56 40.06 40.00 40.21 39.77 39.60 40.49 39.94 39.81 39.73 39.46 38.55 39.18 39.03 39.22 38.88 38.32 37.80 37.31 35.19 33.15 32.29 30.95 29.63 29.52 29.97 30.22 31.13 28.25 28.56 28.48 27.88 28.80 29.69
43.97 43.79 43.03 42.10 42.19 42.58 42.36 40.73 39.95 39.05 39.51 39.90 39.20 38.87 38.31 39.01 38.81 38.96 39.24 38.99 38.78 38.54 38.02 38.41 37.28 36.00 34.92 32.58 31.83 30.84 29.94 28.91 28.82 28.74 28.93 28.41 28.07 26.69 27.12 27.24 27.77 28.58 30.61
42.82 42.29 40.86 40.32 40.49 41.54 41.49 41.15 40.32 39.52 39.09 39.38 38.52 37.67 37.45 38.11 37.35 38.09 38.37 38.14 38.76 37.85 36.86 35.98 35.28 33.91 31.76 31.22 30.17 29.64 27.66 27.16 27.82 28.12 27.63 27.09 26.94 26.42 26.81 28.19 27.64 28.41 26.43
40.86 40.48 39.81 39.37 39.60 40.30 41.03 41.69 40.48 39.88 39.47 38.42 37.64 37.31 37.52 37.73 38.45 37.45 37.04 39.24 38.27 37.38 36.39 33.75 32.93 31.99 30.89 30.65 28.25 28.02 26.97 26.37 26.25 26.82 26.72 27.18 28.38 30.02 29.80 28.94 28.23 27.75 26.20
40.11 39.82 39.72 39.72 39.80 40.49 40.68 40.93 40.74 39.27 39.31 38.37 38.23 38.82 38.24 38.50 37.06 37.90 37.12 37.80 36.96 36.86 33.55 32.02 31.69 30.52 31.29 32.24 31.54 29.71 26.35 26.59 26.01 24.50 25.26 25.96 27.54 26.67 28.95 29.43 30.19 30.02 27.14
39.32 39.27 38.92 38.99 39.41 39.07 40.08 37.53 37.55 38.75 38.64 38.19 38.95 38.27 38.14 37.56 36.83 36.69 36.87 37.45 35.91 33.42 31.62 31.20 30.32 28.40 28.34 32.35 32.80 32.80 28.61 26.02 24.81 24.29 24.60 25.54 27.26 26.96 26.27 27.73 28.61 28.75 29.61
37.95 38.08 38.12 38.74 38.97 38.55 36.77 35.74 36.01 35.75 35.35 37.01 37.05 37.60 36.90 36.24 36.38 36.44 35.62 34.02 33.28 31.60 30.61 29.10 28.62 27.46 29.03 31.93 32.30 32.37 27.55 25.67 25.65 25.69 25.39 24.63 24.02 24.94 25.91 25.76 26.58 26.30 26.76
38.09 38.50 38.83 38.74 36.24 34.28 34.38 34.29 33.83 33.35 35.38 35.57 36.61 37.04 37.21 36.70 36.40 36.53 35.55 35.34 33.90 29.81 29.10 29.32 27.62 26.73 27.12 31.18 31.35 27.64 24.04 24.73 24.09 25.78 25.44 24.62 23.76 26.18 27.85 26.73 25.24 25.10 25.46
38.69 37.60 36.17 33.54 32.71 33.05 33.62 32.87 32.05 32.42 33.89 35.25 35.75 36.80 37.25 36.64 35.64 34.48 33.96 33.32 29.57 29.89 28.92 28.68 27.92 29.46 25.83 29.02 29.63 27.67 22.27 16.02 22.78 23.38 23.72 25.05 24.39 26.09 26.94 25.40 24.51 23.23 24.24
33.69 34.06 32.74 31.86 32.13 33.24 33.36 32.51 31.57 32.25 34.68 35.35 35.59 36.97 36.80 35.55 37.08 34.53 31.10 28.80 28.87 27.91 26.84 24.36 25.90 26.31 25.70 24.46 27.60 26.80 20.20 20.81 22.32 21.55 21.20 22.71 25.21 27.35 27.79 27.40 25.91 25.98 27.14
33.08 33.23 31.83 31.70 32.81 33.28 33.08 32.06 30.53 32.93 34.63 34.86 34.97 34.49 34.24 34.69 34.50 29.94 28.84 29.10 27.43 25.55 17.70 13.46 17.84 21.78 23.25 26.45 25.58 25.54 24.88 24.58 19.66 20.40 21.77 23.44 26.97 25.88 25.84 26.16 27.37 27.74 26.65
31.59 32.66 31.41 31.91 33.03 33.55 33.34 32.15 33.36 33.63 34.23 34.08 33.45 33.04 33.31 32.51 31.73 29.04 26.87 26.44 25.15 21.00 19.04 18.63 16.42 16.06 22.95 20.66 24.93 24.76 24.79 24.39 21.22 22.20 24.48 25.34 24.52 24.37 24.07 25.26 25.60 25.07 24.61
31.49 32.25 31.87 31.33 31.71 33.41 33.84 33.13 34.31 34.65 33.60 32.79 31.47 31.21 32.61 30.23 29.50 28.90 28.23 24.84 20.49 19.25 23.45 19.34 15.32 11.45 19.46 19.06 20.29 21.39 18.32 22.25 23.08 22.27 22.38 22.63 22.83 22.03 22.66 22.68 23.47 23.79 23.46
31.76 31.77 31.22 31.34 31.62 32.35 32.19 33.30 34.27 35.74 34.29 33.21 30.82 29.83 31.29 30.50 28.67 27.81 25.05 25.45 24.50 22.29 18.41 18.51 16.56 8.07 7.61 16.90 23.33 24.81 22.18 20.60 23.10 16.62 15.95 18.94 18.52 18.69 19.71 19.84 20.91 22.24 22.42
31.29 31.16 31.65 31.39 31.25 31.49 31.62 32.31 34.43 34.61 32.94 31.07 29.49 29.48 27.83 26.12 25.85 25.15 25.96 28.76 28.40 28.40 30.50 30.18 20.71 16.22 22.10 25.74 26.18 25.90 24.47 23.08 22.47 15.14 11.37 14.57 15.73 16.20 17.45 17.14 18.02 19.12 19.93

GFSMW_sfc_wetblb_039.txt.gz
Wetbulb
49.71 51.08 51.95 52.96 53.38 54.39 55.72 56.57 56.74 56.33 54.39 53.42 52.45 51.02 49.51 50.59 50.43 50.09 51.25 50.47 50.01 49.20 48.45 47.95 46.49 46.16 45.31 44.66 45.02 44.59 43.72 43.30 44.13 42.87 43.33 43.83 43.81 43.61 41.78 43.06 44.70 46.56 45.29
48.52 50.07 50.31 51.42 52.08 53.10 53.20 52.08 52.04 51.18 51.76 50.79 49.99 50.42 48.97 48.07 47.88 48.37 47.76 47.23 46.48 46.38 45.80 44.56 45.29 47.27 46.62 45.76 44.13 43.40 43.24 43.30 42.68 40.95 40.44 38.03 39.53 40.45 41.69 41.26 42.29 41.05 42.85
47.74 49.27 50.04 50.06 49.98 49.63 48.82 49.25 49.39 49.68 50.02 50.28 49.38 48.92 48.54 47.80 46.04 45.66 45.12 45.57 45.78 45.40 44.63 44.91 44.60 44.56 44.03 43.15 42.10 41.51 40.77 40.08 40.96 40.79 39.35 34.81 32.97 35.97 38.16 38.53 38.75 38.24 39.10
48.98 49.71 48.74 47.62 47.39 47.28 48.15 48.71 49.78 49.70 49.91 49.45 48.21 47.42 46.06 44.74 45.03 45.03 44.91 44.42 44.75 44.58 45.31 45.12 44.35 43.51 42.89 41.56 41.17 43.36 40.50 40.39 38.99 39.51 40.99 38.83 37.53 32.25 31.67 35.15 36.61 37.55 37.94
48.33 48.53 49.27 48.98 48.15 47.65 47.20 47.98 48.72 48.74 48.71 48.05 47.69 46.60 45.71 46.09 46.66 46.73 45.54 44.69 44.08 45.40 45.28 44.34 42.79 41.84 41.84 40.91 40.18 39.51 39.31 39.07 37.97 37.17 36.30 35.38 34.99 34.29 33.40 30.54 32.85 35.88 37.09
48.10 48.77 48.37 49.24 48.26 47.83 47.06 45.92 47.00 46.80 47.41 47.25 46.92 46.22 45.89 45.38 44.60 44.57 43.87 43.32 42.39 42.81 42.31 42.21 41.28 41.13 40.42 39.66 39.22 38.63 37.87 37.48 37.40 37.26 35.61 36.81 34.72 34.80 34.65 33.20 31.14 32.08 33.35
46.56 47.18 48.00 49.27 50.03 48.30 47.75 45.93 45.67 46.26 46.63 45.91 45.44 44.85 44.30 43.47 42.72 42.85 41.75 40.99 40.20 40.76 40.80 40.80 40.12 39.66 39.37 39.00 38.26 37.27 36.60 36.32 35.06 34.56 34.85 35.72 35.66 37.92 37.71 35.88 33.57 33.24 34.12
48.04 48.79 49.59 49.06 48.39 47.51 45.62 45.13 45.96 45.58 43.49 42.45 41.99 42.01 42.11 41.40 41.40 41.51 40.84 40.54 40.80 40.77 41.09 40.34 39.63 39.16 39.16 38.37 38.37 36.37 36.15 36.04 35.25 34.31 35.08 35.62 36.69 36.77 38.08 35.86 34.96 30.95 32.16
46.86 46.40 45.83 45.37 47.03 46.65 44.28 44.23 43.30 42.14 41.69 41.40 41.04 40.86 40.66 40.93 41.02 40.84 39.96 39.63 39.98 41.50 40.39 39.40 38.85 38.82 38.51 38.30 38.09 35.90 35.41 35.27 35.17 34.72 35.83 36.42 35.64 35.88 34.80 34.76 35.76 32.64 27.21
45.36 45.95 44.86 45.50 44.94 43.38 43.03 41.88 40.26 39.96 40.18 40.00 40.18 41.11 40.05 41.21 40.78 39.66 38.95 38.80 38.99 39.28 38.88 38.23 37.87 37.79 37.64 37.94 37.23 35.59 35.51 34.84 34.27 34.81 33.33 31.96 31.84 31.84 31.06 31.46 31.74 30.93 29.10
42.69 42.81 42.78 43.79 44.38 44.06 40.00 39.38 39.76 39.52 38.77 40.54 40.54 39.19 39.06 40.26 39.97 39.29 38.96 38.97 38.76 38.25 37.68 38.39 38.51 38.13 36.75 36.37 35.47 34.44 32.66 30.83 29.55 28.90 28.86 29.34 30.30 29.64 30.22 28.98 29.09 28.38 28.39
42.31 42.97 43.10 42.36 42.36 41.47 40.70 39.28 38.67 38.65 38.47 38.74 39.15 38.94 38.51 38.65 38.89 38.81 38.95 38.92 37.77 37.65 37.86 37.76 37.67 37.23 35.76 34.21 32.12 30.79 29.99 28.75 27.63 27.65 27.80 28.47 30.06 27.04 27.02 26.64 26.11 26.53 26.99
41.71 40.88 40.47 40.48 41.80 41.62 41.36 41.17 39.98 38.61 38.25 37.90 37.84 37.58 37.08 36.70 37.73 38.03 38.41 38.42 37.55 38.33 37.56 38.43 37.89 35.73 34.86 32.46 30.33 29.59 28.10 27.47 27.73 27.47 26.93 26.38 26.08 24.96 25.21 25.61 25.88 26.67 29.04
40.56 40.54 40.96 40.80 40.88 41.42 40.52 40.11 40.15 39.23 38.27 38.15 37.52 36.68 36.34 36.05 36.41 36.94 37.07 37.36 37.40 37.78 37.31 36.84 36.13 34.99 32.18 30.82 29.91 29.02 27.59 27.07 27.17 27.51 26.98 26.01 25.73 25.27 25.12 25.74 26.89 28.12 27.94
39.26 39.50 39.35 39.38 38.74 38.47 38.90 39.41 38.52 38.11 37.83 37.02 36.56 36.29 36.42 36.28 36.56 36.48 36.60 36.75 37.56 36.51 36.17 37.50 34.75 32.70 31.20 30.34 28.48 28.06 27.02 26.39 26.09 26.81 26.72 26.36 27.76 30.15 28.22 26.27 24.92 24.91 26.30
39.46 39.06 38.70 38.49 38.00 38.17 38.20 37.02 35.90 35.97 36.33 35.50 36.55 36.90 36.81 36.67 36.11 35.60 35.77 35.12 35.03 35.86 37.32 33.64 32.89 31.82 31.25 32.59 32.40 31.01 26.81 27.43 26.69 25.14 25.70 25.94 27.99 26.92 28.43 27.87 28.24 27.44 24.97
37.69 37.76 37.29 37.48 37.30 36.47 36.26 33.51 33.99 34.92 34.50 35.06 36.23 36.75 36.45 35.78 35.33 35.50 35.57 33.85 34.05 33.97 33.11 31.79 31.60 29.09 28.02 32.39 32.58 32.58 29.16 27.25 25.64 24.84 25.06 25.38 26.41 26.11 25.08 26.16 27.30 27.36 28.37
36.88 37.14 37.69 35.68 34.86 33.22 32.90 33.17 33.98 33.33 32.83 34.79 35.88 36.33 35.86 35.67 35.60 34.97 33.85 31.42 31.65 30.71 30.58 28.72 28.36 27.38 28.44 31.31 31.38 29.62 25.20 24.25 24.47 24.56 24.58 24.12 23.54 24.17 24.87 25.02 25.50 25.87 27.05
36.83 36.85 35.91 33.68 31.80 31.95 32.54 32.01 31.60 31.46 33.70 33.83 33.93 34.42 35.12 35.31 35.10 35.32 36.16 35.37 34.52 32.50 28.26 28.49 27.83 27.14 26.52 29.99 29.79 26.86 23.21 23.39 22.52 23.93 24.07 23.47 22.48 24.77 27.07 25.27 23.99 24.29 24.94
35.52 32.58 32.14 31.76 31.20 31.22 31.30 31.21 30.65 30.29 31.97 33.40 33.44 34.43 35.62 35.10 33.79 34.82 35.07 32.40 27.87 28.67 28.72 28.32 27.76 28.85 24.49 27.60 28.00 26.34 20.04 13.61 21.45 22.20 22.79 24.03 24.16 25.85 27.99 25.57 24.19 22.43 24.21
32.18 31.93 30.79 30.39 30.60 31.60 32.03 30.90 30.32 30.48 32.58 33.80 34.16 34.90 34.68 33.64 33.90 32.84 28.53 27.89 27.90 28.65 26.71 24.66 25.36 25.99 25.29 23.37 26.80 26.23 18.94 19.43 21.18 21.41 21.41 22.74 25.27 26.06 26.23 26.27 25.15 25.31 26.20
30.58 31.28 30.46 30.17 31.04 31.85 31.85 30.14 29.37 32.21 33.22 33.50 33.74 33.20 33.05 32.66 33.01 32.26 29.88 29.48 27.30 25.39 19.75 13.58 17.70 21.59 22.68 25.48 24.94 25.94 25.46 24.86 17.83 21.18 22.12 23.25 24.97 25.07 24.83 24.70 25.69 25.93 24.61
30.34 31.22 29.93 30.25 31.53 31.95 31.50 30.18 31.20 32.64 32.46 34.12 33.34 31.67 32.00 31.00 30.18 27.46 26.31 26.67 25.63 22.17 19.26 18.12 15.91 16.14 22.98 20.87 24.58 25.20 25.73 24.79 19.78 22.75 23.04 23.80 23.33 23.18 22.99 23.66 24.31 23.88 22.93
30.04 30.57 29.96 29.83 30.12 31.52 31.51 30.44 31.82 33.64 33.27 32.75 33.10 31.47 30.22 31.15 30.85 29.94 28.76 25.31 21.01 18.71 22.34 18.80 15.35 12.08 18.85 19.34 19.81 21.36 20.52 21.51 21.80 19.53 18.58 18.26 21.30 20.43 21.12 21.06 21.77 22.06 22.04
30.01 30.01 29.63 29.73 29.98 31.02 30.22 30.70 31.78 32.93 32.10 31.49 32.22 30.45 29.54 30.59 28.77 27.65 25.97 26.34 24.62 22.60 18.28 18.65 16.88 8.09 7.76 16.69 22.74 24.98 20.09 14.95 19.78 11.85 10.57 13.19 15.36 16.71 17.95 18.18 19.28 20.02 20.24
29.57 29.52 29.79 29.41 30.06 29.71 29.49 30.44 32.06 31.83 32.62 30.64 30.26 29.63 28.34 28.49 26.86 27.25 27.39 28.63 27.93 28.49 30.21 30.17 21.62 15.77 22.69 26.12 26.37 25.79 23.95 22.72 21.03 12.42 6.67 3.05 4.31 12.08 15.38 15.10 15.86 17.12 16.48

GFSMW_sfc_wetblb_042.txt.gz
Wetbulb
48.70 50.11 51.10 52.83 55.34 55.66 57.31 58.96 58.98 58.11 57.19 55.19 52.67 50.15 48.68 48.74 47.26 47.64 48.42 48.03 47.62 47.49 45.86 44.82 44.62 45.05 44.50 44.49 44.97 44.13 42.91 43.01 43.13 41.85 41.57 42.47 43.61 42.38 40.63 42.47 43.35 42.19 42.99
47.73 49.23 49.80 50.59 51.77 53.55 54.97 54.73 53.32 52.98 51.67 50.60 49.89 48.21 46.42 45.78 45.70 45.67 45.54 45.32 45.01 44.91 44.92 44.23 44.23 44.20 43.71 43.33 42.43 41.52 41.10 41.81 41.88 39.71 38.84 35.87 37.87 39.56 41.07 39.73 40.60 38.51 40.23
47.07 48.54 49.70 50.19 51.13 49.05 48.00 49.12 49.91 50.11 49.71 49.54 48.62 47.74 46.96 46.17 44.89 44.40 43.76 44.04 44.48 44.41 44.28 44.33 43.94 43.35 42.86 41.26 40.65 40.50 39.50 38.55 39.93 40.16 38.65 34.35 32.33 35.32 37.73 37.84 37.87 37.85 38.29
47.72 47.99 47.15 46.34 46.38 46.53 47.26 48.10 48.52 48.46 48.68 48.21 47.07 45.91 44.63 43.94 44.14 44.05 43.76 43.43 44.08 44.47 44.67 44.02 43.04 41.99 41.54 40.18 39.77 41.40 39.22 38.58 37.11 38.45 40.42 38.22 37.40 33.34 32.48 35.44 36.46 36.73 37.46
46.52 46.57 46.55 47.05 46.79 46.82 46.41 47.66 47.98 48.23 47.64 47.52 46.88 45.34 44.66 44.57 45.19 45.12 44.01 43.09 43.31 43.97 43.73 42.72 41.15 40.25 40.79 40.37 39.69 39.22 38.53 38.23 37.28 36.62 36.60 35.62 34.61 34.24 34.52 31.46 33.84 35.34 36.93
46.84 47.45 47.39 47.61 47.06 46.98 45.57 46.75 47.72 47.21 47.15 46.38 45.96 45.24 44.81 44.13 43.12 43.37 42.59 41.73 41.23 41.62 41.69 41.52 40.55 40.22 39.77 38.85 38.31 37.76 37.12 36.71 36.50 36.72 37.90 36.80 34.54 33.94 34.67 32.92 33.72 33.77 34.93
46.18 46.97 47.04 47.09 48.47 48.39 46.18 46.31 46.79 46.23 46.38 45.28 44.04 43.50 42.85 42.16 41.10 41.00 40.62 40.49 40.02 40.40 40.69 40.30 39.06 38.66 38.64 38.27 37.64 36.64 35.90 35.51 34.86 34.16 34.51 35.16 35.08 35.83 36.97 35.14 33.01 30.69 33.42
46.16 46.42 48.30 48.17 47.70 46.01 45.45 45.67 46.23 43.69 41.74 41.44 41.51 41.41 41.25 40.42 40.42 40.62 40.86 40.20 39.79 39.96 40.08 39.74 39.11 38.48 38.19 37.57 36.77 35.94 35.54 35.30 34.87 34.09 34.24 34.33 35.41 37.48 37.00 35.67 34.31 30.63 31.41
45.45 45.54 44.87 44.32 44.30 44.26 43.99 43.79 42.44 41.27 40.93 40.56 40.25 40.14 40.28 40.21 40.26 40.23 39.61 38.89 39.18 40.67 39.90 38.93 37.99 37.84 37.76 37.60 36.78 35.72 35.09 34.61 34.33 33.91 33.64 33.72 34.49 36.10 35.04 34.09 34.20 30.58 25.10
43.47 43.10 43.10 43.20 43.12 43.37 42.27 40.04 40.67 39.64 39.35 38.91 39.16 40.19 39.23 39.50 39.83 39.17 38.85 38.53 38.56 38.44 38.04 37.55 36.99 37.12 37.66 37.17 36.70 35.89 34.79 33.67 33.57 32.42 29.48 29.19 29.86 29.57 30.27 29.74 31.57 31.45 29.61
40.49 40.64 40.78 41.54 41.15 39.44 38.71 38.45 39.10 39.40 38.33 37.96 38.42 38.21 38.01 37.97 39.33 38.70 38.44 38.17 37.84 37.61 37.11 37.35 37.50 37.37 37.02 36.28 35.72 34.41 32.93 30.65 29.82 28.76 28.53 28.84 29.76 29.18 28.71 28.72 27.89 27.13 27.40
40.06 39.76 39.87 41.51 41.97 42.51 42.34 40.50 40.04 39.22 37.87 36.94 36.92 36.82 37.07 36.83 36.51 37.28 38.01 38.06 37.78 37.64 36.81 37.56 37.00 37.02 36.40 35.28 33.30 31.81 30.46 28.97 28.47 28.17 27.58 27.37 28.98 25.69 25.85 25.90 25.70 26.01 26.40
39.28 39.03 39.20 39.13 40.78 41.52 41.78 41.36 39.55 38.62 37.66 37.11 36.41 36.29 36.12 35.21 34.71 35.33 36.29 37.10 37.10 36.74 36.34 36.51 35.88 36.05 35.81 32.24 31.68 30.46 28.67 28.30 27.78 27.29 26.96 26.57 26.00 24.77 25.11 25.26 25.23 25.85 27.49
38.93 38.68 38.27 38.43 39.31 40.32 39.63 38.83 37.74 36.94 36.51 36.22 35.51 35.08 34.93 34.75 34.59 35.00 35.40 35.73 36.47 35.95 35.68 35.21 35.37 36.67 33.65 31.14 30.64 29.71 28.19 27.04 27.01 27.51 27.18 26.54 25.97 25.13 24.94 25.62 24.74 25.92 25.54
38.03 38.45 38.02 38.77 38.85 38.20 37.96 36.66 35.53 35.29 35.25 34.19 34.76 34.93 34.82 34.66 35.03 35.17 35.13 35.22 35.16 34.83 34.97 35.26 36.28 33.56 31.64 31.02 29.55 28.22 27.21 26.79 26.48 27.13 27.38 27.48 28.28 30.66 29.40 27.56 25.97 24.25 23.85
37.36 37.42 37.61 37.48 36.67 36.35 35.35 33.92 33.72 33.59 33.82 32.93 34.71 35.53 35.60 35.23 34.85 34.41 34.12 34.07 33.98 34.22 36.12 34.95 33.12 30.48 31.92 32.87 32.69 32.09 28.77 28.41 27.55 26.24 26.61 26.29 27.51 26.64 28.17 27.56 27.32 26.32 24.11
37.18 37.22 36.10 36.13 35.24 34.04 33.80 31.59 32.00 32.75 32.42 32.59 34.80 35.63 35.32 34.72 34.47 34.57 34.10 33.09 31.82 32.33 30.96 29.92 29.77 28.23 27.80 32.14 32.08 31.33 27.08 25.33 24.63 23.77 23.70 24.04 25.39 25.23 24.61 25.36 26.32 26.42 27.19
37.26 35.91 35.65 33.57 32.84 31.22 30.88 31.05 31.52 31.17 31.55 33.11 33.96 34.77 33.85 33.45 34.00 33.73 33.61 32.90 33.70 33.89 32.44 28.74 27.07 26.57 28.24 30.92 30.48 28.93 24.39 23.31 23.52 23.25 22.97 22.95 22.99 23.72 24.30 24.79 24.89 25.29 25.89
36.75 36.13 34.29 32.18 30.39 30.20 30.67 30.61 30.49 30.44 30.72 31.41 32.19 32.33 32.86 33.51 33.43 32.88 32.58 32.80 34.20 33.25 29.96 27.57 26.75 26.90 25.95 29.06 28.96 26.90 23.66 22.61 22.09 23.24 23.54 23.47 22.90 24.80 27.25 26.58 24.52 24.28 25.05
35.12 31.17 30.49 30.39 30.15 30.08 30.46 30.39 29.65 29.31 29.96 31.07 31.90 32.83 33.81 33.19 32.05 31.82 32.86 31.05 27.83 27.84 27.77 28.09 27.74 28.64 24.32 27.10 27.73 26.46 20.44 13.53 21.34 22.57 23.33 24.20 24.32 25.72 26.23 24.36 23.71 21.93 24.34
31.34 31.04 30.44 29.64 29.49 30.50 31.01 29.76 28.99 28.66 30.99 32.15 31.82 33.20 34.56 32.81 32.07 30.94 29.84 28.23 27.38 28.76 27.15 24.95 25.84 26.16 25.32 23.26 26.62 26.73 20.27 20.36 21.90 21.61 21.87 23.19 24.76 25.28 25.65 25.51 23.73 23.96 25.35
31.01 30.69 29.87 29.11 30.17 30.74 30.51 28.47 27.37 29.68 31.89 31.96 32.29 32.57 33.52 32.70 31.55 29.02 30.52 29.84 28.94 26.08 19.54 16.78 18.89 21.56 23.00 25.43 25.25 26.39 26.09 25.64 18.83 20.92 22.08 22.28 24.26 24.09 24.13 23.50 24.73 24.77 23.60
30.29 30.88 29.59 29.57 30.71 30.63 29.97 28.15 28.92 30.62 31.45 31.57 31.59 31.78 33.11 31.10 29.47 28.81 26.51 26.61 26.32 23.55 21.35 18.07 15.92 17.19 22.36 21.86 24.74 25.56 26.01 24.77 18.94 21.78 21.27 22.11 22.06 21.80 21.89 22.14 22.79 22.12 21.26
30.12 30.26 29.41 28.91 28.64 29.95 30.14 28.86 29.67 30.91 31.40 30.92 30.11 29.76 32.50 29.14 30.52 29.82 29.29 26.17 21.97 19.06 21.58 18.45 15.73 13.33 18.75 19.50 19.51 21.01 21.38 21.20 20.67 18.27 17.18 16.16 19.55 17.01 18.98 19.60 20.08 20.63 19.97
29.82 29.54 28.96 28.40 28.21 29.76 29.23 29.30 29.81 31.39 29.89 30.30 30.99 29.42 29.19 27.04 28.00 27.93 25.59 27.19 25.61 23.63 20.36 19.99 17.24 9.17 11.56 17.13 20.99 24.12 19.02 13.22 17.81 10.41 9.74 12.12 11.94 13.68 15.90 16.70 17.22 18.02 17.30
29.09 28.96 29.09 28.49 28.29 28.84 28.34 29.21 31.38 31.40 29.79 29.45 29.32 29.09 27.08 25.27 24.39 23.30 25.22 29.34 28.52 28.18 30.05 30.16 22.75 16.76 23.40 25.76 27.08 25.92 24.34 22.65 20.68 11.82 5.54 0.50 -0.22 5.90 12.69 14.12 14.36 15.10 13.39

GFSMW_sfc_wetblb_045.txt.gz
Wetbulb
53.20 55.80 57.25 59.59 60.54 61.44 61.57 61.30 58.84 58.02 57.45 56.44 55.84 53.67 53.14 53.26 53.35 53.85 53.76 53.37 52.75 52.35 52.53 51.84 51.71 51.48 50.34 49.51 49.58 48.51 47.56 47.15 48.43 45.91 45.48 46.65 50.41 50.18 49.06 48.64 47.61 46.47 46.35
53.27 53.90 55.72 57.97 59.84 60.44 61.20 60.00 59.67 57.42 57.02 56.46 56.35 55.29 54.19 53.39 53.00 52.24 51.36 51.42 51.45 51.65 51.31 51.53 50.35 50.21 49.41 48.66 47.97 47.31 45.61 45.89 47.01 43.73 43.37 41.30 43.69 47.60 47.54 47.34 46.36 45.46 45.59
51.48 51.92 53.18 54.81 56.43 57.49 58.09 57.88 57.56 57.97 57.47 56.50 54.94 53.70 53.32 52.66 51.78 52.02 51.52 50.18 50.69 50.77 50.75 50.37 49.93 49.56 49.27 47.42 46.99 46.54 45.22 43.30 45.57 45.79 43.02 39.24 38.08 40.88 44.93 44.67 44.62 44.15 43.89
51.51 51.88 51.90 52.11 53.08 53.73 54.52 55.52 54.82 54.84 54.76 54.59 54.33 53.28 53.42 52.48 51.63 51.98 50.93 50.36 50.06 49.97 49.80 49.36 49.39 49.03 48.58 46.70 46.09 46.29 45.86 44.87 42.28 44.06 45.43 44.28 41.79 35.99 35.30 41.69 42.47 43.07 42.81
51.79 51.48 51.84 52.33 52.08 52.50 53.18 53.25 53.50 53.31 53.22 53.42 53.37 52.93 51.60 51.27 51.47 52.03 50.58 50.28 50.19 49.44 48.92 48.95 48.23 47.88 47.58 46.88 45.71 45.26 44.49 44.33 42.59 41.90 41.02 39.67 40.56 40.42 36.59 34.42 37.55 40.67 42.10
51.05 51.64 52.09 52.26 52.12 52.27 52.39 52.44 52.62 51.71 51.58 51.76 52.02 51.88 51.05 49.87 49.71 49.56 49.51 49.28 49.08 49.12 48.45 47.65 47.77 47.28 46.49 45.77 45.41 44.87 43.79 43.55 43.02 42.73 41.95 40.06 38.14 37.45 36.19 34.52 36.04 36.76 39.49
51.10 51.24 51.11 50.92 51.55 51.41 51.28 51.72 51.94 50.19 50.35 49.91 49.87 49.79 49.04 47.86 47.16 47.25 47.12 47.06 47.49 47.39 48.20 47.89 47.27 46.27 45.76 45.27 44.56 43.99 43.55 43.30 42.47 42.51 41.76 41.84 41.01 41.01 39.27 36.78 34.29 34.01 38.30
51.09 51.06 51.64 52.06 52.51 51.43 50.89 51.10 50.26 47.98 47.40 47.97 47.78 47.90 47.44 48.18 47.97 47.57 47.54 47.33 47.35 47.86 48.47 47.62 46.68 45.55 45.22 44.82 44.48 43.99 43.99 43.64 43.38 42.53 42.14 41.43 41.33 41.04 38.19 36.17 34.22 32.39 33.89
50.63 51.13 51.61 51.64 51.13 50.54 49.59 50.32 47.90 46.70 46.39 45.64 47.06 46.87 47.59 46.94 46.93 47.22 47.39 47.10 47.41 46.46 46.58 46.26 45.53 45.59 45.33 45.09 44.76 44.18 43.45 43.07 42.60 41.66 41.09 40.37 40.52 39.82 38.17 38.22 36.28 32.63 29.07
48.14 48.04 48.05 47.89 47.70 48.07 47.02 45.99 45.09 43.74 44.02 45.10 45.88 45.69 45.43 45.34 45.71 46.24 45.84 45.91 45.93 45.53 45.16 45.04 44.76 44.44 44.10 44.22 44.04 43.38 42.54 41.28 41.18 39.60 37.18 36.83 37.00 36.55 36.85 36.11 35.45 34.61 31.88
45.37 45.04 45.22 45.56 44.80 45.04 44.98 44.35 42.90 42.70 44.48 43.86 43.86 44.18 44.22 44.16 44.41 44.03 44.28 44.40 44.36 44.78 44.45 44.45 43.62 42.92 43.02 43.42 42.02 40.70 39.81 37.27 36.72 36.70 35.38 35.13 35.60 34.66 34.38 33.97 33.22 31.98 31.58
43.94 44.24 44.79 45.31 45.55 45.20 44.32 43.39 43.65 43.45 43.31 43.36 43.60 43.37 43.25 43.28 42.86 42.64 43.02 43.61 43.39 44.31 44.20 43.80 42.24 42.14 41.92 41.50 39.16 38.08 37.00 35.49 34.17 34.42 34.37 33.86 33.52 33.02 32.88 32.21 31.25 30.84 31.25
43.35 43.58 43.39 43.47 43.94 43.22 43.99 43.82 41.87 41.81 42.28 42.07 41.95 42.41 42.31 42.02 41.72 41.69 42.14 42.32 41.97 42.06 42.34 41.65 41.27 40.69 39.74 37.48 36.44 35.77 34.42 34.08 33.58 33.53 32.85 32.59 32.35 31.54 31.82 31.33 30.61 30.71 30.57
42.78 42.81 42.25 42.43 42.83 43.14 42.35 40.82 41.44 41.30 41.10 41.03 40.73 41.29 41.29 41.04 41.10 41.25 41.22 41.02 41.22 40.92 40.82 40.38 40.05 39.68 37.27 35.33 34.30 34.47 33.94 33.18 32.98 33.16 32.85 32.46 31.79 31.24 30.80 29.92 29.31 29.15 27.79
41.49 41.46 41.44 41.92 41.75 40.82 40.35 39.96 39.86 40.14 40.18 39.42 39.32 40.69 41.22 41.09 40.72 40.64 40.61 40.62 40.30 40.13 39.93 39.11 37.33 35.78 35.46 35.04 34.83 33.80 33.43 33.18 32.72 32.65 31.89 31.63 30.96 29.85 29.30 28.77 28.37 28.20 26.40
41.01 40.90 40.59 40.08 39.42 39.10 38.38 37.83 38.27 38.77 38.75 38.36 38.98 40.57 40.81 40.11 39.92 39.94 39.76 39.67 39.16 38.48 37.82 36.73 35.73 35.71 35.57 32.87 32.98 33.09 33.22 31.90 30.16 28.72 28.95 28.99 27.90 28.01 27.17 26.65 26.86 26.95 24.89
40.39 39.47 39.73 38.92 38.94 37.83 37.10 37.32 37.38 37.71 37.62 37.67 38.62 38.94 39.52 38.58 38.66 38.90 38.87 38.63 38.45 37.76 36.80 35.99 35.50 34.37 33.98 32.11 32.09 29.87 31.22 29.37 28.49 27.55 27.05 26.89 27.24 26.88 26.96 26.46 26.62 27.26 27.68
40.06 39.79 39.47 38.24 37.37 36.87 37.02 36.81 37.17 36.94 36.52 36.50 36.50 37.28 37.65 37.07 38.04 38.02 37.90 38.10 38.37 38.11 36.90 36.62 33.98 32.94 32.38 30.52 30.18 28.32 29.77 28.73 27.72 27.26 26.98 26.39 26.32 26.65 25.57 26.78 27.95 26.98 27.79
40.64 40.12 38.91 37.36 36.48 36.18 36.01 36.22 35.88 35.42 34.92 34.45 34.99 35.62 36.64 37.00 36.95 36.33 36.45 37.03 36.01 35.36 34.72 33.87 32.37 31.59 31.20 28.68 28.68 28.28 28.97 27.50 26.78 26.91 27.09 26.46 25.80 25.61 26.78 26.35 25.23 25.14 25.94
39.83 36.85 36.05 35.61 35.92 35.39 35.81 35.19 34.41 33.66 33.30 34.42 35.18 36.16 37.12 36.88 35.75 35.86 35.37 35.89 34.59 33.12 33.38 31.54 31.69 30.07 30.17 27.26 27.80 28.27 28.60 26.62 26.47 26.92 26.62 25.24 25.05 25.10 25.71 25.53 25.04 22.86 24.44
35.08 35.66 35.76 35.34 34.98 35.27 35.32 34.27 33.50 32.48 33.97 35.04 35.60 36.33 36.87 36.24 36.37 35.33 34.99 34.54 33.01 32.75 32.25 31.15 30.75 30.35 29.52 28.82 26.93 27.15 28.37 26.94 25.72 25.19 24.90 25.50 24.06 24.80 24.63 24.66 24.64 24.29 24.82
34.56 35.03 34.79 34.16 35.01 35.25 34.57 33.62 32.57 33.67 34.65 34.98 34.32 33.74 33.53 32.81 34.18 34.14 33.17 32.43 32.56 31.76 29.18 28.97 29.82 30.63 29.85 27.24 27.25 26.80 26.73 26.88 26.01 24.25 24.79 24.46 23.41 23.10 22.90 23.21 23.31 23.44 23.50
34.64 34.39 33.68 33.31 34.10 34.29 34.33 32.72 33.50 33.79 33.69 33.70 32.26 33.20 33.28 33.77 33.96 32.37 32.51 32.03 31.52 30.69 30.34 29.13 28.66 29.08 29.70 29.61 26.50 26.52 26.04 26.31 25.12 25.37 23.42 21.92 21.55 21.33 22.15 21.37 21.45 21.89 22.34
33.82 33.60 32.88 32.19 32.28 33.13 33.42 33.63 33.31 33.57 32.45 30.96 32.22 33.37 32.69 32.43 32.58 32.37 31.97 31.14 30.65 29.47 28.43 28.09 28.16 28.68 28.50 28.88 29.36 27.79 28.26 25.71 24.27 23.22 22.80 20.27 20.15 19.44 20.19 21.47 21.72 21.80 20.22
32.79 32.57 32.00 31.99 31.93 32.80 32.80 33.08 33.38 33.21 31.50 30.33 29.77 30.34 31.26 31.64 31.51 31.52 31.20 30.30 31.03 30.49 29.02 28.96 29.23 28.41 27.98 28.75 27.90 27.13 27.50 26.69 24.16 21.25 21.48 20.43 19.56 19.21 19.69 20.52 19.84 19.83 18.25
31.97 31.85 32.07 31.90 32.08 31.78 31.36 31.88 33.30 33.00 31.03 29.58 29.75 30.37 30.28 31.40 30.94 30.36 29.98 30.33 30.31 29.16 29.83 30.02 30.27 30.79 28.37 27.08 27.33 27.60 26.31 24.00 21.58 21.46 19.78 18.21 17.63 17.51 17.61 18.20 18.10 18.46 16.06

GFSMW_sfc_wetblb_048.txt.gz
Wetbulb
59.29 60.97 62.19 63.26 63.94 64.26 63.83 64.43 63.08 62.06 61.40 59.85 57.71 56.46 56.52 56.67 57.12 57.92 57.73 57.29 57.12 56.60 57.05 56.98 56.50 55.81 54.30 53.14 52.23 51.12 49.90 49.01 50.20 48.16 48.04 48.85 50.36 52.36 51.99 51.90 50.72 50.27 50.15
58.84 59.92 61.99 63.18 63.59 63.45 63.64 63.81 63.51 63.14 63.95 62.98 61.19 59.93 58.96 58.37 58.01 57.70 56.81 56.65 56.26 56.06 55.91 55.97 55.16 53.81 52.00 51.48 50.68 49.74 48.12 48.07 48.99 46.35 45.86 43.25 45.88 48.75 50.77 50.67 49.52 48.87 48.82
58.26 59.27 60.47 62.36 63.35 63.14 63.57 63.42 63.76 63.82 62.78 61.22 60.02 58.99 57.99 57.37 56.65 56.74 56.62 55.61 55.53 55.38 55.33 54.47 53.53 52.21 51.37 49.28 49.41 48.88 47.53 45.41 47.08 47.96 45.01 41.65 40.35 43.40 46.36 47.37 47.26 47.57 47.07
57.76 57.64 57.23 58.33 59.82 60.96 61.74 61.57 61.84 61.30 60.54 60.05 58.58 57.28 57.37 56.12 56.55 57.88 56.68 56.79 55.58 55.07 54.12 52.81 52.21 51.21 50.72 49.39 48.63 47.88 47.74 46.72 44.24 45.59 46.09 46.27 44.06 38.99 37.67 43.51 44.26 45.45 44.97
57.49 55.35 56.12 56.99 57.83 58.39 58.77 59.01 58.62 58.15 58.13 57.86 57.93 57.85 55.97 56.43 57.03 57.24 54.41 54.85 54.54 53.14 52.00 51.52 51.11 50.74 50.02 49.49 48.80 48.00 47.30 46.59 44.80 44.10 43.95 43.83 43.38 43.18 37.82 36.25 39.62 42.84 44.28
56.05 55.66 56.66 57.03 56.94 57.96 58.14 58.04 57.41 56.73 57.09 57.19 57.12 56.44 55.06 53.03 53.22 52.49 51.06 51.22 51.22 51.33 51.11 50.85 50.98 50.84 50.12 49.27 48.46 48.14 47.21 46.26 45.61 44.91 43.78 40.92 38.13 37.46 37.01 37.79 37.76 37.44 40.64
55.20 55.42 55.37 55.60 56.27 56.53 57.17 57.51 57.00 55.67 56.23 55.89 54.96 53.52 52.07 50.66 50.23 49.98 50.20 49.09 48.88 49.28 49.95 50.47 50.37 49.97 49.74 49.22 48.40 47.33 46.35 45.67 44.75 44.30 42.97 42.91 41.70 40.87 39.48 37.56 36.25 35.66 38.79
55.37 55.57 55.96 56.19 56.40 56.35 56.94 56.19 55.69 54.01 53.74 53.09 51.82 51.61 50.90 52.51 51.11 50.23 49.93 49.39 49.15 49.20 50.09 50.22 50.13 49.78 49.18 48.62 47.81 46.77 46.02 45.89 45.20 44.06 43.04 42.11 41.91 41.07 40.03 38.25 36.28 33.88 35.36
55.21 55.50 56.03 56.58 56.93 56.76 55.68 55.89 54.21 52.53 51.04 49.03 49.32 49.00 50.21 49.90 49.64 49.96 50.15 49.97 50.10 49.11 49.20 49.39 48.98 49.07 48.42 47.89 47.28 46.00 45.18 45.11 44.77 43.25 43.28 41.68 41.51 40.38 40.29 39.40 38.08 34.51 30.70
54.88 55.42 55.73 55.58 55.81 55.31 54.75 53.46 51.57 48.78 47.84 48.21 47.99 48.04 49.37 49.40 49.38 49.38 48.49 47.98 48.06 47.89 47.62 47.61 47.36 47.12 47.16 46.82 46.21 44.98 44.64 43.72 43.52 42.49 40.98 40.36 39.62 39.48 39.33 38.60 37.89 36.90 34.06
53.82 53.60 53.55 53.47 53.25 52.78 51.54 50.25 49.47 48.28 47.14 45.56 46.33 49.00 48.64 47.19 47.08 46.53 45.89 45.63 45.70 45.17 44.64 44.71 45.22 45.42 45.37 45.49 44.93 44.33 43.09 41.09 41.29 40.84 39.54 38.55 39.08 38.17 38.02 37.86 37.09 35.58 35.12
52.12 51.78 51.20 50.28 49.99 49.94 49.35 47.00 49.31 46.71 45.16 47.11 47.46 46.34 45.99 45.69 45.13 44.65 44.89 45.20 44.25 44.60 44.04 44.39 44.35 44.29 44.39 44.40 42.63 41.42 40.67 39.02 38.74 38.78 38.22 37.49 37.37 37.04 37.13 36.54 35.52 35.06 35.22
50.05 49.94 49.72 49.34 49.34 47.71 46.77 45.10 46.28 44.62 45.49 45.94 45.20 44.93 44.66 44.24 43.99 44.08 44.29 44.14 43.86 43.71 43.77 43.88 43.22 43.07 42.81 41.96 40.99 39.42 38.37 37.81 38.13 37.98 37.23 36.87 36.35 35.49 35.85 35.49 34.33 34.17 33.77
49.00 49.16 48.65 48.27 47.16 45.94 45.44 45.83 43.71 44.81 45.04 44.48 43.79 43.23 43.70 43.92 43.89 43.67 43.55 43.40 43.53 43.05 43.07 43.11 42.03 40.23 39.32 38.57 37.34 37.94 37.90 37.90 37.48 37.57 37.17 36.25 35.29 34.69 34.12 32.90 32.73 32.69 31.94
48.04 47.86 47.58 46.87 46.38 45.72 43.93 43.52 43.73 44.32 44.00 42.74 42.30 42.50 43.75 43.93 43.48 43.04 42.99 43.11 43.07 42.61 42.33 40.99 40.15 39.95 39.22 38.69 37.96 38.06 37.60 37.31 36.80 36.64 35.35 34.86 32.89 29.94 29.65 29.74 30.49 30.26 28.95
47.36 47.04 46.57 45.44 44.74 43.07 43.57 41.86 42.69 43.34 42.74 41.75 41.34 42.05 42.35 42.61 42.80 42.28 42.11 42.33 42.21 42.04 41.52 40.56 39.89 39.13 38.78 32.55 32.85 33.03 36.93 36.19 34.85 33.40 33.62 33.53 31.62 31.05 28.37 28.29 27.56 27.87 26.77
46.55 45.67 44.71 43.57 43.02 42.65 42.11 42.18 42.70 42.58 41.24 40.44 39.98 40.11 40.63 40.92 41.55 41.40 41.58 41.26 41.11 40.51 39.38 38.84 39.02 38.01 38.37 32.51 32.08 30.12 34.91 34.36 33.57 32.71 32.15 31.33 31.44 30.69 30.91 28.84 27.65 28.37 28.91
46.19 44.95 44.02 42.68 42.65 42.71 42.18 42.15 42.19 41.00 39.39 38.98 38.88 39.38 39.66 39.62 40.57 40.94 40.73 40.51 39.51 38.91 36.99 36.82 37.80 38.05 36.51 31.29 30.56 29.19 34.13 33.73 33.02 32.36 31.56 31.01 30.49 30.30 27.63 26.60 27.62 28.02 28.92
46.93 45.78 44.93 43.54 41.99 41.91 41.82 41.25 39.94 39.03 38.31 37.72 38.35 38.68 39.24 39.32 40.11 39.69 39.94 39.89 37.25 37.93 37.34 36.20 36.92 36.20 35.54 29.81 29.73 29.17 33.22 32.31 31.34 31.70 31.69 30.22 29.29 27.23 26.02 26.13 25.73 26.44 27.49
46.20 44.16 41.64 40.31 41.52 40.66 40.69 38.99 38.14 37.73 37.15 37.58 37.84 38.74 39.28 39.42 38.86 39.13 39.11 38.72 37.53 36.48 37.43 36.56 36.70 33.21 34.78 29.17 28.60 29.23 32.33 29.96 30.06 31.01 30.91 28.91 26.82 24.68 25.00 25.20 25.16 23.76 25.65
42.92 39.73 39.54 39.42 40.23 39.89 39.08 37.45 37.68 36.97 37.67 38.29 38.39 38.57 38.70 37.81 37.17 35.81 37.40 37.65 36.65 34.73 34.58 33.97 34.74 34.71 34.13 33.21 28.10 28.08 30.54 29.47 28.41 28.79 29.24 29.52 25.54 24.17 24.21 24.09 24.70 24.46 25.08
37.65 38.41 38.65 38.69 38.99 38.95 37.70 37.19 37.21 38.46 38.22 38.19 37.79 37.52 37.82 37.24 36.90 35.83 37.33 36.63 35.62 33.07 32.87 33.09 33.06 33.93 33.84 30.92 29.86 28.30 27.84 28.07 28.40 27.91 29.02 28.25 24.22 23.33 23.08 23.80 22.56 22.64 23.77
37.74 37.83 38.24 37.14 38.05 37.72 37.54 36.38 37.58 37.78 37.41 36.87 36.32 36.86 37.48 36.99 36.95 35.46 34.93 32.63 33.17 32.32 32.73 32.10 31.31 31.49 32.39 32.88 29.54 28.29 27.57 26.90 28.31 28.77 26.56 23.99 22.90 22.80 23.81 23.21 22.10 22.83 25.00
36.00 37.50 36.78 36.12 35.80 37.25 37.12 37.59 37.68 37.63 36.70 35.73 34.50 32.57 32.34 35.13 35.66 35.10 33.82 32.43 31.72 31.10 29.88 29.62 29.48 30.19 30.11 31.38 31.38 30.48 30.28 28.04 27.54 28.24 27.71 25.19 22.42 23.20 23.61 25.17 25.23 25.15 23.73
35.73 36.89 36.03 35.18 35.67 36.61 36.83 37.31 36.86 36.79 35.29 35.10 34.01 32.58 32.12 31.96 32.62 33.31 33.54 33.13 33.89 32.65 31.15 30.02 30.30 29.67 29.15 29.97 29.86 29.35 29.98 29.74 27.92 25.07 26.95 26.42 25.38 24.02 24.65 24.77 24.54 24.49 23.33
36.83 35.72 35.63 35.55 36.01 35.88 35.72 36.26 36.71 36.44 35.54 34.09 33.61 32.30 31.79 31.58 31.43 31.10 31.46 31.88 30.82 30.39 30.54 30.33 30.34 32.44 31.31 30.11 28.57 28.23 28.25 27.27 24.97 25.23 25.92 25.72 25.21 23.36 23.09 22.98 23.40 23.80 21.82

GFSMW_sfc_wetblb_051.txt.gz
Wetbulb
60.94 62.58 63.50 64.26 64.83 65.67 65.72 64.71 62.48 63.66 63.98 63.25 61.94 60.75 59.68 58.89 58.56 58.45 58.76 58.56 58.27 58.00 58.02 57.49 56.97 56.56 54.55 53.99 53.44 51.61 50.28 49.27 49.97 47.92 47.98 48.84 51.25 52.28 52.14 52.29 52.05 51.22 51.00
60.81 61.97 63.58 64.34 64.62 64.67 64.34 63.18 63.14 63.52 64.37 63.55 63.31 62.20 60.52 59.24 58.87 58.76 58.55 58.20 58.09 57.22 56.89 56.87 55.73 54.95 53.24 52.24 51.49 50.54 48.47 48.42 48.91 45.50 44.94 42.49 44.67 47.71 49.51 49.83 50.14 50.98 49.83
60.61 61.78 62.69 62.60 62.29 61.92 63.50 64.19 64.35 64.27 63.87 62.55 61.25 60.81 59.66 58.85 57.44 57.60 57.60 57.20 57.19 56.60 56.38 55.47 54.26 53.10 52.00 50.12 50.40 49.79 48.00 45.51 46.81 47.68 44.02 40.04 38.88 42.69 45.85 46.46 47.26 48.31 47.27
60.72 61.29 61.85 62.61 63.28 63.24 63.79 62.87 62.81 62.60 61.53 61.09 59.44 58.53 56.52 55.31 57.48 57.69 57.74 57.65 56.92 55.62 54.42 53.41 52.63 52.22 51.44 50.48 50.11 49.23 48.56 47.31 44.24 45.60 45.80 46.12 44.49 39.12 37.82 43.61 44.25 45.78 45.61
59.73 58.49 59.21 60.16 61.00 61.73 61.75 62.14 61.78 60.50 60.33 59.75 59.46 58.43 57.86 58.24 58.15 56.89 55.68 55.39 55.25 54.45 52.98 52.30 51.75 51.63 51.08 50.67 50.03 49.18 48.15 47.19 45.26 44.21 43.87 43.51 43.42 43.22 39.67 36.56 39.35 42.63 43.57
58.31 57.58 58.17 58.49 58.98 60.28 60.07 59.85 59.15 58.63 59.08 59.00 58.78 57.90 56.85 55.81 55.23 54.35 52.66 52.56 52.18 51.90 51.89 51.43 51.80 51.39 50.76 50.24 49.50 49.31 47.78 46.91 45.50 44.95 44.00 42.56 40.46 39.49 39.27 37.83 38.02 38.30 40.50
57.06 56.65 56.66 57.20 58.15 58.42 59.02 59.06 58.32 57.46 58.47 58.51 57.62 56.31 54.69 52.77 51.85 51.97 51.66 50.44 49.90 50.00 50.54 50.96 50.28 49.56 49.70 49.65 49.38 48.63 47.53 46.52 45.07 44.59 43.58 43.43 42.31 42.22 40.04 38.61 37.17 35.57 38.54
56.62 56.62 57.20 57.67 58.01 58.16 58.50 58.41 58.08 57.17 57.34 56.34 54.61 54.00 52.29 53.06 52.25 51.58 50.88 50.30 49.94 50.12 50.86 50.02 49.51 49.19 49.25 49.81 48.53 47.77 47.31 46.46 46.18 44.61 44.21 43.03 42.53 41.62 40.80 37.98 36.86 34.39 34.82
56.41 56.79 57.54 58.12 58.29 58.16 58.41 58.26 57.58 56.43 55.00 53.22 51.94 51.30 51.99 50.89 50.37 50.90 51.05 50.25 50.26 49.03 48.65 48.62 48.08 47.78 47.61 47.41 47.70 46.64 45.96 45.47 44.69 44.51 43.92 42.63 42.05 41.62 40.64 39.31 38.02 35.62 31.28
56.48 57.13 57.77 58.07 58.60 58.47 58.30 58.37 57.31 54.24 51.19 51.13 50.40 48.43 49.39 50.98 50.69 50.11 48.85 48.21 47.72 47.01 46.25 45.83 45.65 45.46 45.75 46.18 45.92 45.67 45.51 44.46 43.93 43.29 42.45 41.68 41.18 40.27 39.48 38.80 38.41 37.83 35.33
56.51 57.14 57.70 58.28 58.36 58.06 56.91 54.95 53.36 51.42 50.63 48.49 48.56 48.67 49.82 48.93 48.48 47.71 47.12 46.31 46.32 45.72 44.98 44.72 44.67 44.76 44.66 44.97 44.57 44.39 43.52 42.14 42.12 42.36 41.05 40.14 40.34 38.47 38.47 38.42 38.34 36.88 36.56
56.93 57.33 57.19 56.44 55.90 54.95 54.02 52.60 51.71 49.68 47.85 47.89 48.47 47.86 47.62 47.60 46.85 45.88 45.77 46.12 45.23 45.44 44.76 44.46 44.25 44.04 43.78 43.94 42.85 42.09 42.36 40.70 39.00 39.49 39.52 38.17 38.14 37.83 37.74 37.81 36.25 36.30 36.37
56.31 55.59 54.94 53.36 53.09 52.87 51.65 51.15 48.80 46.83 45.53 48.43 46.55 46.69 46.18 45.59 45.31 45.21 45.40 45.26 44.91 44.62 44.37 44.20 43.59 43.39 43.33 42.67 41.94 41.09 40.46 39.73 39.19 38.61 37.96 37.28 37.01 35.82 36.04 35.90 35.35 35.18 34.48
54.32 53.79 53.01 52.79 52.73 51.44 50.52 48.16 47.36 47.43 46.91 45.88 45.35 44.59 44.61 45.02 45.14 44.99 44.57 44.58 44.58 43.90 43.66 43.66 43.19 41.36 40.28 40.95 40.21 39.09 38.14 37.99 38.06 38.33 38.12 37.26 36.05 34.78 33.59 32.20 31.86 31.95 31.34
52.80 52.55 52.09 51.86 51.07 49.73 48.36 48.43 47.04 46.33 46.16 44.68 43.81 43.69 44.59 44.69 44.42 44.24 44.31 44.24 44.02 43.60 43.61 42.98 41.73 40.64 39.83 39.29 38.81 38.95 38.40 37.59 37.37 37.55 36.81 36.38 34.01 31.77 31.01 30.01 30.11 29.74 28.62
52.16 52.30 51.72 50.92 49.63 48.85 47.10 46.55 45.81 45.00 44.97 43.18 42.48 42.95 42.78 42.47 42.75 43.24 43.44 43.42 43.11 43.08 42.95 41.33 40.18 39.66 39.16 33.21 33.68 33.24 36.80 36.64 35.98 34.84 35.08 35.20 34.47 33.45 31.44 30.99 30.23 28.56 26.91
51.79 51.30 50.45 49.80 48.92 47.35 46.46 44.30 44.59 44.43 43.06 41.90 41.63 41.32 41.25 40.98 41.47 42.06 42.32 42.25 42.25 42.34 41.06 39.71 39.35 38.85 39.82 33.88 33.13 31.20 34.71 35.25 35.36 34.62 33.88 33.29 33.54 32.52 31.93 30.36 29.55 29.22 29.76
51.45 50.77 50.06 48.64 47.30 46.09 43.97 44.33 43.92 42.75 41.33 40.71 40.22 40.45 40.79 40.46 41.21 41.43 41.61 41.93 42.04 40.95 39.46 38.92 39.29 37.26 38.03 33.17 31.89 30.54 33.71 35.13 34.93 34.37 33.70 32.90 32.35 30.97 28.00 27.64 26.95 27.33 27.91
51.79 50.91 49.77 47.61 46.15 43.84 43.65 43.28 42.11 41.46 40.11 39.43 39.45 39.97 40.43 40.02 40.62 40.59 41.03 41.17 40.64 39.79 38.02 38.18 38.29 37.81 36.75 31.64 31.06 30.23 33.52 33.57 32.75 32.90 33.40 32.58 31.02 27.98 26.63 25.41 24.90 25.42 26.86
51.28 49.43 48.32 45.75 43.10 42.48 43.00 41.45 40.45 39.55 38.81 39.16 39.36 40.19 40.41 40.18 39.99 39.92 38.96 39.62 39.94 38.96 37.65 36.59 37.12 33.60 36.09 31.20 30.63 30.21 32.74 33.03 30.00 31.93 32.10 29.42 27.67 25.22 24.96 24.44 24.40 23.23 24.90
49.23 47.20 43.76 41.95 42.84 42.53 41.42 39.42 39.16 38.62 39.64 39.56 39.91 40.10 40.41 40.04 39.89 39.21 38.62 38.07 38.47 37.35 35.95 35.06 35.44 35.88 35.75 34.64 30.66 29.50 30.48 30.44 29.81 29.51 30.07 31.09 26.61 25.53 24.40 24.30 24.57 24.65 24.04
42.80 41.79 41.38 41.36 41.75 41.18 39.96 38.27 37.86 39.52 39.79 39.48 39.26 39.12 39.69 39.43 39.10 38.76 38.38 38.14 36.81 34.77 34.94 33.79 33.22 34.78 35.24 33.05 31.59 30.14 29.04 29.49 29.13 28.29 29.79 30.48 26.60 25.17 24.00 24.35 24.97 23.93 23.94
40.68 42.07 41.32 40.71 40.55 39.82 38.82 36.97 37.96 39.01 39.12 38.55 38.42 38.31 37.97 37.55 38.09 38.17 37.24 35.84 33.41 32.92 32.90 33.44 33.12 33.24 34.23 34.68 31.58 30.57 29.53 28.55 28.19 29.78 29.13 26.79 26.38 25.75 25.45 25.88 24.48 24.06 26.16
40.11 39.85 38.82 38.55 38.12 38.74 38.09 38.22 38.87 39.10 38.30 37.70 37.88 37.82 36.23 35.01 35.13 36.44 35.99 34.54 33.56 32.86 32.12 32.03 32.06 32.31 32.04 32.57 33.61 32.24 31.18 29.01 28.69 29.29 30.12 28.17 26.51 26.05 25.36 26.17 27.58 27.21 26.52
38.83 39.82 38.65 37.77 37.02 37.87 37.85 38.56 38.67 38.55 37.50 37.52 37.37 36.74 36.35 33.83 32.83 32.84 33.81 34.21 35.53 34.06 32.83 32.47 32.07 32.41 30.96 31.93 31.22 30.25 30.51 31.42 29.98 27.11 28.15 27.97 28.17 26.73 26.84 26.93 26.52 26.86 26.19
38.74 38.27 37.60 36.69 37.00 37.83 37.83 38.37 39.06 38.74 37.38 36.23 36.15 36.46 35.11 33.53 32.20 31.79 32.26 33.46 32.34 31.87 30.96 30.33 30.72 32.44 31.50 31.26 30.86 29.80 29.17 28.68 28.34 26.76 26.14 26.94 28.09 26.44 25.72 25.51 25.28 25.83 24.92

GFSMW_sfc_wetblb_054.txt.gz
Wetbulb
60.09 61.42 62.69 63.66 63.12 63.82 64.64 63.01 60.99 61.24 61.56 60.68 59.69 58.78 58.08 58.17 57.13 57.26 57.73 57.34 56.99 56.69 55.94 55.34 54.43 53.55 51.63 50.26 49.37 47.55 46.05 45.16 45.69 42.93 42.79 42.96 44.26 43.91 44.86 44.71 44.75 46.25 48.37
59.11 60.62 62.24 63.54 64.09 64.25 62.90 62.48 62.25 61.45 62.23 62.62 62.16 60.87 58.94 57.44 56.84 57.03 56.89 57.08 56.37 55.62 55.42 54.19 52.53 51.81 49.85 48.92 48.16 46.57 44.71 43.89 44.65 41.26 40.72 37.36 39.62 42.10 43.79 43.43 43.99 43.52 43.73
58.89 60.67 61.98 62.78 63.76 62.58 62.91 62.91 62.66 62.48 63.17 62.65 60.66 60.10 59.21 57.14 55.55 55.65 55.29 55.58 55.85 55.35 53.86 52.87 51.47 49.76 48.66 46.95 46.62 45.88 44.57 41.65 42.84 43.51 39.53 36.36 34.17 38.39 40.89 41.70 41.64 41.51 41.03
60.39 61.28 61.69 61.07 61.64 62.05 62.83 63.31 63.57 63.03 62.48 60.40 59.07 57.41 55.06 53.82 55.20 55.30 55.73 55.46 55.50 53.91 53.02 51.45 49.90 49.13 48.63 47.28 46.69 46.37 44.48 43.19 40.79 41.74 44.22 41.13 39.34 35.51 34.33 38.59 40.62 40.67 41.24
60.13 60.38 61.09 61.18 62.29 62.93 62.98 62.47 61.65 60.75 60.01 59.49 58.66 57.30 56.54 56.29 55.95 55.36 54.57 53.89 53.54 53.48 52.23 50.69 49.65 48.39 48.45 47.65 46.99 46.82 45.28 43.50 41.49 40.44 39.55 39.06 38.90 38.63 35.93 33.09 35.17 38.52 39.07
59.36 59.46 60.77 60.77 60.12 61.69 61.39 61.30 59.43 58.67 58.98 58.36 58.30 57.27 56.03 53.73 52.55 51.78 50.33 51.36 50.47 49.88 49.76 49.82 48.96 48.46 47.66 46.94 47.12 45.17 44.55 43.65 42.59 41.65 40.72 39.33 37.70 36.78 35.72 34.03 33.41 33.60 36.01
57.47 57.02 56.90 57.06 57.77 57.99 58.59 58.57 57.77 56.82 57.69 57.69 57.24 56.09 53.63 51.63 50.80 51.06 49.79 48.74 48.29 47.90 47.93 48.35 47.36 46.59 46.48 46.28 46.18 45.44 44.05 43.56 41.87 40.99 40.56 40.68 39.74 39.69 38.58 36.55 33.08 31.73 33.41
56.62 56.00 56.01 56.58 57.12 57.53 57.65 57.65 56.88 56.34 57.17 56.76 54.67 53.71 52.09 51.48 50.70 49.67 48.63 48.50 47.88 47.78 48.39 47.28 46.62 46.05 46.05 45.23 44.65 44.64 43.75 43.45 42.03 41.86 40.77 40.77 40.72 39.52 38.23 35.90 31.64 27.97 30.77
55.85 55.67 56.39 56.99 57.02 57.20 57.52 57.81 57.07 56.32 56.00 53.64 52.64 51.44 50.73 49.50 49.02 49.55 49.24 48.22 47.59 46.57 45.18 44.50 44.11 43.78 43.60 43.60 43.26 42.03 42.81 41.65 40.96 40.27 40.66 40.19 40.17 39.53 37.95 36.09 34.51 30.47 26.67
55.79 55.79 56.28 57.07 57.44 57.77 57.96 58.26 57.53 54.01 51.63 51.17 50.32 49.45 48.34 48.65 49.79 48.40 47.24 46.39 45.15 44.84 43.91 43.15 42.87 42.67 42.68 42.57 41.87 40.91 41.75 40.61 40.47 40.51 39.20 38.19 38.16 37.34 36.76 34.28 33.98 32.81 30.43
55.30 55.94 56.58 57.22 58.02 56.82 57.17 56.89 55.80 51.04 50.08 48.81 48.60 48.44 48.84 48.63 47.31 46.12 45.33 44.34 44.18 43.61 43.13 42.98 42.46 42.23 41.88 41.79 40.95 40.91 40.18 39.35 38.89 37.59 37.49 37.23 37.50 35.95 34.85 34.41 33.53 32.53 32.35
55.88 56.45 57.01 56.68 57.05 56.32 55.63 54.58 52.69 50.68 48.70 48.66 48.52 48.52 48.68 46.72 45.64 44.85 44.36 44.32 43.21 43.65 42.93 42.88 42.55 42.30 41.93 41.52 40.29 39.07 38.77 37.95 36.41 36.85 36.94 36.11 37.78 34.84 33.94 32.85 31.81 30.49 30.36
55.87 56.36 56.76 55.76 55.64 55.14 53.91 52.33 49.99 48.10 47.95 47.14 46.91 46.82 45.42 44.55 43.76 43.73 43.98 43.79 42.96 42.58 42.32 42.32 41.67 41.47 40.09 38.96 38.66 37.87 37.87 36.59 37.35 37.24 36.12 35.48 33.93 32.43 31.52 29.40 28.39 28.34 30.29
55.45 55.93 55.20 54.46 53.74 53.48 51.71 50.11 48.07 48.06 46.68 46.93 45.39 44.25 43.33 43.44 43.59 43.53 43.12 43.00 42.95 42.00 41.74 41.96 41.79 40.67 38.58 39.04 38.50 38.37 37.24 35.70 35.64 36.27 35.75 35.41 33.75 29.14 27.86 28.00 25.70 27.44 25.61
54.82 54.49 53.65 52.74 52.37 51.15 50.02 48.83 47.84 47.18 46.87 44.99 43.97 43.03 43.44 43.47 43.12 42.56 43.07 43.07 42.65 42.11 42.08 41.37 40.13 39.72 39.18 39.36 36.49 36.85 34.67 35.52 35.10 35.81 35.31 33.49 32.62 33.98 29.23 27.34 25.07 25.14 24.09
53.39 53.67 53.23 52.61 51.61 49.99 48.74 48.07 46.79 46.49 45.41 44.00 42.09 42.39 42.18 41.75 41.48 41.93 41.97 41.91 41.59 41.43 41.21 39.94 38.91 38.11 39.14 35.20 34.54 33.28 32.70 33.76 33.16 31.65 31.38 31.47 33.50 31.45 31.33 31.58 30.51 28.20 23.21
52.69 52.74 52.59 51.83 50.58 49.54 48.38 46.16 45.52 45.05 43.28 42.01 41.45 41.54 41.07 40.75 40.85 40.98 40.74 40.55 40.20 40.37 39.80 38.00 37.62 37.09 37.47 34.97 33.75 31.92 31.41 31.10 30.95 30.26 29.66 30.46 32.70 30.18 27.58 28.68 28.74 27.26 28.74
52.55 52.60 51.86 50.62 49.46 47.81 46.00 44.72 43.69 42.91 41.70 40.78 40.33 40.37 40.37 39.72 40.06 40.19 40.19 40.00 39.93 38.55 37.84 35.72 36.59 36.52 36.61 34.77 33.21 31.76 29.92 30.06 30.77 30.08 29.57 28.67 28.12 25.21 25.62 24.68 23.50 23.74 25.02
52.76 51.95 50.91 48.85 46.85 44.79 44.24 43.57 42.21 42.25 40.42 39.47 39.43 39.66 39.79 39.11 39.14 38.84 39.11 38.60 37.53 37.50 36.66 36.06 35.20 34.88 33.74 33.47 32.66 30.53 28.91 29.31 29.01 29.67 29.37 29.57 27.17 26.55 27.02 23.85 22.01 22.46 23.66
52.25 50.27 48.40 46.95 44.14 43.03 43.18 41.73 40.47 40.04 38.85 39.40 39.29 39.30 39.38 39.26 38.68 38.63 37.67 37.29 36.06 36.51 36.00 34.81 34.33 34.38 33.71 32.98 31.90 30.39 27.95 26.47 28.14 28.19 28.81 27.69 25.49 25.95 25.73 20.30 18.78 19.24 22.15
49.79 48.09 44.74 42.32 42.34 42.26 41.23 39.58 38.97 38.27 39.58 40.03 39.55 39.28 39.37 38.70 38.72 38.11 37.42 36.48 35.65 35.13 32.55 31.95 32.20 32.25 32.71 33.14 32.13 31.58 27.80 27.09 27.75 27.80 26.64 26.69 26.71 26.39 26.13 24.91 21.33 21.14 23.35
42.46 42.54 41.48 41.44 41.05 40.65 39.46 37.82 37.12 38.75 39.46 39.17 38.65 38.42 38.70 38.07 37.75 36.21 36.64 36.89 34.59 31.81 30.72 30.39 31.50 30.83 31.62 33.60 32.92 32.28 30.54 29.91 25.39 26.96 26.99 27.72 28.12 27.72 26.60 24.64 25.01 25.83 23.96
40.66 41.95 40.88 39.49 39.63 39.46 38.85 36.56 37.36 38.65 38.67 38.03 37.66 37.89 38.34 37.54 36.22 34.36 33.61 33.20 32.15 29.56 29.38 31.29 29.78 30.32 31.74 30.48 33.91 32.41 31.45 30.26 26.34 27.28 28.25 28.84 28.11 28.25 26.45 27.29 27.23 23.67 20.96
39.62 39.33 38.39 37.77 37.99 39.08 38.47 37.93 38.56 38.96 37.88 36.95 36.98 36.90 35.79 35.45 34.74 33.92 32.99 31.67 31.68 29.87 30.15 29.77 29.50 29.30 28.95 28.58 29.72 28.87 30.18 30.12 28.53 27.27 27.73 26.58 25.20 23.18 23.68 22.57 24.69 23.11 22.41
39.37 39.29 38.13 37.71 37.73 38.11 37.60 38.39 38.47 38.60 36.86 36.62 36.46 35.53 35.01 34.25 32.15 33.03 32.24 31.69 32.14 31.66 29.92 29.80 28.61 25.54 24.89 27.98 29.17 29.50 28.77 28.68 29.44 24.62 23.74 22.59 23.91 24.16 23.11 23.18 22.78 22.50 22.24
39.30 38.73 38.58 37.28 37.21 37.52 37.64 38.09 38.64 38.29 37.14 35.77 34.80 33.63 32.91 32.57 31.90 31.54 31.33 33.01 32.64 32.50 32.75 32.03 29.50 28.18 30.58 31.45 31.46 31.40 30.74 29.90 28.94 23.17 21.18 20.07 21.11 24.85 21.48 19.77 20.54 20.82 19.85

GFSMW_sfc_wetblb_057.txt.gz
Wetbulb
55.81 56.48 57.74 57.52 60.59 61.02 60.56 59.43 58.15 58.48 58.44 57.30 56.34 56.04 54.79 54.93 53.82 53.68 54.59 54.04 53.48 53.63 52.07 51.27 50.06 48.94 47.46 46.01 45.84 43.97 42.97 42.05 41.99 39.19 39.21 39.85 40.20 40.85 40.18 41.42 40.96 42.23 43.56
55.29 57.38 57.87 58.30 61.24 60.80 59.85 59.17 58.50 59.23 58.78 58.22 57.86 55.90 54.83 53.50 52.70 52.92 52.99 53.19 52.77 52.54 52.46 49.84 48.25 47.37 45.66 44.96 43.77 42.92 41.46 41.06 41.45 38.13 37.35 34.28 37.33 38.70 40.95 39.68 41.19 39.38 42.03
54.85 57.20 58.85 59.80 60.07 59.64 59.53 59.29 59.33 59.60 59.33 59.86 59.83 55.60 54.01 52.49 51.43 51.01 50.75 51.79 52.66 51.77 50.11 48.71 47.35 46.00 45.18 43.56 42.82 42.52 41.52 39.36 40.19 40.47 37.60 34.17 31.82 34.86 38.04 38.90 38.60 38.32 38.38
57.41 58.70 58.68 58.72 59.76 59.80 60.31 60.84 60.44 59.77 60.18 60.60 56.18 54.13 50.83 49.78 50.22 50.85 51.54 51.49 52.05 50.88 50.12 48.26 46.72 46.17 45.96 44.45 43.63 44.40 41.86 40.82 39.02 39.54 42.11 38.24 36.63 32.81 32.21 36.22 37.97 37.93 38.68
57.04 57.79 58.52 58.80 58.95 60.03 59.18 59.60 59.79 59.76 59.17 56.61 54.49 52.35 50.91 51.68 53.06 53.83 52.95 52.41 52.18 51.69 49.66 48.00 46.18 45.63 45.32 44.40 43.84 43.68 42.11 40.92 39.29 38.47 37.85 36.87 36.67 36.08 33.29 32.07 33.34 35.91 36.54
57.22 59.08 58.89 59.17 58.20 58.49 58.90 59.13 56.95 55.47 54.14 54.16 53.00 51.89 50.51 48.86 47.37 47.11 48.24 47.95 47.08 46.70 46.48 46.50 44.96 44.37 43.50 42.84 42.52 42.35 41.66 41.24 40.68 39.74 38.76 37.92 37.23 36.25 35.18 31.88 31.20 31.93 34.00
54.31 56.33 56.95 55.76 55.01 54.07 53.98 53.50 53.60 53.09 53.50 53.08 51.11 48.54 47.34 46.80 46.22 46.17 46.90 46.40 45.03 45.63 44.82 44.50 43.32 42.76 42.79 42.79 42.40 41.64 41.69 41.50 40.08 39.14 38.85 39.47 39.89 39.41 38.88 37.58 33.78 30.71 31.46
53.29 53.14 53.34 53.26 52.95 53.28 52.77 52.40 52.55 52.62 53.13 51.05 49.06 47.98 48.02 46.87 47.74 47.58 46.83 45.90 45.19 45.19 42.15 41.31 41.32 41.09 41.01 40.35 40.14 39.50 39.27 40.47 39.49 38.33 38.48 38.42 39.13 40.39 40.05 36.96 34.81 27.73 27.68
51.20 52.06 52.56 53.34 52.89 52.97 52.99 52.38 52.06 52.69 51.88 49.00 47.55 46.51 46.54 47.03 47.09 47.38 46.91 46.86 43.34 43.32 40.59 40.18 39.75 39.80 39.79 39.71 39.30 38.33 37.96 38.65 38.44 37.93 38.55 38.35 38.70 39.54 38.99 35.75 34.51 31.33 23.89
50.89 51.49 52.50 53.29 54.05 54.03 53.69 53.04 53.59 52.11 48.52 46.77 45.97 46.54 46.42 47.11 47.78 46.92 45.91 43.20 40.83 40.74 40.12 39.50 39.40 39.38 39.35 39.40 38.56 37.78 38.33 37.45 36.83 37.06 35.89 36.53 36.65 35.37 34.24 33.46 34.42 32.71 30.60
50.73 50.48 51.43 53.88 54.66 55.11 55.38 51.45 49.06 48.88 46.85 44.51 44.94 46.03 46.57 47.71 46.52 44.74 42.18 40.49 40.25 40.16 40.06 40.15 39.72 39.65 39.10 39.24 38.05 37.50 37.31 36.51 35.38 35.18 35.25 35.05 34.75 34.10 33.56 34.36 33.70 30.52 27.79
51.59 50.97 51.75 54.32 54.66 54.58 53.74 48.86 47.91 45.78 44.04 45.98 46.76 47.30 48.02 46.72 44.10 42.41 40.58 40.09 39.40 40.14 39.93 40.31 39.80 39.94 39.27 37.99 36.88 36.26 36.02 35.17 33.89 34.32 34.43 35.79 36.41 33.09 32.55 29.31 26.60 25.49 25.41
51.12 51.12 52.78 53.46 53.33 52.86 51.00 47.83 46.17 45.35 47.38 48.26 46.64 46.53 46.15 42.46 40.91 39.46 39.99 39.85 39.57 39.48 39.71 40.39 39.85 39.60 37.89 36.71 36.73 36.66 36.16 34.86 34.31 34.41 33.21 33.12 32.39 29.05 26.48 26.12 24.75 24.53 27.31
51.99 52.28 53.43 52.97 52.32 51.60 47.44 46.09 45.33 45.13 45.98 46.02 45.35 43.26 41.21 41.27 40.31 40.42 40.48 39.92 40.33 40.09 39.75 39.87 40.08 38.96 36.69 37.17 37.18 36.43 34.49 34.01 34.51 34.17 33.97 33.66 30.59 27.36 25.94 25.85 23.77 25.02 23.12
50.42 51.45 50.53 49.49 48.89 46.62 45.58 44.88 43.95 44.03 45.86 43.96 41.69 40.50 39.76 39.04 38.98 38.90 39.32 40.45 40.47 40.15 39.81 39.55 38.49 37.85 37.56 37.94 35.37 35.57 34.81 32.63 32.27 32.16 33.02 31.79 31.69 34.31 28.52 26.11 23.62 23.67 22.38
50.24 50.02 49.49 48.76 47.02 46.23 44.57 44.66 43.74 43.92 41.50 39.94 39.46 40.20 39.76 38.31 38.53 38.62 39.08 39.47 39.42 39.30 38.94 37.61 37.18 36.31 37.73 35.76 34.81 32.81 31.42 33.33 31.79 29.39 29.66 29.13 31.92 31.16 31.48 30.51 29.66 26.99 22.18
49.33 49.09 48.97 48.16 47.42 46.30 45.61 42.49 41.35 40.46 39.15 39.78 39.52 38.62 39.15 38.25 38.58 39.45 39.15 38.87 38.08 37.69 36.69 36.07 35.85 35.17 35.49 35.14 34.39 33.10 30.12 30.66 30.53 28.57 27.34 28.57 30.48 28.45 26.17 26.91 26.80 25.70 26.68
48.20 47.72 46.85 45.00 43.61 42.60 40.86 39.94 39.87 39.56 39.65 38.71 38.66 39.17 39.21 38.68 38.73 38.56 38.28 37.70 36.79 35.59 34.72 34.53 34.28 33.89 35.41 35.31 34.42 32.84 30.06 28.06 28.37 27.69 26.96 26.30 25.41 25.49 25.18 23.99 22.68 22.85 23.02
46.60 45.33 43.69 41.46 39.77 39.60 39.45 39.20 37.99 38.53 37.74 37.44 36.92 38.42 38.72 38.08 38.07 36.84 36.17 35.58 34.62 34.39 33.64 33.82 32.62 32.58 32.49 34.59 33.75 32.08 26.52 27.38 27.60 28.05 27.43 27.85 24.67 27.05 26.98 23.54 21.13 21.65 22.09
44.63 42.25 40.07 39.30 38.25 37.79 38.56 37.08 35.83 36.10 36.66 37.72 38.11 38.48 38.28 37.91 37.15 36.08 35.53 35.55 34.53 34.44 34.11 33.14 32.35 33.26 31.07 34.23 33.87 31.64 25.85 24.09 26.85 26.97 27.39 28.02 25.06 26.16 26.02 20.10 16.99 16.65 20.25
39.76 39.61 38.39 36.49 36.94 37.85 37.58 36.65 36.52 35.45 38.06 38.77 38.34 38.26 38.12 37.06 36.41 34.28 34.11 33.94 33.20 31.95 30.07 30.05 29.54 30.09 30.49 30.36 34.02 32.85 27.62 25.94 26.27 26.89 25.94 25.18 27.16 26.79 27.36 26.67 20.87 18.64 22.13
37.85 37.59 36.43 36.14 36.49 37.16 37.32 36.19 35.97 38.01 38.08 37.99 37.62 37.28 37.19 36.87 35.87 33.52 32.92 32.53 30.42 28.66 28.85 29.52 29.57 28.06 29.63 31.89 33.59 33.93 32.35 29.35 24.65 25.91 26.06 26.23 28.76 28.82 28.59 26.62 26.27 26.43 24.56
36.55 37.31 36.36 36.76 37.78 37.98 37.58 35.97 36.30 37.01 37.12 36.57 36.04 36.24 36.71 35.70 34.43 31.92 29.72 27.72 27.55 25.92 26.82 26.00 25.13 26.23 28.58 28.54 33.08 33.65 33.09 31.52 27.03 26.66 26.71 28.78 29.50 29.06 27.73 28.48 28.55 25.36 20.61
36.67 38.12 37.60 37.02 36.87 38.14 37.66 36.17 36.81 37.35 36.26 34.61 34.48 34.42 33.01 32.82 32.05 31.00 30.05 27.38 24.19 24.87 28.35 29.17 29.15 28.17 29.01 27.46 26.60 27.45 28.89 31.60 29.23 27.32 26.45 24.51 25.49 23.17 23.54 23.35 24.78 22.18 19.42
37.93 37.99 36.75 35.99 35.63 35.48 35.34 35.63 36.08 36.06 34.62 34.06 33.56 32.21 31.71 30.63 29.69 29.82 28.54 28.33 28.64 29.68 29.34 27.35 27.81 27.13 26.23 28.26 28.86 26.75 29.32 30.20 28.47 26.70 24.03 22.65 21.29 21.69 23.73 23.13 22.81 21.88 20.79
38.58 37.30 36.26 34.79 35.18 35.57 35.22 35.32 35.68 35.12 33.81 32.88 31.79 29.84 29.12 28.75 28.33 27.57 28.64 31.77 31.78 30.71 32.27 32.53 31.64 29.48 29.79 30.82 32.07 31.91 31.64 31.31 30.42 24.91 15.99 13.90 11.92 15.75 20.86 22.90 20.90 20.14 18.67

GFSMW_sfc_wetblb_060.txt.gz
Wetbulb
55.89 58.00 58.72 58.93 58.99 59.16 59.64 59.38 58.08 57.48 57.11 56.26 55.28 54.45 53.38 53.73 52.93 52.54 53.51 52.81 52.48 52.13 50.36 49.35 47.87 46.71 45.38 44.66 43.80 42.52 41.18 40.31 39.88 37.93 37.98 38.20 38.56 38.94 38.61 39.58 39.08 40.30 41.41
52.50 54.89 57.08 58.56 59.21 59.06 58.99 58.08 58.10 57.82 57.48 56.83 56.36 55.80 54.14 53.51 52.48 52.32 52.05 51.73 51.71 51.17 49.68 47.81 46.50 45.39 44.38 43.36 42.52 41.65 40.25 39.91 39.72 37.65 35.82 34.01 35.69 37.76 39.73 38.11 39.59 37.42 39.18
53.52 54.90 56.45 58.73 58.94 58.70 57.90 57.79 57.94 58.02 57.76 57.26 57.39 53.95 52.19 51.02 50.15 49.86 49.49 50.40 51.11 50.56 49.23 47.92 46.28 44.62 43.98 42.81 41.73 41.26 40.41 38.31 38.99 38.87 37.34 33.62 31.24 33.60 36.51 37.21 37.40 37.10 36.97
55.27 57.56 58.14 59.04 59.25 58.89 58.04 58.21 58.58 58.06 57.80 58.44 57.11 53.37 50.48 49.26 49.11 49.46 49.71 50.17 50.46 49.30 48.54 47.17 45.75 44.57 44.22 42.82 42.25 42.99 40.56 39.76 38.31 38.50 40.47 37.61 36.06 32.48 31.42 35.50 37.29 37.21 37.58
55.39 57.52 58.44 58.70 59.08 59.06 58.69 58.45 58.39 58.22 58.67 58.82 56.57 53.77 49.61 49.28 49.81 50.38 49.75 50.00 49.35 48.97 48.19 46.13 44.51 43.91 43.93 42.49 41.81 41.94 40.58 39.79 38.47 37.56 37.18 35.95 35.52 34.74 32.54 32.27 32.66 34.88 35.71
55.17 57.61 58.84 59.67 59.13 59.09 57.81 57.93 57.62 58.36 58.17 56.23 53.43 51.40 49.92 49.07 48.91 48.04 47.12 47.52 47.00 46.97 45.95 44.73 43.22 42.39 41.78 41.40 40.85 40.37 40.10 39.74 39.41 38.94 37.82 37.00 35.53 34.44 33.41 33.59 32.58 31.23 33.58
56.15 56.43 56.54 57.30 57.38 57.16 57.64 56.52 55.64 52.41 51.95 50.74 49.85 49.07 47.17 46.61 46.00 45.92 46.60 46.04 45.74 45.44 44.63 44.05 41.23 40.60 40.25 39.78 39.19 38.35 37.75 38.33 38.44 37.94 37.73 37.99 37.81 37.83 37.28 36.80 36.88 34.20 31.33
56.60 56.44 56.69 56.02 56.13 55.56 54.76 54.24 51.93 51.06 49.98 48.27 46.84 46.31 46.27 45.61 46.20 46.89 46.66 45.99 45.35 43.55 43.02 41.32 39.60 38.93 38.78 38.35 37.93 37.05 36.53 37.43 37.67 37.12 37.06 37.29 37.73 38.10 38.28 37.15 35.78 33.47 27.35
54.75 54.92 54.42 53.95 52.45 51.08 50.78 51.10 51.27 51.18 49.05 47.10 46.38 45.67 46.50 47.04 45.70 47.21 47.10 46.29 45.26 42.81 40.66 39.30 38.24 38.23 38.34 38.15 38.17 36.58 36.51 36.38 36.26 35.99 35.87 36.30 36.81 37.00 37.27 36.94 35.67 31.05 24.15
51.87 52.79 53.49 52.78 52.91 52.48 51.74 50.61 51.40 50.57 47.30 45.98 45.43 45.90 46.19 47.29 46.75 45.84 46.78 44.03 42.46 41.39 39.32 38.17 38.23 38.07 38.13 38.87 37.90 36.27 36.43 35.59 34.78 35.34 34.23 34.69 35.26 34.50 33.20 34.32 34.05 33.33 32.15
50.66 51.85 53.12 53.03 53.23 52.89 52.08 50.71 49.44 47.15 45.61 44.40 44.47 45.63 46.06 47.02 46.44 44.69 42.80 41.99 40.30 39.41 38.83 38.90 38.45 38.53 38.67 39.10 36.85 36.21 35.97 34.98 33.95 33.84 34.21 34.79 34.69 33.34 35.33 34.76 34.16 29.66 28.49
50.73 51.52 52.52 52.42 52.00 52.14 49.53 48.34 47.86 46.97 45.44 46.04 46.80 46.95 47.12 46.80 45.06 42.54 41.19 41.02 39.19 38.93 38.76 38.90 38.93 39.30 39.42 38.09 36.51 35.57 35.80 35.02 33.75 33.32 33.44 33.80 35.86 31.28 29.57 27.20 25.89 24.97 24.36
50.06 50.23 51.29 51.81 52.14 51.33 47.49 45.90 45.94 45.17 46.52 47.83 46.85 47.67 47.56 42.20 40.61 40.57 40.09 38.99 38.35 38.05 38.02 39.12 38.98 39.16 39.21 36.71 35.47 35.87 35.92 34.91 33.48 33.69 32.85 32.69 31.66 29.52 26.30 25.68 24.56 24.11 26.69
50.77 49.17 50.60 51.49 51.02 47.58 45.82 45.18 46.08 47.64 48.68 47.77 46.60 43.38 41.36 40.68 39.70 39.25 38.19 38.77 38.77 38.56 39.54 39.55 39.39 39.21 37.25 36.55 36.92 36.51 34.47 33.04 33.55 33.90 32.89 32.58 31.35 28.07 25.93 25.48 23.62 24.25 22.82
48.81 49.73 49.51 49.38 45.75 44.67 44.54 46.09 46.25 46.80 45.27 41.68 39.31 38.97 39.03 39.60 38.49 37.34 36.83 37.71 39.49 39.21 38.86 38.60 38.04 37.51 37.09 36.90 35.51 34.85 33.90 31.73 31.33 31.98 32.50 31.63 30.73 32.53 28.71 25.32 23.32 23.33 21.92
49.12 48.86 49.05 47.74 46.02 45.61 45.33 45.10 43.33 41.19 39.79 38.54 38.88 39.49 38.43 37.21 38.06 36.95 38.91 38.95 38.59 38.67 37.82 37.28 36.13 35.61 36.70 36.91 35.99 33.84 30.69 31.96 32.44 32.35 31.60 30.34 31.76 31.77 31.86 30.82 28.93 25.83 21.62
48.41 48.68 48.38 47.12 46.37 45.15 45.09 41.70 38.94 38.53 38.17 38.00 38.98 37.84 37.66 36.63 37.05 38.61 38.22 37.58 37.14 36.47 35.46 35.17 34.71 34.19 34.49 36.25 35.32 34.01 30.99 30.25 28.80 28.91 28.01 27.98 29.78 29.32 27.46 28.55 27.47 25.86 26.48
46.70 46.18 45.57 43.41 42.19 41.02 39.13 38.15 38.39 38.42 38.11 37.58 36.52 36.73 37.44 38.16 37.88 37.70 37.12 35.98 35.94 34.63 33.78 33.46 33.84 32.81 33.93 35.84 35.32 34.30 28.64 28.78 28.37 27.42 27.14 26.73 25.79 25.69 25.48 24.07 23.29 23.61 23.17
42.08 40.26 39.52 38.86 38.30 37.76 37.58 37.16 36.17 36.20 35.91 35.03 36.48 38.04 37.98 36.80 37.00 36.02 35.25 34.71 34.15 33.83 33.28 33.55 32.74 32.01 31.00 34.73 34.88 32.85 28.83 27.02 26.95 28.62 28.07 26.88 25.66 27.11 28.66 24.78 22.33 22.75 22.09
38.56 37.51 36.98 36.77 36.01 35.64 36.81 36.04 35.19 35.79 34.85 36.47 38.81 37.75 37.03 36.65 36.06 34.89 33.75 33.22 32.35 32.63 32.34 32.01 31.36 32.18 30.46 33.25 34.74 33.66 26.32 27.16 27.06 27.64 27.40 29.49 25.82 27.71 27.28 22.06 19.77 18.29 20.41
36.05 36.60 36.23 35.38 34.88 35.55 36.69 35.75 35.65 35.14 37.97 38.09 37.20 37.25 37.30 36.23 35.57 33.87 32.53 31.31 29.99 28.80 28.53 29.13 29.15 29.65 30.56 29.50 33.50 34.97 27.99 27.75 27.63 27.13 26.48 26.36 28.53 28.04 27.91 27.95 22.22 19.71 22.23
35.19 35.67 34.74 34.19 35.02 37.46 37.59 36.02 37.27 36.63 36.63 36.66 36.59 36.31 35.58 35.14 34.79 32.27 31.54 30.72 28.35 27.09 24.14 23.16 26.57 28.85 28.76 30.86 31.92 34.05 33.80 31.10 27.40 26.69 26.99 26.65 28.94 29.10 28.92 28.31 27.48 27.72 25.31
34.62 35.70 35.60 36.49 37.30 37.50 37.44 35.11 34.55 35.56 35.71 35.20 34.66 34.46 34.78 34.28 33.12 30.99 29.59 27.62 27.19 25.14 24.77 24.88 25.51 26.13 27.84 27.11 31.06 33.06 33.57 32.93 28.78 28.23 27.53 28.57 29.28 29.46 28.33 29.21 28.94 25.79 22.33
36.06 37.36 36.80 36.15 36.06 35.77 35.30 34.60 35.19 35.40 34.66 33.99 33.84 32.99 31.59 31.42 31.07 30.13 29.46 27.27 25.53 24.50 26.56 26.03 26.21 26.21 26.48 27.05 28.46 28.79 28.62 31.56 31.96 27.65 27.97 26.74 26.20 21.60 22.59 22.29 24.73 22.96 20.15
36.83 37.20 36.54 35.49 34.39 34.56 34.04 34.06 34.49 35.09 33.53 32.87 32.04 31.00 30.77 30.29 29.49 30.03 29.28 28.99 29.00 28.92 27.85 27.41 27.08 23.85 23.84 26.60 29.53 29.35 27.13 25.75 27.85 28.82 27.62 25.48 24.30 23.59 22.55 21.81 22.49 22.48 22.02
37.32 36.59 35.13 33.51 33.01 32.92 32.74 32.79 33.58 33.24 31.56 30.49 30.51 29.40 29.23 29.28 29.13 28.77 30.16 31.90 31.90 30.88 31.96 32.30 30.38 29.12 30.20 31.51 32.02 32.02 32.40 31.85 31.08 27.57 20.97 20.95 19.15 19.08 19.78 19.13 20.09 20.93 19.82

GFSMW_sfc_wetblb_063.txt.gz
Wetbulb
54.67 55.83 58.75 57.79 56.51 56.17 58.41 58.55 57.27 56.80 56.32 55.39 54.36 53.04 52.64 52.55 51.54 51.58 52.32 52.45 52.46 51.86 49.81 47.82 46.51 45.33 44.69 43.20 42.58 41.54 40.15 39.41 39.07 37.27 37.58 37.13 37.31 37.71 37.56 38.51 38.18 39.22 39.95
52.67 54.77 56.01 55.16 55.86 57.14 57.90 57.62 57.77 56.80 56.49 56.19 55.24 54.96 53.27 52.68 51.38 51.68 51.44 51.48 50.93 49.68 48.80 46.91 45.39 44.55 43.71 42.52 41.77 40.95 39.61 39.13 38.72 36.90 34.74 33.88 35.62 36.61 38.19 37.15 38.44 36.80 37.85
52.72 54.17 55.71 54.99 56.51 56.95 57.18 57.50 57.43 57.13 56.90 56.23 55.36 52.97 51.68 50.74 50.00 49.64 49.16 49.66 50.58 49.64 48.36 46.75 45.14 43.53 43.04 41.64 40.64 40.21 39.45 38.01 38.21 38.24 37.12 33.02 31.25 32.83 35.73 36.29 36.60 36.56 36.39
53.68 53.97 54.34 55.90 56.69 57.37 57.81 57.49 57.63 57.37 57.53 56.93 55.92 53.81 50.67 49.10 49.02 48.88 48.59 49.14 49.92 49.06 47.84 45.92 44.51 43.55 42.90 41.82 41.97 41.99 39.57 38.84 37.69 37.72 39.50 36.86 35.55 32.45 30.96 34.48 35.96 36.14 37.00
52.02 52.43 54.32 56.90 57.72 57.75 56.94 57.10 57.63 57.83 57.70 57.74 56.66 52.91 49.60 48.74 48.71 48.77 48.57 48.45 47.68 47.33 46.38 45.02 43.58 43.10 42.19 41.60 40.66 40.17 39.42 38.84 37.51 36.72 36.33 35.33 34.47 33.62 32.17 29.36 31.87 34.86 36.12
52.60 54.65 55.37 57.69 58.51 58.18 57.10 57.08 57.85 57.49 57.37 57.14 55.66 53.09 50.03 48.51 48.32 47.96 47.40 45.51 44.80 44.90 44.99 44.65 42.69 42.37 43.10 40.69 39.21 38.15 37.80 37.79 37.73 37.71 37.03 36.35 34.81 33.81 32.26 29.96 31.34 30.61 33.83
53.75 56.06 56.28 57.46 58.19 57.98 57.22 57.58 57.58 56.60 56.64 55.92 53.70 52.04 49.43 48.94 48.58 47.10 44.48 43.46 43.65 44.12 44.16 44.14 43.78 42.01 38.96 38.26 38.26 36.93 35.86 35.83 35.73 35.95 36.49 36.71 36.87 36.63 35.70 33.72 32.64 35.05 35.18
55.09 56.08 56.88 57.40 57.89 57.72 57.52 57.34 56.36 52.43 52.18 51.21 50.69 47.87 47.13 46.13 45.85 45.04 44.24 45.02 45.22 43.13 44.12 43.78 41.78 40.07 38.58 37.54 36.79 35.79 35.90 36.26 35.59 35.20 35.13 35.64 36.46 36.87 36.64 35.25 32.30 31.19 32.61
54.88 55.70 56.34 56.72 56.96 56.74 56.40 54.10 51.88 49.63 47.54 46.75 46.61 45.87 47.22 46.67 46.26 46.74 46.79 45.56 45.86 45.37 42.83 41.18 38.93 37.92 37.68 37.67 36.79 35.82 35.26 35.13 35.24 34.20 34.08 34.32 35.77 35.61 35.69 36.41 35.84 34.52 28.92
54.76 55.68 55.63 55.25 55.49 55.58 54.60 51.23 51.17 48.60 46.26 46.15 47.45 46.90 46.69 46.71 47.02 47.79 46.77 46.23 44.62 42.63 40.77 39.41 38.48 37.81 37.63 37.54 37.84 36.22 35.64 34.94 33.95 34.35 33.25 33.21 33.64 33.42 32.42 32.48 32.28 32.29 30.81
53.38 54.40 54.82 54.44 54.24 52.94 51.42 51.15 50.24 47.35 45.34 45.47 45.66 46.25 46.31 46.28 46.47 45.28 45.19 43.81 42.13 40.78 39.87 38.95 37.34 37.38 37.74 38.05 36.59 35.42 35.39 34.28 33.65 33.24 32.56 33.06 34.04 32.79 33.26 34.29 33.71 32.88 29.37
52.13 53.63 54.04 52.82 51.12 50.63 50.73 50.43 49.81 47.11 45.66 45.43 44.50 45.18 45.55 44.46 45.08 45.47 43.88 41.50 38.59 39.99 38.66 38.07 37.99 38.04 37.81 37.24 35.87 34.42 35.02 33.82 32.83 32.97 32.41 33.12 35.18 31.94 30.17 28.19 26.47 25.27 24.23
50.21 51.48 52.21 51.88 51.18 50.46 48.36 45.85 44.22 43.19 45.36 46.31 46.74 46.02 46.84 44.88 43.15 41.42 40.74 38.48 38.55 38.22 37.28 37.52 37.39 37.44 37.34 37.08 35.76 34.84 34.58 34.54 33.84 33.12 31.94 32.29 31.73 29.90 27.85 25.97 24.94 23.94 26.14
49.63 49.79 50.45 50.47 49.90 47.81 44.84 43.53 44.36 46.49 46.93 46.49 47.25 46.07 43.78 43.04 40.02 38.47 38.69 38.64 38.12 37.37 38.04 37.63 37.79 37.66 37.43 36.96 35.99 35.94 35.00 33.38 33.04 32.79 32.42 31.82 31.03 29.89 29.48 26.68 25.00 24.48 23.16
47.75 47.49 48.18 48.47 46.21 44.91 44.58 45.27 46.56 47.86 47.43 46.84 44.27 42.37 41.42 39.50 37.73 38.20 36.24 36.49 38.99 37.39 37.48 37.22 37.00 37.20 36.90 36.24 35.40 34.93 34.01 32.67 31.19 30.49 31.80 31.83 32.91 33.93 30.55 27.03 24.78 22.97 21.86
47.44 48.09 48.85 46.57 44.58 44.70 45.61 45.09 45.73 45.64 44.55 41.66 38.95 38.51 37.33 37.62 37.43 37.51 36.45 37.58 36.64 36.93 36.09 35.44 35.49 35.14 36.23 36.46 36.72 34.78 31.45 31.00 30.45 29.80 30.84 32.56 32.07 31.50 34.03 32.08 29.26 25.54 21.93
47.23 48.05 46.86 45.48 44.98 44.39 45.19 44.16 41.99 41.29 38.25 37.89 37.01 37.67 38.35 37.84 37.40 38.05 37.53 35.71 34.77 35.26 34.38 33.59 33.38 33.20 33.52 35.68 36.85 35.44 30.75 29.96 29.64 28.94 28.54 28.28 28.97 29.39 28.22 30.69 30.07 28.70 27.63
46.19 45.95 45.67 44.04 43.41 41.81 39.34 37.87 37.64 37.40 36.16 35.68 36.21 36.90 36.58 37.49 37.43 36.84 35.43 34.50 34.78 34.07 33.04 32.21 32.22 31.79 32.81 35.34 35.97 35.15 30.56 28.76 28.65 30.67 28.29 26.74 26.13 26.80 26.57 24.62 23.61 23.41 23.90
38.71 38.41 39.07 38.28 37.61 36.47 36.32 36.02 34.86 35.00 35.19 36.23 36.12 37.06 37.80 36.77 36.20 34.80 34.30 33.72 33.09 32.20 31.41 31.75 31.37 30.60 30.48 33.91 34.77 33.76 29.44 28.23 28.41 28.73 28.30 27.85 26.20 28.54 30.34 25.02 23.27 23.33 23.60
35.81 34.89 34.99 35.26 34.62 34.24 35.72 35.12 33.90 34.94 34.63 36.98 38.75 38.00 37.29 35.63 34.86 34.49 33.13 32.12 30.96 31.30 30.19 29.54 30.08 31.49 29.92 32.34 34.04 33.84 29.29 29.03 27.74 26.72 28.19 30.52 28.74 28.58 29.14 23.00 20.11 19.13 21.59
34.48 35.03 34.62 33.65 33.91 35.10 35.71 34.10 34.27 35.38 37.43 37.71 37.52 36.80 36.41 35.18 34.38 33.16 32.37 31.24 30.01 28.59 27.76 28.05 28.29 28.55 29.32 29.26 32.88 33.45 32.55 29.59 27.57 27.37 27.54 27.55 29.54 29.72 29.25 28.70 22.13 20.66 23.25
33.41 34.30 33.89 33.70 33.99 36.12 37.30 36.14 34.29 35.60 36.96 36.21 35.85 35.14 34.63 34.11 33.95 31.95 31.21 30.18 28.69 27.01 25.22 21.56 24.98 26.69 27.92 30.39 31.31 32.63 33.21 32.28 28.12 27.52 27.95 27.79 29.81 30.29 29.79 28.40 27.95 28.56 25.46
33.12 34.42 35.33 36.79 37.01 36.74 36.73 34.37 35.17 35.53 35.14 34.25 33.73 33.47 33.77 32.91 32.09 30.44 29.65 28.24 27.56 25.90 26.30 25.80 25.73 26.07 26.99 27.40 31.05 32.30 32.45 32.45 31.68 29.83 29.36 30.05 30.06 30.86 29.19 29.84 29.27 26.73 22.50
33.88 36.00 36.39 35.51 35.21 35.42 34.70 34.49 34.38 33.91 33.57 32.69 32.47 31.93 30.25 30.40 30.05 29.67 29.70 27.81 27.00 26.75 27.64 27.45 26.68 26.82 26.50 25.90 27.16 27.96 28.15 31.53 30.81 30.47 31.09 29.52 28.40 27.97 27.68 24.77 26.43 24.64 20.29
36.28 36.72 35.68 34.58 33.66 33.51 31.64 32.55 33.14 32.71 30.99 30.10 29.84 29.35 29.42 28.88 29.06 29.68 29.08 29.75 30.53 30.28 30.23 29.25 28.49 27.74 25.75 26.99 28.37 27.82 26.15 25.67 27.43 26.57 27.48 26.92 26.35 25.57 24.80 24.36 23.83 23.12 20.70
36.43 35.21 32.77 31.76 31.18 31.19 31.61 32.20 32.50 31.78 29.81 28.83 28.75 28.80 28.87 28.70 28.67 28.28 29.39 32.21 32.22 31.99 32.25 32.22 31.72 32.08 31.06 32.00 32.06 32.16 32.12 32.14 31.54 27.03 26.23 25.28 24.55 23.10 23.32 22.93 22.34 21.30 19.51

GFSMW_sfc_wetblb_066.txt.gz
Wetbulb
56.67 57.04 57.45 57.86 56.16 55.70 57.48 57.51 56.27 55.57 55.92 55.03 53.03 52.38 52.48 52.08 51.96 52.83 52.45 52.90 51.43 50.17 49.03 47.30 45.73 45.49 44.13 42.33 42.00 41.14 40.20 39.70 38.92 37.88 38.23 37.45 37.98 38.17 38.43 39.24 39.51 40.02 40.46
52.41 54.12 55.92 56.14 54.97 55.06 57.24 56.91 56.65 55.85 55.82 55.68 53.77 53.41 52.54 51.99 50.84 52.22 51.93 51.65 51.12 49.90 48.18 46.28 44.82 44.21 42.65 41.99 41.56 40.69 39.69 39.06 38.97 37.26 35.38 34.13 36.31 36.92 38.50 37.81 39.28 38.58 38.96
52.65 52.39 54.60 55.62 54.65 55.50 56.59 57.82 56.89 56.23 55.91 55.40 54.74 53.73 53.46 50.59 49.88 49.67 49.02 49.72 50.20 49.33 47.42 45.93 44.16 42.93 42.52 41.28 40.49 40.30 39.81 38.13 38.61 38.53 37.29 33.27 31.67 33.53 36.64 37.29 37.42 37.84 37.86
53.22 52.77 53.74 54.94 54.64 55.58 56.51 57.74 57.19 56.57 56.17 56.00 54.66 53.84 52.85 50.31 50.10 49.32 48.54 48.54 49.18 47.96 47.10 45.35 43.58 42.91 42.57 42.67 41.32 43.06 39.68 39.19 37.92 38.55 39.35 37.05 35.99 33.44 32.00 35.29 36.42 37.04 37.58
53.37 52.58 53.48 55.40 55.47 55.32 55.79 56.43 56.73 56.71 56.83 56.71 55.96 55.34 53.91 50.14 48.82 48.25 48.02 47.26 46.47 46.25 45.24 44.11 43.42 44.74 42.80 42.16 41.24 40.07 39.22 38.88 37.77 36.96 36.53 35.71 34.82 34.05 32.87 30.48 33.30 35.74 36.93
51.37 52.27 52.08 54.69 55.10 55.09 54.85 55.59 56.31 57.21 56.79 56.61 56.61 55.54 53.04 48.70 47.59 47.20 46.52 45.43 44.78 44.11 44.45 45.33 44.44 41.92 43.30 42.04 39.10 37.83 37.50 37.30 37.14 37.25 36.64 36.24 35.26 34.03 32.72 30.62 31.17 31.70 34.52
49.23 50.35 52.62 55.14 55.61 56.33 55.93 56.47 56.87 56.47 57.05 56.47 56.95 55.76 51.59 48.60 48.08 47.02 44.95 43.29 43.23 42.52 43.18 44.24 44.28 42.79 41.44 40.04 37.43 36.60 35.90 35.64 35.14 35.37 36.12 36.69 36.66 36.79 35.81 34.01 33.20 32.50 33.29
51.05 52.60 53.37 55.82 56.49 56.97 57.57 57.07 56.95 56.75 56.13 56.13 56.15 53.17 50.67 49.23 47.72 46.25 43.92 43.59 43.73 44.03 45.09 45.31 43.93 41.35 40.22 37.70 37.72 36.02 35.67 36.06 35.94 35.73 35.68 35.93 36.30 36.60 36.43 35.32 34.81 33.18 33.06
51.05 53.75 55.04 55.74 56.27 56.69 57.41 56.95 57.27 55.80 54.72 54.00 51.77 49.44 49.27 47.42 45.83 45.76 46.29 46.00 43.90 45.48 45.27 44.12 41.63 39.74 39.33 38.91 36.53 35.65 35.71 35.46 35.13 34.96 35.22 34.61 34.95 35.41 36.11 36.56 36.37 35.56 30.41
50.67 53.59 55.30 55.78 56.89 57.15 57.93 57.69 55.77 53.53 49.89 48.99 48.92 47.73 45.46 46.06 47.14 46.10 45.54 45.75 45.55 45.24 44.45 41.86 39.79 39.38 38.68 37.88 36.35 35.55 35.22 35.25 34.83 34.50 33.70 33.63 33.87 34.28 33.49 33.46 33.81 33.71 31.20
52.00 53.74 55.12 55.94 56.21 57.11 55.53 54.09 51.66 48.25 46.41 46.25 46.00 46.12 45.58 45.50 46.42 46.20 45.92 45.59 45.15 44.65 41.50 40.24 39.31 38.91 36.58 37.93 37.25 36.16 36.14 35.08 34.14 34.10 33.34 33.32 33.53 33.43 32.59 32.78 32.64 31.66 32.90
52.38 53.85 54.59 54.70 53.94 53.36 53.10 52.18 50.05 46.27 44.14 43.84 44.79 44.09 44.38 44.55 45.31 44.61 45.21 44.75 42.93 41.40 38.52 38.71 39.15 38.29 37.51 37.29 36.88 35.76 35.76 34.34 33.45 33.64 32.67 32.41 34.48 32.26 31.72 30.58 30.00 29.56 28.94
50.33 51.67 52.22 52.21 51.98 50.89 50.55 49.10 45.40 42.99 43.27 45.28 45.23 45.15 45.29 45.36 44.06 45.04 44.18 42.42 37.79 37.82 38.63 38.81 38.76 37.43 37.58 36.93 36.28 35.50 34.58 34.04 33.89 33.69 32.59 31.71 31.28 30.33 29.80 28.75 27.18 26.47 26.95
49.15 50.60 50.84 50.16 49.22 48.25 46.73 44.72 46.11 45.93 45.98 46.56 47.07 45.62 46.18 44.88 42.50 40.56 38.91 37.66 38.69 38.54 38.55 38.23 37.76 37.48 36.88 36.53 36.65 35.42 34.14 33.75 33.28 32.69 31.95 31.59 31.17 30.38 29.93 29.67 28.08 26.67 24.68
47.39 48.50 48.53 48.11 46.14 44.75 45.23 45.97 45.95 46.06 47.45 46.47 46.73 44.98 42.18 40.31 39.44 38.65 38.33 38.14 38.88 38.25 37.93 36.80 36.23 35.96 36.43 36.40 34.94 34.40 33.80 32.40 31.84 31.54 31.16 31.04 31.62 33.41 31.11 28.60 27.04 25.47 23.07
47.55 45.82 47.90 46.77 46.59 44.99 44.97 46.31 45.90 46.10 46.86 45.48 42.49 40.50 40.09 38.27 37.87 37.05 37.67 37.98 37.62 37.25 35.97 34.91 34.64 34.62 35.48 36.32 36.73 35.47 32.36 31.80 31.15 30.09 30.34 30.65 33.62 32.55 33.85 34.04 32.01 26.64 23.73
45.95 46.10 46.56 45.40 45.19 45.83 45.57 44.88 44.63 44.74 43.05 39.84 39.10 38.21 38.03 37.62 36.25 38.07 37.51 36.61 35.68 36.27 34.79 34.09 33.14 32.41 32.59 35.12 36.48 36.08 32.42 30.81 29.99 29.34 29.74 30.35 30.39 30.31 28.18 30.15 31.31 29.79 28.98
45.12 44.20 43.63 43.11 43.59 42.51 40.84 39.50 38.68 37.49 38.04 37.93 37.07 37.59 37.76 37.49 37.38 36.81 36.15 35.31 34.92 34.26 33.38 32.21 31.71 30.97 31.77 34.58 35.27 35.34 32.08 30.15 30.07 29.45 29.05 28.67 28.06 27.69 27.61 27.08 26.16 25.39 25.33
37.13 37.31 38.30 37.39 36.12 35.38 35.80 35.79 36.09 36.90 36.45 36.38 36.93 37.45 37.80 36.64 36.39 34.85 34.40 33.96 32.76 32.12 31.22 31.02 29.81 29.27 29.81 33.15 33.86 33.47 30.29 29.75 29.26 29.97 29.19 28.26 27.48 28.91 31.03 27.24 24.30 24.24 24.25
33.86 33.56 33.93 34.04 33.56 33.50 35.32 35.54 35.51 36.41 36.09 37.29 37.84 37.87 36.97 36.53 35.19 34.38 33.86 32.13 30.47 30.10 29.86 29.23 29.23 30.84 29.86 31.98 33.42 33.11 28.20 30.62 30.43 30.43 28.72 30.38 29.03 29.64 30.49 27.19 23.70 20.65 22.89
32.67 33.59 33.38 32.96 33.54 34.88 35.96 33.76 35.01 35.70 37.45 37.74 37.48 36.78 36.39 34.91 34.65 32.59 31.06 30.29 29.53 29.06 28.10 27.98 28.34 28.44 29.15 29.11 32.50 33.55 30.53 30.67 29.82 29.20 28.19 28.17 30.08 31.18 31.54 30.33 24.63 23.16 24.64
32.32 33.65 33.52 33.42 34.56 35.24 36.30 35.45 34.52 35.94 36.74 35.74 35.02 35.22 34.57 33.56 32.58 30.56 30.23 30.02 28.83 27.59 26.39 24.60 26.71 27.53 28.59 30.50 31.13 32.59 33.03 31.45 30.41 29.60 29.28 29.27 30.64 31.05 31.45 30.50 29.41 28.18 25.64
32.35 35.10 34.28 33.87 35.05 35.91 34.57 33.16 32.22 33.28 34.13 33.91 32.63 31.61 31.35 30.52 29.64 29.03 28.71 28.03 27.53 26.69 27.19 27.17 27.28 28.60 29.70 27.29 30.76 32.04 32.36 32.17 29.71 31.59 31.32 30.97 30.95 31.86 30.88 31.19 30.30 28.23 27.19
33.44 34.32 34.04 32.39 31.69 31.61 32.24 32.56 33.38 33.01 31.89 30.05 29.36 29.10 28.42 28.88 28.47 28.82 29.06 26.91 25.35 26.33 28.13 28.10 28.10 28.94 29.33 29.19 27.43 27.43 29.29 30.58 30.93 30.09 30.46 30.57 29.84 27.88 28.50 28.74 29.73 29.36 27.34
33.44 33.34 31.84 30.41 30.23 31.83 31.34 31.59 31.09 30.06 28.28 28.06 27.62 27.16 27.47 27.03 27.08 27.87 27.49 28.17 28.25 28.05 28.14 28.40 29.01 29.02 28.91 29.96 31.84 29.98 29.74 29.07 27.92 24.76 24.06 28.05 27.02 25.53 25.38 25.60 26.08 26.28 25.52
31.88 31.25 31.09 30.93 30.80 29.01 27.24 27.41 28.25 27.05 25.67 25.24 25.23 25.15 25.20 24.77 24.71 24.25 24.72 28.78 29.34 30.16 30.73 30.46 29.01 28.28 30.25 31.54 32.67 33.38 33.56 33.02 30.91 26.67 25.22 26.13 26.50 25.83 24.87 24.29 24.26 24.43 24.31

GFSMW_sfc_wetblb_069.txt.gz
Wetbulb
57.77 58.14 59.31 60.22 59.90 60.88 60.78 61.30 61.11 60.63 59.86 59.54 59.84 59.56 59.95 59.23 59.61 59.07 57.45 55.71 55.51 55.05 56.30 54.76 53.79 52.87 52.01 51.15 51.13 50.44 49.91 49.31 49.70 48.58 48.21 47.32 46.92 46.79 47.93 48.74 48.41 48.17 48.40
56.96 57.89 58.72 60.03 60.53 60.38 60.62 60.91 60.79 60.27 60.40 60.99 60.38 60.07 59.13 58.21 58.62 57.81 55.99 54.88 54.68 55.48 55.12 53.67 52.48 52.45 51.00 50.77 51.02 50.60 49.23 49.39 49.08 47.62 45.91 43.61 44.53 45.76 46.61 47.17 46.82 47.60 48.14
56.60 57.49 57.94 59.40 59.90 60.28 60.18 60.70 61.04 60.74 60.68 60.59 58.86 57.32 56.85 55.92 55.40 55.21 53.71 54.88 54.91 55.07 53.96 53.23 52.59 51.85 51.65 50.48 50.15 49.71 48.92 47.63 47.81 47.12 45.62 41.36 39.42 42.04 46.76 45.83 46.20 46.43 46.79
56.99 57.63 57.55 58.51 59.59 59.75 60.65 61.21 60.60 60.01 59.84 59.65 58.72 57.76 56.74 54.24 55.25 54.03 53.54 54.44 55.31 54.12 53.19 52.19 52.09 51.81 50.87 50.21 50.07 49.57 48.91 48.48 46.62 47.23 46.53 46.37 44.86 39.49 38.31 45.03 45.53 45.75 45.29
57.97 56.85 56.46 57.84 59.39 59.92 59.36 60.64 60.31 59.80 59.45 59.34 59.13 58.24 56.22 56.41 55.53 53.07 53.74 53.98 53.97 53.47 52.20 52.13 51.58 50.83 50.15 49.50 49.47 48.72 47.82 48.59 46.29 44.73 44.96 44.61 44.39 43.99 40.56 37.58 40.75 43.86 44.96
57.96 58.45 57.85 57.77 58.37 59.19 59.48 59.97 59.84 59.43 59.40 59.20 58.85 58.16 56.73 55.08 54.00 53.31 52.94 52.90 52.73 52.22 51.84 50.83 50.40 49.21 48.73 46.32 46.34 46.53 45.41 46.03 45.96 45.44 44.63 43.03 41.27 40.77 40.67 39.18 39.19 39.41 41.60
56.39 57.30 56.28 56.04 57.51 57.80 58.67 59.15 59.28 58.36 59.36 59.12 58.84 58.52 57.33 55.63 55.02 53.77 53.26 52.15 51.44 50.49 49.96 49.88 48.18 48.54 44.33 43.36 43.61 44.87 44.90 44.78 44.39 44.14 43.83 44.67 44.04 43.59 41.63 39.93 38.41 38.06 40.49
55.02 55.72 56.72 56.81 57.56 58.07 58.62 58.97 58.32 58.74 59.21 58.94 58.75 58.76 57.50 55.07 55.16 54.84 53.86 53.04 52.08 50.65 49.75 49.10 46.94 44.62 43.67 43.33 43.09 43.58 45.05 45.03 44.86 44.68 44.53 44.24 43.44 43.08 41.72 39.56 38.47 35.94 37.29
53.40 54.46 55.72 57.15 57.77 58.25 58.57 58.94 58.63 58.55 58.48 58.52 59.24 58.71 56.40 55.48 55.14 54.89 54.07 52.48 51.01 48.83 49.52 49.44 45.29 44.52 42.92 44.07 44.69 44.83 44.51 44.66 44.57 44.34 44.03 42.64 42.63 42.25 41.42 41.11 40.71 37.66 33.47
52.34 54.43 55.95 57.16 58.36 59.23 59.55 59.90 59.88 59.22 58.49 59.01 59.18 58.02 57.10 57.22 55.57 53.26 51.00 49.78 49.37 49.37 49.45 46.12 44.42 43.29 44.57 44.62 44.22 44.14 43.96 43.46 43.72 42.97 42.17 41.79 41.61 41.07 40.85 40.36 40.30 39.80 36.85
53.03 54.51 56.68 57.72 58.66 59.62 60.06 59.54 59.43 58.29 57.47 58.25 58.04 56.97 55.54 54.48 52.42 51.27 49.55 49.44 49.06 46.45 46.03 45.27 44.61 44.54 44.27 43.98 43.74 43.77 43.32 42.30 42.56 41.98 41.20 40.94 41.15 39.97 40.10 40.24 39.69 38.60 38.07
55.04 55.76 56.99 57.83 58.26 58.75 58.75 58.64 57.87 56.39 56.74 54.82 53.80 52.42 50.53 50.49 50.66 49.47 49.23 49.30 46.39 47.78 44.99 44.54 44.63 43.83 43.28 43.72 43.09 42.77 42.26 41.86 41.26 41.05 40.64 39.72 39.48 39.42 39.99 39.36 38.58 38.15 38.20
54.31 55.64 56.63 57.11 57.64 57.91 57.10 57.44 55.28 52.17 50.71 50.70 49.49 49.25 49.43 48.38 48.14 47.61 47.45 46.45 45.61 46.19 44.92 44.10 42.97 43.21 43.27 42.92 42.90 42.58 42.07 41.67 41.26 40.94 40.50 39.96 39.62 38.74 38.99 38.58 37.70 37.69 36.29
53.09 55.27 56.17 56.48 56.82 56.51 56.28 53.62 51.02 49.69 48.68 48.38 48.02 48.11 47.94 47.52 46.23 46.06 44.98 42.56 41.38 42.83 42.26 42.77 43.15 43.03 42.44 42.14 42.18 42.04 41.77 41.13 40.58 40.78 40.35 39.86 39.01 38.39 38.21 37.82 37.42 35.09 33.24
51.08 53.19 55.15 55.08 53.52 52.48 51.79 51.06 49.15 49.08 49.83 48.87 48.14 46.65 45.28 42.69 41.59 40.98 41.32 40.92 42.23 42.83 42.52 42.18 42.18 42.18 41.46 40.81 41.47 41.19 41.06 40.53 40.28 40.50 39.67 39.52 38.91 37.10 36.43 35.54 35.81 35.10 33.95
48.21 51.24 52.69 51.61 50.05 49.58 49.50 48.66 49.14 48.88 48.96 47.01 44.75 42.85 41.01 39.98 40.12 39.90 38.89 41.04 41.79 41.32 41.29 41.24 40.86 40.25 39.29 36.57 36.56 37.47 40.19 39.96 39.46 38.82 39.47 39.03 36.30 36.52 35.48 35.34 35.00 34.97 34.17
48.75 49.08 50.57 50.37 48.94 48.47 48.34 48.30 48.36 48.69 47.24 45.12 41.45 39.92 38.98 39.60 39.39 39.04 40.89 40.24 39.82 41.32 40.51 40.25 39.88 39.63 39.81 35.49 35.84 35.81 38.70 38.93 38.88 38.77 38.19 37.10 36.27 35.43 35.97 33.92 31.78 32.52 31.05
47.16 47.28 47.58 47.59 48.07 48.55 48.21 47.12 45.69 43.02 40.77 38.89 38.23 38.47 38.91 38.40 38.29 40.81 40.02 40.40 40.52 39.92 39.99 39.93 39.28 38.76 38.18 34.57 34.77 34.69 37.85 38.32 38.47 38.04 37.67 36.89 36.33 36.08 34.72 33.47 32.57 32.80 33.21
43.30 43.92 44.70 43.82 44.00 43.84 43.70 43.12 42.06 39.44 38.01 37.22 37.91 39.10 39.21 38.78 40.81 40.26 39.88 39.83 39.46 39.48 38.92 38.33 38.21 37.66 37.73 34.39 33.78 34.28 37.02 36.40 36.53 36.96 36.97 36.47 35.99 34.40 32.85 31.71 30.60 31.43 31.82
40.08 39.52 39.62 40.11 40.56 41.20 42.13 40.80 38.35 37.47 37.19 38.88 39.17 39.49 39.14 40.68 39.19 38.93 38.92 39.47 38.58 37.79 37.97 37.22 37.77 36.24 36.51 35.16 34.03 34.44 36.54 35.38 34.87 35.46 35.00 33.05 32.94 32.79 31.13 31.99 31.55 29.66 30.52
37.41 38.59 39.08 38.56 38.98 40.33 40.21 38.41 39.25 38.31 39.19 39.42 39.91 39.94 39.38 38.65 38.67 37.89 37.68 37.34 37.36 36.61 36.15 34.72 35.98 36.23 35.67 35.97 34.37 33.98 35.13 35.18 34.23 33.53 33.05 32.95 32.02 31.46 32.04 31.74 32.26 31.70 32.12
36.63 37.59 37.23 37.08 38.89 39.80 39.42 37.71 37.45 38.59 39.04 38.87 37.69 36.87 36.77 36.02 35.80 36.24 36.38 36.11 35.70 34.68 34.40 33.06 33.42 34.82 35.16 33.66 33.45 33.64 33.07 33.47 33.26 32.95 34.47 34.19 32.07 31.89 31.57 32.13 32.01 31.11 29.77
37.01 38.41 37.36 36.62 37.42 38.50 38.22 35.69 35.99 37.57 36.73 35.84 34.55 34.04 33.72 33.05 33.14 32.89 32.51 31.90 31.81 30.81 30.55 30.85 31.24 32.03 32.97 33.77 33.22 32.27 31.87 31.71 32.81 33.66 33.97 32.82 31.94 31.62 31.06 31.65 31.69 31.02 31.75
35.80 35.91 35.25 34.15 33.65 34.79 34.56 34.96 34.59 34.79 33.68 31.90 31.24 31.34 30.84 30.41 30.57 30.81 30.33 29.80 29.68 29.41 28.98 28.93 29.19 30.26 29.90 30.75 31.80 32.72 32.51 31.83 32.47 32.27 33.20 32.37 31.49 31.45 31.63 31.13 31.30 32.75 32.73
35.22 34.96 33.97 33.12 31.98 32.28 31.29 31.35 31.02 31.74 29.89 29.13 28.48 28.34 28.55 28.20 27.96 28.25 28.36 28.41 29.47 28.66 27.59 27.84 28.05 28.47 28.36 29.50 30.29 31.13 31.50 32.45 31.97 32.47 32.64 31.86 30.62 28.98 29.62 29.53 30.02 31.01 30.49
34.06 33.55 32.81 30.94 29.29 29.17 28.46 28.27 28.82 28.37 28.27 26.93 26.93 26.17 26.63 26.67 26.60 26.30 26.53 26.94 26.84 27.20 27.87 28.11 27.81 27.05 27.26 27.48 28.43 28.79 30.29 32.00 32.05 31.18 30.29 30.03 30.39 29.27 29.13 28.68 28.02 29.46 29.12

GFSMW_sfc_wetblb_072.txt.gz
Wetbulb
59.87 60.32 61.13 61.28 61.78 61.86 61.85 63.07 64.01 65.26 65.12 63.59 61.94 62.57 62.73 63.19 63.85 64.27 64.18 62.60 58.51 60.95 61.82 60.02 58.77 58.07 56.63 55.51 55.61 55.24 54.18 54.82 55.29 52.29 53.01 52.71 51.53 50.96 50.83 51.32 50.54 50.39 50.20
57.70 59.26 60.31 61.19 61.35 61.56 62.39 63.33 63.96 64.75 64.94 63.32 62.98 63.99 64.45 62.78 63.82 64.36 61.47 60.93 59.91 60.23 59.05 59.18 57.98 57.49 56.18 55.18 54.97 54.73 54.87 55.33 54.95 50.81 50.01 47.62 49.22 49.61 49.95 50.45 49.79 50.06 50.32
58.31 58.30 59.51 60.61 61.25 61.12 62.19 63.00 64.07 64.75 65.18 65.00 63.58 64.18 64.23 62.74 62.34 62.29 58.71 57.74 57.50 58.55 59.12 58.67 58.05 57.37 56.27 54.86 55.09 54.49 53.47 53.14 53.19 51.43 48.80 44.51 43.23 45.04 49.42 48.94 49.31 49.22 49.25
59.52 60.10 59.88 60.63 61.85 62.64 63.25 63.47 64.16 64.72 65.24 65.37 63.63 62.35 61.50 60.93 61.60 60.82 58.71 56.57 57.09 58.59 58.61 58.11 57.90 57.06 55.88 55.08 54.80 54.46 54.15 52.33 50.75 52.00 49.71 48.74 46.84 42.09 41.03 47.47 47.64 48.40 47.96
60.81 59.97 60.63 61.35 62.18 63.28 63.92 64.80 64.72 65.05 65.31 65.15 64.50 63.20 62.45 62.34 60.30 56.59 55.13 56.53 57.39 58.63 57.78 57.52 57.33 56.38 55.40 54.93 53.70 53.20 52.47 52.30 49.73 47.86 47.20 46.73 46.55 46.33 43.29 41.36 44.07 46.32 47.16
61.44 61.78 61.92 61.86 61.90 64.02 63.82 63.97 63.74 63.70 64.16 63.80 63.93 63.41 62.74 60.46 57.83 55.24 54.98 56.78 57.95 57.95 57.43 57.02 56.90 56.21 54.24 53.64 52.91 50.38 48.90 49.27 48.76 47.87 46.85 45.29 43.64 43.34 43.14 41.84 42.05 41.95 43.90
61.00 61.86 62.00 61.94 61.64 62.16 63.11 63.13 63.40 62.93 63.88 63.31 62.96 61.85 61.73 60.74 58.67 56.68 55.85 57.42 56.66 56.04 56.49 56.57 55.79 54.05 53.51 48.17 45.58 46.35 49.50 48.89 47.93 47.28 46.15 46.78 45.88 45.63 44.19 42.48 41.35 40.33 42.68
59.56 61.36 62.55 62.76 62.06 61.83 62.32 62.93 63.04 62.70 63.39 63.12 62.12 62.34 62.29 61.63 60.12 58.14 58.03 57.73 56.79 57.07 57.20 55.81 54.74 53.55 45.54 45.51 46.16 47.81 49.04 49.11 48.07 47.08 46.72 46.27 46.21 45.81 44.73 42.49 40.66 38.34 40.02
57.95 59.71 61.57 63.06 62.61 62.40 62.46 62.84 62.63 62.98 62.57 61.67 62.02 61.83 61.54 60.70 59.88 59.48 60.37 59.15 58.73 57.19 55.55 54.60 52.47 47.73 46.03 46.23 46.41 48.19 48.70 48.27 47.90 47.37 47.20 46.31 45.97 46.02 45.30 44.25 42.64 39.62 35.81
56.87 58.59 60.00 61.77 62.88 63.47 63.47 63.47 63.63 63.03 63.02 62.73 61.67 60.21 61.54 61.43 59.38 60.02 59.93 58.91 57.66 55.03 53.73 51.42 48.18 46.01 45.56 47.04 48.68 48.49 48.43 47.36 47.27 46.81 46.29 45.96 45.64 45.33 45.20 44.06 43.20 42.07 39.38
56.92 57.96 59.15 60.73 62.07 63.29 63.38 63.14 63.18 62.98 63.38 62.62 60.84 59.96 60.61 59.62 59.08 58.30 57.31 56.02 54.00 51.79 49.89 47.79 47.88 51.08 48.64 48.75 48.35 47.93 47.39 46.31 46.30 46.54 45.68 45.03 45.60 44.69 44.31 43.85 42.98 41.44 40.80
58.33 59.15 59.89 60.62 61.15 62.22 62.63 62.63 63.08 63.01 63.00 62.43 60.51 59.74 57.68 55.42 52.58 52.65 52.21 52.08 49.90 49.35 49.03 49.22 49.46 48.09 48.15 48.28 47.41 46.65 46.27 45.71 45.14 45.29 45.18 44.39 43.98 44.03 43.88 42.88 41.75 41.28 41.33
57.80 59.64 60.13 60.38 60.74 61.35 61.96 62.22 62.46 62.05 61.36 59.76 57.15 52.81 51.84 51.68 51.18 49.71 49.88 48.71 48.75 49.37 47.13 47.64 47.53 47.41 47.14 46.88 47.05 46.36 45.80 45.46 45.12 44.99 44.54 44.12 44.03 42.90 42.76 42.25 41.23 41.06 40.24
55.71 58.71 60.12 60.68 61.21 61.41 61.74 61.34 61.16 60.23 57.52 55.72 53.70 52.06 50.82 49.79 48.32 47.42 46.31 45.34 44.68 44.01 43.77 45.65 46.22 45.96 46.64 46.21 45.82 45.24 44.74 44.76 44.38 44.46 44.31 43.97 43.49 42.56 42.08 41.11 40.61 40.01 39.15
53.39 55.84 58.79 60.53 60.94 60.75 60.70 59.91 57.07 54.45 53.23 52.26 50.25 49.33 48.86 46.95 44.52 43.90 43.24 44.92 44.48 43.46 43.82 46.01 45.72 46.33 45.93 44.70 44.54 43.79 43.50 43.20 42.94 43.46 43.46 43.71 42.68 40.45 39.44 39.64 39.46 39.20 36.56
52.23 53.69 56.95 59.31 58.40 58.27 58.00 54.89 52.81 52.52 52.46 51.79 49.99 49.19 45.73 43.14 42.23 41.28 42.89 42.22 42.00 43.40 45.72 45.90 46.61 45.43 43.58 38.23 37.10 37.69 41.88 41.81 41.48 41.44 42.24 42.66 40.67 39.05 35.75 35.56 35.08 35.92 35.56
52.61 53.81 55.78 56.94 56.91 56.45 55.30 53.03 52.09 52.55 50.76 48.72 46.76 45.10 42.11 41.01 41.98 41.97 41.68 41.57 43.65 46.27 46.68 45.67 44.16 43.40 43.77 37.52 36.57 35.99 40.13 40.34 40.69 40.83 40.80 40.60 40.68 38.87 39.85 37.12 34.63 34.19 34.03
52.34 53.26 54.80 55.05 55.35 55.63 55.19 54.31 53.46 51.61 49.46 47.28 44.65 42.89 41.27 40.14 41.20 43.86 42.77 44.23 46.62 44.92 44.18 43.70 43.66 42.86 42.41 36.74 35.86 35.08 39.58 40.13 40.51 40.76 40.80 40.41 40.40 40.38 39.37 39.03 37.39 36.53 36.20
51.26 52.60 53.65 53.89 53.89 53.23 52.68 51.09 48.30 46.42 44.78 43.03 40.53 40.26 40.69 41.57 44.13 42.91 44.78 44.80 44.03 43.38 42.68 42.47 42.11 41.67 41.86 36.54 35.11 35.22 39.56 39.23 39.63 40.23 40.53 40.28 39.81 37.43 36.79 36.84 35.10 34.67 34.57
49.00 48.81 49.96 50.61 50.40 50.15 49.94 46.73 44.74 43.20 41.28 40.72 41.42 43.83 44.56 40.63 43.39 44.10 42.88 43.60 42.79 41.23 41.61 40.85 41.45 39.30 40.49 37.45 35.74 35.95 38.19 37.20 37.96 38.86 39.01 36.12 36.45 34.39 33.38 35.45 35.41 33.52 33.25
46.65 48.06 48.85 48.40 48.49 49.19 48.07 44.75 42.96 40.15 41.89 43.46 41.31 41.37 43.04 43.21 42.35 41.63 42.42 42.19 41.57 40.94 40.32 38.20 38.99 38.72 38.34 37.85 34.99 34.52 35.12 34.72 34.93 34.05 34.75 36.10 34.29 33.06 33.21 32.77 34.19 34.12 35.15
45.26 46.53 46.23 46.20 46.76 46.21 44.85 43.41 42.34 42.52 41.84 42.64 42.20 41.43 41.02 39.35 40.19 40.48 41.45 40.65 39.49 37.15 35.23 35.27 35.15 36.77 36.77 33.94 33.73 33.17 32.87 32.71 33.32 32.70 34.24 35.58 33.77 34.18 33.12 32.97 32.44 32.31 32.26
44.88 45.24 44.41 43.71 43.98 44.21 42.92 41.50 42.11 42.37 41.55 40.48 39.17 38.24 37.67 37.38 37.54 38.36 36.90 36.31 35.83 34.55 33.45 32.98 32.96 33.40 34.12 34.84 32.45 31.83 31.57 31.25 33.19 34.64 34.20 32.08 32.21 32.45 32.54 31.82 31.54 31.18 32.94
43.45 43.45 42.57 41.27 40.62 41.66 41.34 41.08 40.84 41.06 39.67 37.37 36.39 36.17 34.10 34.73 34.94 35.45 34.92 34.75 34.01 32.52 31.13 30.87 30.77 31.21 31.70 32.41 30.50 29.76 31.69 31.67 32.83 33.09 34.60 33.89 31.98 31.93 32.51 33.61 32.91 33.71 33.90
41.78 42.13 40.85 39.61 38.67 38.89 38.12 38.14 38.07 37.72 35.67 34.17 33.26 33.16 33.33 33.00 32.87 32.63 32.52 32.33 31.83 29.50 29.58 29.95 29.84 28.29 27.69 26.66 26.93 26.60 27.06 28.98 30.52 31.37 34.18 34.05 33.97 32.78 32.83 33.16 32.97 33.45 32.02
40.79 39.93 39.41 37.85 36.70 35.50 34.14 34.30 34.89 34.89 33.07 31.81 31.79 31.05 31.99 31.68 31.48 32.06 31.38 27.05 26.84 26.76 26.50 25.83 25.94 26.59 24.89 24.18 24.94 24.48 24.72 26.27 26.42 30.96 31.27 32.41 33.28 32.34 32.00 32.30 32.14 32.44 31.38

GFSMW_sfc_wetblb_075.txt.gz
Wetbulb
58.40 59.98 58.93 60.13 60.82 61.52 61.00 60.93 61.81 62.57 64.00 63.80 62.23 61.65 61.73 63.78 64.78 65.15 65.69 65.86 64.91 64.47 64.15 62.78 61.29 60.36 58.35 57.32 57.16 56.60 55.94 55.22 56.47 53.83 54.53 54.29 53.91 52.77 52.28 52.49 51.95 51.40 51.50
57.88 58.74 60.26 60.52 59.98 60.17 60.39 61.19 62.67 63.87 64.43 64.10 62.65 62.20 62.97 64.35 65.50 65.90 64.59 64.34 61.68 61.51 63.57 62.38 60.48 59.24 57.80 57.06 56.98 56.48 55.20 56.06 55.75 52.58 51.45 49.13 51.14 51.49 51.86 51.86 51.39 51.52 50.98
57.52 58.39 59.83 60.99 61.36 60.44 60.93 61.58 62.89 64.20 65.02 64.30 62.55 62.84 65.05 63.89 62.79 63.49 62.83 62.89 62.59 63.01 62.75 61.56 60.21 58.86 58.15 56.31 56.85 56.65 55.86 54.27 54.95 53.52 50.73 46.70 45.67 46.98 50.14 50.16 50.10 50.68 50.25
58.88 58.76 59.75 60.32 61.23 61.95 63.21 63.36 64.14 63.91 64.75 65.80 63.07 62.80 62.41 61.23 62.70 62.95 62.43 59.29 59.21 59.86 60.72 60.65 59.71 59.10 57.95 57.24 56.79 56.53 56.40 54.84 52.48 53.43 51.71 50.98 48.98 44.37 43.37 48.42 48.91 49.64 49.19
59.92 59.17 59.74 60.47 61.78 62.83 63.06 63.74 64.44 64.75 65.07 65.38 64.91 63.50 62.79 62.53 63.66 62.51 61.32 58.73 57.30 58.95 60.02 59.72 59.02 58.54 57.41 57.31 56.77 55.37 54.16 53.56 49.92 47.44 49.05 49.08 47.96 47.65 44.30 42.04 45.18 48.20 48.14
60.28 60.67 61.54 61.71 61.79 65.08 65.04 65.21 64.05 64.14 65.26 65.41 65.23 64.53 63.24 62.99 61.90 60.57 58.26 57.81 56.71 57.80 59.74 58.55 58.57 58.34 57.49 56.09 54.94 54.06 52.83 48.60 49.77 50.15 49.05 46.70 45.08 44.41 44.36 43.09 43.81 43.00 44.75
60.80 60.90 60.47 61.05 61.66 62.66 64.27 64.80 64.33 64.00 65.02 65.38 64.85 65.24 64.59 63.89 61.50 60.01 58.89 58.01 57.48 57.62 58.95 58.57 58.34 57.54 56.29 55.14 53.16 50.30 48.48 49.15 50.07 49.48 48.09 47.49 46.91 47.15 45.86 43.89 42.04 41.29 43.17
60.24 61.56 62.16 61.82 61.94 63.49 64.44 64.23 64.17 63.73 64.44 64.55 64.53 64.46 64.71 63.51 61.87 61.23 60.32 59.18 57.88 59.44 59.77 58.45 58.22 56.66 55.07 52.27 49.99 48.87 47.54 49.40 50.32 49.14 48.31 47.34 47.25 47.35 46.19 43.77 41.79 39.43 40.13
58.25 59.97 61.93 63.29 63.11 63.40 63.95 64.79 64.16 63.87 64.17 64.22 65.06 64.35 63.71 63.14 62.43 62.44 61.80 59.73 58.65 58.99 58.54 58.56 56.87 55.13 52.57 49.22 47.26 45.94 48.32 49.65 49.63 49.03 48.67 47.44 47.49 47.15 46.24 45.47 44.25 40.93 36.40
58.26 59.35 60.62 62.58 64.14 64.58 63.93 64.92 64.62 63.81 64.35 64.65 64.57 63.14 62.55 62.77 62.34 62.09 60.35 58.89 57.81 58.85 57.81 56.57 54.33 50.63 47.31 46.90 46.15 47.86 49.58 49.43 49.25 48.34 47.55 47.31 47.20 46.46 46.07 45.30 44.58 43.32 40.67
57.91 59.21 60.55 62.11 63.62 65.03 64.73 64.27 64.03 63.67 63.88 64.54 64.31 62.14 61.25 62.00 60.81 60.16 58.03 57.59 56.75 55.78 54.12 50.14 47.91 47.65 48.33 49.12 48.04 49.07 49.09 48.34 47.94 47.75 47.04 46.63 46.78 45.38 45.30 45.14 44.48 42.82 42.70
57.43 59.36 60.29 61.11 62.14 63.61 64.35 64.51 64.41 63.89 64.07 64.33 63.69 61.08 60.64 57.36 55.48 53.42 53.51 53.42 51.55 51.12 48.99 48.39 49.61 50.83 49.84 48.64 48.29 48.04 48.04 47.16 46.26 46.83 46.72 45.79 45.36 45.27 45.20 44.89 43.96 43.48 43.37
56.99 58.87 60.25 60.97 61.62 62.66 63.69 64.12 64.41 64.04 64.03 63.66 60.70 57.02 53.43 52.62 51.67 51.41 50.81 50.18 48.96 48.95 49.91 49.04 47.18 46.77 47.31 48.23 48.38 47.86 47.64 47.09 46.86 46.47 45.30 44.83 44.68 44.41 44.96 44.66 43.63 43.50 42.15
56.06 58.13 59.82 60.83 61.95 62.52 63.19 63.45 63.82 64.17 63.20 58.58 57.12 54.04 53.09 51.68 50.20 49.81 50.10 49.33 47.79 46.43 45.70 46.33 46.56 46.59 47.45 47.26 47.45 47.60 46.76 45.94 45.26 45.14 44.76 44.28 43.84 43.33 43.96 43.50 43.59 42.65 41.74
54.14 55.96 57.94 60.77 62.13 62.45 62.89 62.92 63.06 61.82 60.42 57.03 54.60 51.82 50.58 49.78 50.77 49.06 47.91 46.79 45.43 45.01 46.34 45.22 45.18 46.93 46.96 47.07 47.41 46.21 44.67 43.49 43.18 43.63 43.65 44.17 43.24 41.45 41.22 41.79 42.02 41.29 39.64
53.76 54.42 56.34 59.27 61.55 62.05 61.89 60.97 58.89 56.98 56.05 52.45 50.07 50.08 50.01 48.88 46.10 44.61 44.85 44.87 44.50 44.16 44.38 45.44 46.78 47.02 47.28 38.06 38.55 37.76 41.50 41.52 41.21 40.98 41.78 42.54 41.21 40.78 37.59 37.50 36.56 37.62 37.95
54.73 55.29 56.26 59.29 60.98 61.14 57.71 54.44 53.80 53.92 52.62 50.99 49.66 48.34 47.22 45.29 44.10 42.95 42.85 43.00 44.23 44.56 46.14 46.84 47.35 46.31 45.54 38.96 37.78 36.54 40.34 39.97 40.14 40.39 40.85 40.46 41.06 40.18 42.04 38.84 35.37 35.14 34.58
54.69 56.10 58.03 58.91 59.61 57.55 54.73 53.59 52.53 50.58 49.14 47.72 46.86 46.41 45.55 44.61 44.47 44.73 45.03 45.33 46.08 46.81 47.47 46.10 45.09 44.47 43.77 38.78 37.27 36.01 39.87 40.01 40.44 40.86 41.00 41.58 41.79 42.06 40.47 40.41 39.85 39.83 39.32
56.12 56.94 57.98 58.26 57.65 54.81 53.51 51.69 49.47 48.87 47.67 47.21 47.64 47.02 46.12 44.27 42.59 43.58 45.37 46.68 46.90 45.26 44.81 44.22 42.99 42.30 42.39 36.66 35.83 35.73 40.09 39.64 39.47 40.15 40.02 39.93 39.92 38.08 36.65 37.46 37.54 37.28 37.57
54.70 55.14 56.16 56.81 55.86 54.96 53.93 51.50 49.32 48.44 47.55 47.07 45.62 44.78 43.92 45.28 45.87 45.45 46.03 45.38 44.78 43.18 42.62 41.78 41.99 39.02 40.95 35.99 35.41 35.60 36.78 35.52 35.78 36.38 36.58 34.43 34.75 32.89 33.74 35.63 35.40 34.10 34.17
52.75 53.91 54.19 53.76 53.59 53.01 51.61 48.33 47.83 47.15 46.74 45.78 45.68 46.25 45.78 44.76 44.67 44.56 43.91 42.78 42.09 41.53 41.36 39.52 39.55 38.53 37.80 37.49 34.31 33.80 33.60 33.18 33.20 32.78 33.68 35.45 32.98 32.79 33.59 33.86 34.39 33.50 34.87
50.68 52.36 52.07 51.84 52.12 51.87 50.34 48.21 46.55 46.67 46.19 45.66 44.37 44.54 43.84 42.77 43.28 42.66 42.10 41.37 40.91 39.43 37.30 35.91 35.81 37.87 37.40 34.15 33.42 31.74 31.09 30.86 31.40 31.55 34.15 35.01 33.76 33.27 32.58 32.49 32.59 32.62 32.13
50.61 51.29 50.12 49.00 49.08 49.07 48.84 46.61 45.70 45.56 44.78 43.92 42.68 42.72 41.88 40.90 40.82 40.32 39.23 38.11 37.39 35.91 35.28 34.10 33.95 34.43 34.79 35.56 31.48 30.30 29.46 29.53 30.03 31.83 32.38 31.93 32.75 32.91 32.98 32.37 31.85 31.55 32.79
49.17 49.10 47.82 46.56 45.64 46.25 45.99 45.71 45.55 45.10 43.85 42.24 41.00 40.17 38.92 37.79 37.43 36.97 36.50 36.34 35.70 34.45 32.74 32.56 32.24 32.51 32.14 32.41 30.65 28.92 29.59 28.83 29.45 30.09 31.35 30.45 30.52 31.70 32.27 32.56 34.51 33.41 32.99
48.12 47.86 46.47 45.02 44.02 44.46 43.82 43.93 43.69 43.39 40.55 38.80 37.53 36.92 35.80 35.78 35.06 35.07 34.02 33.83 31.24 29.90 30.84 31.18 30.28 29.15 27.85 27.76 25.10 25.57 25.69 26.33 26.72 27.81 30.24 31.69 31.60 31.67 32.47 33.04 33.74 34.01 34.00
46.17 44.82 43.89 42.70 41.96 41.23 40.46 40.62 40.84 39.93 37.39 35.43 35.08 34.39 34.24 33.81 34.00 33.79 32.12 27.87 28.16 27.25 26.34 25.32 25.46 26.88 24.42 23.26 23.66 24.03 23.99 24.18 25.95 26.02 28.46 27.05 27.56 26.63 27.41 29.82 29.41 32.84 32.90

GFSMW_sfc_wetblb_078.txt.gz
Wetbulb
56.55 57.19 57.52 58.53 57.95 56.89 56.92 57.04 56.91 57.40 57.35 58.90 58.20 59.03 59.04 60.85 62.23 62.40 62.69 63.88 63.72 63.50 62.64 60.88 59.36 58.65 55.96 54.03 54.61 53.32 51.71 50.79 51.58 49.34 50.31 50.60 50.28 48.45 47.45 48.19 47.61 47.93 47.96
55.87 57.03 58.54 58.65 58.16 56.95 58.01 58.76 59.20 59.65 60.29 60.58 61.02 60.12 60.60 61.57 62.29 62.82 63.36 63.57 63.21 63.08 62.17 60.43 58.87 58.07 55.65 54.32 53.89 52.96 52.14 52.25 51.59 48.33 47.14 44.50 46.23 47.28 48.62 47.44 47.75 46.73 46.98
55.71 56.30 57.31 58.31 58.59 58.08 58.83 59.74 60.56 60.91 61.81 62.18 62.45 60.65 61.54 61.90 61.70 61.78 62.34 62.83 61.35 60.96 60.74 61.22 58.85 57.04 55.61 53.76 53.92 53.01 52.17 50.46 51.49 50.00 46.76 42.61 40.50 41.68 45.64 46.72 45.85 45.36 45.30
57.34 57.62 57.52 57.98 58.09 58.61 59.58 59.89 60.46 62.06 63.17 63.31 60.59 59.16 58.72 58.94 60.77 61.50 61.90 61.97 61.03 60.32 61.40 60.93 58.75 56.47 55.73 54.17 54.13 54.72 52.72 50.76 48.72 50.72 51.30 47.74 44.62 39.73 38.07 43.34 43.76 45.87 45.87
57.50 57.04 58.04 59.47 60.04 59.23 59.17 60.00 61.13 62.40 63.15 63.43 63.04 60.20 60.63 60.69 61.64 61.70 60.92 58.94 58.49 58.65 59.39 59.01 58.41 56.93 56.34 55.71 54.06 53.45 51.52 50.69 48.58 45.86 45.69 46.10 44.39 43.79 39.95 36.20 39.44 42.73 43.74
57.93 58.35 59.36 60.05 59.90 60.85 60.38 60.94 62.11 62.70 63.28 63.62 63.40 62.44 61.34 60.72 60.31 60.19 59.05 58.26 58.06 57.80 57.77 58.27 57.56 56.78 56.09 55.26 53.38 52.50 51.10 48.25 47.04 47.26 46.71 43.57 41.38 39.87 38.94 37.23 38.27 38.01 39.63
58.44 57.79 58.25 58.69 59.64 60.02 60.81 61.79 61.95 61.52 62.97 63.13 63.33 62.81 62.28 61.28 60.71 60.17 58.54 57.02 56.25 56.46 56.36 56.91 55.93 55.80 55.65 53.60 52.10 50.16 48.12 47.36 46.38 46.35 46.06 45.06 42.68 42.96 41.83 39.65 37.69 36.26 38.14
59.23 59.12 58.97 58.89 59.50 60.20 61.28 61.46 61.65 61.55 62.55 63.50 63.46 63.44 63.66 62.58 61.90 61.02 59.08 57.80 57.54 56.45 56.49 56.94 56.39 55.94 53.94 51.09 49.66 48.43 47.98 47.00 46.62 46.41 45.12 44.42 44.88 43.54 42.43 40.26 37.15 33.97 35.21
58.12 59.86 60.47 60.15 59.89 60.33 61.46 61.97 62.38 62.39 62.83 63.64 63.75 63.20 63.24 63.09 61.82 60.53 59.93 59.33 58.53 57.86 57.60 56.74 55.53 53.82 50.97 49.08 48.97 46.18 45.88 46.22 46.87 47.26 45.97 45.08 44.87 43.99 42.95 41.52 39.96 36.37 31.40
58.27 58.54 60.48 61.41 60.94 61.38 61.98 62.61 62.98 62.67 63.12 63.32 63.38 63.30 62.43 63.38 62.35 60.94 59.84 59.37 58.22 57.44 55.96 55.05 51.62 49.47 48.65 47.00 46.34 45.97 46.45 46.61 47.24 46.41 45.53 44.51 43.94 43.27 42.10 40.97 40.54 39.34 36.35
57.78 58.50 59.30 60.69 62.87 62.15 62.01 62.89 63.17 63.27 63.13 63.14 63.30 62.92 62.98 62.09 61.07 60.15 58.74 57.75 55.37 53.16 49.91 49.69 48.57 47.81 47.50 47.70 46.55 46.79 46.87 46.90 46.41 45.79 45.04 44.02 45.32 42.40 41.61 41.14 40.29 39.02 37.76
57.10 57.99 59.25 60.39 61.42 62.97 62.41 62.58 62.93 63.04 63.07 63.21 63.20 62.02 60.99 60.33 59.20 56.77 54.59 52.68 50.71 50.15 49.15 48.96 48.52 48.54 49.64 50.01 47.64 46.22 46.46 45.79 45.44 44.98 44.59 44.47 45.20 41.55 41.43 40.48 39.09 38.54 38.09
55.51 57.37 58.63 59.05 59.84 61.22 63.17 62.70 62.75 62.83 63.13 62.19 61.35 60.01 57.98 56.96 55.31 54.02 52.70 51.53 50.11 49.54 49.14 48.94 48.84 48.34 47.73 47.09 46.60 46.28 46.18 45.45 45.27 43.98 42.86 42.14 41.57 40.01 39.75 39.63 38.66 38.26 40.49
54.42 55.65 57.77 58.90 60.01 61.05 61.92 62.60 62.79 62.34 60.74 60.90 58.80 56.11 54.90 53.53 51.89 50.65 49.99 49.48 49.45 49.14 48.46 48.19 47.45 47.09 46.93 46.76 46.96 46.64 45.15 43.68 42.78 42.75 41.65 41.14 40.91 39.58 38.82 39.21 37.61 38.34 35.41
53.88 54.21 55.38 58.54 60.01 60.74 61.80 62.53 60.48 59.26 58.74 56.51 54.52 51.52 50.51 50.45 49.98 49.37 48.99 48.70 48.07 47.11 46.61 46.63 46.77 46.76 46.37 46.68 45.02 44.53 41.45 39.11 38.97 39.93 41.19 40.54 40.99 40.81 38.85 38.09 35.93 35.59 35.56
54.15 54.77 55.11 57.90 60.34 61.18 61.15 59.40 57.99 55.66 54.58 51.78 49.82 50.14 49.95 49.19 48.85 47.79 47.22 45.47 45.06 45.28 45.44 45.42 45.43 44.47 45.51 37.29 38.23 39.32 37.98 38.50 38.19 37.32 38.01 38.62 39.23 38.63 37.67 36.74 36.50 36.04 34.39
54.33 55.56 56.27 56.80 61.05 58.57 56.40 54.09 53.35 53.00 50.82 49.33 49.36 49.37 47.49 46.23 44.98 45.25 45.20 44.28 43.61 43.47 43.35 43.79 43.87 44.56 44.02 38.47 38.20 36.46 37.83 37.02 36.62 36.08 36.29 37.48 39.72 37.94 38.34 37.11 36.03 34.69 35.02
55.40 56.14 56.92 59.30 56.99 55.31 53.69 53.11 52.90 50.52 48.84 48.42 47.46 46.64 46.08 44.86 43.72 43.56 43.21 42.32 43.32 42.80 43.32 44.78 44.50 42.33 41.84 38.76 37.36 35.86 36.59 35.90 36.55 37.06 37.07 36.42 35.80 35.95 34.83 32.98 31.78 33.20 34.84
55.88 56.77 58.25 57.48 55.69 53.72 52.57 50.30 49.01 48.48 47.53 46.66 46.06 45.38 44.38 43.37 43.17 43.06 43.81 43.93 44.54 45.23 43.53 43.02 41.86 39.96 37.36 36.04 34.73 35.91 36.01 36.00 34.32 35.55 34.84 34.52 32.19 33.99 34.58 30.29 29.50 30.16 31.67
56.12 56.44 57.18 54.65 53.28 52.33 50.70 49.13 47.50 46.55 45.93 46.28 46.27 46.56 45.69 44.22 43.38 43.73 44.69 45.81 45.24 44.10 42.64 40.28 40.06 37.74 34.96 34.62 33.91 33.55 31.59 29.92 29.66 31.16 32.33 32.82 32.03 32.51 32.70 29.91 29.33 28.46 29.50
54.64 56.04 56.06 54.40 53.38 52.08 50.92 48.75 47.60 46.59 47.83 47.63 46.17 44.36 43.72 43.83 45.35 45.12 43.85 42.53 40.87 40.14 36.06 34.63 34.23 35.04 34.78 32.90 33.37 32.43 29.38 28.37 27.83 27.84 28.33 29.23 32.33 32.88 33.06 32.61 30.34 29.95 31.02
52.83 54.02 53.36 53.10 52.91 52.41 50.56 48.39 47.42 47.80 46.29 44.81 44.58 45.26 45.00 44.39 43.73 41.95 40.35 40.09 38.96 35.97 33.55 31.69 32.23 33.17 32.84 31.15 31.08 30.30 29.08 28.55 26.56 26.64 27.39 28.52 31.15 31.20 31.31 31.56 32.13 32.31 31.13
51.31 52.58 51.65 50.65 50.62 50.69 49.73 47.24 45.61 45.90 45.40 44.58 43.80 42.36 42.06 41.91 41.66 40.39 38.24 35.18 35.15 32.83 32.22 31.22 30.87 31.29 30.94 29.05 30.05 29.11 28.80 28.81 25.74 26.40 27.88 29.51 29.58 29.90 29.49 31.44 32.22 31.46 29.96
50.45 50.83 49.38 47.69 46.70 47.97 47.75 45.77 45.72 45.17 43.91 42.05 40.97 40.21 38.53 37.62 36.69 35.91 35.27 33.27 32.53 31.67 30.54 30.21 29.11 28.95 28.72 26.38 25.18 24.92 24.39 26.06 25.19 24.86 24.62 25.01 26.56 27.94 29.37 28.53 29.91 29.16 31.69
49.56 48.88 47.22 45.62 44.65 45.46 45.08 45.29 44.94 44.12 41.66 39.83 38.11 35.86 35.19 34.40 32.74 29.99 29.69 29.29 27.96 29.06 29.39 28.43 28.31 26.24 24.76 23.34 23.53 23.34 22.94 21.95 23.44 21.65 23.35 23.90 24.61 24.43 24.43 25.01 26.29 26.90 27.96
47.87 46.78 45.69 44.45 43.37 42.65 42.03 42.49 42.63 40.81 38.01 35.74 33.88 32.90 32.35 31.52 31.53 29.33 27.73 29.85 27.95 27.66 26.90 25.93 26.02 26.19 24.22 23.05 23.21 23.75 24.13 24.26 24.45 21.77 20.68 20.50 17.14 18.18 21.16 21.95 22.66 23.34 23.65

GFSMW_sfc_wetblb_081.txt.gz
Wetbulb
54.80 55.30 54.94 55.57 55.59 55.76 55.24 55.26 54.66 54.64 54.17 52.69 51.67 52.76 53.54 57.71 58.47 59.34 60.67 60.79 61.16 61.66 60.92 58.86 57.90 55.98 53.40 51.71 51.27 49.59 48.50 47.97 48.32 47.36 47.24 48.09 47.55 45.99 45.28 45.49 45.15 45.87 45.95
53.00 53.68 54.25 54.71 54.65 53.88 54.39 54.97 54.74 54.44 54.06 53.58 53.01 54.68 56.51 57.75 59.00 60.47 60.68 60.94 61.14 60.96 60.34 57.91 56.88 56.26 53.55 51.43 50.70 49.89 48.98 49.17 48.43 46.56 44.64 42.62 44.46 45.78 46.44 45.36 45.81 44.52 44.94
52.55 53.70 54.48 54.56 53.92 53.60 54.05 54.53 55.09 54.88 54.95 56.11 56.62 57.56 57.32 58.22 59.06 59.39 59.74 61.19 61.34 60.82 60.54 58.58 57.20 55.68 53.13 50.80 50.36 50.21 49.74 47.69 48.27 47.86 45.49 41.25 39.36 40.40 43.08 44.62 44.12 43.79 43.04
54.40 54.61 55.13 54.66 54.33 53.97 55.16 54.95 55.63 55.46 56.22 58.15 58.05 58.00 56.55 56.78 58.05 58.43 59.12 59.98 59.73 59.25 59.44 59.17 57.77 55.97 53.62 51.96 51.54 52.07 50.20 48.69 47.15 47.16 48.75 45.63 43.25 38.76 37.39 40.48 41.24 42.44 43.57
53.91 54.47 55.59 55.92 55.82 54.69 55.11 56.18 57.69 58.39 58.76 59.40 59.28 58.78 55.74 58.33 58.47 58.99 58.64 58.30 58.16 58.39 58.70 58.27 56.52 55.05 52.88 52.11 52.49 51.16 49.84 48.78 46.00 44.29 43.82 44.86 43.04 41.47 38.61 36.50 38.32 41.15 41.74
54.18 54.70 55.64 56.53 56.67 56.20 56.44 57.46 57.88 58.95 59.89 60.40 60.62 58.91 56.99 58.14 58.44 58.63 58.26 56.96 56.11 56.31 57.04 57.81 56.49 54.85 54.12 52.98 52.86 50.64 48.33 46.99 46.29 45.43 44.89 44.06 40.35 40.64 37.72 35.86 35.94 36.65 38.58
54.52 54.66 54.78 55.30 56.20 56.03 56.59 57.13 57.01 57.30 60.39 60.40 60.70 60.45 58.62 58.46 58.40 58.38 58.15 56.21 55.91 55.43 56.17 56.61 55.50 55.35 54.41 52.73 52.15 50.73 48.20 46.08 44.68 44.68 44.72 45.26 43.18 41.70 40.04 38.41 37.62 36.46 36.82
55.11 54.92 55.57 56.44 56.80 56.71 56.32 56.50 56.85 56.98 59.81 60.84 60.79 61.08 59.45 59.25 59.07 59.28 58.79 57.77 56.78 55.94 55.49 55.37 54.54 54.58 53.14 51.81 50.56 49.11 47.44 46.84 45.57 45.01 44.91 44.62 44.59 44.28 42.27 39.97 37.09 33.73 34.88
54.94 55.20 55.97 57.05 57.67 57.77 57.44 56.78 57.35 58.49 59.49 59.81 61.03 60.87 60.73 59.26 59.23 59.19 58.63 57.51 56.64 55.91 54.52 55.45 54.75 52.35 50.53 50.42 48.91 47.73 46.36 46.20 46.25 45.26 45.93 45.76 44.65 44.09 43.62 42.20 39.37 36.49 30.28
54.91 55.72 56.20 56.71 57.75 58.33 58.82 59.19 59.56 59.75 59.91 59.81 61.04 61.23 61.01 60.64 59.37 58.94 57.89 57.13 56.69 56.17 55.37 53.76 50.98 49.31 48.39 47.73 46.94 46.26 46.75 46.15 45.90 47.02 46.50 44.67 44.09 43.87 43.28 41.74 40.29 37.66 35.22
52.03 53.04 56.86 57.50 57.78 58.53 58.89 59.19 59.05 59.37 59.65 59.90 61.46 61.50 61.05 60.00 59.33 58.67 57.50 57.37 56.62 54.91 52.95 49.44 47.95 48.08 49.01 48.29 47.03 46.73 46.89 46.41 46.19 46.46 45.22 43.95 43.30 42.49 41.20 39.97 39.24 38.02 36.70
52.16 52.36 53.50 55.12 58.01 57.75 58.29 58.86 59.67 59.65 60.37 60.67 60.49 61.16 60.81 59.75 59.23 58.96 57.99 55.53 52.43 50.56 49.64 49.20 49.67 49.25 48.14 48.02 47.55 47.03 47.64 46.29 45.06 44.84 44.39 42.90 43.75 40.96 40.35 39.17 38.13 37.11 37.02
50.13 51.97 53.28 54.14 57.47 58.22 58.43 58.86 59.86 60.12 60.49 59.37 59.80 59.25 59.44 58.56 57.05 55.34 54.48 53.19 51.02 49.95 50.06 49.64 48.67 48.44 49.06 48.99 48.04 46.98 46.78 45.55 45.23 43.87 41.71 41.55 40.23 37.86 37.51 37.43 36.82 36.78 38.61
50.22 50.64 52.24 53.43 54.79 57.84 58.43 58.68 59.49 60.18 60.11 60.32 58.05 56.75 55.92 55.58 54.44 52.19 51.74 51.61 50.45 49.35 49.29 49.16 49.03 48.74 48.71 47.87 47.46 46.66 45.26 44.20 42.76 41.84 40.18 39.48 38.48 37.40 36.53 36.50 35.42 36.22 34.12
50.20 49.41 52.28 52.94 54.27 55.63 57.94 59.16 58.22 57.51 56.74 55.97 55.46 53.41 52.49 52.63 51.17 50.89 50.27 49.79 50.28 49.13 48.62 47.87 47.62 47.69 47.26 46.99 45.92 45.90 41.80 37.46 36.70 37.14 37.99 37.69 38.32 39.70 37.57 35.90 33.18 32.28 30.75
49.89 50.95 51.32 54.56 55.47 57.29 56.89 56.50 55.23 53.20 52.89 51.76 50.19 50.23 50.05 50.03 49.38 49.14 48.62 47.84 46.96 46.93 47.09 47.14 47.10 45.86 46.54 42.00 39.94 38.31 36.13 36.71 35.80 34.53 34.84 35.17 37.25 36.63 36.58 36.16 35.38 33.58 30.31
50.83 51.52 52.77 56.49 56.20 54.78 53.45 51.49 50.64 51.75 50.30 49.70 49.79 49.67 48.82 47.39 46.64 46.57 45.96 45.53 45.53 45.84 45.66 45.53 45.23 44.38 43.61 37.49 37.71 36.62 35.65 34.65 33.76 32.98 33.06 34.65 37.76 35.67 34.30 33.40 33.04 32.05 33.90
51.35 52.20 55.00 53.23 51.96 51.78 50.62 49.97 49.37 49.39 49.17 48.47 48.04 47.18 46.24 45.49 45.62 45.68 45.18 44.36 44.23 43.84 43.70 43.28 43.57 42.30 38.80 37.01 36.36 35.56 34.14 33.51 34.30 34.19 33.44 32.12 31.48 31.70 32.30 30.31 28.01 28.13 29.30
50.83 52.59 53.27 51.66 50.78 49.78 49.96 48.86 47.91 47.66 47.95 47.03 46.41 46.04 45.09 44.05 44.40 43.64 43.16 42.94 42.54 42.09 42.44 43.14 41.09 36.90 35.58 34.82 34.90 34.75 32.93 32.14 31.10 32.94 32.19 31.69 29.56 32.03 33.94 29.72 27.96 28.49 28.94
52.42 52.28 52.07 51.10 49.48 48.12 48.62 47.23 46.60 46.36 46.22 46.15 45.45 45.08 44.84 44.41 43.49 43.17 42.96 43.36 43.80 43.32 40.26 38.17 36.49 34.31 31.95 33.67 33.96 32.26 29.52 28.58 28.12 28.82 29.84 30.71 30.60 31.75 32.15 29.11 27.61 26.16 27.19
52.28 52.00 51.20 49.80 48.43 48.53 47.96 45.85 45.53 44.98 46.80 46.65 46.04 45.06 44.74 43.72 43.55 43.76 44.31 42.75 39.19 36.69 32.66 32.20 32.41 31.77 31.18 31.80 32.97 31.34 27.86 26.96 26.94 26.99 27.07 27.28 29.66 30.85 30.72 30.78 27.81 27.79 29.70
50.67 51.38 50.53 49.14 48.54 48.13 46.96 45.34 45.39 46.77 46.97 45.70 43.70 42.73 42.51 43.65 43.93 41.29 39.88 39.09 36.70 33.30 31.66 31.46 30.57 30.11 28.89 30.90 30.45 29.73 28.98 28.51 26.62 25.62 26.18 26.55 28.05 28.50 29.09 29.39 30.63 31.58 29.98
48.64 49.72 48.27 48.71 48.14 47.35 47.12 44.64 42.06 42.88 42.58 42.83 42.66 42.39 41.59 41.24 40.36 38.56 36.39 34.77 34.40 32.55 31.54 30.98 30.34 29.04 28.47 27.44 27.91 27.38 26.78 26.43 25.15 25.31 25.33 25.70 26.61 27.27 27.10 29.04 28.69 27.19 26.13
46.99 46.93 46.07 44.75 44.24 44.86 43.26 42.29 42.68 42.70 41.51 40.14 39.11 38.23 36.08 34.51 34.23 34.59 33.97 31.70 30.95 30.40 29.59 29.51 29.49 28.81 26.44 24.82 23.94 24.28 24.15 24.24 23.86 23.81 23.27 23.42 24.64 25.59 24.78 24.30 24.85 24.90 24.05
45.08 44.68 42.55 41.01 40.66 41.66 41.24 41.89 42.20 41.58 38.78 35.75 34.59 33.68 32.22 30.50 28.77 29.71 29.64 27.78 28.02 29.03 27.32 26.60 27.51 25.70 23.81 23.26 23.98 23.75 23.39 22.19 23.89 21.49 21.47 22.06 22.73 22.81 22.25 21.83 22.20 22.22 22.18
43.49 41.99 40.76 36.91 31.07 30.94 31.45 34.76 37.43 36.25 33.67 32.29 31.60 30.32 29.85 30.17 28.26 26.73 26.71 28.63 28.11 28.11 27.83 27.64 26.73 25.95 25.14 23.66 23.49 24.12 24.28 24.31 24.41 21.01 18.69 15.57 12.95 15.05 18.84 18.06 18.09 18.71 18.50

GFSMW_sfc_wetblb_084.txt.gz
Wetbulb
54.69 55.38 55.76 56.29 55.80 55.57 55.36 55.11 55.09 55.09 54.72 54.51 53.97 54.03 53.63 54.99 57.00 57.97 58.57 58.34 57.80 59.57 59.61 58.85 56.55 55.13 53.15 51.26 49.84 48.15 48.02 46.62 47.19 46.43 46.05 46.32 46.56 44.46 42.98 43.49 43.43 43.98 45.06
52.75 53.83 53.17 54.54 55.05 54.94 54.86 54.64 54.49 53.65 53.20 53.51 54.37 53.91 53.90 54.36 56.20 57.55 58.08 59.12 59.74 60.16 60.34 58.44 57.48 55.74 53.31 50.45 49.72 49.01 47.67 47.21 47.13 45.59 43.90 42.22 44.05 45.25 44.84 43.82 44.10 42.85 44.11
51.07 52.29 52.85 52.61 53.04 53.44 53.62 53.71 53.37 53.31 52.84 52.89 51.47 53.46 54.11 55.62 55.86 56.64 56.88 58.18 59.55 59.69 60.51 58.30 57.77 55.79 53.80 51.15 49.72 48.53 48.57 47.28 46.76 46.68 44.97 40.11 39.14 39.28 41.78 43.08 43.52 43.36 43.09
52.48 52.26 52.70 52.99 52.16 52.77 53.70 54.22 53.83 53.44 53.35 53.04 51.91 52.12 52.22 52.72 55.44 56.25 57.26 58.09 59.38 59.85 60.71 59.14 57.15 55.85 53.42 51.06 50.30 50.61 48.84 48.14 46.15 45.98 46.98 43.66 41.92 38.51 37.42 40.39 40.38 41.55 42.38
52.22 51.89 52.55 54.26 53.17 53.32 53.18 53.77 54.26 54.18 53.77 53.90 53.58 53.26 54.77 55.61 56.08 56.56 56.97 57.98 58.26 59.35 59.83 58.51 57.01 55.17 53.27 51.42 50.85 50.02 49.70 48.32 46.96 45.82 45.04 43.17 42.16 40.57 38.27 36.14 38.09 39.72 39.67
52.40 53.00 54.11 55.08 54.28 53.90 53.46 53.73 53.51 53.99 54.22 54.78 55.30 55.18 55.50 56.04 56.58 57.52 57.58 57.92 58.25 58.47 58.01 58.63 56.68 55.60 53.58 52.53 52.55 51.67 49.46 47.60 46.33 45.14 44.68 42.54 40.60 39.36 38.26 37.79 36.90 37.15 39.11
52.31 52.98 53.88 54.04 54.38 53.46 53.15 53.48 53.55 53.83 54.75 55.17 55.70 56.81 57.42 56.52 56.60 57.44 57.80 57.38 56.86 56.44 56.98 57.33 55.41 54.24 53.73 52.38 52.76 51.67 49.43 47.72 45.88 45.12 44.54 43.43 42.57 42.52 41.02 39.05 36.65 35.50 36.21
53.02 53.17 54.33 54.67 54.62 53.74 53.06 53.46 53.80 54.66 56.44 57.17 57.37 58.12 58.54 57.76 57.89 57.97 58.66 57.91 57.78 57.95 58.36 57.28 55.49 53.83 53.17 52.99 51.65 48.95 48.02 47.37 47.17 46.20 45.50 44.86 44.42 44.31 43.12 40.97 37.03 32.78 33.06
53.21 53.23 54.21 55.07 55.48 55.17 52.99 53.13 54.55 55.90 57.21 57.95 58.71 59.14 59.74 58.83 57.77 58.25 59.03 58.52 58.78 58.37 55.80 56.22 54.75 52.73 51.56 50.17 49.13 48.12 47.10 47.28 46.61 46.33 46.33 45.92 46.12 45.73 43.98 42.74 38.68 35.31 30.82
53.04 54.17 54.59 54.65 55.49 56.43 56.11 55.36 56.04 56.30 56.76 57.60 59.39 59.67 59.92 59.45 58.87 58.17 58.25 58.38 57.78 56.95 55.22 55.36 52.87 49.73 48.95 48.36 48.34 47.65 46.94 47.35 46.79 46.49 45.94 46.42 45.87 44.76 44.62 41.90 39.68 37.19 34.97
53.14 54.04 54.83 55.80 56.44 56.54 56.68 56.53 56.53 56.58 56.63 56.91 58.64 59.45 59.93 59.97 59.27 58.44 58.17 57.94 56.68 55.84 55.24 53.72 51.01 49.39 49.10 49.31 49.21 48.33 47.30 46.58 45.89 46.90 46.63 46.21 45.56 44.59 41.98 40.35 38.74 37.35 36.02
53.89 54.73 55.09 55.54 55.89 56.59 57.33 56.99 56.84 56.62 57.14 58.08 58.44 58.92 59.57 59.71 58.94 58.34 57.52 56.68 55.60 55.16 52.90 51.77 50.35 49.54 49.55 49.25 48.27 47.06 46.83 46.00 46.19 46.28 45.76 45.30 45.46 42.46 40.78 38.69 37.55 36.54 36.05
49.78 51.89 54.22 54.77 55.29 56.02 56.66 57.19 57.68 57.93 58.69 58.98 58.52 58.59 59.02 58.44 57.94 58.13 57.08 56.60 54.29 52.48 51.88 50.91 50.28 49.09 48.68 48.72 48.04 47.89 47.52 46.83 46.21 45.46 44.73 43.72 42.26 38.85 36.73 36.42 35.85 35.36 37.26
48.29 49.32 49.82 52.98 55.41 56.05 56.29 56.93 57.50 58.24 58.57 58.48 58.37 57.96 58.47 58.68 58.35 56.66 56.86 55.66 53.41 51.36 50.94 51.30 50.19 49.29 49.33 49.05 48.57 47.77 46.90 46.28 45.51 44.35 42.62 40.88 38.24 36.17 34.83 34.58 33.54 34.06 32.02
48.29 47.76 50.03 50.76 54.18 54.69 55.96 56.85 57.14 57.95 58.45 58.03 56.45 56.14 55.32 56.46 55.62 54.57 54.07 52.07 51.47 51.24 50.60 49.71 49.30 49.47 49.16 48.75 47.86 47.13 45.39 43.62 40.53 38.71 37.03 36.33 37.43 38.63 36.01 34.00 30.91 29.86 28.32
47.42 48.07 50.09 51.34 52.60 54.71 54.85 55.49 54.08 54.62 56.12 55.62 53.28 51.62 51.04 51.40 51.76 50.90 50.12 49.92 49.74 49.44 49.04 48.41 47.83 47.28 47.85 41.79 42.91 42.83 41.49 39.38 36.63 34.15 33.71 35.61 35.99 36.06 35.42 34.71 34.44 31.83 27.97
48.14 48.73 50.68 52.42 55.20 54.89 54.43 53.71 52.55 52.58 52.23 50.98 50.30 50.12 49.54 48.49 47.80 48.47 47.87 47.22 47.21 47.57 47.06 47.13 46.99 45.99 44.65 40.53 39.54 36.96 36.36 35.14 33.33 32.02 33.24 34.70 34.60 32.93 31.26 31.72 31.92 31.08 32.49
49.70 53.74 52.78 50.91 50.23 50.57 50.94 51.50 51.32 50.71 50.15 49.66 48.90 48.60 47.89 46.61 46.70 46.67 46.34 45.89 46.25 46.06 45.70 45.32 45.04 44.47 40.88 36.88 36.60 35.09 32.97 33.60 34.28 33.39 31.69 30.47 28.97 29.87 31.11 29.69 28.43 29.14 29.40
49.88 52.18 50.83 49.69 49.19 49.35 49.76 49.91 49.71 49.61 49.26 48.43 47.98 47.73 47.08 46.22 45.95 45.32 44.62 45.13 45.31 44.73 44.01 43.83 41.80 37.97 36.22 35.45 35.23 34.71 33.32 31.59 30.32 30.97 30.91 29.92 28.52 31.41 32.44 29.05 27.85 27.19 27.77
52.03 50.34 49.56 48.56 47.96 47.44 47.98 48.40 47.78 48.05 47.31 47.51 46.35 45.98 45.80 45.43 44.63 44.19 43.97 44.13 43.45 41.62 39.66 37.59 36.66 34.60 33.98 34.31 33.77 32.28 29.75 28.08 27.39 28.38 29.13 29.93 29.04 30.19 30.82 27.55 26.47 25.65 26.83
50.52 50.05 49.27 47.60 46.67 47.21 47.21 45.28 45.21 45.24 46.97 46.23 45.70 45.42 45.51 45.13 44.67 44.15 43.57 42.50 38.72 35.72 34.28 32.82 32.85 32.33 32.45 32.81 32.58 30.97 27.54 27.48 27.14 26.74 26.67 27.03 27.95 28.10 28.59 29.19 27.81 28.23 29.85
49.43 49.18 47.78 46.49 46.38 46.51 45.67 43.72 43.13 45.12 45.61 45.49 44.33 44.68 43.93 43.45 43.51 41.48 39.65 38.25 35.63 32.58 31.54 30.83 29.66 29.74 29.92 30.59 30.28 30.06 28.87 27.48 26.48 25.03 25.66 26.07 26.38 27.22 28.10 28.60 28.18 27.51 27.02
48.67 49.36 47.62 46.62 46.58 45.84 45.08 43.47 44.57 45.00 43.13 41.74 42.02 41.85 40.89 39.66 39.32 38.44 36.96 35.32 34.19 32.24 31.52 30.33 28.42 27.09 26.93 26.74 27.35 26.74 26.42 25.66 24.66 24.93 24.84 25.28 25.99 26.42 26.75 26.36 25.38 25.13 22.81
46.19 47.63 46.35 44.03 41.66 41.63 41.00 40.44 41.43 41.23 39.57 37.04 34.38 33.94 33.13 32.80 33.01 32.76 32.87 31.81 31.12 30.76 30.82 30.39 28.39 26.88 25.26 23.98 24.34 24.60 24.77 24.40 24.21 24.31 24.11 24.01 24.73 24.82 24.78 24.22 24.07 23.94 22.30
42.39 41.45 36.47 32.56 32.30 35.34 38.10 39.57 38.00 35.88 33.45 32.70 32.01 30.99 30.56 29.96 28.15 27.67 28.17 27.78 28.81 29.88 28.55 28.00 28.24 24.23 23.40 24.11 24.10 24.34 24.00 23.89 24.38 22.51 22.28 22.56 22.24 21.27 21.14 21.36 21.20 20.76 20.22
33.88 31.93 30.75 30.12 29.89 30.47 31.35 33.31 34.96 34.19 31.96 30.35 29.95 29.74 29.37 28.41 28.22 27.58 26.99 29.13 28.61 28.53 28.52 28.16 26.92 26.38 26.07 24.66 24.52 24.97 25.06 24.73 24.61 22.33 19.68 16.88 15.29 16.49 18.20 17.53 17.20 17.68 17.06

GFSMW_sfc_wetblb_087.txt.gz
Wetbulb
53.24 55.24 55.68 55.66 55.44 55.54 55.15 55.34 54.88 55.90 55.87 55.34 54.58 54.56 54.45 55.70 56.53 57.58 58.93 58.49 59.37 59.89 57.97 56.70 55.36 53.81 53.30 51.63 48.78 47.15 46.55 45.53 45.93 44.93 44.26 44.79 44.64 43.29 42.50 42.91 43.51 44.00 45.64
52.45 54.40 55.21 54.85 54.52 54.50 54.57 54.85 55.26 55.38 55.15 54.65 54.20 53.99 54.75 55.32 55.84 57.75 57.53 58.82 57.68 58.66 58.78 57.45 56.02 53.97 52.05 50.10 48.38 48.00 46.81 46.45 46.23 44.33 43.03 41.64 43.38 43.96 43.64 42.03 42.69 41.59 43.01
50.04 52.80 53.44 54.32 54.75 53.96 54.42 54.51 54.69 54.20 54.65 54.99 54.30 53.58 53.93 55.03 54.54 56.30 56.63 57.42 58.35 57.94 59.37 58.62 57.50 55.77 53.95 51.15 49.00 48.17 48.11 46.39 45.76 45.80 44.49 40.07 39.52 39.89 41.07 42.50 42.56 42.22 41.37
50.92 52.20 51.95 52.00 52.92 54.06 53.73 53.48 53.58 53.11 52.28 52.11 51.80 51.81 51.33 51.14 53.17 53.09 56.38 55.66 57.47 57.81 58.83 58.86 57.60 55.36 53.42 50.79 50.24 49.27 47.90 47.47 45.78 45.46 45.98 42.96 41.65 38.80 38.20 39.85 39.64 40.93 42.49
50.78 51.17 51.76 52.36 52.66 53.25 52.64 52.77 53.07 52.87 52.78 51.95 51.54 50.73 50.37 50.77 53.67 54.76 55.34 55.58 56.99 58.68 59.10 59.11 57.26 55.68 54.00 52.60 50.80 49.02 49.16 49.79 48.27 46.68 45.49 43.47 41.02 39.17 37.58 35.86 38.10 38.67 39.71
51.05 51.70 52.23 52.46 52.08 52.62 52.51 52.42 52.43 52.64 52.76 52.16 51.89 50.91 51.36 52.60 53.37 54.45 54.58 55.26 56.14 56.97 57.59 58.13 56.57 56.35 54.93 52.32 51.43 51.63 51.55 50.33 48.91 47.40 45.96 44.41 42.95 41.07 39.11 37.63 38.19 36.95 38.97
51.16 51.25 50.99 51.67 52.40 51.70 52.06 52.59 52.72 52.46 53.03 52.24 52.18 52.28 52.09 53.13 54.02 54.42 55.48 55.21 55.52 55.62 56.36 56.42 55.80 55.54 54.89 53.12 52.85 51.88 50.96 50.10 47.58 46.37 44.10 44.81 43.61 43.35 42.15 40.44 38.25 36.51 38.33
51.28 51.41 51.74 52.39 53.12 52.86 52.05 52.43 52.41 52.47 53.14 52.72 52.52 53.00 53.56 53.83 55.14 55.43 56.22 56.61 56.68 56.89 56.76 56.66 57.41 55.82 53.93 52.86 51.01 50.25 49.20 48.62 47.91 46.54 46.48 45.53 45.60 45.12 43.90 41.51 38.88 35.93 36.26
50.84 51.18 52.35 53.12 53.52 54.10 53.25 52.45 52.59 52.85 53.10 53.13 53.10 53.16 53.94 54.65 55.32 56.22 56.90 57.41 57.86 57.95 57.39 57.09 56.44 54.87 53.18 52.34 50.19 48.54 48.54 47.94 48.15 47.45 46.32 46.20 45.98 45.51 44.94 43.43 41.19 38.92 34.64
51.76 51.98 52.40 53.51 54.39 54.60 54.62 54.16 53.56 53.05 53.33 53.79 54.07 54.34 54.92 55.80 56.23 57.19 56.89 57.45 58.13 57.76 56.73 55.44 55.24 53.50 51.56 50.64 49.95 49.20 48.79 48.36 47.74 47.36 46.05 46.59 46.27 45.90 45.67 43.64 42.20 39.59 38.18
51.25 52.65 53.40 54.09 55.01 55.16 54.97 53.86 53.58 53.55 53.82 54.57 55.50 56.03 56.65 57.51 58.11 58.08 57.57 57.56 57.86 56.22 55.34 55.10 54.80 52.48 50.87 50.58 49.87 48.93 48.69 48.00 47.25 46.93 46.36 45.95 46.13 45.52 44.48 43.80 41.87 39.55 36.65
51.75 52.68 53.72 54.17 54.30 54.86 55.19 54.14 53.50 53.41 54.61 55.94 56.47 56.42 57.55 58.17 58.46 58.20 58.26 57.35 56.48 55.92 55.62 54.47 53.07 52.00 50.91 50.33 49.86 48.27 48.14 48.12 46.89 46.66 45.85 45.55 46.11 44.51 43.86 41.96 40.12 38.65 35.51
49.92 51.98 52.78 53.72 54.25 54.38 54.76 55.59 55.27 54.11 55.03 56.18 56.50 56.00 56.14 57.63 58.03 58.22 56.65 56.20 56.44 55.68 54.47 54.15 53.11 51.39 51.13 50.30 50.11 49.17 48.40 47.68 47.00 46.33 46.02 45.67 45.15 43.01 41.30 39.94 38.64 35.53 36.55
49.00 50.75 51.22 52.98 54.03 54.91 55.32 55.38 55.76 56.09 56.13 56.17 55.93 55.64 55.87 57.06 57.71 57.86 56.12 56.38 55.86 56.16 54.86 53.31 52.51 51.41 50.83 50.46 49.04 48.52 47.64 47.61 46.86 46.27 45.63 44.77 42.98 41.77 38.87 36.38 33.86 33.27 31.35
45.68 47.91 50.11 51.80 53.13 53.27 54.42 55.77 56.43 56.66 56.51 55.74 55.40 55.57 56.59 56.64 56.10 56.38 56.54 56.94 57.00 56.38 53.86 52.81 51.67 51.27 50.00 49.46 48.69 48.33 47.25 46.98 44.77 43.73 42.65 41.50 40.05 38.31 36.11 33.54 30.83 29.84 28.36
46.65 46.67 48.36 49.23 50.82 52.03 53.01 53.95 54.59 55.59 55.84 55.94 55.55 53.67 53.62 54.87 55.01 54.35 54.57 52.27 51.47 51.41 52.16 51.63 50.20 49.16 49.47 42.69 42.86 45.26 45.11 43.92 41.13 37.78 36.19 36.24 37.43 36.00 35.26 34.80 33.42 30.96 27.57
46.88 46.80 46.23 49.38 50.70 51.47 52.47 51.67 51.47 52.03 52.89 52.93 51.94 51.03 51.38 50.11 49.77 50.33 50.33 49.59 49.41 49.75 49.49 49.24 48.73 48.34 47.90 43.46 41.93 39.23 40.92 38.86 36.89 35.08 34.26 34.54 34.04 33.00 32.01 32.10 31.63 30.91 32.01
46.28 49.86 51.46 50.71 50.39 51.99 51.57 51.74 52.00 51.21 50.99 50.27 49.71 49.91 49.77 48.88 48.68 48.46 48.48 47.63 47.96 47.72 47.33 47.00 47.09 45.43 44.11 39.49 38.38 36.49 36.17 35.01 34.54 33.93 33.31 31.52 30.22 31.83 31.47 29.52 28.72 29.14 29.57
48.20 50.61 49.65 48.79 50.00 50.53 50.86 50.43 50.02 50.22 50.20 49.39 49.39 48.68 47.94 47.40 47.04 46.15 45.43 46.06 45.83 45.52 45.47 45.29 43.06 40.97 38.10 35.71 35.19 35.35 33.97 32.30 31.30 31.35 31.22 30.20 28.99 30.49 31.03 28.20 27.01 26.80 27.76
50.00 48.28 47.80 49.01 48.99 49.31 50.74 49.90 49.02 49.19 48.14 48.01 47.22 47.13 46.79 46.32 45.54 45.10 45.04 45.64 44.87 42.56 40.49 37.22 37.17 35.90 35.03 34.90 34.60 33.26 31.63 29.51 28.28 28.81 28.23 29.01 28.09 29.17 28.98 27.30 26.81 25.81 27.31
48.28 48.08 47.56 47.38 47.63 48.12 48.85 47.38 47.81 46.55 46.89 46.77 46.54 45.75 46.01 45.09 44.83 44.29 43.26 39.99 37.99 35.57 33.06 31.58 32.15 32.43 32.47 32.10 32.51 31.80 29.39 28.72 27.86 26.82 26.06 26.58 26.78 26.98 27.71 28.46 27.85 27.02 26.65
48.19 47.42 46.59 46.13 45.50 45.53 45.44 45.33 44.81 45.62 45.62 45.42 45.01 44.36 43.47 43.60 42.43 39.94 38.15 36.38 34.66 32.15 30.68 29.72 28.76 29.31 29.75 30.72 30.61 29.78 28.35 27.82 26.91 25.06 25.24 25.12 26.07 26.77 27.66 28.00 26.37 26.07 25.21
47.92 47.52 46.61 45.16 44.65 44.74 44.48 43.26 44.83 44.59 42.39 39.20 36.73 36.38 36.18 36.33 37.55 36.70 35.31 33.77 33.30 31.42 30.20 29.04 27.34 26.46 26.88 26.93 27.96 27.05 26.30 25.26 24.55 24.88 24.65 25.05 25.54 26.11 26.76 25.59 24.78 24.25 22.88
46.84 46.18 42.04 38.51 38.20 39.22 40.13 41.26 39.98 37.45 35.98 34.09 33.37 33.08 31.86 31.26 31.71 31.59 31.95 31.33 31.33 31.37 30.79 29.26 26.90 26.02 25.52 25.19 25.24 24.72 24.90 24.80 24.64 24.34 24.22 24.12 25.08 25.27 24.58 23.74 23.46 22.46 21.49
36.89 36.44 34.54 33.37 33.80 35.24 34.74 35.56 35.54 34.95 32.57 31.69 31.05 30.03 28.53 27.75 27.36 27.87 28.53 28.43 29.52 30.93 30.12 29.40 28.52 25.52 24.59 24.56 24.96 24.75 24.41 24.68 24.34 23.40 22.94 22.83 22.06 20.80 20.90 20.30 19.99 19.54 18.76
32.77 31.23 30.61 30.27 30.50 30.71 30.67 31.81 32.88 32.36 30.44 29.23 29.11 28.68 29.20 29.36 29.02 27.72 26.93 30.14 29.52 29.29 29.14 28.19 27.09 27.02 26.71 25.82 25.84 25.76 25.45 25.00 24.27 22.45 20.11 17.29 16.51 17.22 18.16 17.51 16.83 17.03 16.38

GFSMW_sfc_wetblb_090.txt.gz
Wetbulb
53.19 55.45 55.70 55.98 56.06 55.38 55.10 55.32 55.72 55.72 56.26 56.71 56.25 55.89 56.17 56.27 56.71 58.60 58.95 59.42 59.30 58.37 57.04 55.83 55.54 54.31 53.82 52.03 49.11 47.17 47.10 45.89 45.75 44.75 44.53 44.88 44.12 43.35 42.77 45.53 46.60 46.42 46.97
52.62 54.45 54.84 54.90 54.96 54.68 55.08 55.00 55.48 55.52 55.60 56.30 56.24 55.76 56.04 55.43 56.31 57.68 58.41 58.78 59.75 59.33 57.83 56.58 55.24 54.30 52.95 50.86 48.98 48.15 46.52 46.31 46.14 44.24 43.29 42.14 44.26 44.86 44.48 42.68 43.87 43.85 44.25
49.84 52.33 54.05 54.24 54.37 54.21 54.29 54.59 54.89 55.26 55.09 55.26 54.47 54.45 54.70 54.71 54.60 55.91 56.45 57.40 57.92 58.88 58.79 57.17 56.13 54.43 53.45 51.82 49.40 48.32 47.73 45.96 45.59 45.88 44.94 40.29 40.66 41.56 42.50 43.14 42.20 42.78 42.06
50.29 51.20 52.64 53.75 53.91 54.31 54.70 55.11 54.95 54.98 55.12 54.77 53.63 53.91 54.13 52.23 53.33 54.24 55.80 56.16 57.52 57.33 58.11 57.97 56.67 55.42 53.70 51.43 50.50 50.07 49.47 48.04 45.53 45.55 46.07 43.83 43.51 41.05 39.90 41.19 41.83 42.98 42.95
50.19 50.20 52.35 53.02 54.37 54.55 54.33 54.43 54.31 53.97 54.06 53.31 53.23 51.64 51.91 52.97 52.70 53.94 54.45 54.65 55.91 57.19 56.96 57.49 56.75 55.48 55.14 53.96 52.16 50.82 48.97 49.48 48.05 46.75 45.83 44.50 42.75 40.88 39.86 38.34 39.54 40.21 40.81
49.90 50.58 52.05 52.90 52.66 54.02 53.77 52.90 53.28 53.00 52.19 51.46 50.68 50.90 50.24 49.66 50.38 51.52 52.55 53.00 53.70 54.82 56.11 57.47 57.25 57.53 55.76 54.12 52.91 51.77 50.67 49.77 49.07 49.30 47.74 45.91 44.12 42.06 41.36 39.78 39.36 39.35 41.29
50.01 50.03 50.22 51.44 51.45 52.01 52.41 52.99 52.72 52.10 52.44 51.40 51.17 50.54 50.43 50.43 50.92 51.24 52.60 52.85 53.60 53.94 54.86 55.49 55.33 55.38 55.26 54.43 53.17 51.62 52.04 50.49 49.72 49.70 48.21 46.59 45.63 44.96 43.95 43.18 41.31 41.44 40.85
50.18 50.16 50.81 51.35 51.66 51.64 51.71 52.02 52.23 51.92 52.17 51.81 51.28 51.44 51.31 51.31 52.16 52.33 52.74 53.36 54.49 54.98 54.90 55.08 56.27 56.11 55.46 54.92 53.38 53.11 52.27 51.22 50.86 48.46 47.17 46.52 46.02 45.71 45.35 44.04 41.09 37.26 37.76
49.31 50.18 51.07 51.43 52.18 51.95 51.89 52.01 52.17 52.40 52.39 52.30 51.92 51.32 51.45 51.54 51.55 52.32 53.32 54.51 54.86 55.85 54.58 55.02 55.40 55.74 55.44 54.51 53.23 52.56 51.13 50.09 49.70 48.21 47.90 47.19 46.09 46.08 46.22 44.42 42.29 41.49 36.42
49.19 50.14 50.99 51.66 52.41 53.33 52.66 52.36 52.56 52.18 52.66 52.54 52.58 52.06 51.71 51.89 52.41 52.39 53.60 54.63 55.38 55.14 55.34 54.96 55.90 55.20 53.51 52.58 52.10 51.40 50.45 49.89 49.41 49.24 47.70 47.97 47.03 46.53 45.99 44.49 42.32 41.45 40.35
49.45 50.31 51.21 52.13 52.76 53.59 53.78 53.03 52.72 52.64 52.37 52.62 52.53 52.43 52.37 52.41 52.91 53.11 53.71 55.02 55.38 55.87 55.87 55.87 55.20 54.40 52.46 51.71 51.28 50.58 50.08 49.87 49.11 48.86 48.62 47.94 48.07 46.59 45.90 44.78 43.36 41.09 39.87
48.48 50.69 50.97 51.33 52.27 52.87 53.59 53.51 53.24 52.95 53.58 53.67 53.71 53.42 53.35 53.30 53.51 53.88 54.64 55.32 55.44 56.06 56.07 55.70 55.48 55.19 53.17 51.87 51.69 51.16 51.10 49.68 48.79 48.52 48.38 48.06 47.09 46.07 45.35 44.28 41.99 41.46 39.61
48.46 48.83 50.90 51.72 52.18 53.07 53.42 53.47 53.24 53.07 53.63 54.00 53.41 53.61 54.06 54.46 54.65 55.33 55.99 56.73 56.66 56.37 55.66 56.47 55.89 55.68 54.10 53.15 52.97 53.46 51.92 49.96 49.81 49.35 48.44 47.68 45.68 44.84 43.81 43.10 41.70 40.01 39.39
47.28 48.83 49.11 51.55 52.69 53.18 53.83 53.94 53.87 53.54 53.25 52.93 52.95 52.94 53.70 54.61 55.48 56.29 56.71 56.96 56.39 56.96 56.15 55.75 55.51 54.70 53.84 53.21 52.18 51.54 50.91 50.04 50.07 49.02 47.91 47.30 46.02 45.27 42.97 41.60 40.12 38.09 36.52
45.62 47.58 48.90 50.40 51.87 52.70 53.26 54.06 54.72 54.73 53.46 52.50 52.23 52.54 53.52 54.19 53.83 54.92 55.52 55.82 56.89 56.99 56.93 56.41 55.29 53.57 52.82 51.86 51.15 50.39 49.64 48.49 47.36 46.12 45.43 44.34 43.47 41.49 40.43 38.79 36.12 34.38 31.70
45.54 45.88 47.75 49.45 50.39 51.84 52.80 53.55 53.77 54.19 54.40 53.78 52.92 53.30 53.26 53.12 53.04 54.11 54.82 56.06 56.55 55.81 56.13 53.26 52.67 51.44 51.71 46.18 43.97 47.20 48.40 47.07 44.72 41.23 39.18 38.61 38.08 36.83 35.78 34.96 34.06 33.53 31.54
45.61 45.61 45.95 47.57 48.23 49.08 50.12 50.05 50.64 51.92 52.72 53.28 52.23 51.45 51.84 52.62 53.79 53.70 53.76 53.88 53.50 52.47 51.71 51.55 51.37 51.10 50.76 42.37 42.72 42.01 45.97 44.47 40.00 36.72 35.95 35.97 35.23 33.85 32.68 32.53 32.08 31.42 32.03
45.41 45.39 46.55 48.37 49.67 50.91 50.96 51.48 52.24 51.75 51.65 51.08 50.69 50.70 50.88 50.36 50.36 50.90 51.07 49.29 49.09 48.91 47.83 47.10 46.54 44.85 41.77 38.83 38.35 38.08 38.62 36.88 36.26 36.02 34.45 32.25 31.36 31.83 31.73 30.82 30.23 29.86 29.75
45.86 48.97 48.85 49.84 50.28 50.12 50.85 50.83 50.39 50.41 50.03 49.58 49.94 50.16 49.80 48.55 47.81 47.29 46.18 46.38 46.07 45.35 43.85 42.88 41.59 39.05 36.60 35.95 35.85 35.91 34.57 32.67 31.43 31.49 31.34 30.61 30.22 31.33 31.60 28.79 27.39 27.03 28.01
48.61 48.08 49.14 49.16 49.89 50.12 50.82 50.21 49.51 48.89 48.06 48.03 47.52 48.17 47.50 46.87 45.52 45.53 45.37 44.89 43.36 40.65 38.58 36.34 36.10 35.12 34.36 34.79 34.32 33.24 31.16 28.95 28.34 28.69 28.79 29.46 28.88 28.92 28.49 27.56 26.97 26.10 27.30
47.11 47.59 47.87 47.28 48.13 49.17 49.43 47.56 46.91 45.54 46.34 46.43 46.07 45.81 45.49 44.70 44.18 41.88 40.83 38.75 35.80 33.50 31.83 30.42 30.69 31.17 31.72 32.41 33.18 32.61 30.45 29.56 28.63 27.17 25.92 26.28 26.61 26.95 27.57 28.58 28.29 26.74 26.15
47.20 47.07 46.73 46.31 46.73 47.94 47.51 45.29 43.91 44.95 44.03 41.97 40.54 40.05 40.49 40.63 39.40 37.42 36.40 35.21 33.23 30.97 29.75 28.89 28.21 28.67 29.57 30.55 30.64 30.07 29.18 29.31 27.39 25.84 25.19 25.35 26.29 27.07 28.10 27.65 26.46 25.00 24.22
46.64 47.11 45.96 44.36 44.38 44.89 45.27 42.39 40.65 39.36 38.52 37.37 36.23 35.95 35.95 35.97 36.39 35.19 34.25 33.03 32.34 30.68 29.56 28.41 26.69 25.95 26.63 27.25 28.66 28.05 26.89 26.20 25.10 25.37 25.07 25.52 25.92 26.35 27.22 25.38 24.89 23.62 22.25
42.66 41.59 40.40 39.05 38.01 39.65 38.99 38.05 38.09 37.70 35.83 33.66 32.48 32.01 30.97 30.92 31.63 31.98 32.25 31.96 31.50 30.52 29.44 28.02 26.22 25.80 25.77 25.73 25.71 25.55 25.53 26.16 25.62 24.85 25.04 24.57 25.07 26.04 24.38 24.31 23.28 22.03 20.72
35.22 34.86 33.83 32.41 31.98 32.95 33.11 34.16 34.11 32.91 29.50 28.21 27.93 28.28 29.38 29.61 28.71 28.67 29.16 28.81 29.10 30.67 29.35 28.44 28.20 25.70 24.03 24.59 25.99 25.85 24.82 24.95 24.50 24.09 23.81 23.58 23.16 22.33 22.07 21.35 20.71 20.31 19.45
32.35 30.77 30.11 29.04 29.01 29.35 29.45 30.25 31.36 31.07 29.77 29.42 29.96 30.22 29.96 29.48 28.21 27.71 27.50 30.41 30.10 29.85 29.61 28.86 27.53 27.23 27.19 27.13 27.24 26.98 26.43 26.32 25.53 22.79 20.93 19.22 18.33 18.36 19.06 18.40 17.87 17.74 16.80

GFSMW_sfc_wetblb_093.txt.gz
Wetbulb
54.88 55.69 56.36 56.82 56.39 56.70 56.27 56.47 56.11 57.11 57.05 56.98 57.37 57.82 57.44 58.61 59.00 59.72 59.95 60.66 60.79 60.40 60.06 59.18 59.30 59.03 57.34 56.13 55.16 54.00 53.19 51.51 52.37 50.44 49.80 49.85 50.39 50.38 51.37 53.72 53.98 53.88 54.68
53.43 54.64 54.59 56.09 55.67 55.67 56.53 56.28 56.07 56.59 57.25 57.78 57.92 57.64 57.70 58.30 58.74 59.56 60.14 60.10 60.29 59.99 58.94 59.02 58.84 58.94 57.94 56.51 54.80 53.98 52.33 52.59 52.55 50.75 50.40 47.89 49.49 50.67 50.70 50.61 52.58 53.66 53.08
52.75 54.00 54.47 54.64 55.53 55.10 55.88 55.63 55.96 56.20 57.08 57.52 56.91 56.15 56.03 56.11 58.01 59.04 59.02 60.69 60.55 58.84 59.16 59.30 58.84 58.85 58.50 57.32 55.48 54.36 53.64 52.33 51.72 53.19 52.50 47.77 47.77 49.76 51.04 50.59 50.29 51.58 52.31
53.59 54.30 54.85 54.46 54.43 55.80 56.08 55.88 56.20 55.69 56.04 56.36 56.52 56.28 55.30 55.29 56.41 58.18 58.13 58.48 59.92 59.52 59.38 58.72 59.20 59.11 59.01 57.73 57.22 56.42 55.45 54.85 51.61 51.41 51.46 51.23 51.83 49.19 48.29 49.57 51.00 50.54 50.32
53.76 53.60 54.53 55.65 55.80 56.64 56.01 55.77 55.85 55.58 55.69 56.40 56.08 55.78 54.51 56.18 54.69 56.45 58.11 57.06 57.33 58.01 58.20 59.63 59.08 59.89 59.00 59.46 58.03 56.44 55.11 55.90 55.07 52.69 51.77 50.01 50.01 49.74 49.61 49.75 48.54 48.11 45.84
53.50 54.26 55.05 56.00 55.37 56.07 55.98 55.82 55.15 54.79 55.06 54.90 55.82 56.26 55.43 55.28 54.21 54.63 55.03 56.40 57.05 58.00 58.35 58.42 59.52 60.42 60.25 59.52 58.24 57.97 56.43 56.05 55.33 54.63 52.68 50.01 49.73 47.92 46.19 47.26 42.87 44.54 48.54
53.31 53.60 53.46 53.98 54.02 54.18 55.40 55.23 55.36 54.44 54.21 54.10 54.41 54.94 55.51 55.98 56.01 55.75 56.37 55.97 56.42 57.20 58.37 59.69 60.06 60.19 60.75 60.34 60.12 58.80 57.30 56.46 55.80 55.64 52.27 51.13 52.31 51.09 47.90 50.89 46.35 45.06 47.44
53.57 53.62 53.99 54.12 53.78 53.69 54.28 54.76 54.53 55.17 54.96 54.42 54.55 55.19 55.23 55.28 55.97 56.59 57.00 56.99 57.83 58.02 58.71 59.08 59.78 60.25 60.56 60.38 60.06 59.20 58.43 57.46 54.76 52.75 51.19 53.06 52.71 52.54 52.14 48.56 46.03 41.68 43.41
53.11 53.93 54.07 54.28 54.35 53.54 53.40 53.54 53.89 53.98 54.95 55.38 55.14 54.83 55.18 55.13 55.07 56.03 56.60 56.77 57.55 58.05 58.58 59.33 59.26 59.61 59.77 59.84 59.69 59.28 58.90 58.21 57.37 55.43 53.47 53.86 54.86 54.07 53.21 51.60 48.17 47.95 43.47
52.23 53.68 54.23 54.59 54.92 55.39 54.28 53.41 53.79 53.36 54.45 55.69 55.63 55.29 55.33 55.31 55.81 56.09 56.02 56.67 57.78 58.12 58.37 58.83 58.96 59.21 59.44 59.37 59.08 58.55 58.77 56.59 56.41 54.98 52.61 52.18 53.59 52.63 52.81 51.11 47.51 49.58 48.02
52.25 53.24 54.37 55.08 55.47 55.94 55.59 54.85 53.96 55.03 55.16 55.76 55.93 55.57 55.57 55.52 56.02 55.98 56.32 56.80 57.87 57.86 58.04 58.37 58.68 58.94 59.14 58.46 57.52 57.10 56.31 52.87 52.52 51.52 51.32 50.52 51.12 49.70 48.24 48.46 47.02 46.29 47.35
53.18 53.62 54.43 54.68 54.77 55.15 55.50 55.23 55.38 55.20 55.98 56.13 56.04 55.84 56.14 55.45 55.70 56.04 56.53 57.50 57.16 58.54 58.66 58.34 58.53 58.60 58.29 56.40 53.99 53.59 53.86 52.14 52.07 51.11 50.34 49.89 50.24 48.79 48.61 49.50 46.87 47.95 45.36
52.76 53.52 54.11 54.08 54.61 55.15 55.52 55.59 55.64 55.83 56.24 56.21 56.09 55.87 55.88 55.61 54.79 55.89 56.59 57.33 57.33 57.48 57.91 58.16 58.15 57.79 57.00 55.29 56.45 55.67 54.64 52.86 52.51 52.47 50.74 50.74 50.07 49.02 48.92 49.25 49.10 47.98 42.80
51.31 53.23 54.17 54.79 55.03 55.35 55.98 56.08 56.07 56.53 56.59 56.27 55.88 55.73 56.06 56.10 56.11 56.57 57.09 57.76 57.63 57.41 58.03 58.71 58.51 58.46 58.06 57.17 56.39 55.10 54.10 53.55 53.90 54.52 52.35 50.94 50.48 48.77 49.21 47.70 45.26 43.56 40.47
48.72 51.70 53.68 54.46 55.23 55.44 55.90 56.38 56.58 56.72 56.74 55.98 56.11 56.02 56.78 56.97 56.93 57.73 57.75 58.03 58.67 58.97 59.28 59.20 58.73 58.11 57.41 56.21 54.97 54.31 54.05 53.58 52.34 51.20 50.90 49.55 49.19 46.65 46.33 45.02 41.64 39.89 36.72
49.77 50.73 52.36 53.61 54.45 55.20 55.90 56.23 56.62 56.74 56.42 55.54 55.41 56.07 55.92 55.92 56.68 57.31 57.65 58.44 58.63 58.97 58.89 57.79 57.02 56.65 55.41 47.95 44.86 48.67 51.80 51.66 50.14 47.35 41.63 42.07 40.97 39.41 37.26 37.38 36.81 37.59 35.28
49.74 49.95 50.15 51.87 54.30 54.99 55.61 55.91 56.14 57.08 56.40 55.50 55.34 55.09 55.23 55.09 55.98 56.50 56.90 57.25 57.87 58.15 57.06 56.39 55.41 53.64 51.27 43.60 42.69 40.70 46.86 44.83 40.99 38.39 37.95 36.69 35.86 35.18 34.10 33.44 32.96 32.65 32.55
49.85 49.96 49.06 50.41 52.01 53.04 53.18 53.93 55.01 55.77 56.01 55.82 54.63 54.98 55.02 54.11 54.35 55.14 55.25 53.38 50.96 49.52 47.87 46.23 45.27 41.87 38.43 37.90 38.60 37.88 38.99 37.13 36.37 35.91 34.86 33.73 32.84 32.87 32.46 31.92 31.56 31.34 31.77
48.81 50.29 51.07 51.89 52.06 51.86 52.61 52.89 52.53 52.39 52.21 52.10 52.17 52.53 52.62 50.75 49.30 48.60 47.29 47.06 45.10 42.52 40.92 40.08 38.22 36.48 35.09 35.28 35.50 35.64 33.96 31.44 31.08 31.72 31.74 31.52 31.07 31.63 32.68 30.55 29.51 28.86 29.61
50.23 50.07 50.76 50.91 51.43 51.73 52.52 51.40 50.02 48.98 47.51 47.55 47.64 48.18 47.94 46.95 45.98 45.22 43.39 41.02 38.98 36.99 35.39 33.90 34.05 33.92 33.73 34.22 33.63 32.79 31.11 29.27 28.32 28.67 28.46 29.19 28.83 29.09 29.02 28.51 28.40 27.27 28.57
48.08 49.51 49.66 49.55 50.09 50.51 49.63 47.33 46.58 45.21 45.99 45.99 45.71 45.09 44.40 42.69 41.88 40.66 39.27 36.80 34.59 32.81 31.53 30.57 31.03 31.45 32.02 32.65 32.94 32.37 30.55 29.42 28.17 27.04 26.11 26.76 27.88 28.29 28.18 28.86 29.21 28.88 28.80
47.49 48.13 47.44 47.20 47.73 47.33 46.26 44.13 41.71 42.10 41.92 41.43 40.39 39.75 39.53 39.23 38.77 37.06 35.80 34.41 32.65 30.85 29.67 28.51 28.16 28.94 29.74 30.41 30.68 30.42 29.98 29.84 27.92 26.47 26.55 27.14 27.55 27.62 28.67 28.80 27.46 25.83 25.69
44.91 44.89 44.09 42.58 43.05 44.51 43.64 39.69 39.53 39.31 38.12 36.80 35.24 34.78 34.76 34.87 35.31 34.62 33.40 32.23 31.61 29.79 28.62 27.95 26.62 26.09 26.54 27.22 28.68 28.49 27.76 27.40 27.31 27.29 26.10 25.99 26.30 26.50 28.32 27.24 25.53 24.11 25.43
40.55 39.14 37.16 34.98 34.25 36.71 37.88 37.69 36.80 36.24 35.29 34.14 33.57 32.87 32.53 32.19 32.60 31.95 32.12 31.83 31.37 30.29 29.35 28.07 26.28 26.19 25.82 26.24 27.11 27.52 27.79 27.36 26.89 26.43 26.73 25.85 25.96 26.81 26.80 26.40 25.38 25.29 24.18
35.47 35.45 33.69 32.41 31.65 32.72 33.36 34.53 34.58 35.13 33.82 33.38 32.43 31.32 30.53 29.85 29.05 29.38 29.36 28.71 29.55 30.09 29.65 29.68 29.90 28.87 26.99 26.82 27.71 27.60 26.96 26.94 25.80 26.12 25.87 25.36 24.57 24.43 24.63 24.33 23.22 23.11 22.09
32.63 31.98 31.92 31.33 30.90 31.35 32.11 33.19 34.56 34.76 33.59 31.95 31.35 31.15 30.69 30.20 29.14 28.63 28.04 29.34 28.89 28.89 28.85 28.58 28.86 28.09 27.90 26.95 26.22 25.66 25.16 24.66 24.44 24.33 23.14 22.54 22.32 21.28 21.25 21.20 20.93 20.25 18.85

GFSMW_sfc_wetblb_096.txt.gz
Wetbulb
60.29 59.98 59.73 60.11 58.32 59.17 58.47 57.82 58.39 59.34 59.61 59.03 58.40 58.92 58.54 59.92 60.69 61.39 61.39 61.88 61.06 61.62 62.64 61.57 61.63 61.68 60.30 60.12 59.71 59.13 58.45 57.78 57.36 55.10 54.80 54.65 55.04 55.21 55.60 56.76 58.07 58.11 58.24
59.15 58.65 58.55 59.30 58.49 58.28 59.03 57.50 57.45 58.56 58.56 58.94 58.59 58.99 59.62 59.45 59.91 60.51 60.88 61.01 61.30 62.31 61.83 61.64 61.40 61.59 60.41 60.17 59.39 58.72 57.34 56.91 55.77 53.50 53.27 49.94 52.15 53.55 54.18 55.58 56.07 57.17 56.64
58.51 58.27 57.33 57.06 58.14 57.27 58.34 58.28 58.49 57.55 58.13 58.77 57.77 57.35 57.97 58.83 58.62 59.33 59.67 60.03 61.10 62.14 62.14 61.72 61.38 61.95 61.57 59.74 59.51 58.27 58.00 55.71 54.33 55.95 54.27 51.72 50.99 54.36 54.93 54.39 54.84 55.84 56.06
58.89 59.02 58.54 56.92 56.51 57.19 60.24 59.79 58.84 57.80 58.41 58.54 58.28 57.08 56.28 55.01 57.67 59.14 59.94 60.17 60.54 60.00 61.26 61.84 61.86 61.91 61.48 60.58 59.89 58.79 58.83 58.04 54.80 54.82 55.39 56.95 56.22 52.75 51.33 54.47 54.64 55.12 54.09
59.00 58.93 59.10 58.43 57.17 57.51 58.08 58.55 59.14 57.33 57.65 58.68 58.33 56.88 56.62 56.69 58.27 58.64 60.63 60.67 59.87 60.31 59.62 59.99 59.58 60.82 60.99 60.92 60.99 59.82 59.45 59.25 58.46 56.25 55.65 55.22 55.09 55.47 51.54 51.77 52.77 54.42 54.74
59.06 59.71 59.98 59.80 59.39 59.00 59.09 58.08 58.28 57.29 57.20 58.69 59.24 57.51 57.85 56.05 56.39 57.27 57.77 59.97 59.96 61.64 60.64 59.81 59.94 60.56 61.48 61.41 61.81 62.03 61.15 60.06 59.47 59.59 58.15 56.72 55.34 54.64 53.99 48.97 49.26 51.51 53.42
58.90 59.11 58.76 58.38 59.22 58.38 58.42 58.29 57.83 56.53 58.00 59.50 58.46 57.87 58.63 58.28 56.70 57.41 57.47 59.19 58.46 58.16 58.74 59.99 59.86 60.23 61.49 62.17 62.38 62.24 61.77 61.63 59.84 59.68 58.76 56.30 56.33 56.45 54.89 51.39 50.01 48.15 50.08
58.92 59.30 59.42 59.07 58.94 58.85 57.78 57.68 57.88 57.43 56.94 56.18 56.83 58.37 59.69 57.94 58.38 59.60 59.42 59.08 58.61 59.28 60.79 60.51 60.27 60.09 59.67 62.10 62.71 62.79 62.19 62.24 61.51 60.95 60.34 59.46 59.62 55.47 52.20 50.93 49.11 47.52 48.59
58.60 59.15 59.80 59.74 59.21 59.12 58.71 58.12 58.14 57.39 57.59 57.69 57.23 57.30 58.90 58.23 58.73 59.93 59.82 59.28 59.93 59.91 60.67 61.35 61.50 61.71 61.61 61.72 62.21 61.64 61.56 62.14 61.70 61.46 61.06 58.75 56.42 55.14 56.50 53.36 51.38 49.70 46.75
57.85 59.25 59.72 59.81 59.65 59.47 59.68 59.17 59.40 58.83 58.90 58.60 58.81 58.34 58.64 59.04 59.35 59.86 59.42 59.82 60.04 59.99 60.12 60.66 61.04 60.85 61.03 61.27 61.21 61.15 61.54 60.95 61.60 61.25 60.64 60.20 58.57 58.23 57.72 54.73 52.01 51.53 49.38
57.33 58.73 59.91 60.36 59.96 59.62 59.48 57.59 57.51 58.46 58.75 59.77 59.80 59.43 59.32 59.41 59.54 59.06 59.32 59.36 59.97 59.93 59.64 59.80 60.14 60.26 60.48 60.86 61.09 60.96 60.59 60.06 60.43 61.07 59.83 58.95 58.21 56.46 54.31 52.89 52.07 49.74 49.50
57.99 58.62 59.50 60.12 59.74 59.47 59.21 57.69 56.04 57.10 58.39 59.43 59.81 59.79 60.03 59.94 59.34 59.48 59.41 59.84 59.31 60.22 60.03 60.03 59.82 60.03 60.16 60.97 61.25 60.30 59.89 59.30 58.78 57.41 56.23 54.73 54.25 53.49 53.03 51.17 50.28 49.67 49.69
57.56 58.21 58.67 59.18 59.56 59.60 59.45 59.29 58.69 58.14 59.40 59.51 59.57 59.44 59.45 59.39 59.29 59.13 59.22 59.96 59.80 59.79 59.99 60.03 59.72 59.68 60.26 60.12 60.52 60.23 58.23 56.94 57.93 58.05 55.75 54.57 53.12 51.74 51.55 50.88 49.76 50.54 50.02
56.14 57.57 58.12 58.98 59.65 59.92 59.94 59.80 59.68 60.10 60.09 59.81 59.35 59.04 59.32 59.57 59.41 59.64 59.64 59.98 59.69 59.34 59.31 59.62 59.61 59.84 59.92 59.92 59.93 59.08 58.57 59.75 59.71 58.64 54.78 54.35 53.32 51.61 51.37 50.70 49.53 49.18 48.15
54.12 55.80 57.63 59.03 59.66 59.93 60.18 60.42 60.58 60.32 60.45 59.77 59.42 59.37 59.79 60.03 59.87 59.52 59.51 59.52 59.57 59.46 59.28 59.64 59.86 60.56 60.74 60.41 60.33 59.32 58.35 56.73 55.44 54.60 53.50 53.90 51.71 47.04 47.15 49.88 49.09 47.18 42.80
55.16 55.84 56.29 58.07 59.39 59.71 59.89 60.22 60.47 60.69 60.52 59.72 59.46 59.99 59.79 59.67 59.47 59.34 59.46 59.71 59.75 60.16 60.41 60.40 60.43 60.17 58.57 48.34 45.51 49.50 55.15 52.70 51.14 50.35 42.68 40.71 40.06 37.62 36.98 36.36 34.95 37.97 37.64
54.63 55.40 55.86 56.16 58.62 59.67 59.94 60.27 60.66 61.23 60.14 59.91 59.82 59.77 59.70 59.08 59.19 59.34 59.18 58.56 58.67 59.32 58.44 57.33 55.34 47.43 41.65 38.81 42.61 40.62 45.88 41.86 39.81 38.66 37.98 36.29 35.42 35.74 34.47 33.59 33.50 33.05 33.05
54.38 55.23 56.08 55.10 56.30 59.71 60.27 61.11 60.77 60.29 59.67 59.56 59.19 59.16 58.91 58.57 58.79 58.56 57.82 56.56 52.44 49.22 45.98 42.88 40.77 38.25 36.73 36.73 37.39 36.57 36.42 34.59 33.99 33.98 33.99 32.55 32.30 33.23 33.28 32.55 31.13 30.91 31.19
53.35 54.72 55.69 55.98 56.59 56.38 58.17 58.94 59.17 59.09 58.18 55.97 56.35 56.92 57.17 54.80 51.71 48.73 47.90 45.69 42.45 38.57 37.19 37.02 36.21 34.74 33.92 34.32 34.60 34.63 32.34 30.48 29.97 30.95 31.17 30.48 29.74 31.00 32.61 30.86 29.89 30.23 30.63
54.19 54.43 55.30 55.49 55.35 55.25 55.74 53.67 51.96 50.53 48.72 48.60 48.24 48.05 47.55 46.11 43.42 41.45 39.11 38.13 36.33 34.84 34.02 32.97 33.68 33.92 33.62 33.96 33.86 33.11 31.42 29.32 28.74 28.64 28.72 29.10 28.91 29.15 29.68 30.11 29.97 28.67 30.04
51.30 51.99 52.18 51.32 52.14 52.47 50.41 47.64 46.52 44.66 44.60 43.85 43.12 42.06 41.30 39.70 38.85 37.24 36.17 34.79 32.87 31.43 30.54 30.03 30.51 31.15 32.28 32.53 32.77 32.47 31.04 30.00 28.65 27.37 26.84 27.68 28.23 28.34 28.51 28.80 31.13 30.37 31.07
48.07 49.03 48.04 47.86 49.54 49.06 46.27 42.79 40.64 40.82 40.34 39.46 38.49 37.92 37.79 37.48 36.69 35.34 34.41 33.14 31.85 30.58 29.93 29.21 28.39 29.07 30.00 30.43 30.61 30.42 30.00 30.38 29.34 28.47 29.56 29.19 27.80 27.57 28.83 29.66 27.78 26.32 27.36
42.11 40.94 39.97 41.01 42.02 42.87 42.03 38.62 38.38 38.70 38.30 38.08 36.88 35.96 35.63 35.37 35.65 34.49 33.64 32.67 32.02 30.54 29.24 28.13 27.20 26.76 27.97 28.39 29.07 28.85 28.37 28.00 29.54 29.60 27.44 26.55 26.96 27.39 28.62 27.55 25.17 25.47 28.57
39.23 38.60 37.66 36.32 36.13 38.15 38.19 38.38 38.95 39.07 38.29 36.68 36.22 36.07 34.63 33.69 33.25 32.70 32.21 31.98 31.52 30.29 29.43 28.48 27.46 28.36 29.49 29.94 30.47 30.10 30.22 28.77 29.12 28.75 28.86 27.78 27.48 27.08 27.27 27.73 27.68 27.42 26.39
37.35 37.09 36.12 35.87 35.49 36.90 38.08 40.30 40.84 40.03 37.30 35.65 35.19 34.23 33.01 31.41 29.64 29.70 30.33 29.36 29.63 31.52 31.11 29.82 29.90 28.63 26.34 26.22 26.63 26.28 26.37 27.23 26.75 28.14 28.21 27.27 26.15 25.58 26.09 26.11 26.45 25.93 24.37
34.93 34.26 34.77 34.74 34.88 36.14 36.98 38.52 39.83 38.85 36.43 34.52 34.49 34.34 33.94 32.93 30.85 28.47 26.90 28.21 28.02 27.54 27.39 27.49 27.68 26.22 25.30 24.96 24.74 24.45 23.20 23.44 24.07 25.61 23.64 22.86 23.12 22.59 22.19 21.72 21.47 21.96 21.00

GFSMW_sfc_wetblb_099.txt.gz
Wetbulb
62.01 63.24 62.83 62.90 61.84 60.57 60.55 59.31 60.35 60.36 60.72 59.57 60.08 60.08 59.74 60.91 62.02 63.32 62.57 61.46 61.18 61.01 60.92 60.07 62.12 62.74 61.41 60.60 60.55 61.37 61.32 59.94 60.80 57.74 56.82 57.25 57.71 57.74 58.09 59.66 60.00 59.63 59.53
60.87 61.60 61.84 61.94 60.55 59.61 60.44 58.09 59.20 60.02 60.23 60.19 59.33 59.84 59.61 61.19 61.64 61.98 61.63 61.02 60.65 60.60 60.21 60.54 61.54 61.58 60.09 60.53 61.20 61.81 59.29 59.71 59.86 56.25 55.72 52.20 53.44 55.23 55.91 56.87 58.21 60.19 59.09
59.81 60.87 60.72 61.09 61.26 59.15 59.58 59.72 59.24 60.17 59.53 58.81 59.36 59.19 59.15 59.58 59.40 59.91 60.12 60.05 59.60 59.28 59.42 60.35 61.16 61.33 61.39 60.45 61.16 61.61 60.47 57.67 57.72 59.51 56.06 52.00 51.16 54.19 55.55 55.52 56.19 57.29 58.19
59.15 61.50 61.02 60.17 61.12 60.36 61.04 61.42 60.21 59.35 58.81 59.06 58.46 58.54 57.31 56.48 58.08 58.66 59.58 59.76 59.91 59.61 60.08 60.77 61.47 61.77 62.39 60.95 60.83 60.91 60.98 60.59 56.38 56.54 56.99 58.54 57.21 54.22 52.62 54.65 55.01 55.41 56.84
59.46 60.85 61.18 60.84 61.23 61.58 60.17 59.75 59.78 59.23 59.79 59.15 59.91 57.94 57.32 57.68 58.53 58.97 58.84 59.42 59.95 60.12 60.23 61.00 62.19 63.07 61.97 62.79 62.43 61.44 60.43 60.11 59.41 56.93 56.37 56.13 56.36 56.97 53.52 52.17 52.71 55.98 56.52
59.88 61.11 62.10 61.54 60.76 60.90 59.53 59.28 58.50 58.14 58.72 58.51 59.01 58.48 56.97 57.04 58.03 58.04 57.26 57.95 59.10 59.59 59.98 60.15 61.77 62.38 62.53 62.14 61.80 61.72 60.70 60.74 61.16 60.26 59.52 57.09 55.66 54.42 53.76 52.78 53.62 52.29 54.08
59.93 60.69 60.96 60.64 60.59 59.90 58.94 59.39 58.34 57.31 58.37 58.40 58.30 57.94 57.31 57.14 57.01 58.45 58.36 57.40 57.83 58.38 58.27 58.87 59.36 60.44 61.99 62.01 61.94 60.92 61.62 61.74 60.77 60.69 60.24 60.53 59.48 59.64 56.81 53.55 51.69 52.01 53.34
60.14 60.66 61.26 61.04 60.85 60.79 60.75 59.38 58.52 57.56 58.18 58.50 59.14 59.50 59.41 58.01 56.43 58.73 59.58 58.31 58.65 60.61 59.27 58.37 58.24 58.90 60.46 59.92 61.73 62.68 61.21 61.50 61.88 62.03 62.06 61.15 60.81 60.45 58.72 56.45 51.88 49.84 52.81
59.64 60.47 61.38 61.56 61.20 61.17 60.92 60.45 60.00 59.65 59.23 59.12 59.84 60.09 60.04 59.37 58.35 58.28 59.05 60.22 60.90 60.97 61.14 60.92 60.04 60.32 60.10 60.81 59.43 60.53 60.67 61.44 61.99 62.53 62.46 61.39 61.70 61.71 61.38 60.08 56.05 52.28 48.70
59.16 60.46 61.17 61.64 61.84 61.67 61.50 61.16 61.17 60.47 60.26 59.52 59.49 59.21 59.92 60.42 60.29 60.88 60.51 60.95 61.55 60.98 61.04 61.21 60.91 60.83 60.67 60.99 61.37 61.34 61.87 61.28 61.53 61.64 61.56 61.33 61.51 60.83 60.46 58.64 56.58 54.39 51.73
58.38 60.06 61.27 62.14 62.21 62.00 61.57 60.92 60.94 60.66 60.39 60.53 60.09 60.29 60.05 60.31 60.44 60.90 61.38 61.16 61.61 61.50 61.02 61.16 61.16 61.23 61.21 61.68 61.83 61.59 61.40 60.84 61.02 61.77 61.21 60.99 61.82 60.83 60.28 57.68 56.39 54.49 53.12
58.52 59.82 61.26 61.79 61.83 61.36 61.13 60.74 60.84 60.58 61.12 61.09 60.62 60.29 60.45 60.30 59.81 60.34 61.10 62.00 61.64 61.94 61.42 61.19 60.37 60.55 60.82 61.52 61.34 61.11 61.11 60.87 60.63 61.05 61.13 60.60 59.21 56.93 57.18 58.30 55.20 53.83 53.52
58.63 59.51 60.82 61.12 61.38 61.36 61.10 61.04 60.57 60.57 60.81 60.99 61.04 60.79 60.72 60.52 60.25 60.52 61.45 61.53 61.35 61.01 61.23 61.06 61.05 60.80 61.21 61.23 61.61 61.69 61.27 61.26 61.27 61.37 60.78 59.15 56.33 55.83 56.52 55.68 53.26 53.17 51.99
56.73 58.91 59.88 60.85 61.52 61.67 61.52 61.22 60.46 60.39 60.47 60.33 60.26 60.36 60.71 60.78 61.18 61.56 61.39 62.08 61.72 60.69 60.33 61.33 61.25 61.75 60.68 60.58 60.97 60.73 61.19 61.10 60.76 60.36 58.35 57.78 57.37 55.68 54.46 53.85 52.24 51.33 50.20
55.64 57.61 59.13 60.15 61.27 61.69 61.88 61.83 61.72 60.89 60.60 60.23 60.09 60.19 61.04 61.60 61.23 61.04 61.19 61.05 60.83 60.68 60.82 60.49 60.34 60.43 60.55 59.95 60.43 59.68 58.48 58.12 57.74 57.59 51.81 41.05 39.97 38.12 38.27 44.38 47.43 48.11 47.34
54.32 56.21 57.94 59.58 60.24 60.93 61.66 61.72 61.88 61.72 61.67 60.80 60.37 60.82 60.81 60.78 60.66 60.86 60.80 60.43 60.41 60.40 60.21 59.64 59.82 59.62 51.22 38.28 41.03 47.46 52.89 46.69 44.61 42.34 38.47 37.25 36.52 35.30 34.70 34.17 33.75 33.25 36.33
54.07 55.42 56.70 58.16 59.93 61.34 61.66 61.65 62.00 62.51 61.57 61.19 61.13 61.02 60.90 60.34 60.46 60.46 60.08 59.76 59.44 58.67 50.07 46.03 43.20 39.97 39.36 37.93 38.35 38.47 39.01 36.60 35.95 35.14 34.64 33.93 34.39 35.03 34.62 32.79 32.54 32.14 32.57
55.03 55.88 56.77 57.81 58.93 61.61 62.23 62.28 62.47 62.11 61.44 61.02 61.02 61.12 60.90 60.55 60.34 59.13 53.40 47.57 44.45 41.47 39.65 37.37 36.48 35.37 35.47 35.45 35.27 34.54 34.00 32.66 32.11 31.93 32.12 32.09 32.39 33.17 33.23 32.49 31.54 31.26 31.41
56.09 56.15 57.48 57.79 58.24 59.38 61.67 61.86 61.79 61.66 60.96 60.47 60.49 60.56 60.68 55.79 50.34 45.57 42.12 39.66 37.23 35.70 35.24 35.47 34.73 33.93 33.58 34.02 33.99 32.96 31.49 30.27 30.00 30.72 31.46 30.87 30.09 30.60 32.44 32.18 31.26 30.96 30.92
56.47 56.87 57.42 58.40 58.32 59.23 60.58 60.75 59.80 56.07 50.53 49.51 48.16 47.58 46.44 43.29 39.84 37.94 36.11 35.33 34.24 33.57 33.02 32.51 33.14 33.29 32.72 33.97 33.81 33.04 31.64 29.96 29.26 29.49 29.55 29.34 29.07 29.16 29.62 30.67 30.96 30.45 30.86
54.81 55.85 56.18 56.45 55.34 54.87 52.08 47.93 45.56 43.40 43.24 42.38 41.05 39.87 39.01 37.64 36.45 35.13 34.19 32.92 31.96 31.01 30.24 29.72 30.49 30.95 31.43 31.37 32.47 32.78 32.09 31.38 30.52 29.89 28.97 28.54 28.49 28.87 29.54 29.72 29.35 27.93 29.50
50.37 51.76 51.24 49.71 48.95 47.97 45.58 41.75 39.86 40.37 39.82 38.78 37.91 37.35 36.80 36.19 35.06 33.84 33.24 32.43 31.29 29.67 28.99 28.59 28.33 29.41 29.83 30.28 30.08 29.92 30.66 31.77 30.90 29.56 29.69 29.16 28.43 28.84 28.78 28.99 27.21 26.80 27.93
43.46 43.82 42.99 41.91 42.22 42.32 40.78 37.84 38.21 38.68 37.67 36.34 35.67 35.63 35.73 35.52 35.26 33.76 32.78 31.86 31.48 30.35 29.59 29.37 28.81 29.18 30.62 30.98 30.21 29.74 29.63 28.98 29.81 29.79 27.94 28.47 29.30 30.01 28.42 26.39 25.93 27.35 27.51
40.32 39.91 38.67 37.41 37.36 38.53 39.01 38.76 38.76 38.47 36.98 35.30 34.75 34.68 33.89 32.94 32.60 32.45 33.24 33.57 32.67 31.58 30.72 30.20 28.68 28.30 27.91 27.92 29.26 29.27 29.47 29.27 29.09 29.65 29.94 29.01 28.03 27.93 28.36 28.29 28.08 28.52 26.49
37.98 37.79 36.76 36.73 37.59 38.75 38.76 39.40 38.89 38.21 35.69 34.90 34.23 32.62 31.67 29.68 29.31 29.70 29.84 27.86 28.97 31.41 29.32 28.43 28.28 26.44 24.18 24.84 25.06 24.49 24.67 25.88 25.72 28.09 27.49 25.73 24.78 24.29 24.32 24.27 24.21 24.12 23.20
36.49 35.66 35.84 36.67 38.10 38.61 38.33 39.00 40.15 38.79 37.49 35.88 34.33 32.58 31.23 29.92 27.76 26.16 25.41 26.73 26.42 25.97 26.19 26.13 25.17 23.55 23.16 23.21 23.46 23.37 22.57 22.62 24.18 25.08 23.12 22.06 21.42 20.34 20.39 20.06 19.78 20.41 19.26

GFSMW_sfc_wetblb_102.txt.gz
Wetbulb
60.72 63.05 62.72 62.82 61.59 61.71 60.40 59.78 60.57 61.07 61.12 60.15 59.99 60.17 59.98 61.32 62.98 63.46 62.02 62.07 61.73 60.81 59.24 59.65 59.88 59.96 60.76 60.16 60.31 58.61 56.75 56.29 57.78 54.05 53.13 52.98 54.01 54.38 54.67 56.11 56.07 56.57 57.02
59.99 61.74 61.72 61.83 60.54 59.67 59.45 59.52 60.33 60.05 60.42 60.31 59.97 59.91 60.05 60.53 61.73 63.04 62.29 62.13 60.93 60.34 58.13 58.98 58.79 58.70 58.79 59.19 58.66 57.29 56.10 56.97 57.40 53.63 51.34 48.13 50.16 52.02 53.29 52.93 55.30 55.90 56.08
58.94 60.39 60.61 60.74 59.95 58.67 58.67 59.05 59.35 59.78 60.36 60.47 59.69 59.34 60.34 60.51 60.46 61.20 61.31 61.09 60.49 60.07 59.25 59.43 59.28 58.45 58.42 58.04 57.71 58.03 57.08 55.47 55.16 54.49 52.79 49.33 47.19 48.21 50.95 51.58 52.21 53.17 55.16
57.01 60.65 60.32 60.32 59.69 58.73 59.36 60.04 59.50 59.50 59.84 60.02 59.63 58.42 57.71 57.51 58.86 60.59 60.46 60.11 60.21 59.36 59.24 59.73 59.55 58.71 58.71 57.88 57.87 58.89 57.84 56.44 53.26 53.96 55.11 54.10 53.50 50.01 46.60 50.00 50.88 51.69 52.94
56.67 60.25 60.06 60.51 61.00 59.65 58.73 59.47 59.74 59.02 59.03 59.15 59.86 58.92 57.31 58.03 58.62 58.84 58.49 58.76 58.69 58.42 58.14 59.05 59.12 58.73 58.97 58.95 58.41 57.77 57.59 57.56 55.26 53.79 53.13 52.62 52.67 53.16 50.30 48.50 47.95 50.86 52.43
57.46 60.61 61.11 60.99 60.49 60.59 58.83 59.09 58.67 58.39 59.19 58.98 59.62 58.78 57.78 57.71 57.33 57.65 57.33 57.13 57.36 57.71 57.86 57.73 58.88 58.98 58.97 58.72 58.58 58.61 57.43 57.91 56.86 55.74 54.61 52.99 51.10 50.33 50.19 49.14 49.67 49.35 51.14
58.64 59.54 59.91 59.26 59.37 59.00 58.28 58.32 57.87 56.90 58.81 58.35 59.24 58.44 57.63 57.95 57.36 57.54 57.40 56.83 56.59 56.78 57.17 57.76 58.47 58.55 58.46 58.74 59.11 58.75 58.00 57.72 57.55 57.48 56.75 55.72 54.59 55.08 53.37 51.85 50.16 50.10 50.51
59.01 59.33 60.24 59.38 59.19 59.02 58.01 57.77 57.59 56.75 57.72 57.99 58.11 58.08 57.68 58.21 57.79 57.56 57.69 57.51 57.09 57.28 57.98 57.97 58.47 58.70 58.73 58.83 58.98 58.94 59.17 58.96 58.38 57.53 57.02 56.90 56.96 56.66 55.70 53.48 51.08 49.68 50.69
58.11 59.26 60.49 60.21 59.53 59.03 58.45 58.79 57.69 57.09 57.28 57.95 58.14 58.03 57.74 57.83 57.85 58.24 58.24 57.70 58.05 58.85 58.40 58.24 58.28 58.28 58.40 58.41 58.20 58.21 57.97 57.91 57.65 56.81 57.45 57.15 58.13 57.58 57.33 56.41 55.15 52.46 49.41
58.13 59.35 60.26 60.56 60.50 60.18 59.96 59.05 59.27 58.34 57.85 58.77 58.68 57.98 58.22 57.80 57.25 58.53 58.27 57.91 58.26 58.62 58.56 57.73 57.63 57.13 57.16 57.92 57.92 57.40 57.19 57.31 56.97 57.53 57.25 57.83 58.21 58.35 58.39 58.18 57.55 55.72 53.34
57.17 59.24 60.15 60.99 60.98 60.75 60.46 59.49 59.19 58.88 58.51 58.98 58.91 58.60 58.07 58.42 57.48 57.14 57.98 58.84 58.96 59.04 59.18 58.71 58.20 57.73 57.50 57.97 57.24 56.67 56.69 56.63 56.91 57.54 57.49 57.30 58.14 57.81 58.03 58.08 57.69 55.75 54.18
57.30 59.24 60.17 60.79 60.60 60.05 60.07 59.62 59.69 59.42 59.19 59.47 58.81 58.18 58.46 58.75 58.14 57.88 56.60 58.14 59.01 58.97 58.49 59.04 58.51 58.16 57.90 57.79 57.29 57.13 57.76 57.59 56.89 57.02 57.25 56.95 57.47 56.69 57.37 57.35 56.40 55.73 55.34
56.81 58.62 59.73 60.38 60.41 60.15 60.03 59.67 59.72 59.68 59.84 59.89 59.28 58.75 58.39 58.75 58.19 58.21 58.89 59.50 58.86 58.86 58.55 58.52 57.90 57.96 58.12 58.04 57.94 57.88 57.56 57.27 57.46 57.22 56.70 56.48 56.03 55.90 54.75 55.11 55.33 55.89 55.11
55.56 58.06 59.07 60.05 60.70 60.47 60.25 60.03 59.58 60.17 60.16 59.69 59.26 58.62 58.72 58.77 58.72 58.42 58.70 58.95 59.32 58.68 58.62 58.40 58.44 58.23 58.01 58.13 58.17 58.10 57.78 57.56 57.67 56.18 46.56 41.80 40.33 40.48 41.74 46.99 46.59 48.67 50.08
53.19 55.77 58.34 59.40 60.62 60.63 60.52 60.75 60.16 60.05 60.15 59.33 59.32 59.10 59.57 59.74 59.80 59.26 59.24 59.15 59.37 58.72 58.72 58.66 58.74 58.77 58.51 53.41 50.30 55.99 56.27 51.27 44.72 41.06 39.24 37.80 37.23 36.34 35.67 37.06 35.66 38.20 40.50
52.23 53.22 57.24 59.05 59.95 60.83 60.61 60.70 60.34 59.38 59.84 58.93 58.60 59.59 60.05 59.96 59.55 59.65 59.46 59.21 59.15 59.27 58.93 57.31 50.88 44.86 42.23 38.29 40.81 45.54 42.75 41.46 40.01 36.84 36.02 35.83 36.55 34.93 34.40 33.79 33.67 33.35 33.98
51.60 52.60 55.62 57.35 59.83 60.59 61.45 60.70 60.94 60.44 59.30 58.91 59.29 59.38 59.71 59.27 59.16 59.61 59.12 58.45 55.09 47.51 42.90 40.71 39.50 37.15 36.52 36.55 36.94 37.90 36.45 35.22 34.64 34.19 34.02 33.73 34.04 34.36 33.80 33.31 32.99 32.55 33.02
52.08 53.84 56.17 56.93 58.09 60.95 61.22 61.35 61.72 60.88 59.99 59.46 59.77 60.00 59.56 59.08 59.34 55.87 45.46 42.31 40.63 38.29 36.86 35.80 35.45 34.53 34.25 34.43 34.53 34.02 33.08 32.24 32.05 31.98 31.62 30.97 30.80 32.01 33.37 32.90 31.94 30.64 30.97
55.43 55.69 56.56 57.43 57.49 59.09 60.97 60.90 60.60 60.84 60.15 59.43 59.40 59.44 59.47 49.00 44.44 40.88 38.74 37.67 36.07 35.08 34.34 34.08 33.44 32.95 33.04 33.83 33.55 32.47 30.91 29.61 29.41 30.19 30.50 29.91 29.13 30.77 32.47 31.43 30.03 29.91 30.80
55.63 56.35 57.21 57.86 57.17 55.77 59.48 59.36 58.54 56.06 49.58 48.29 47.29 44.98 43.58 40.77 37.87 36.77 35.29 34.69 33.93 32.69 32.29 31.55 32.10 32.69 32.26 33.95 33.64 32.82 31.03 29.56 29.12 29.38 29.03 29.45 28.86 30.19 31.16 28.57 27.07 25.09 25.69
52.14 54.57 53.06 52.52 51.22 50.02 48.27 45.75 44.11 42.30 41.75 41.16 40.01 38.51 37.17 35.80 36.34 34.96 33.39 32.87 31.42 30.56 29.81 29.41 29.67 29.84 30.48 31.49 33.07 33.10 31.72 30.82 29.76 29.01 27.69 28.21 29.70 29.56 29.35 28.38 26.11 25.84 27.03
46.34 48.82 48.17 46.71 47.30 46.83 43.25 39.96 38.18 39.28 38.98 38.60 36.74 36.11 35.67 34.99 34.06 32.49 31.88 31.32 30.40 29.23 28.67 28.17 28.19 29.11 29.49 30.21 30.48 31.02 31.23 30.53 27.74 26.93 27.13 27.60 30.54 29.13 28.16 26.83 27.53 28.38 27.05
42.34 42.32 40.82 39.94 40.41 41.31 40.55 37.29 37.33 37.63 36.93 35.84 36.31 34.71 34.39 33.97 33.62 32.08 31.38 30.60 30.55 29.61 29.12 28.57 27.69 27.95 29.54 29.17 29.93 30.09 29.89 29.86 28.12 27.78 28.81 29.54 29.22 29.08 27.56 27.57 27.25 25.07 22.89
39.22 39.47 38.62 37.53 37.13 38.16 37.84 37.06 36.58 36.17 34.78 33.00 32.42 32.10 31.07 30.50 30.93 31.94 32.30 31.48 30.56 29.54 28.15 26.74 24.69 24.44 24.10 23.36 25.00 25.38 25.76 27.02 27.37 28.08 26.07 25.23 25.49 24.40 23.99 23.53 23.01 22.18 20.60
37.49 38.07 37.38 36.99 36.73 37.14 36.57 36.50 35.69 34.50 31.92 30.61 29.68 28.37 27.67 26.79 25.83 26.10 26.18 26.04 27.35 27.48 25.27 24.43 24.01 22.20 21.26 22.18 23.28 22.89 22.62 23.10 24.73 24.12 22.92 20.75 19.74 18.75 18.81 18.59 18.53 18.27 17.33
35.95 37.00 37.48 36.90 36.65 36.98 36.20 36.44 36.37 34.68 32.47 30.45 28.99 27.73 26.85 25.62 24.45 23.28 22.59 25.98 25.60 25.59 25.17 23.98 21.94 21.85 22.70 23.37 23.80 23.40 23.51 24.38 24.66 20.48 17.10 15.14 14.32 14.27 14.97 14.12 13.91 14.72 13.78

GFSMW_sfc_wetblb_105.txt.gz
Wetbulb
57.99 58.89 59.19 58.95 58.95 58.70 58.57 58.99 59.92 60.37 58.65 57.23 57.13 57.11 59.34 62.33 62.80 62.03 62.26 62.56 62.23 62.18 61.39 61.69 61.23 62.10 60.61 60.44 59.46 57.84 55.06 52.92 52.46 50.63 49.99 50.50 51.42 52.48 53.30 54.69 55.74 55.42 55.23
57.57 58.15 57.88 57.86 58.08 57.64 57.57 58.73 59.40 59.65 58.09 57.83 58.45 58.35 57.61 58.81 63.05 62.45 62.31 62.07 61.79 61.29 60.11 60.46 60.13 61.14 60.70 59.38 58.32 56.72 54.92 53.33 54.03 51.04 49.84 46.60 48.75 49.63 51.05 52.09 53.58 54.09 55.30
56.42 57.18 57.54 56.85 56.92 56.05 56.37 58.10 59.18 58.79 57.55 59.70 59.16 58.01 58.05 58.86 59.49 61.73 61.08 61.53 61.37 60.92 59.18 59.40 58.89 60.58 60.17 58.36 56.79 56.34 54.98 53.38 53.43 53.66 51.14 47.45 46.20 46.60 48.76 49.80 50.16 52.08 53.12
57.59 57.58 56.96 56.12 56.07 55.47 56.87 58.42 59.03 59.15 59.42 59.32 58.38 58.09 57.34 56.75 59.00 59.00 61.09 60.77 61.09 60.66 58.43 59.29 58.74 58.78 59.93 58.24 57.14 57.15 55.80 54.11 52.32 52.75 54.09 52.74 52.21 46.65 44.34 47.73 48.82 49.72 51.35
56.89 56.78 57.08 56.63 56.56 56.35 56.77 58.80 58.64 58.74 58.97 58.77 58.68 57.63 57.59 58.14 59.43 60.20 59.96 60.11 60.19 59.97 58.41 59.15 58.46 58.09 58.42 57.94 57.40 57.26 56.86 55.12 54.25 52.64 51.96 50.76 50.41 50.30 47.89 44.81 45.78 48.00 49.89
56.93 57.37 57.72 57.37 56.27 56.23 56.62 58.09 58.54 58.18 58.08 58.25 58.53 57.86 57.59 57.65 57.57 59.35 58.37 59.06 59.19 58.72 58.19 58.73 58.25 58.21 58.40 58.01 57.73 57.23 56.95 56.62 55.32 54.22 53.47 50.97 49.66 48.78 48.12 46.68 46.72 46.29 48.04
56.31 56.41 56.34 56.48 55.93 55.33 56.17 57.68 57.61 57.25 57.62 57.98 57.66 56.67 56.81 57.69 57.03 57.47 58.06 57.11 57.05 57.39 57.66 58.23 58.14 58.25 58.22 58.30 57.86 57.26 56.84 56.79 56.23 54.23 53.56 53.80 52.52 51.98 50.33 49.02 47.79 48.04 49.70
56.46 56.32 56.45 56.47 56.08 55.67 55.96 57.45 56.77 56.61 57.78 57.81 57.58 56.75 57.13 57.32 57.81 57.04 57.14 57.29 57.10 57.36 57.46 57.10 57.71 58.21 58.39 57.80 57.58 57.24 57.35 57.25 57.05 56.03 56.29 55.92 55.58 55.26 54.23 52.10 49.08 46.91 47.61
56.15 56.10 56.12 56.52 56.11 55.90 56.03 56.12 55.96 56.61 57.49 57.58 57.23 55.65 56.69 57.10 57.41 57.75 57.01 57.03 57.21 57.60 56.84 56.05 56.27 57.80 58.14 57.92 57.18 57.41 56.62 57.30 57.08 56.96 56.81 56.68 56.73 56.58 56.42 55.73 53.94 52.76 49.47
55.68 56.53 56.00 56.35 56.85 56.26 56.22 55.91 56.50 56.75 57.13 56.93 57.27 56.43 56.66 57.93 57.96 57.71 57.33 56.88 56.86 57.04 56.71 56.02 56.15 57.22 57.76 57.78 57.42 57.10 57.27 56.67 56.89 57.18 56.65 56.52 56.69 56.10 55.81 55.61 55.41 54.58 53.44
55.34 56.89 56.58 56.78 57.00 56.75 56.26 56.09 55.76 55.46 56.47 56.92 56.67 56.39 56.09 56.69 57.23 57.45 57.16 57.25 57.55 57.12 56.95 56.63 56.52 57.14 57.07 57.35 56.78 56.81 56.74 56.07 55.94 55.61 55.91 55.94 56.39 56.11 55.99 56.29 56.38 55.75 55.21
54.46 57.06 57.21 57.03 56.81 56.85 56.27 56.32 56.00 55.81 56.00 57.90 57.76 56.48 56.62 55.70 55.52 57.00 57.03 57.38 57.09 57.83 57.65 57.78 56.88 56.83 56.68 56.52 55.80 55.46 56.11 55.41 54.50 54.64 55.23 55.39 56.27 55.18 56.10 55.97 55.49 55.75 55.95
51.98 56.22 57.17 57.05 56.97 57.20 56.60 56.55 56.82 56.42 56.65 57.46 58.01 57.53 56.76 55.92 54.87 55.32 56.27 56.45 57.25 57.27 57.95 57.73 56.91 56.78 56.79 56.50 56.04 56.02 55.65 55.38 55.57 55.89 55.16 52.00 49.93 52.04 48.30 50.11 51.23 51.35 52.47
50.99 52.55 55.62 57.08 57.33 57.56 57.53 57.38 57.10 57.29 57.37 57.43 56.51 56.72 56.25 56.44 56.06 56.04 55.40 55.02 57.12 57.35 56.61 57.74 57.78 57.53 57.19 56.95 56.76 56.83 56.49 56.20 50.30 45.58 42.49 40.60 39.81 39.76 42.24 41.61 40.41 42.70 44.03
48.83 50.56 52.54 54.52 57.31 57.28 57.50 57.77 57.70 57.14 57.90 57.31 56.76 56.09 56.54 56.05 56.13 55.69 55.97 57.04 57.26 57.15 57.21 56.56 57.37 56.96 54.74 49.72 52.21 54.86 52.58 45.41 40.79 39.11 37.95 37.75 37.39 36.60 36.28 37.32 35.61 37.57 37.45
49.87 50.34 50.12 53.83 56.28 57.66 57.48 57.97 57.66 57.72 57.85 57.08 56.83 57.17 57.17 57.17 56.47 56.00 55.82 55.74 56.16 56.69 53.55 45.81 45.30 42.19 40.46 38.30 41.55 43.86 41.56 39.53 37.40 35.95 35.85 36.16 35.44 34.50 34.19 33.76 33.67 33.20 32.93
52.22 52.53 50.77 51.70 54.11 58.15 58.58 57.71 57.57 58.24 57.11 56.93 57.33 57.44 57.56 57.30 56.99 57.09 56.92 56.23 48.08 43.29 40.81 38.84 37.60 35.97 36.19 36.71 37.16 36.60 36.36 35.34 34.53 33.89 33.26 32.89 33.28 33.59 33.32 32.39 32.33 32.27 32.05
51.40 52.34 53.32 53.41 54.32 59.25 58.49 58.30 58.22 57.52 56.88 56.24 57.02 57.78 57.87 57.50 57.02 52.08 44.40 41.40 39.74 37.82 36.28 35.22 34.83 34.05 34.14 34.78 34.81 34.45 33.25 32.04 31.49 31.23 30.83 30.36 30.83 32.21 32.10 32.00 31.17 30.84 30.88
50.85 51.94 51.65 50.63 50.05 52.41 58.75 58.46 57.74 57.13 56.59 56.18 56.26 56.96 57.57 46.64 43.55 39.97 38.18 37.27 35.59 34.41 33.85 33.95 33.32 32.64 32.80 33.56 33.05 32.21 30.68 29.56 29.43 30.22 30.18 30.18 30.47 30.69 31.49 28.76 26.95 26.59 27.58
48.54 50.21 49.24 48.24 46.89 45.66 54.82 55.82 54.94 51.67 46.09 43.96 43.40 44.14 42.95 40.50 38.00 36.20 34.76 34.11 33.28 32.22 32.18 31.71 32.66 33.37 32.80 33.71 33.15 32.06 30.71 28.81 28.10 28.70 29.70 30.60 29.41 29.39 28.22 26.42 25.36 24.27 25.00
45.14 46.25 44.32 42.71 43.98 43.77 44.01 42.17 41.25 40.56 42.10 41.72 40.84 38.62 37.80 36.00 35.12 34.29 33.85 32.26 30.87 30.12 29.33 28.98 29.66 30.30 31.40 32.13 33.26 32.95 30.74 29.18 27.56 27.30 27.74 28.72 29.41 28.67 28.83 28.53 25.82 24.28 24.23
42.24 42.39 40.50 39.73 41.61 40.90 42.28 40.35 38.53 39.34 40.26 39.12 38.55 37.15 35.89 35.11 34.04 32.58 31.82 30.91 29.93 28.73 28.21 27.93 27.95 28.95 29.73 30.75 31.21 30.84 29.97 29.37 27.44 26.64 26.79 27.94 28.77 28.39 27.01 24.86 24.66 23.99 21.75
40.02 40.32 39.47 38.83 38.76 39.10 39.33 38.62 38.22 39.32 39.00 37.79 36.23 35.47 35.01 34.20 32.86 31.51 30.72 29.96 30.19 29.03 28.11 27.63 26.05 25.52 26.37 26.17 28.19 29.68 29.66 28.94 26.19 25.86 26.71 26.37 26.02 24.58 22.91 23.07 21.83 19.91 16.96
37.85 38.54 37.83 36.69 36.06 36.60 36.17 36.00 36.26 36.08 34.61 33.42 32.40 32.19 31.95 31.32 31.83 32.09 31.36 29.78 28.31 26.87 25.74 24.10 21.93 21.85 22.24 22.71 23.86 24.68 24.61 27.38 24.88 23.63 21.96 21.83 21.63 19.85 19.06 18.57 18.34 17.20 15.29
37.74 37.82 36.53 35.53 34.83 35.22 34.89 35.06 34.42 33.21 30.83 29.74 28.81 27.69 27.10 26.35 25.96 25.83 25.59 24.53 25.73 26.13 23.76 23.11 22.70 20.75 20.11 21.93 24.05 24.30 24.14 22.95 21.95 19.52 18.86 17.28 16.48 15.04 14.86 14.68 14.72 14.35 14.09
31.65 34.17 35.41 35.15 35.16 34.76 33.73 33.59 33.04 31.70 29.66 27.43 26.55 25.44 24.58 23.74 23.04 22.07 22.41 26.16 25.33 25.06 24.98 24.50 23.31 23.54 24.23 24.25 24.74 25.02 24.63 23.05 21.03 16.75 13.16 10.78 10.71 11.38 11.61 10.58 10.66 11.68 11.26

GFSMW_sfc_wetblb_108.txt.gz
Wetbulb
50.82 57.51 58.57 58.53 58.28 58.52 58.31 58.11 57.54 58.22 58.12 56.70 58.79 60.76 60.08 61.21 61.37 62.70 63.07 63.76 63.56 63.01 62.09 59.52 59.32 58.30 58.13 55.30 57.66 57.46 55.09 51.91 52.37 51.18 49.90 50.39 52.45 53.81 54.90 55.36 54.86 54.30 54.49
54.47 56.94 57.67 57.89 57.93 57.63 57.93 57.20 58.09 58.32 57.80 57.02 56.98 58.74 59.77 61.53 61.75 62.07 63.17 63.30 62.62 62.40 62.32 60.87 59.89 58.96 57.92 58.16 57.71 56.63 53.44 52.60 51.99 50.26 48.75 46.63 48.49 50.07 51.23 53.62 54.30 53.42 54.37
54.04 55.75 57.03 56.60 56.80 56.84 56.94 57.33 58.37 59.11 58.84 57.42 57.32 56.36 57.94 59.35 60.82 60.74 61.08 62.36 62.25 61.95 62.13 61.74 60.74 60.47 59.30 58.84 57.99 56.82 55.68 53.55 52.20 52.26 49.55 45.49 44.85 46.35 49.32 49.47 51.80 52.77 52.24
55.63 56.53 56.63 55.90 56.44 56.38 56.30 57.31 58.64 58.61 58.67 58.00 57.28 56.64 54.93 56.90 58.56 60.97 61.00 62.01 61.64 61.29 61.50 61.50 61.30 61.24 60.42 59.47 58.51 57.11 55.35 54.46 52.30 51.41 52.61 51.06 50.11 47.65 45.60 47.97 49.11 49.31 52.00
54.91 56.12 56.36 56.65 56.41 55.70 55.90 57.14 58.17 58.34 59.27 58.81 58.42 57.87 57.06 57.45 56.90 58.89 60.06 60.93 61.14 60.77 59.79 59.93 60.27 60.72 60.16 59.33 57.78 56.22 56.42 54.83 53.30 51.76 51.02 50.80 50.78 50.27 46.61 44.49 46.63 47.46 48.92
54.31 56.73 57.35 56.42 55.30 55.88 55.72 56.79 57.58 58.16 58.46 58.45 58.34 57.85 57.42 57.74 57.62 58.43 58.41 59.58 60.31 60.10 59.11 58.89 59.32 60.25 59.63 58.16 57.58 57.25 56.60 55.84 55.18 54.39 52.75 51.72 50.52 49.80 49.10 46.05 46.58 45.91 47.62
52.85 55.82 55.12 55.12 54.65 54.98 55.38 56.28 57.10 56.72 57.76 57.67 58.15 57.85 57.89 58.03 57.87 58.91 59.12 58.76 59.36 59.00 57.88 58.24 58.07 58.58 59.22 59.00 58.51 57.73 56.98 56.62 55.80 54.67 53.87 53.34 51.84 51.97 50.48 49.04 47.31 46.56 47.72
53.45 55.70 55.54 55.53 54.97 55.11 55.30 56.45 56.53 56.58 57.37 57.44 57.97 57.80 56.50 57.55 57.35 58.71 58.81 58.64 58.61 58.75 58.23 58.24 58.25 58.08 58.24 58.20 58.03 57.20 56.72 56.64 56.28 55.72 54.93 54.79 52.90 53.61 52.57 50.98 49.41 47.19 48.07
54.04 55.52 56.08 55.51 55.31 55.03 55.32 55.84 55.90 56.59 57.22 57.63 57.92 57.27 56.99 56.12 57.11 57.23 58.32 57.87 58.46 58.99 58.17 58.09 57.90 58.07 57.81 57.67 57.30 56.78 56.22 56.28 56.16 56.32 56.30 55.92 55.64 55.52 55.30 54.54 53.32 51.61 48.75
54.11 55.97 56.23 55.46 55.87 55.45 55.91 55.42 55.76 56.23 56.96 57.72 57.56 57.03 56.46 56.50 56.54 56.45 56.64 57.47 57.85 57.67 57.16 57.53 57.55 57.62 57.68 57.54 57.06 56.40 56.56 56.02 56.29 56.44 56.02 55.84 56.27 56.14 56.08 56.05 55.44 54.37 53.03
51.12 55.44 55.91 56.50 55.80 55.85 55.46 55.17 55.10 55.35 56.30 56.76 57.12 56.43 56.10 56.60 56.95 56.79 56.62 56.14 57.22 57.17 56.44 56.34 56.44 56.87 57.42 57.49 56.86 56.36 56.30 55.85 55.47 55.24 54.98 55.38 55.94 55.64 55.74 55.66 55.62 54.65 53.79
49.49 53.79 55.26 56.36 55.23 55.12 55.05 54.85 54.81 55.00 55.81 56.73 57.03 56.56 55.70 56.63 57.04 57.02 56.68 56.41 55.93 56.71 56.39 56.00 55.66 55.87 56.58 56.67 56.46 56.00 56.18 55.67 55.09 55.37 55.05 54.99 55.73 55.21 55.85 54.68 53.56 54.44 54.89
49.25 52.34 55.69 55.60 55.31 55.03 55.16 54.94 55.10 54.62 55.40 56.36 56.38 56.50 55.40 55.16 55.70 56.30 56.24 56.39 56.17 56.13 56.27 55.91 55.30 55.52 55.96 56.14 56.17 55.93 55.42 54.91 55.35 54.92 54.12 52.60 49.74 51.69 47.01 47.39 46.72 46.56 47.91
49.95 51.93 55.19 55.83 55.60 55.84 55.51 55.31 55.02 55.33 55.59 56.33 56.99 55.40 54.99 54.42 55.05 56.02 55.94 56.21 56.41 56.39 56.27 56.07 56.17 55.88 55.90 55.51 55.34 55.07 54.46 54.38 48.69 43.81 41.00 39.11 38.35 39.36 41.47 39.72 39.65 41.42 41.90
50.91 51.71 53.88 54.65 55.92 56.02 55.72 55.90 55.79 55.60 55.77 55.82 56.06 56.19 55.69 55.09 54.06 54.63 55.07 55.52 56.27 56.39 56.84 56.37 56.22 55.99 55.87 53.90 55.09 54.93 54.24 43.92 39.38 38.49 37.35 36.98 36.82 36.22 35.92 35.81 35.04 36.61 36.28
51.13 51.66 52.54 53.65 56.71 56.84 56.60 56.68 56.32 55.84 56.17 55.55 55.46 55.63 56.30 56.09 54.69 54.38 54.28 53.77 54.53 55.44 52.06 49.59 45.23 41.91 41.59 38.96 41.49 44.08 41.43 39.28 37.08 35.25 34.59 34.59 34.78 34.05 33.75 33.35 33.00 32.49 32.67
49.27 50.54 50.54 50.32 49.84 57.06 57.66 56.80 56.67 56.75 56.36 55.93 55.93 55.84 55.70 55.41 55.07 55.07 55.05 53.06 45.64 42.80 40.47 39.15 38.14 36.53 36.99 37.66 38.06 37.30 36.73 34.94 34.06 33.38 33.09 33.08 33.23 33.38 32.51 32.47 32.22 32.07 32.13
47.99 49.18 48.60 47.71 47.48 47.53 57.35 57.78 57.65 57.08 56.49 56.15 56.26 56.23 56.10 55.54 55.48 51.69 44.47 41.54 39.85 37.78 36.27 35.03 34.63 33.97 34.29 34.91 34.79 33.85 32.65 31.39 31.09 31.40 31.58 31.41 31.27 32.00 31.80 30.20 29.22 29.84 30.48
47.14 47.49 46.52 45.67 45.20 45.49 50.68 57.72 56.98 57.12 56.52 55.75 56.05 56.37 56.23 49.53 44.49 40.87 38.72 37.42 35.75 34.74 34.00 33.73 32.91 32.19 32.16 33.23 33.08 31.80 30.56 29.73 29.87 30.43 29.22 28.68 28.51 29.99 31.10 28.79 26.77 25.75 25.89
44.47 44.34 43.43 43.48 42.99 43.84 46.03 53.97 53.42 55.14 48.95 46.58 46.90 49.04 45.52 42.66 39.08 37.00 35.74 35.28 34.30 33.14 32.97 32.36 32.69 32.78 31.89 32.83 32.28 30.87 29.43 28.29 28.46 28.79 28.80 29.73 29.07 29.44 28.84 26.58 23.76 22.02 22.58
41.37 42.03 40.90 39.98 40.84 42.67 43.41 41.68 42.16 40.87 44.13 43.20 42.76 42.25 40.69 37.78 36.11 34.69 34.03 32.71 31.65 31.07 30.73 30.32 31.10 31.57 32.35 32.60 32.27 31.09 29.24 28.32 27.73 27.52 27.37 28.38 28.09 27.03 26.39 25.23 22.31 20.82 20.66
38.81 39.34 38.70 38.37 39.56 41.65 42.23 39.87 39.57 41.39 41.77 40.50 38.60 37.06 36.09 35.65 34.49 32.86 32.01 31.41 30.45 29.23 28.46 28.12 28.13 29.41 29.88 30.86 31.14 30.93 30.28 29.79 27.89 27.05 27.25 26.65 26.50 24.97 23.88 21.62 21.23 20.14 18.05
37.54 38.14 37.21 36.69 36.91 37.94 39.37 38.22 39.69 39.54 38.31 37.20 36.12 34.74 33.94 33.07 32.72 31.46 31.27 29.49 29.37 28.15 27.20 25.98 24.32 24.29 25.98 29.34 30.35 29.22 28.17 27.23 25.41 25.97 25.11 24.40 23.38 22.13 20.83 20.23 18.86 17.54 14.91
37.43 37.64 36.39 34.76 34.17 35.09 35.26 35.62 36.25 36.24 35.18 33.96 33.19 33.29 32.51 32.09 31.37 30.74 30.31 28.70 27.14 25.52 24.64 23.33 22.02 22.56 23.40 24.38 26.04 25.86 24.81 24.64 22.83 22.18 20.75 20.20 19.67 18.31 17.44 16.66 16.45 15.56 14.39
36.41 36.42 34.61 33.47 32.42 33.00 32.70 33.01 32.79 32.31 30.37 29.67 28.98 27.81 27.15 25.79 25.22 25.91 25.56 25.26 25.84 25.09 22.65 22.14 22.39 21.39 21.47 24.02 25.72 24.09 22.01 20.63 20.02 18.47 17.84 16.38 15.03 13.84 13.59 13.19 12.98 13.21 12.33
31.86 32.21 33.93 33.20 32.55 31.96 31.06 31.19 31.34 30.01 27.92 26.38 25.50 24.83 24.16 23.56 23.09 22.64 22.81 26.80 26.29 26.58 26.28 25.54 24.15 24.94 26.91 27.09 25.75 24.39 22.94 21.34 19.55 14.94 12.29 10.61 10.78 10.27 10.38 9.61 9.89 10.39 9.67

GFSMW_sfc_wetblb_111.txt.gz
Wetbulb
49.70 49.94 56.92 57.38 57.79 58.85 58.92 58.78 58.60 58.20 58.92 59.06 59.68 59.45 59.29 60.95 61.18 62.30 61.99 61.84 62.46 61.66 59.29 57.53 56.71 55.35 52.92 52.25 54.14 54.07 53.55 51.34 52.97 50.97 50.49 50.35 53.04 53.17 53.56 53.79 53.87 53.88 54.30
47.49 54.44 55.42 57.07 57.67 58.22 58.43 58.11 58.63 58.10 57.58 58.14 58.94 60.16 60.09 60.93 61.42 62.08 63.00 62.76 62.68 61.74 59.83 57.35 56.63 55.06 53.23 52.71 54.72 55.25 52.34 51.86 52.67 50.84 49.16 45.94 48.04 51.36 52.64 53.18 54.10 53.10 53.52
46.51 52.88 55.74 56.02 57.17 57.17 57.37 57.79 57.78 58.16 56.84 56.48 56.56 57.64 59.57 60.43 60.20 60.88 61.47 62.54 62.84 62.09 60.62 58.02 57.34 55.75 55.30 53.40 55.51 55.71 55.16 52.51 50.64 52.53 49.50 45.89 45.17 47.35 48.55 51.56 53.05 53.10 52.39
49.39 54.14 56.20 55.50 55.74 57.07 57.46 57.29 57.78 57.30 56.82 56.70 55.85 57.24 58.20 58.22 59.67 60.22 61.46 62.05 62.65 62.47 62.01 59.31 58.18 56.59 56.59 54.63 55.94 57.07 55.92 53.35 51.29 50.41 51.11 50.58 49.51 46.52 45.27 48.18 49.06 52.74 52.79
50.85 53.84 56.03 56.43 56.57 56.59 56.58 56.94 57.46 57.55 58.06 57.26 56.44 55.38 54.07 56.42 58.80 60.44 60.17 61.30 61.67 62.14 62.01 61.28 59.14 58.15 57.46 57.73 56.48 57.03 54.88 54.53 53.13 51.82 50.65 50.65 50.54 49.29 46.99 44.64 46.04 48.26 49.90
48.34 51.99 56.20 56.74 56.20 55.31 55.45 56.42 56.58 57.65 58.57 58.31 56.18 55.60 54.46 54.87 55.51 57.70 58.97 60.16 61.04 61.24 61.31 61.58 60.54 60.20 59.35 58.81 57.96 56.87 55.28 54.41 53.28 53.07 52.10 51.35 50.41 49.59 48.80 47.15 46.32 46.75 48.50
51.32 50.08 54.11 55.14 55.28 54.49 55.05 56.12 56.66 56.74 57.89 58.06 57.36 56.42 56.51 57.44 56.08 55.90 57.13 58.15 59.84 60.00 60.24 60.41 60.34 60.59 60.34 58.58 57.32 56.71 55.91 55.43 54.02 54.30 53.30 52.91 52.30 52.03 51.34 50.63 49.17 48.22 49.42
50.83 53.23 54.69 55.26 54.73 55.06 54.96 55.86 56.28 57.02 57.39 57.55 57.56 57.93 57.70 57.84 58.03 57.89 57.95 58.82 58.71 59.89 59.39 59.20 59.99 60.42 59.06 57.87 57.62 57.00 56.67 56.62 55.96 55.39 54.84 54.72 53.96 53.22 51.96 50.70 50.39 47.20 47.86
49.50 52.14 55.27 55.33 55.08 54.88 54.94 55.38 55.64 56.77 57.09 57.24 56.91 57.55 57.70 57.61 57.86 58.36 59.29 59.51 60.04 59.58 59.29 58.94 59.09 59.41 58.95 58.46 57.89 57.11 56.80 56.80 56.74 56.46 55.59 55.21 55.45 54.62 54.41 53.57 52.26 50.84 48.43
48.16 50.82 55.40 55.00 55.06 55.51 55.42 55.66 55.88 56.19 55.90 57.21 57.36 56.84 57.13 56.93 56.91 57.85 57.67 58.18 58.88 58.59 58.59 58.37 58.52 58.65 58.61 58.39 58.03 57.30 56.88 56.15 56.03 55.97 55.43 55.40 56.10 55.88 55.48 55.16 54.81 53.89 52.21
49.33 50.38 53.00 55.43 55.22 55.26 55.60 55.42 55.12 55.38 55.40 56.92 57.40 55.80 56.81 56.48 56.20 56.04 57.43 57.61 57.82 58.19 57.82 57.77 57.65 57.47 57.40 57.67 57.28 56.84 56.52 55.62 55.19 55.59 55.46 55.05 55.77 55.70 55.64 55.23 55.18 54.51 53.98
49.61 50.18 50.83 55.00 54.39 54.84 55.40 55.04 54.69 55.16 55.64 56.33 57.07 56.44 56.38 56.81 56.32 55.78 55.72 56.97 56.78 57.13 57.26 57.38 57.49 56.97 56.77 56.44 56.18 55.74 56.34 55.54 54.75 54.82 54.52 54.28 54.55 54.33 54.66 54.23 53.90 53.69 53.68
48.90 49.30 50.84 54.95 55.10 55.20 55.64 55.24 54.23 54.53 54.99 55.81 56.68 56.47 56.55 56.55 56.30 55.92 55.94 55.82 56.55 56.55 56.43 56.31 56.22 56.40 56.40 56.48 56.28 56.06 55.58 55.52 55.26 54.45 53.97 49.53 48.75 49.62 47.38 47.22 46.76 46.17 46.82
48.58 51.25 52.26 54.77 55.32 55.38 55.30 55.41 55.16 54.24 54.85 55.04 55.84 55.63 55.82 56.28 56.12 55.80 55.66 54.66 55.44 55.84 55.68 55.89 56.05 56.19 56.59 56.69 56.17 55.99 54.67 52.02 45.80 42.45 40.45 39.23 39.43 40.85 41.51 40.24 40.24 41.46 41.24
50.51 50.84 50.58 54.08 55.42 55.64 55.64 55.77 55.20 54.14 54.49 54.61 54.97 54.83 55.81 55.52 55.52 55.11 55.30 55.90 55.24 55.14 55.44 55.20 55.16 55.06 54.99 54.27 54.11 54.05 51.39 42.88 38.89 37.77 36.84 36.60 36.69 36.24 36.21 35.90 35.21 36.45 35.87
48.69 49.80 49.58 50.18 50.79 52.78 56.03 55.91 55.48 54.63 54.49 54.43 55.24 54.91 55.22 53.97 54.00 54.21 54.49 55.36 55.52 54.60 54.33 51.64 48.73 45.89 44.11 39.65 44.01 45.99 42.80 39.51 36.67 34.82 34.69 34.59 34.62 33.95 33.85 33.21 32.55 32.25 32.01
47.81 48.46 47.54 47.58 48.13 48.27 50.61 56.48 56.22 56.12 54.79 54.49 54.39 55.71 54.62 53.47 52.83 53.64 53.36 53.20 48.02 45.50 42.49 41.01 40.05 38.24 38.82 38.85 39.18 38.25 37.52 35.66 34.57 33.77 33.13 32.82 33.20 32.76 31.88 31.92 31.73 31.72 31.41
46.37 46.98 45.76 45.76 45.97 46.33 48.40 54.22 57.12 56.04 55.68 55.06 54.89 54.99 54.43 53.75 53.45 51.90 46.38 42.43 41.47 39.52 37.44 36.23 35.92 35.25 35.55 36.27 35.58 34.32 33.22 32.29 32.20 32.17 32.01 31.76 30.86 30.88 30.10 28.60 28.29 28.91 28.40
44.65 44.69 44.27 43.88 43.95 44.26 46.27 53.91 56.68 56.50 55.93 55.54 55.30 55.28 54.73 50.90 46.26 42.18 39.47 38.49 37.02 35.59 34.48 34.25 33.62 32.84 32.93 34.04 33.77 32.80 30.86 29.33 28.56 28.78 29.47 29.85 30.21 31.36 30.75 26.85 25.54 25.24 24.64
41.64 41.68 41.79 41.83 42.40 43.36 47.48 48.87 52.71 54.21 53.27 54.66 54.52 53.54 48.59 44.96 40.87 38.64 37.05 36.13 35.07 33.34 32.94 32.14 32.49 32.58 31.70 33.21 33.24 31.81 29.38 27.46 27.40 28.52 29.02 29.69 28.31 28.06 27.24 25.37 23.51 19.92 19.30
39.15 40.05 39.58 38.25 39.69 42.37 44.09 45.25 44.90 42.56 42.07 43.45 45.64 45.12 44.46 42.08 38.97 36.57 35.73 34.57 33.14 32.41 31.78 31.27 31.72 31.40 31.57 31.66 32.27 31.37 28.77 27.68 27.36 26.48 25.68 26.57 26.58 25.67 24.59 23.15 21.40 19.44 19.64
37.64 38.53 38.11 36.96 37.90 40.04 41.01 41.14 41.95 42.21 40.63 38.96 38.21 37.74 37.40 37.01 35.88 34.13 33.24 32.59 31.59 29.88 29.19 28.67 28.67 29.73 30.58 31.63 31.58 31.23 30.25 29.45 26.32 24.85 24.92 24.63 24.21 23.12 21.94 20.47 20.26 19.10 17.30
37.47 37.71 36.38 35.66 35.55 36.50 38.06 36.65 38.10 40.55 37.45 35.51 34.24 33.55 33.43 33.16 33.56 32.71 31.16 30.13 29.75 28.64 28.15 27.52 26.84 27.15 28.31 28.74 30.07 29.92 28.81 27.24 24.83 24.68 24.58 23.90 22.28 21.08 20.03 19.68 18.31 15.96 14.46
36.29 35.92 34.70 33.53 32.76 33.42 33.57 34.58 35.47 35.82 34.56 33.15 32.29 31.60 30.47 29.75 29.92 29.96 30.24 28.89 27.09 26.08 25.77 24.64 24.07 24.57 24.46 24.52 24.94 25.17 24.82 25.05 22.64 20.99 19.74 18.96 18.43 16.60 16.23 15.97 15.32 14.25 13.39
34.25 34.83 32.99 31.97 31.28 31.65 31.31 31.79 31.86 31.05 28.56 27.62 27.20 26.35 25.87 25.44 25.16 25.61 25.10 24.57 25.30 25.27 24.10 24.41 24.72 23.60 22.71 23.76 23.85 22.59 21.25 20.65 20.15 18.59 17.32 15.60 14.57 13.34 12.91 12.43 12.01 11.92 11.34
31.40 32.71 32.35 31.15 30.52 30.20 29.70 29.54 29.84 28.85 27.14 25.63 24.82 24.62 24.72 24.94 24.58 24.02 23.89 27.38 26.94 27.40 27.85 28.08 26.75 26.35 26.91 26.71 25.75 24.75 23.58 22.05 19.89 15.18 12.52 11.23 11.11 10.59 9.82 8.71 8.74 9.13 8.89

GFSMW_sfc_wetblb_114.txt.gz
Wetbulb
47.10 47.17 49.83 54.13 56.57 58.74 58.80 59.37 59.52 58.80 59.44 60.08 59.97 59.89 58.84 59.76 61.17 61.35 61.38 61.16 61.28 61.39 61.08 58.66 57.28 56.03 54.07 53.09 53.40 53.60 52.82 51.30 52.93 51.55 50.66 50.64 53.15 52.93 53.53 54.33 54.67 55.10 55.20
47.00 47.71 49.17 54.43 56.05 58.14 58.59 58.79 59.18 58.84 60.28 60.46 60.29 59.79 59.63 60.64 61.02 61.06 61.03 61.02 61.55 60.24 59.38 58.03 57.04 55.06 53.09 52.29 52.76 53.62 51.78 51.33 53.46 50.71 49.63 48.41 50.11 51.88 52.86 53.23 53.94 53.87 54.85
44.47 46.40 47.86 53.61 54.83 56.92 57.73 58.44 58.55 59.17 59.68 59.64 59.90 59.71 59.83 60.15 60.22 60.65 60.22 61.04 61.32 59.88 58.62 57.95 56.83 55.00 52.66 51.90 52.55 53.67 53.56 51.31 51.03 54.09 50.42 46.22 47.17 48.93 49.65 51.90 53.66 53.80 53.48
45.17 46.44 47.29 53.06 54.40 56.71 56.33 57.53 58.35 59.12 57.46 57.54 59.16 58.99 58.39 57.69 59.58 59.68 61.22 60.74 61.48 60.37 58.75 57.78 56.80 54.92 52.92 51.84 52.82 54.25 54.18 52.55 50.95 50.63 50.95 50.62 49.30 47.62 45.67 49.02 51.32 53.09 52.96
47.61 48.55 49.66 54.24 54.64 56.07 55.67 57.00 58.59 58.38 57.52 57.32 57.87 58.51 57.79 58.55 59.75 60.33 60.16 61.28 61.53 61.02 59.69 58.12 57.24 55.36 54.45 52.64 53.48 54.31 54.33 53.17 53.29 51.09 50.40 50.36 50.48 49.18 47.15 45.73 47.64 48.87 52.04
48.20 49.44 51.53 53.49 54.20 55.75 55.29 57.43 57.34 57.57 57.44 56.53 54.89 55.77 54.55 57.30 58.78 59.38 59.52 60.18 61.15 61.36 60.88 58.91 57.98 56.33 55.48 54.05 53.87 55.87 55.02 54.00 54.51 52.51 51.49 50.93 50.30 49.66 48.56 47.10 47.07 47.64 49.70
47.19 47.81 49.44 53.35 54.92 55.94 55.78 56.77 56.86 56.91 57.36 56.43 55.81 54.25 54.16 56.61 57.79 58.79 59.48 59.54 60.04 60.47 60.76 60.55 58.60 57.95 56.21 57.07 55.51 56.41 55.14 53.94 53.61 52.44 52.29 52.70 52.14 52.29 51.33 50.64 48.97 48.89 50.45
47.40 48.39 50.19 52.60 55.38 55.93 55.66 56.28 56.20 56.57 56.71 56.65 56.41 56.15 54.70 55.35 55.01 55.76 57.69 58.81 59.99 60.54 61.14 61.37 60.06 59.00 57.66 58.29 57.28 56.43 56.08 54.93 54.31 53.96 54.23 53.89 53.33 53.10 52.19 51.10 50.23 48.53 48.76
47.02 48.04 49.85 51.06 54.09 55.36 55.22 55.83 56.20 56.79 56.31 56.21 57.61 57.52 57.67 57.56 57.09 56.43 55.98 56.85 58.60 59.61 60.40 61.17 60.93 59.84 59.16 58.23 57.44 56.32 55.72 55.16 55.08 55.10 55.31 54.96 55.17 54.79 54.53 53.28 52.23 50.33 47.30
46.59 48.27 49.52 50.89 51.89 55.22 55.97 55.90 56.52 56.73 56.57 56.41 57.28 57.29 57.48 57.48 57.82 56.87 57.97 57.70 59.16 59.59 59.66 59.79 60.45 60.28 59.62 58.50 57.68 56.59 56.43 55.81 55.70 55.80 55.64 55.43 55.53 55.31 55.01 54.46 53.93 53.17 51.83
47.07 48.15 49.42 50.55 52.10 55.77 55.89 55.70 56.02 56.38 56.14 56.48 57.12 57.07 57.03 56.89 57.15 57.43 57.65 58.16 58.62 58.96 59.21 59.15 59.35 59.09 58.44 58.19 57.54 57.05 56.90 56.07 56.21 56.18 55.48 55.36 55.81 55.33 55.39 55.15 55.07 54.35 54.17
47.87 49.43 51.10 52.13 53.55 54.90 55.56 55.60 55.72 55.87 55.71 54.91 57.05 57.03 56.95 56.81 56.29 56.29 57.07 57.52 57.32 58.04 58.25 58.37 58.69 58.53 58.41 58.01 57.69 56.71 56.73 56.27 55.53 55.37 55.21 54.83 55.17 54.57 55.05 54.51 54.03 54.23 54.24
47.10 47.72 51.15 51.03 54.42 54.94 55.16 55.22 55.54 55.32 55.59 54.77 56.36 56.15 56.49 56.45 56.08 56.08 56.29 56.86 56.51 56.84 57.18 57.32 57.14 57.46 57.60 57.63 57.47 57.07 56.55 55.98 55.64 55.25 54.91 54.37 53.89 53.24 50.60 50.12 50.02 47.88 47.02
47.14 47.68 50.23 50.38 52.01 55.60 55.48 55.02 55.44 55.59 55.22 54.86 56.16 55.82 56.35 56.41 56.23 56.12 55.81 55.99 56.37 56.13 56.29 56.53 56.37 56.29 56.49 56.65 56.67 56.31 55.63 51.70 46.91 44.12 43.25 43.09 44.80 45.23 44.24 42.56 41.75 42.56 40.57
46.43 46.69 49.31 49.31 49.16 51.33 55.84 55.88 55.30 54.97 54.89 54.34 54.96 55.02 56.06 56.47 56.21 55.61 55.37 55.38 56.06 55.96 55.88 55.94 56.11 56.27 56.27 55.89 55.89 54.30 47.34 41.39 38.54 37.61 37.17 37.45 38.26 37.84 38.11 37.90 37.69 37.91 36.13
46.77 47.58 49.72 48.68 47.74 48.31 49.21 55.76 55.14 54.49 54.67 54.04 54.20 54.80 55.46 55.47 55.57 55.11 55.23 55.21 55.08 55.30 54.94 52.95 51.34 49.02 47.18 42.92 44.55 45.92 42.36 39.52 36.75 34.64 34.42 34.45 34.47 33.73 33.82 33.28 32.83 33.68 33.06
47.17 47.42 47.29 46.13 46.43 46.23 47.43 48.52 55.40 54.85 53.83 54.42 54.92 54.43 54.78 54.30 54.73 54.83 54.99 54.04 49.22 47.81 44.90 43.52 44.01 41.50 41.68 40.38 40.34 39.21 39.02 36.81 34.87 33.52 32.88 32.36 32.76 32.23 31.67 31.15 30.42 29.67 29.06
44.74 44.33 44.20 43.87 44.26 44.86 45.71 47.58 50.33 55.16 54.43 54.15 54.75 55.00 54.67 53.73 53.76 53.24 46.56 43.51 42.05 40.62 38.98 37.39 37.17 36.39 36.57 37.72 36.84 35.95 35.06 33.85 33.29 32.86 32.26 31.08 30.22 30.71 29.56 27.82 25.81 25.19 25.15
41.83 41.57 42.44 41.81 42.09 43.25 44.50 46.96 49.83 55.54 54.67 53.91 53.93 54.24 54.39 52.51 48.41 44.29 41.20 39.52 38.00 36.22 34.95 34.88 34.39 33.59 33.52 34.62 34.31 32.83 31.16 29.94 29.96 30.82 30.89 30.49 29.60 30.77 30.38 25.82 23.25 22.47 23.30
39.78 39.50 40.41 40.29 39.99 40.69 43.42 47.00 53.21 54.99 54.05 54.14 53.78 53.57 51.57 48.48 44.22 40.77 38.57 36.91 35.30 33.61 33.28 32.20 32.78 33.20 32.53 33.56 33.01 31.97 30.52 28.68 27.76 28.01 28.34 29.04 28.08 28.09 26.87 24.16 22.28 19.75 19.61
37.99 39.23 39.67 37.86 37.34 39.43 41.98 43.34 42.65 41.69 44.41 45.78 46.87 47.41 46.84 43.44 40.46 37.78 36.56 34.84 33.26 32.30 31.10 30.52 31.09 31.41 31.51 31.66 32.49 31.93 29.37 27.31 25.83 24.68 24.26 25.27 26.20 25.56 24.83 23.59 21.37 19.35 19.14
37.49 37.61 36.86 35.86 35.40 36.68 39.18 38.90 38.57 38.97 39.56 39.56 38.54 37.75 38.20 38.09 36.82 34.94 33.88 33.20 31.98 30.49 29.60 29.20 29.41 30.36 30.93 31.44 31.17 30.02 28.80 27.49 23.89 22.44 23.06 23.97 24.53 23.63 22.47 20.80 20.75 19.69 17.68
36.31 36.16 34.98 34.11 33.56 33.88 35.21 34.84 36.19 36.97 35.47 35.03 33.95 34.18 34.18 33.76 33.46 32.29 31.42 30.24 30.14 29.17 28.52 27.97 27.36 27.79 29.06 29.02 29.56 28.44 27.27 25.97 23.50 23.86 24.18 23.87 22.82 21.51 20.05 19.49 18.11 15.97 14.65
34.76 34.74 33.42 32.06 31.32 31.81 31.99 32.33 34.16 34.66 32.50 30.88 30.09 30.70 30.88 30.01 30.13 30.73 30.27 29.20 28.99 28.26 26.73 24.88 23.44 23.86 24.30 25.17 25.79 25.36 24.89 24.97 22.18 20.27 18.45 18.12 18.23 16.21 15.52 15.44 15.03 13.82 12.91
33.05 33.45 31.83 30.93 30.18 30.48 29.84 30.42 30.58 30.15 28.11 27.41 27.39 27.13 26.75 26.12 25.76 25.93 25.82 25.86 26.76 27.11 25.19 24.64 24.39 22.52 21.02 22.07 23.13 21.84 19.98 19.33 19.09 17.86 16.82 15.10 14.40 12.95 12.33 12.23 11.92 12.16 10.89
30.36 30.32 30.16 29.53 28.70 28.73 27.96 28.24 29.16 28.76 27.51 26.77 26.50 26.15 25.66 25.52 25.63 25.35 25.49 29.08 28.55 28.67 28.35 27.48 25.68 25.02 25.88 26.23 25.82 24.85 23.68 22.07 20.10 15.19 12.63 11.40 11.30 10.29 9.50 8.97 8.93 9.16 8.28

GFSMW_sfc_wetblb_117.txt.gz
Wetbulb
51.09 51.96 52.93 53.74 54.94 59.60 60.65 62.09 62.77 63.12 62.92 61.42 60.40 60.15 59.30 59.20 60.35 61.42 62.18 63.01 62.89 62.82 62.83 62.48 59.86 59.70 57.87 59.37 60.72 59.17 58.56 58.54 59.84 57.48 57.01 57.79 58.85 59.40 59.62 60.65 60.42 60.37 60.44
49.60 52.07 53.91 53.64 56.23 59.32 61.28 61.97 62.47 61.71 63.07 62.83 62.11 62.20 60.83 61.20 60.76 62.34 62.76 62.69 62.68 61.59 62.02 61.60 59.35 58.55 57.77 57.55 57.94 58.74 58.06 58.24 58.95 57.46 56.62 53.09 55.18 57.42 58.31 59.15 59.55 59.76 60.08
51.53 53.14 53.96 55.10 56.52 58.66 60.58 61.23 62.15 61.00 63.05 63.48 62.66 62.70 61.65 61.47 61.17 61.48 61.37 61.58 61.16 61.60 60.43 60.12 59.35 57.91 56.37 55.78 58.43 58.96 58.56 56.21 57.97 59.40 57.66 53.45 53.21 54.40 57.10 57.73 58.73 59.26 59.19
52.86 53.03 53.21 54.04 56.77 57.80 61.25 61.84 61.47 61.09 61.68 62.74 62.04 61.18 59.71 58.35 60.16 61.30 60.99 61.33 60.44 59.69 59.58 59.43 57.91 56.56 56.22 55.61 58.28 57.83 57.89 57.31 56.45 57.86 57.18 59.58 57.36 54.38 51.18 55.46 57.46 58.78 58.23
52.00 51.83 52.90 53.99 57.02 58.58 60.21 61.57 61.16 60.26 59.87 60.72 61.42 61.46 59.50 59.80 62.46 62.13 60.64 61.67 61.27 59.34 59.15 58.15 57.10 55.27 55.39 57.12 57.04 58.47 59.03 59.61 58.59 57.49 56.06 56.14 56.06 56.87 54.91 52.95 54.05 56.45 58.04
52.24 52.41 53.76 54.72 55.90 59.15 59.61 60.12 60.10 58.90 58.60 59.64 60.39 60.64 59.60 59.20 60.35 60.97 60.07 61.22 60.96 60.02 59.41 57.84 56.86 55.37 55.12 55.63 56.53 57.29 58.49 58.85 59.42 59.49 57.81 56.36 55.23 54.40 54.47 53.80 54.93 55.72 56.21
50.45 51.08 52.07 53.05 54.32 57.23 56.89 58.09 58.55 57.68 58.41 58.81 59.51 59.71 60.26 61.31 60.92 60.54 60.95 59.66 60.58 60.81 59.46 59.08 57.30 56.55 56.35 55.79 56.24 57.31 57.88 58.48 58.48 58.75 57.92 58.06 57.55 57.11 56.61 55.62 53.03 52.45 55.08
50.02 50.71 52.05 52.98 53.84 54.92 57.65 56.94 57.11 57.30 57.79 58.77 59.30 60.71 61.51 61.03 61.31 61.22 61.38 60.81 60.28 60.52 61.28 60.23 59.68 57.86 56.78 55.41 56.51 57.60 57.47 58.41 58.92 58.58 58.45 57.94 56.61 57.12 56.48 54.48 54.37 52.21 53.96
49.54 50.72 52.43 53.29 54.88 54.93 55.89 56.44 56.85 57.52 57.98 58.27 59.63 60.09 59.97 58.95 58.69 59.06 60.01 61.36 61.23 61.65 61.27 60.42 60.13 59.80 57.27 57.83 57.47 58.19 57.87 58.69 58.48 57.61 57.81 57.11 57.23 57.50 56.81 56.38 55.35 53.36 49.88
49.92 51.04 52.78 53.95 54.70 57.03 57.01 57.98 57.17 57.18 57.76 58.63 59.97 60.21 60.32 59.97 59.36 59.53 59.02 59.67 59.98 60.26 60.66 61.00 60.53 59.34 58.56 57.80 56.87 56.85 58.16 57.06 57.21 56.81 56.44 56.65 56.86 56.74 56.06 55.33 55.37 54.04 52.51
49.73 50.07 51.76 53.62 53.54 55.86 58.20 57.25 56.80 57.17 57.22 58.85 59.89 59.93 58.92 59.04 58.97 58.62 59.19 60.23 60.53 60.94 60.52 60.65 60.45 59.61 58.59 57.80 57.03 56.71 56.55 55.35 55.31 55.47 55.03 55.33 55.95 55.72 55.12 55.50 55.08 54.26 53.68
50.06 49.94 51.47 52.50 52.55 51.01 56.09 56.67 56.72 56.57 57.10 58.81 59.10 59.20 58.88 58.27 57.83 58.04 58.94 60.00 59.22 60.07 59.98 59.68 59.53 59.43 59.55 58.26 57.13 55.96 55.66 55.11 54.72 55.05 55.27 55.11 55.57 55.39 55.43 55.05 54.69 54.87 55.25
48.88 49.12 49.84 49.72 50.81 50.65 50.53 56.16 56.24 56.27 56.48 57.56 58.51 58.25 58.51 57.40 57.42 58.11 58.08 58.90 58.70 58.18 58.17 58.46 58.21 58.11 59.31 58.28 57.63 56.75 55.88 55.73 55.25 55.43 55.23 55.37 55.13 54.65 54.73 54.95 54.54 53.98 50.65
48.69 48.90 49.29 49.12 50.13 50.66 49.88 52.03 55.95 56.24 56.30 56.92 57.84 57.81 57.84 57.24 57.29 57.44 57.37 58.34 57.92 56.84 56.94 57.10 57.33 57.65 58.09 57.96 57.72 57.08 56.46 56.28 55.91 55.27 55.05 54.38 54.51 54.35 52.33 49.53 47.57 45.22 44.25
48.30 48.82 49.24 49.81 49.66 49.08 48.86 49.16 54.91 56.12 56.20 56.10 57.17 57.51 58.02 57.62 57.31 56.90 57.03 57.00 57.06 57.09 56.82 56.48 56.14 56.48 56.50 56.91 56.60 54.18 47.64 44.02 40.79 39.74 39.13 39.33 39.59 38.56 39.21 41.87 41.27 40.90 38.82
48.84 49.36 49.60 48.92 46.74 46.54 46.80 47.21 49.07 55.69 55.98 55.86 56.74 57.57 57.33 56.86 56.80 56.24 56.22 56.14 56.08 56.03 55.23 54.46 53.09 51.32 49.20 42.24 42.44 45.30 42.64 39.76 37.29 34.74 34.29 34.57 34.54 33.41 33.02 32.09 31.55 33.56 34.12
46.88 45.98 45.75 45.74 44.77 44.29 44.93 45.97 47.47 50.69 55.01 55.09 56.50 56.28 56.49 56.03 55.95 56.06 55.75 55.10 51.75 49.33 46.71 45.37 44.96 42.19 42.39 40.43 39.79 38.77 38.63 36.12 34.64 33.38 32.60 32.07 32.05 31.22 29.53 29.12 28.68 28.09 27.55
43.37 43.34 42.66 43.21 43.81 43.75 43.94 44.74 46.60 49.43 54.73 54.86 55.32 55.65 55.88 55.45 55.67 55.02 49.52 46.24 45.17 43.69 41.48 39.02 38.25 37.49 37.36 37.48 36.83 35.89 34.89 33.51 32.97 32.50 31.84 30.84 29.73 29.19 27.96 26.24 24.35 23.87 24.10
41.36 41.22 41.56 42.30 41.94 42.23 41.62 43.32 46.46 50.63 54.29 54.42 54.52 54.71 55.69 54.32 52.23 47.16 43.53 41.15 39.41 37.49 36.23 36.14 35.46 34.34 34.08 35.16 34.99 33.81 32.29 30.87 30.35 30.53 30.88 30.00 28.59 29.18 29.22 24.69 22.98 21.92 22.34
39.92 39.84 40.74 40.76 39.56 38.93 40.26 42.52 42.75 45.83 53.69 53.99 54.38 55.10 55.03 51.71 47.39 42.67 39.99 38.30 36.28 34.13 33.60 32.93 33.33 33.48 32.91 34.10 34.05 33.15 31.59 29.10 27.87 28.13 28.91 29.01 27.74 27.32 26.63 24.11 22.10 19.37 18.88
38.80 38.91 38.74 36.77 36.16 36.71 38.11 38.61 38.59 37.19 39.33 46.25 52.50 51.85 50.68 46.85 42.93 39.38 37.34 35.19 33.69 32.66 31.79 31.08 31.37 31.96 32.60 32.91 33.10 32.10 29.47 27.32 25.76 25.48 25.50 26.54 26.84 25.90 24.97 23.95 21.78 19.75 20.01
37.01 36.88 35.94 34.94 34.58 34.76 35.18 35.13 35.26 36.67 37.67 38.63 40.92 40.58 40.51 39.67 38.30 36.39 34.95 33.93 32.70 31.25 30.22 29.67 29.64 30.38 30.79 30.88 30.62 29.67 28.39 27.23 24.16 23.19 23.93 24.51 24.95 24.16 23.01 21.96 21.80 20.95 19.47
35.44 35.40 34.01 33.05 32.77 32.50 32.47 31.47 32.87 34.08 34.18 34.64 34.49 34.98 35.08 34.88 34.89 33.84 32.84 31.89 31.90 30.60 29.53 28.64 27.61 27.32 28.40 28.35 28.81 27.96 26.66 25.55 23.36 23.59 24.15 24.05 23.11 21.88 20.56 20.07 19.07 18.03 17.13
33.49 33.41 32.27 30.73 29.97 30.53 30.37 30.61 31.03 31.37 31.10 30.18 30.92 31.87 32.17 32.01 32.34 32.27 31.88 31.19 30.10 29.17 28.15 26.55 25.10 24.89 24.93 24.84 25.35 24.88 24.83 25.04 22.59 20.52 18.49 18.17 18.42 16.97 16.75 16.57 16.44 16.47 17.38
31.00 31.44 30.29 28.92 28.39 28.83 28.23 29.49 30.08 30.28 29.57 28.73 29.04 29.10 28.91 28.31 27.80 28.26 28.27 28.44 29.67 28.95 25.91 25.52 25.50 23.44 22.51 23.12 23.10 21.36 19.56 19.15 18.52 17.80 17.60 16.07 15.79 15.13 14.55 14.31 14.83 15.54 15.33
28.18 28.38 28.72 27.35 26.88 26.96 26.89 27.43 28.53 29.22 28.37 27.16 26.65 26.91 27.22 27.91 27.64 27.11 27.12 29.87 28.90 28.60 28.18 27.29 25.47 24.55 25.29 25.75 25.17 24.43 23.24 22.19 20.92 19.07 16.77 14.93 15.09 14.16 13.04 12.68 12.31 13.09 12.28

GFSMW_sfc_wetblb_120.txt.gz
Wetbulb
53.15 54.43 58.38 60.53 61.57 62.50 62.39 63.14 63.42 65.08 66.51 66.02 65.55 63.68 62.38 62.17 62.81 64.25 65.19 64.22 65.58 64.74 63.80 63.27 62.67 61.59 60.51 60.05 60.82 60.78 63.10 62.13 63.19 61.05 59.94 60.45 62.42 62.55 61.14 61.78 62.20 61.60 61.95
52.38 56.15 58.49 59.96 60.92 62.57 63.21 63.81 64.38 65.61 66.34 65.03 64.85 64.48 63.70 63.56 63.59 62.87 64.20 63.52 64.13 64.87 63.67 63.20 62.00 61.06 60.06 59.64 59.85 60.45 61.56 61.99 63.28 59.54 59.28 54.88 57.27 60.11 60.72 61.35 61.59 61.75 61.93
54.00 56.07 57.77 59.19 60.56 61.80 63.35 63.60 64.62 65.28 65.41 66.14 64.26 65.06 64.18 63.92 61.61 62.11 62.10 63.09 65.02 65.42 64.39 63.21 61.49 60.40 60.01 58.39 58.83 60.10 59.66 60.34 61.73 62.86 59.15 55.52 54.19 57.40 60.30 60.60 61.37 61.66 61.51
55.50 56.25 57.09 58.16 59.29 62.01 63.95 64.18 64.57 64.52 62.96 64.53 63.44 64.31 63.47 62.56 63.55 63.46 63.79 64.41 65.09 64.51 62.96 62.15 61.65 60.23 59.96 59.03 58.45 59.49 60.50 62.80 60.40 61.95 61.30 61.54 60.40 56.24 54.75 58.99 60.73 61.61 60.92
55.05 54.73 55.88 57.60 58.86 61.32 63.30 64.17 64.15 62.38 62.52 63.44 65.41 65.10 64.92 64.68 64.61 62.41 63.09 63.88 62.15 62.27 63.00 61.63 59.62 59.75 59.37 59.36 58.90 59.31 62.54 62.99 61.64 61.39 60.18 60.69 60.87 60.59 57.86 54.87 57.38 60.14 61.27
53.70 54.78 56.33 57.74 58.37 60.13 61.74 61.89 61.72 61.48 61.82 62.76 64.79 64.93 65.16 63.93 63.56 62.70 63.26 63.31 60.50 60.12 60.25 58.90 58.37 57.99 58.25 58.20 58.35 58.91 61.48 62.50 62.79 61.66 61.39 59.95 58.59 58.61 58.43 57.18 57.27 57.46 59.62
53.53 54.40 55.24 56.45 57.80 59.15 59.89 60.44 59.15 59.64 60.17 60.81 62.83 63.96 63.84 63.72 62.72 62.98 62.84 62.52 60.73 58.86 58.18 58.31 56.96 56.72 57.02 57.35 58.30 58.31 61.90 62.02 62.47 62.27 61.73 61.09 60.14 60.18 59.31 58.35 57.72 56.73 58.18
53.22 53.71 55.33 56.91 57.91 59.10 61.25 60.84 60.41 58.76 59.61 59.78 60.85 62.61 63.44 62.44 62.32 63.20 62.91 62.30 61.31 60.69 60.00 58.58 57.47 55.92 55.88 56.59 57.03 57.86 60.81 62.49 62.99 62.71 62.58 61.29 60.96 60.92 60.04 58.75 57.73 55.43 55.15
52.30 53.35 54.35 56.42 57.31 57.82 59.17 61.36 60.57 60.28 59.32 59.08 60.10 61.11 62.27 63.86 63.15 63.70 63.78 64.04 62.41 61.49 61.57 60.69 58.67 57.46 55.86 55.50 56.72 58.01 59.21 60.26 62.48 62.77 63.25 61.73 61.19 61.48 61.14 59.83 58.85 56.22 52.07
51.10 52.66 53.82 55.25 56.13 56.84 57.26 56.54 61.31 59.63 59.36 58.97 59.73 62.01 62.72 63.84 63.88 63.22 63.76 63.77 62.32 62.15 61.11 60.09 59.73 58.66 58.06 56.63 56.47 57.12 58.26 59.21 59.65 62.02 62.03 62.02 60.67 60.32 60.48 59.75 59.21 58.69 56.12
49.67 52.08 53.69 54.39 55.33 56.68 56.84 55.47 56.69 58.42 58.31 58.95 59.08 61.63 61.82 62.49 63.18 60.95 61.23 61.77 61.15 60.69 60.35 60.63 59.93 59.27 58.59 58.62 57.43 56.43 57.27 58.67 59.36 60.74 60.82 60.01 59.38 58.55 58.62 58.50 57.50 56.89 56.41
50.28 51.91 52.94 54.14 54.70 55.23 55.64 55.04 52.07 57.53 58.12 58.84 59.10 60.53 61.90 62.14 62.25 61.19 61.54 61.60 60.59 62.57 62.28 60.93 60.45 59.79 57.83 57.98 57.62 56.58 57.99 59.67 59.00 58.74 58.17 57.79 57.39 57.59 57.08 56.95 57.05 55.50 55.86
49.46 51.24 52.69 53.32 53.57 53.98 54.28 54.00 51.60 51.37 57.83 58.47 58.99 59.48 61.09 60.80 60.56 60.46 61.13 60.24 59.80 60.11 60.02 60.30 59.91 59.70 59.51 58.28 57.93 57.40 56.34 56.47 56.48 56.74 56.61 56.96 55.43 54.95 55.31 54.95 54.81 54.67 54.08
47.42 50.49 52.31 53.61 53.74 53.29 52.82 52.65 49.29 49.85 56.79 57.65 58.20 58.86 59.86 59.75 59.98 61.22 59.92 59.51 59.34 59.42 58.76 59.30 59.26 58.92 58.58 59.05 58.31 57.71 56.51 55.77 55.40 55.20 54.93 54.91 54.71 54.87 54.87 54.41 54.30 53.02 49.73
46.49 50.35 52.22 53.58 53.36 51.79 51.16 49.71 48.20 49.27 52.89 56.46 57.43 58.19 59.19 60.47 60.75 60.96 59.16 59.33 59.43 58.63 58.40 58.72 58.33 56.82 57.28 57.34 57.62 56.96 55.94 54.36 48.53 43.85 42.19 41.17 42.49 41.64 44.43 48.28 45.26 45.00 40.94
49.06 51.09 51.36 51.12 49.97 49.24 47.46 45.98 47.04 47.65 48.68 55.94 56.38 58.47 59.07 59.31 59.93 60.13 58.80 58.38 57.81 57.48 57.11 57.13 54.04 50.87 46.53 40.85 42.66 45.80 43.84 40.66 38.14 35.55 34.78 34.66 34.91 33.68 33.47 33.29 33.07 36.09 36.50
48.91 48.98 48.88 48.51 48.63 48.85 46.53 44.31 45.31 47.04 47.89 53.06 56.61 57.95 58.87 58.71 59.54 58.96 58.25 56.91 55.06 52.33 47.90 46.38 45.16 42.22 40.89 38.89 39.22 38.73 38.62 36.78 35.67 34.18 32.81 31.55 31.55 30.52 29.20 29.15 28.62 28.21 28.50
46.84 47.19 47.16 46.73 47.31 47.38 47.25 44.13 44.30 45.84 47.83 49.94 55.98 57.28 57.89 57.66 58.81 57.77 56.21 51.18 48.90 46.17 42.53 39.89 39.82 38.33 37.37 36.56 35.93 35.23 34.35 33.29 32.89 32.25 31.48 29.88 28.90 28.90 27.35 25.23 23.73 23.20 23.75
45.58 45.89 45.96 45.00 45.02 43.71 42.57 42.34 43.84 44.06 45.04 49.15 55.11 56.14 56.99 56.55 56.96 52.75 49.28 45.38 41.90 40.18 38.79 37.86 37.07 36.10 35.60 35.28 34.71 33.99 32.34 31.10 30.22 30.21 30.06 29.40 28.40 29.40 29.73 25.32 23.14 22.66 23.01
42.97 42.62 42.88 42.74 41.17 39.16 39.42 40.76 39.77 39.35 38.90 41.01 50.07 55.56 55.78 55.44 51.13 46.22 42.46 40.98 38.34 35.95 35.85 34.66 35.12 34.84 34.61 34.79 34.49 33.69 31.82 29.70 28.20 27.86 28.09 28.57 27.37 27.03 26.34 23.76 22.42 19.55 19.44
40.20 40.05 40.18 38.26 36.64 36.19 36.51 36.73 36.57 36.11 37.39 39.19 41.05 54.06 54.14 50.17 45.46 41.55 39.11 37.20 34.90 33.82 33.02 32.65 33.49 33.83 33.80 33.82 33.73 32.79 30.48 28.86 27.42 26.51 26.27 26.84 26.93 26.20 25.44 24.45 22.43 20.45 21.29
37.62 37.40 36.37 35.18 34.74 33.79 33.91 33.28 32.29 34.04 35.97 37.57 37.41 45.37 45.79 42.71 40.38 37.77 36.36 35.36 33.83 31.85 30.98 30.26 29.87 30.87 31.54 31.89 31.63 30.86 29.80 29.27 26.81 25.33 25.70 25.46 25.59 24.83 24.04 23.15 23.06 22.43 21.81
35.25 35.70 34.36 33.21 32.53 31.75 31.29 30.64 31.60 32.41 34.99 34.72 34.55 33.74 37.71 38.37 37.72 35.81 34.36 33.62 33.28 31.60 29.82 28.71 27.46 27.37 28.61 28.93 29.09 28.51 27.33 26.31 24.13 24.29 24.71 24.72 24.18 23.72 22.46 22.52 22.28 21.66 21.92
33.44 34.30 33.86 32.18 29.84 29.47 29.41 29.79 31.22 31.67 32.30 32.25 31.96 33.04 31.95 32.31 33.29 33.61 33.58 32.98 31.96 30.64 28.94 27.71 26.64 26.36 26.27 26.41 26.82 26.04 25.68 25.95 23.99 22.51 20.67 19.99 20.20 19.59 20.11 20.89 21.64 22.21 22.85
31.89 32.70 31.58 31.28 29.32 27.98 27.70 29.05 30.12 31.32 29.76 30.78 31.23 31.37 31.62 29.55 29.30 30.73 30.60 29.77 30.35 29.67 27.47 26.30 25.47 24.06 23.17 24.71 25.15 23.01 20.14 19.08 18.42 18.51 19.39 19.96 19.87 20.17 20.19 20.24 20.87 21.78 21.52
29.57 29.45 29.53 29.70 29.67 26.50 25.93 27.34 29.32 30.16 29.19 28.44 28.65 28.91 29.76 29.51 28.54 27.45 26.84 29.87 29.19 29.22 28.87 28.02 25.84 24.97 25.68 25.83 24.93 23.91 23.15 22.96 23.19 22.68 21.95 20.75 21.65 21.08 19.92 18.89 17.83 18.24 17.51